<?xml version='1.0' encoding='UTF-8'?><gpx version="1.1" creator="JPX - https://github.com/jenetics/jpx" xmlns="http://www.topografix.com/GPX/1/1"><trk><trkseg><trkpt lat="44.4767567" lon="11.6304922"><ele>28.0</ele><time>2026-03-28T13:57:59.224Z</time></trkpt><trkpt lat="44.4766932" lon="11.6306404"><ele>27.999999999999996</ele><time>2026-03-28T13:58:50.157Z</time></trkpt><trkpt lat="44.4766605" lon="11.6307324"><ele>27.999999999999996</ele><time>2026-03-28T13:58:51.172Z</time></trkpt><trkpt lat="44.4766246" lon="11.6308253"><ele>28.0</ele><time>2026-03-28T13:58:52.163Z</time></trkpt><trkpt lat="44.4765948" lon="11.6309074"><ele>28.0</ele><time>2026-03-28T13:58:53.179Z</time></trkpt><trkpt lat="44.4765276" lon="11.6310328"><ele>28.000000000000004</ele><time>2026-03-28T13:58:55.176Z</time></trkpt><trkpt lat="44.4764364" lon="11.6310276"><ele>28.0</ele><time>2026-03-28T13:58:57.157Z</time></trkpt><trkpt lat="44.4763833" lon="11.6309741"><ele>28.0</ele><time>2026-03-28T13:58:58.17Z</time></trkpt><trkpt lat="44.4763265" lon="11.6309149"><ele>28.0</ele><time>2026-03-28T13:58:59.177Z</time></trkpt><trkpt lat="44.4762666" lon="11.6308677"><ele>28.000000000000004</ele><time>2026-03-28T13:59:00.181Z</time></trkpt><trkpt lat="44.4762018" lon="11.6308158"><ele>28.0</ele><time>2026-03-28T13:59:01.157Z</time></trkpt><trkpt lat="44.4761224" lon="11.6307454"><ele>27.799999999999997</ele><time>2026-03-28T13:59:02.169Z</time></trkpt><trkpt lat="44.4760421" lon="11.6306633"><ele>27.599999999999998</ele><time>2026-03-28T13:59:03.176Z</time></trkpt><trkpt lat="44.4759637" lon="11.6305884"><ele>27.400000000000002</ele><time>2026-03-28T13:59:04.158Z</time></trkpt><trkpt lat="44.4758717" lon="11.6305111"><ele>27.200000000000003</ele><time>2026-03-28T13:59:05.152Z</time></trkpt><trkpt lat="44.4757805" lon="11.6304362"><ele>27.0</ele><time>2026-03-28T13:59:06.163Z</time></trkpt><trkpt lat="44.475695" lon="11.6303641"><ele>27.0</ele><time>2026-03-28T13:59:07.155Z</time></trkpt><trkpt lat="44.4756121" lon="11.6302941"><ele>27.0</ele><time>2026-03-28T13:59:08.166Z</time></trkpt><trkpt lat="44.4755494" lon="11.6302336"><ele>27.0</ele><time>2026-03-28T13:59:09.153Z</time></trkpt><trkpt lat="44.4754926" lon="11.6301842"><ele>27.0</ele><time>2026-03-28T13:59:10.167Z</time></trkpt><trkpt lat="44.4754202" lon="11.6301241"><ele>27.0</ele><time>2026-03-28T13:59:12.174Z</time></trkpt><trkpt lat="44.4754159" lon="11.630019"><ele>27.0</ele><time>2026-03-28T13:59:20.164Z</time></trkpt><trkpt lat="44.4754716" lon="11.6298462"><ele>26.8</ele><time>2026-03-28T13:59:22.154Z</time></trkpt><trkpt lat="44.4754979" lon="11.6297418"><ele>26.6</ele><time>2026-03-28T13:59:23.178Z</time></trkpt><trkpt lat="44.475526" lon="11.629642"><ele>26.400000000000002</ele><time>2026-03-28T13:59:24.153Z</time></trkpt><trkpt lat="44.4755579" lon="11.6295357"><ele>26.200000000000003</ele><time>2026-03-28T13:59:25.16Z</time></trkpt><trkpt lat="44.4756085" lon="11.6293833"><ele>26.0</ele><time>2026-03-28T13:59:27.171Z</time></trkpt><trkpt lat="44.4756456" lon="11.6292495"><ele>25.999999999999996</ele><time>2026-03-28T13:59:29.159Z</time></trkpt><trkpt lat="44.4756794" lon="11.6291395"><ele>26.0</ele><time>2026-03-28T13:59:31.158Z</time></trkpt><trkpt lat="44.4757167" lon="11.629064"><ele>26.0</ele><time>2026-03-28T13:59:35.17Z</time></trkpt><trkpt lat="44.4758156" lon="11.6290456"><ele>26.0</ele><time>2026-03-28T13:59:38.161Z</time></trkpt><trkpt lat="44.4758822" lon="11.6290754"><ele>25.999999999999996</ele><time>2026-03-28T13:59:39.175Z</time></trkpt><trkpt lat="44.4759548" lon="11.629126"><ele>26.0</ele><time>2026-03-28T13:59:40.165Z</time></trkpt><trkpt lat="44.4760435" lon="11.629191"><ele>26.0</ele><time>2026-03-28T13:59:41.163Z</time></trkpt><trkpt lat="44.4761325" lon="11.6292538"><ele>26.0</ele><time>2026-03-28T13:59:42.153Z</time></trkpt><trkpt lat="44.4762304" lon="11.6293274"><ele>26.0</ele><time>2026-03-28T13:59:43.155Z</time></trkpt><trkpt lat="44.4763333" lon="11.6293984"><ele>26.0</ele><time>2026-03-28T13:59:44.166Z</time></trkpt><trkpt lat="44.4764419" lon="11.629472"><ele>26.0</ele><time>2026-03-28T13:59:45.163Z</time></trkpt><trkpt lat="44.4765551" lon="11.6295532"><ele>25.75</ele><time>2026-03-28T13:59:46.157Z</time></trkpt><trkpt lat="44.4766779" lon="11.6296431"><ele>25.5</ele><time>2026-03-28T13:59:47.158Z</time></trkpt><trkpt lat="44.4768059" lon="11.6297369"><ele>25.25</ele><time>2026-03-28T13:59:48.175Z</time></trkpt><trkpt lat="44.4769448" lon="11.6298376"><ele>25.0</ele><time>2026-03-28T13:59:49.181Z</time></trkpt><trkpt lat="44.4770826" lon="11.6299368"><ele>24.666666666666668</ele><time>2026-03-28T13:59:50.163Z</time></trkpt><trkpt lat="44.4772223" lon="11.6300401"><ele>24.333333333333336</ele><time>2026-03-28T13:59:51.15Z</time></trkpt><trkpt lat="44.4773696" lon="11.6301434"><ele>24.0</ele><time>2026-03-28T13:59:52.157Z</time></trkpt><trkpt lat="44.477526" lon="11.6302494"><ele>24.333333333333336</ele><time>2026-03-28T13:59:53.172Z</time></trkpt><trkpt lat="44.4776773" lon="11.6303562"><ele>24.666666666666668</ele><time>2026-03-28T13:59:54.158Z</time></trkpt><trkpt lat="44.4778278" lon="11.6304701"><ele>25.0</ele><time>2026-03-28T13:59:55.166Z</time></trkpt><trkpt lat="44.4779666" lon="11.6305822"><ele>24.333333333333336</ele><time>2026-03-28T13:59:56.167Z</time></trkpt><trkpt lat="44.478111" lon="11.6306892"><ele>23.666666666666668</ele><time>2026-03-28T13:59:57.168Z</time></trkpt><trkpt lat="44.4782567" lon="11.6308031"><ele>23.0</ele><time>2026-03-28T13:59:58.172Z</time></trkpt><trkpt lat="44.4783967" lon="11.6309105"><ele>23.0</ele><time>2026-03-28T13:59:59.161Z</time></trkpt><trkpt lat="44.4785388" lon="11.6310133"><ele>23.0</ele><time>2026-03-28T14:00:00.161Z</time></trkpt><trkpt lat="44.4786808" lon="11.6310986"><ele>23.0</ele><time>2026-03-28T14:00:01.156Z</time></trkpt><trkpt lat="44.4788187" lon="11.6311562"><ele>22.75</ele><time>2026-03-28T14:00:02.165Z</time></trkpt><trkpt lat="44.4789503" lon="11.6311768"><ele>22.5</ele><time>2026-03-28T14:00:03.155Z</time></trkpt><trkpt lat="44.4790834" lon="11.6311835"><ele>22.25</ele><time>2026-03-28T14:00:04.166Z</time></trkpt><trkpt lat="44.4792109" lon="11.6312006"><ele>22.0</ele><time>2026-03-28T14:00:05.172Z</time></trkpt><trkpt lat="44.4793299" lon="11.6312348"><ele>22.0</ele><time>2026-03-28T14:00:06.16Z</time></trkpt><trkpt lat="44.4794466" lon="11.6313009"><ele>22.0</ele><time>2026-03-28T14:00:07.172Z</time></trkpt><trkpt lat="44.4795587" lon="11.6313758"><ele>22.0</ele><time>2026-03-28T14:00:08.175Z</time></trkpt><trkpt lat="44.4796649" lon="11.6314493"><ele>22.0</ele><time>2026-03-28T14:00:09.155Z</time></trkpt><trkpt lat="44.479779" lon="11.6314869"><ele>21.75</ele><time>2026-03-28T14:00:10.168Z</time></trkpt><trkpt lat="44.4799138" lon="11.6314806"><ele>21.5</ele><time>2026-03-28T14:00:11.17Z</time></trkpt><trkpt lat="44.4800054" lon="11.6314256"><ele>21.25</ele><time>2026-03-28T14:00:12.154Z</time></trkpt><trkpt lat="44.48008" lon="11.6313297"><ele>21.0</ele><time>2026-03-28T14:00:13.157Z</time></trkpt><trkpt lat="44.4801472" lon="11.6311754"><ele>21.200000000000003</ele><time>2026-03-28T14:00:14.177Z</time></trkpt><trkpt lat="44.48017" lon="11.6310324"><ele>21.400000000000002</ele><time>2026-03-28T14:00:15.165Z</time></trkpt><trkpt lat="44.4801689" lon="11.6308819"><ele>21.6</ele><time>2026-03-28T14:00:16.182Z</time></trkpt><trkpt lat="44.4801689" lon="11.6307401"><ele>21.8</ele><time>2026-03-28T14:00:17.155Z</time></trkpt><trkpt lat="44.4801856" lon="11.6306062"><ele>22.0</ele><time>2026-03-28T14:00:18.159Z</time></trkpt><trkpt lat="44.4802259" lon="11.6305046"><ele>22.0</ele><time>2026-03-28T14:00:19.152Z</time></trkpt><trkpt lat="44.4802898" lon="11.6304259"><ele>22.0</ele><time>2026-03-28T14:00:20.167Z</time></trkpt><trkpt lat="44.4803712" lon="11.630377"><ele>22.0</ele><time>2026-03-28T14:00:21.171Z</time></trkpt><trkpt lat="44.4804549" lon="11.6303505"><ele>22.0</ele><time>2026-03-28T14:00:22.182Z</time></trkpt><trkpt lat="44.4805366" lon="11.6303252"><ele>22.0</ele><time>2026-03-28T14:00:23.157Z</time></trkpt><trkpt lat="44.4806091" lon="11.6302897"><ele>22.0</ele><time>2026-03-28T14:00:24.184Z</time></trkpt><trkpt lat="44.4806545" lon="11.6301691"><ele>22.25</ele><time>2026-03-28T14:00:26.169Z</time></trkpt><trkpt lat="44.4806501" lon="11.6300483"><ele>22.5</ele><time>2026-03-28T14:00:28.177Z</time></trkpt><trkpt lat="44.4806028" lon="11.6299355"><ele>22.75</ele><time>2026-03-28T14:00:30.164Z</time></trkpt><trkpt lat="44.4804528" lon="11.6298072"><ele>23.0</ele><time>2026-03-28T14:00:31.525Z</time></trkpt><trkpt lat="44.4803663" lon="11.6297223"><ele>23.0</ele><time>2026-03-28T14:00:33.238Z</time></trkpt><trkpt lat="44.4805116" lon="11.629866"><ele>23.0</ele><time>2026-03-28T14:00:34.223Z</time></trkpt><trkpt lat="44.4805974" lon="11.6298759"><ele>23.0</ele><time>2026-03-28T14:00:37.231Z</time></trkpt><trkpt lat="44.4806542" lon="11.6299199"><ele>23.0</ele><time>2026-03-28T14:00:40.233Z</time></trkpt><trkpt lat="44.4807504" lon="11.6300211"><ele>23.0</ele><time>2026-03-28T14:00:51.215Z</time></trkpt><trkpt lat="44.4807875" lon="11.6299305"><ele>23.0</ele><time>2026-03-28T14:03:58.215Z</time></trkpt><trkpt lat="44.4807892" lon="11.6297989"><ele>23.0</ele><time>2026-03-28T14:04:00.227Z</time></trkpt><trkpt lat="44.4807667" lon="11.6297051"><ele>23.0</ele><time>2026-03-28T14:04:02.223Z</time></trkpt><trkpt lat="44.4807752" lon="11.629555"><ele>23.0</ele><time>2026-03-28T14:04:04.226Z</time></trkpt><trkpt lat="44.4808002" lon="11.6294602"><ele>23.0</ele><time>2026-03-28T14:04:05.222Z</time></trkpt><trkpt lat="44.4808345" lon="11.6293685"><ele>23.0</ele><time>2026-03-28T14:04:06.225Z</time></trkpt><trkpt lat="44.4808764" lon="11.6292448"><ele>23.25</ele><time>2026-03-28T14:04:07.223Z</time></trkpt><trkpt lat="44.4809291" lon="11.6291015"><ele>23.5</ele><time>2026-03-28T14:04:08.234Z</time></trkpt><trkpt lat="44.4809821" lon="11.6289567"><ele>23.75</ele><time>2026-03-28T14:04:09.241Z</time></trkpt><trkpt lat="44.4810367" lon="11.6288092"><ele>24.0</ele><time>2026-03-28T14:04:10.223Z</time></trkpt><trkpt lat="44.4810967" lon="11.6286505"><ele>23.5</ele><time>2026-03-28T14:04:11.251Z</time></trkpt><trkpt lat="44.4811585" lon="11.6284935"><ele>23.0</ele><time>2026-03-28T14:04:12.228Z</time></trkpt><trkpt lat="44.4812252" lon="11.6283255"><ele>22.5</ele><time>2026-03-28T14:04:13.234Z</time></trkpt><trkpt lat="44.481292" lon="11.6281505"><ele>22.0</ele><time>2026-03-28T14:04:14.231Z</time></trkpt><trkpt lat="44.4813611" lon="11.6279692"><ele>22.333333333333332</ele><time>2026-03-28T14:04:15.229Z</time></trkpt><trkpt lat="44.4814313" lon="11.62778"><ele>22.666666666666668</ele><time>2026-03-28T14:04:16.22Z</time></trkpt><trkpt lat="44.4815092" lon="11.6275753"><ele>23.0</ele><time>2026-03-28T14:04:17.258Z</time></trkpt><trkpt lat="44.4815857" lon="11.6273803"><ele>23.0</ele><time>2026-03-28T14:04:18.221Z</time></trkpt><trkpt lat="44.4816678" lon="11.6271699"><ele>23.0</ele><time>2026-03-28T14:04:19.225Z</time></trkpt><trkpt lat="44.4817512" lon="11.6269547"><ele>23.0</ele><time>2026-03-28T14:04:20.221Z</time></trkpt><trkpt lat="44.4818376" lon="11.6267293"><ele>23.666666666666668</ele><time>2026-03-28T14:04:21.248Z</time></trkpt><trkpt lat="44.4819253" lon="11.6264993"><ele>24.333333333333336</ele><time>2026-03-28T14:04:22.236Z</time></trkpt><trkpt lat="44.4820189" lon="11.6262578"><ele>25.0</ele><time>2026-03-28T14:04:23.241Z</time></trkpt><trkpt lat="44.4821129" lon="11.6260175"><ele>25.0</ele><time>2026-03-28T14:04:24.221Z</time></trkpt><trkpt lat="44.4822088" lon="11.6257689"><ele>25.0</ele><time>2026-03-28T14:04:25.229Z</time></trkpt><trkpt lat="44.4823006" lon="11.6255262"><ele>25.0</ele><time>2026-03-28T14:04:26.215Z</time></trkpt><trkpt lat="44.4823944" lon="11.6252788"><ele>25.333333333333336</ele><time>2026-03-28T14:04:27.229Z</time></trkpt><trkpt lat="44.4824854" lon="11.6250357"><ele>25.666666666666664</ele><time>2026-03-28T14:04:28.237Z</time></trkpt><trkpt lat="44.4825759" lon="11.624801"><ele>26.0</ele><time>2026-03-28T14:04:29.236Z</time></trkpt><trkpt lat="44.4826646" lon="11.6245725"><ele>26.0</ele><time>2026-03-28T14:04:30.232Z</time></trkpt><trkpt lat="44.4827526" lon="11.624346"><ele>26.0</ele><time>2026-03-28T14:04:31.236Z</time></trkpt><trkpt lat="44.4828409" lon="11.624122"><ele>26.0</ele><time>2026-03-28T14:04:32.238Z</time></trkpt><trkpt lat="44.4829249" lon="11.6239049"><ele>25.333333333333332</ele><time>2026-03-28T14:04:33.221Z</time></trkpt><trkpt lat="44.4830103" lon="11.6236847"><ele>24.666666666666664</ele><time>2026-03-28T14:04:34.223Z</time></trkpt><trkpt lat="44.4830944" lon="11.6234693"><ele>24.0</ele><time>2026-03-28T14:04:35.216Z</time></trkpt><trkpt lat="44.4831802" lon="11.6232502"><ele>24.0</ele><time>2026-03-28T14:04:36.252Z</time></trkpt><trkpt lat="44.4832567" lon="11.6230538"><ele>24.0</ele><time>2026-03-28T14:04:37.226Z</time></trkpt><trkpt lat="44.4833322" lon="11.6228589"><ele>24.0</ele><time>2026-03-28T14:04:38.232Z</time></trkpt><trkpt lat="44.4834029" lon="11.6226736"><ele>24.0</ele><time>2026-03-28T14:04:39.214Z</time></trkpt><trkpt lat="44.4834739" lon="11.6224858"><ele>24.0</ele><time>2026-03-28T14:04:40.221Z</time></trkpt><trkpt lat="44.4835412" lon="11.6223147"><ele>24.0</ele><time>2026-03-28T14:04:41.222Z</time></trkpt><trkpt lat="44.4836091" lon="11.622165"><ele>24.0</ele><time>2026-03-28T14:04:42.244Z</time></trkpt><trkpt lat="44.4836828" lon="11.6220511"><ele>23.75</ele><time>2026-03-28T14:04:43.21Z</time></trkpt><trkpt lat="44.4837653" lon="11.6219611"><ele>23.5</ele><time>2026-03-28T14:04:44.178Z</time></trkpt><trkpt lat="44.4838678" lon="11.6218915"><ele>23.25</ele><time>2026-03-28T14:04:45.17Z</time></trkpt><trkpt lat="44.4839807" lon="11.6218203"><ele>23.0</ele><time>2026-03-28T14:04:46.169Z</time></trkpt><trkpt lat="44.4840852" lon="11.6217241"><ele>23.0</ele><time>2026-03-28T14:04:47.169Z</time></trkpt><trkpt lat="44.484164" lon="11.6215864"><ele>23.0</ele><time>2026-03-28T14:04:48.152Z</time></trkpt><trkpt lat="44.4841631" lon="11.6214554"><ele>23.0</ele><time>2026-03-28T14:04:49.175Z</time></trkpt><trkpt lat="44.4841454" lon="11.6212642"><ele>23.0</ele><time>2026-03-28T14:04:50.169Z</time></trkpt><trkpt lat="44.4840624" lon="11.6211059"><ele>23.0</ele><time>2026-03-28T14:04:51.181Z</time></trkpt><trkpt lat="44.4839641" lon="11.6210581"><ele>23.0</ele><time>2026-03-28T14:04:52.172Z</time></trkpt><trkpt lat="44.4838087" lon="11.6209645"><ele>23.0</ele><time>2026-03-28T14:04:53.488Z</time></trkpt><trkpt lat="44.4836441" lon="11.6208342"><ele>23.0</ele><time>2026-03-28T14:04:55.238Z</time></trkpt><trkpt lat="44.4835349" lon="11.6207484"><ele>23.0</ele><time>2026-03-28T14:04:56.216Z</time></trkpt><trkpt lat="44.4833963" lon="11.6206553"><ele>23.0</ele><time>2026-03-28T14:04:57.231Z</time></trkpt><trkpt lat="44.4832499" lon="11.6205621"><ele>23.0</ele><time>2026-03-28T14:04:58.215Z</time></trkpt><trkpt lat="44.4830926" lon="11.6204683"><ele>23.0</ele><time>2026-03-28T14:04:59.218Z</time></trkpt><trkpt lat="44.4829099" lon="11.6203839"><ele>23.0</ele><time>2026-03-28T14:05:00.224Z</time></trkpt><trkpt lat="44.4827207" lon="11.6202995"><ele>23.0</ele><time>2026-03-28T14:05:01.239Z</time></trkpt><trkpt lat="44.4825323" lon="11.620222"><ele>23.0</ele><time>2026-03-28T14:05:02.218Z</time></trkpt><trkpt lat="44.4823303" lon="11.6201577"><ele>23.0</ele><time>2026-03-28T14:05:03.229Z</time></trkpt><trkpt lat="44.4821376" lon="11.6200846"><ele>23.0</ele><time>2026-03-28T14:05:04.221Z</time></trkpt><trkpt lat="44.4819387" lon="11.6199892"><ele>22.0</ele><time>2026-03-28T14:05:05.239Z</time></trkpt><trkpt lat="44.4817663" lon="11.6198735"><ele>21.0</ele><time>2026-03-28T14:05:06.24Z</time></trkpt><trkpt lat="44.4815932" lon="11.6197576"><ele>20.0</ele><time>2026-03-28T14:05:07.224Z</time></trkpt><trkpt lat="44.4814145" lon="11.6196325"><ele>21.333333333333336</ele><time>2026-03-28T14:05:08.223Z</time></trkpt><trkpt lat="44.4812348" lon="11.6195"><ele>22.666666666666668</ele><time>2026-03-28T14:05:09.221Z</time></trkpt><trkpt lat="44.4810605" lon="11.6193711"><ele>24.0</ele><time>2026-03-28T14:05:10.178Z</time></trkpt><trkpt lat="44.4808904" lon="11.6192428"><ele>24.0</ele><time>2026-03-28T14:05:11.156Z</time></trkpt><trkpt lat="44.4807004" lon="11.6191043"><ele>24.0</ele><time>2026-03-28T14:05:12.184Z</time></trkpt><trkpt lat="44.4805197" lon="11.6189692"><ele>24.0</ele><time>2026-03-28T14:05:13.162Z</time></trkpt><trkpt lat="44.4803326" lon="11.6188266"><ele>24.333333333333336</ele><time>2026-03-28T14:05:14.175Z</time></trkpt><trkpt lat="44.4801492" lon="11.6186873"><ele>24.666666666666668</ele><time>2026-03-28T14:05:15.159Z</time></trkpt><trkpt lat="44.4799528" lon="11.6185323"><ele>25.0</ele><time>2026-03-28T14:05:16.182Z</time></trkpt><trkpt lat="44.4797622" lon="11.6183816"><ele>24.666666666666668</ele><time>2026-03-28T14:05:17.174Z</time></trkpt><trkpt lat="44.4795692" lon="11.6182331"><ele>24.333333333333336</ele><time>2026-03-28T14:05:18.164Z</time></trkpt><trkpt lat="44.4793733" lon="11.6180889"><ele>24.0</ele><time>2026-03-28T14:05:19.162Z</time></trkpt><trkpt lat="44.4791753" lon="11.6179468"><ele>24.666666666666664</ele><time>2026-03-28T14:05:20.193Z</time></trkpt><trkpt lat="44.4789873" lon="11.6178099"><ele>25.333333333333332</ele><time>2026-03-28T14:05:21.166Z</time></trkpt><trkpt lat="44.4788019" lon="11.6176726"><ele>26.0</ele><time>2026-03-28T14:05:22.17Z</time></trkpt><trkpt lat="44.478619" lon="11.6175368"><ele>26.0</ele><time>2026-03-28T14:05:23.171Z</time></trkpt><trkpt lat="44.4784301" lon="11.6173936"><ele>26.0</ele><time>2026-03-28T14:05:24.174Z</time></trkpt><trkpt lat="44.4782434" lon="11.6172501"><ele>26.0</ele><time>2026-03-28T14:05:25.165Z</time></trkpt><trkpt lat="44.4780444" lon="11.6171062"><ele>25.0</ele><time>2026-03-28T14:05:26.179Z</time></trkpt><trkpt lat="44.477851" lon="11.6169639"><ele>24.0</ele><time>2026-03-28T14:05:27.16Z</time></trkpt><trkpt lat="44.477651" lon="11.6168157"><ele>23.0</ele><time>2026-03-28T14:05:28.164Z</time></trkpt><trkpt lat="44.4774499" lon="11.6166731"><ele>23.0</ele><time>2026-03-28T14:05:29.158Z</time></trkpt><trkpt lat="44.4772375" lon="11.6165295"><ele>23.0</ele><time>2026-03-28T14:05:30.172Z</time></trkpt><trkpt lat="44.4770259" lon="11.6163985"><ele>23.0</ele><time>2026-03-28T14:05:31.165Z</time></trkpt><trkpt lat="44.4768082" lon="11.6162808"><ele>23.0</ele><time>2026-03-28T14:05:32.162Z</time></trkpt><trkpt lat="44.4765796" lon="11.616175"><ele>23.5</ele><time>2026-03-28T14:05:33.169Z</time></trkpt><trkpt lat="44.4763471" lon="11.6160822"><ele>24.0</ele><time>2026-03-28T14:05:34.174Z</time></trkpt><trkpt lat="44.476117" lon="11.6160073"><ele>24.0</ele><time>2026-03-28T14:05:35.185Z</time></trkpt><trkpt lat="44.4758869" lon="11.6159498"><ele>24.0</ele><time>2026-03-28T14:05:36.187Z</time></trkpt><trkpt lat="44.4756699" lon="11.6158905"><ele>24.0</ele><time>2026-03-28T14:05:37.177Z</time></trkpt><trkpt lat="44.4754595" lon="11.615835"><ele>24.0</ele><time>2026-03-28T14:05:38.192Z</time></trkpt><trkpt lat="44.475282" lon="11.6157897"><ele>24.0</ele><time>2026-03-28T14:05:39.165Z</time></trkpt><trkpt lat="44.4751381" lon="11.6157296"><ele>24.0</ele><time>2026-03-28T14:05:40.174Z</time></trkpt><trkpt lat="44.4750324" lon="11.6156627"><ele>24.0</ele><time>2026-03-28T14:05:41.175Z</time></trkpt><trkpt lat="44.4749384" lon="11.615599"><ele>24.0</ele><time>2026-03-28T14:05:42.187Z</time></trkpt><trkpt lat="44.4748695" lon="11.6155495"><ele>24.0</ele><time>2026-03-28T14:05:43.181Z</time></trkpt><trkpt lat="44.4748068" lon="11.6155041"><ele>24.0</ele><time>2026-03-28T14:05:44.178Z</time></trkpt><trkpt lat="44.4747451" lon="11.6154604"><ele>24.0</ele><time>2026-03-28T14:05:45.171Z</time></trkpt><trkpt lat="44.4735867" lon="11.6154054"><ele>24.5</ele><time>2026-03-28T14:05:46.175Z</time></trkpt><trkpt lat="44.4733604" lon="11.6153584"><ele>25.0</ele><time>2026-03-28T14:05:47.155Z</time></trkpt><trkpt lat="44.4731271" lon="11.6153112"><ele>25.5</ele><time>2026-03-28T14:05:48.17Z</time></trkpt><trkpt lat="44.4728918" lon="11.6152821"><ele>26.0</ele><time>2026-03-28T14:05:49.168Z</time></trkpt><trkpt lat="44.4726518" lon="11.6152761"><ele>26.0</ele><time>2026-03-28T14:05:50.194Z</time></trkpt><trkpt lat="44.4724271" lon="11.6152921"><ele>26.0</ele><time>2026-03-28T14:05:51.169Z</time></trkpt><trkpt lat="44.4721936" lon="11.6153156"><ele>26.0</ele><time>2026-03-28T14:05:52.172Z</time></trkpt><trkpt lat="44.471962" lon="11.6153525"><ele>26.0</ele><time>2026-03-28T14:05:53.17Z</time></trkpt><trkpt lat="44.4717263" lon="11.6153991"><ele>26.0</ele><time>2026-03-28T14:05:54.179Z</time></trkpt><trkpt lat="44.4714974" lon="11.6154456"><ele>26.0</ele><time>2026-03-28T14:05:55.163Z</time></trkpt><trkpt lat="44.4712581" lon="11.6154997"><ele>26.0</ele><time>2026-03-28T14:05:56.17Z</time></trkpt><trkpt lat="44.4710171" lon="11.6155463"><ele>26.0</ele><time>2026-03-28T14:05:57.169Z</time></trkpt><trkpt lat="44.470773" lon="11.6155917"><ele>26.0</ele><time>2026-03-28T14:05:58.182Z</time></trkpt><trkpt lat="44.4705347" lon="11.6156343"><ele>26.0</ele><time>2026-03-28T14:05:59.159Z</time></trkpt><trkpt lat="44.4702781" lon="11.6156838"><ele>26.5</ele><time>2026-03-28T14:06:00.175Z</time></trkpt><trkpt lat="44.470033" lon="11.6157285"><ele>27.0</ele><time>2026-03-28T14:06:01.171Z</time></trkpt><trkpt lat="44.4697828" lon="11.6157784"><ele>27.5</ele><time>2026-03-28T14:06:02.177Z</time></trkpt><trkpt lat="44.4695406" lon="11.6158261"><ele>28.0</ele><time>2026-03-28T14:06:03.158Z</time></trkpt><trkpt lat="44.4692888" lon="11.6158768"><ele>28.0</ele><time>2026-03-28T14:06:04.172Z</time></trkpt><trkpt lat="44.4690467" lon="11.6159249"><ele>28.0</ele><time>2026-03-28T14:06:05.174Z</time></trkpt><trkpt lat="44.4688016" lon="11.615973"><ele>28.0</ele><time>2026-03-28T14:06:06.177Z</time></trkpt><trkpt lat="44.4685549" lon="11.6159905"><ele>28.0</ele><time>2026-03-28T14:06:07.185Z</time></trkpt><trkpt lat="44.468311" lon="11.616032"><ele>28.0</ele><time>2026-03-28T14:06:08.17Z</time></trkpt><trkpt lat="44.4680756" lon="11.6160954"><ele>28.0</ele><time>2026-03-28T14:06:09.17Z</time></trkpt><trkpt lat="44.4678428" lon="11.6161398"><ele>28.0</ele><time>2026-03-28T14:06:10.168Z</time></trkpt><trkpt lat="44.4676103" lon="11.6161717"><ele>28.0</ele><time>2026-03-28T14:06:11.176Z</time></trkpt><trkpt lat="44.4673662" lon="11.6162332"><ele>28.0</ele><time>2026-03-28T14:06:12.161Z</time></trkpt><trkpt lat="44.4671292" lon="11.6162662"><ele>28.0</ele><time>2026-03-28T14:06:13.19Z</time></trkpt><trkpt lat="44.4669077" lon="11.6162867"><ele>27.666666666666668</ele><time>2026-03-28T14:06:14.152Z</time></trkpt><trkpt lat="44.4666845" lon="11.6162774"><ele>27.333333333333336</ele><time>2026-03-28T14:06:15.174Z</time></trkpt><trkpt lat="44.4664623" lon="11.6162492"><ele>27.0</ele><time>2026-03-28T14:06:16.158Z</time></trkpt><trkpt lat="44.4662241" lon="11.616192"><ele>28.0</ele><time>2026-03-28T14:06:17.177Z</time></trkpt><trkpt lat="44.46599" lon="11.616111"><ele>29.0</ele><time>2026-03-28T14:06:18.155Z</time></trkpt><trkpt lat="44.4657479" lon="11.6160133"><ele>29.0</ele><time>2026-03-28T14:06:19.179Z</time></trkpt><trkpt lat="44.4655104" lon="11.6158894"><ele>29.0</ele><time>2026-03-28T14:06:20.168Z</time></trkpt><trkpt lat="44.4652909" lon="11.6157259"><ele>29.0</ele><time>2026-03-28T14:06:21.179Z</time></trkpt><trkpt lat="44.4650891" lon="11.615553"><ele>29.0</ele><time>2026-03-28T14:06:22.154Z</time></trkpt><trkpt lat="44.4648932" lon="11.6153646"><ele>29.5</ele><time>2026-03-28T14:06:23.16Z</time></trkpt><trkpt lat="44.4647111" lon="11.6151772"><ele>30.0</ele><time>2026-03-28T14:06:24.161Z</time></trkpt><trkpt lat="44.4645213" lon="11.6150037"><ele>30.5</ele><time>2026-03-28T14:06:25.172Z</time></trkpt><trkpt lat="44.4643383" lon="11.614833"><ele>31.0</ele><time>2026-03-28T14:06:26.174Z</time></trkpt><trkpt lat="44.464137" lon="11.614649"><ele>31.0</ele><time>2026-03-28T14:06:27.178Z</time></trkpt><trkpt lat="44.463944" lon="11.6144789"><ele>31.0</ele><time>2026-03-28T14:06:28.163Z</time></trkpt><trkpt lat="44.4637403" lon="11.6142983"><ele>31.0</ele><time>2026-03-28T14:06:29.177Z</time></trkpt><trkpt lat="44.4635474" lon="11.6141259"><ele>31.0</ele><time>2026-03-28T14:06:30.163Z</time></trkpt><trkpt lat="44.4633521" lon="11.6139558"><ele>31.0</ele><time>2026-03-28T14:06:31.163Z</time></trkpt><trkpt lat="44.4631527" lon="11.6137726"><ele>31.0</ele><time>2026-03-28T14:06:32.159Z</time></trkpt><trkpt lat="44.4629414" lon="11.6135812"><ele>30.5</ele><time>2026-03-28T14:06:33.18Z</time></trkpt><trkpt lat="44.4627322" lon="11.6133955"><ele>30.0</ele><time>2026-03-28T14:06:34.177Z</time></trkpt><trkpt lat="44.4625322" lon="11.6132073"><ele>30.0</ele><time>2026-03-28T14:06:35.169Z</time></trkpt><trkpt lat="44.4623295" lon="11.6130235"><ele>30.0</ele><time>2026-03-28T14:06:36.168Z</time></trkpt><trkpt lat="44.4621197" lon="11.6128391"><ele>31.5</ele><time>2026-03-28T14:06:37.189Z</time></trkpt><trkpt lat="44.4619235" lon="11.6126614"><ele>33.0</ele><time>2026-03-28T14:06:38.161Z</time></trkpt><trkpt lat="44.4617169" lon="11.6124809"><ele>33.0</ele><time>2026-03-28T14:06:39.172Z</time></trkpt><trkpt lat="44.4615128" lon="11.6123022"><ele>33.0</ele><time>2026-03-28T14:06:40.164Z</time></trkpt><trkpt lat="44.4613021" lon="11.6121193"><ele>32.0</ele><time>2026-03-28T14:06:41.183Z</time></trkpt><trkpt lat="44.4611009" lon="11.6119337"><ele>31.0</ele><time>2026-03-28T14:06:42.167Z</time></trkpt><trkpt lat="44.4608929" lon="11.6117466"><ele>31.0</ele><time>2026-03-28T14:06:43.179Z</time></trkpt><trkpt lat="44.4606908" lon="11.6115664"><ele>31.0</ele><time>2026-03-28T14:06:44.159Z</time></trkpt><trkpt lat="44.4604773" lon="11.6113803"><ele>32.0</ele><time>2026-03-28T14:06:45.212Z</time></trkpt><trkpt lat="44.4602801" lon="11.611203"><ele>33.0</ele><time>2026-03-28T14:06:46.171Z</time></trkpt><trkpt lat="44.4600705" lon="11.6110233"><ele>33.0</ele><time>2026-03-28T14:06:47.184Z</time></trkpt><trkpt lat="44.4598707" lon="11.6108611"><ele>33.0</ele><time>2026-03-28T14:06:48.167Z</time></trkpt><trkpt lat="44.4596598" lon="11.6107006"><ele>33.0</ele><time>2026-03-28T14:06:49.186Z</time></trkpt><trkpt lat="44.4594568" lon="11.6105513"><ele>33.0</ele><time>2026-03-28T14:06:50.161Z</time></trkpt><trkpt lat="44.4592455" lon="11.6104001"><ele>32.5</ele><time>2026-03-28T14:06:51.166Z</time></trkpt><trkpt lat="44.4590341" lon="11.6102405"><ele>32.0</ele><time>2026-03-28T14:06:52.174Z</time></trkpt><trkpt lat="44.458818" lon="11.6100861"><ele>32.5</ele><time>2026-03-28T14:06:53.171Z</time></trkpt><trkpt lat="44.458601" lon="11.6099233"><ele>33.0</ele><time>2026-03-28T14:06:54.169Z</time></trkpt><trkpt lat="44.4583936" lon="11.6097612"><ele>33.0</ele><time>2026-03-28T14:06:55.175Z</time></trkpt><trkpt lat="44.4581993" lon="11.6096049"><ele>33.0</ele><time>2026-03-28T14:06:56.165Z</time></trkpt><trkpt lat="44.4580219" lon="11.609447"><ele>33.0</ele><time>2026-03-28T14:06:57.177Z</time></trkpt><trkpt lat="44.4578514" lon="11.6093008"><ele>33.333333333333336</ele><time>2026-03-28T14:06:58.165Z</time></trkpt><trkpt lat="44.4577016" lon="11.6091587"><ele>33.66666666666667</ele><time>2026-03-28T14:06:59.16Z</time></trkpt><trkpt lat="44.4575634" lon="11.6090224"><ele>34.0</ele><time>2026-03-28T14:07:00.152Z</time></trkpt><trkpt lat="44.4574559" lon="11.6089211"><ele>34.0</ele><time>2026-03-28T14:07:01.161Z</time></trkpt><trkpt lat="44.4573462" lon="11.6088269"><ele>34.0</ele><time>2026-03-28T14:07:02.168Z</time></trkpt><trkpt lat="44.4572315" lon="11.6087349"><ele>34.0</ele><time>2026-03-28T14:07:03.182Z</time></trkpt><trkpt lat="44.4564712" lon="11.6083399"><ele>34.0</ele><time>2026-03-28T14:07:04.164Z</time></trkpt><trkpt lat="44.4562554" lon="11.6081767"><ele>34.0</ele><time>2026-03-28T14:07:05.181Z</time></trkpt><trkpt lat="44.4560492" lon="11.6080225"><ele>34.0</ele><time>2026-03-28T14:07:06.164Z</time></trkpt><trkpt lat="44.4558349" lon="11.6078649"><ele>34.0</ele><time>2026-03-28T14:07:07.18Z</time></trkpt><trkpt lat="44.4556267" lon="11.6077094"><ele>34.5</ele><time>2026-03-28T14:07:08.164Z</time></trkpt><trkpt lat="44.4554074" lon="11.6075495"><ele>35.0</ele><time>2026-03-28T14:07:09.172Z</time></trkpt><trkpt lat="44.4551934" lon="11.6073887"><ele>35.0</ele><time>2026-03-28T14:07:10.168Z</time></trkpt><trkpt lat="44.4549794" lon="11.6072235"><ele>35.0</ele><time>2026-03-28T14:07:11.176Z</time></trkpt><trkpt lat="44.4547656" lon="11.6070632"><ele>36.0</ele><time>2026-03-28T14:07:12.177Z</time></trkpt><trkpt lat="44.4545529" lon="11.6069088"><ele>37.0</ele><time>2026-03-28T14:07:13.171Z</time></trkpt><trkpt lat="44.4543341" lon="11.6067614"><ele>37.0</ele><time>2026-03-28T14:07:14.162Z</time></trkpt><trkpt lat="44.4541067" lon="11.6066217"><ele>37.0</ele><time>2026-03-28T14:07:15.172Z</time></trkpt><trkpt lat="44.4538794" lon="11.6064857"><ele>37.0</ele><time>2026-03-28T14:07:16.175Z</time></trkpt><trkpt lat="44.4536478" lon="11.6063652"><ele>37.0</ele><time>2026-03-28T14:07:17.178Z</time></trkpt><trkpt lat="44.4534189" lon="11.6062593"><ele>37.0</ele><time>2026-03-28T14:07:18.156Z</time></trkpt><trkpt lat="44.453175" lon="11.6061665"><ele>37.0</ele><time>2026-03-28T14:07:19.175Z</time></trkpt><trkpt lat="44.4529372" lon="11.6060953"><ele>36.0</ele><time>2026-03-28T14:07:20.168Z</time></trkpt><trkpt lat="44.4526888" lon="11.606036"><ele>35.0</ele><time>2026-03-28T14:07:21.176Z</time></trkpt><trkpt lat="44.452438" lon="11.6059884"><ele>35.0</ele><time>2026-03-28T14:07:22.167Z</time></trkpt><trkpt lat="44.4521774" lon="11.6059547"><ele>35.0</ele><time>2026-03-28T14:07:23.269Z</time></trkpt><trkpt lat="44.451955" lon="11.6059474"><ele>35.0</ele><time>2026-03-28T14:07:24.174Z</time></trkpt><trkpt lat="44.4517086" lon="11.6059514"><ele>35.0</ele><time>2026-03-28T14:07:25.182Z</time></trkpt><trkpt lat="44.4514677" lon="11.6059657"><ele>35.0</ele><time>2026-03-28T14:07:26.169Z</time></trkpt><trkpt lat="44.4512198" lon="11.6060023"><ele>35.0</ele><time>2026-03-28T14:07:27.174Z</time></trkpt><trkpt lat="44.4509742" lon="11.606059"><ele>35.0</ele><time>2026-03-28T14:07:28.162Z</time></trkpt><trkpt lat="44.4507269" lon="11.6061109"><ele>35.0</ele><time>2026-03-28T14:07:29.177Z</time></trkpt><trkpt lat="44.450481" lon="11.6061682"><ele>36.5</ele><time>2026-03-28T14:07:30.181Z</time></trkpt><trkpt lat="44.450223" lon="11.6061941"><ele>38.0</ele><time>2026-03-28T14:07:31.175Z</time></trkpt><trkpt lat="44.4499658" lon="11.6062454"><ele>38.0</ele><time>2026-03-28T14:07:32.167Z</time></trkpt><trkpt lat="44.4497072" lon="11.6062966"><ele>38.0</ele><time>2026-03-28T14:07:33.164Z</time></trkpt><trkpt lat="44.4494392" lon="11.6063535"><ele>38.5</ele><time>2026-03-28T14:07:34.185Z</time></trkpt><trkpt lat="44.4491719" lon="11.6064083"><ele>39.0</ele><time>2026-03-28T14:07:35.19Z</time></trkpt><trkpt lat="44.448912" lon="11.6064726"><ele>38.5</ele><time>2026-03-28T14:07:36.188Z</time></trkpt><trkpt lat="44.4486575" lon="11.6065318"><ele>38.0</ele><time>2026-03-28T14:07:37.159Z</time></trkpt><trkpt lat="44.4483988" lon="11.6065908"><ele>38.0</ele><time>2026-03-28T14:07:38.181Z</time></trkpt><trkpt lat="44.4481389" lon="11.6066409"><ele>38.0</ele><time>2026-03-28T14:07:39.168Z</time></trkpt><trkpt lat="44.447869" lon="11.6066952"><ele>38.5</ele><time>2026-03-28T14:07:40.187Z</time></trkpt><trkpt lat="44.4476077" lon="11.6067429"><ele>39.0</ele><time>2026-03-28T14:07:41.168Z</time></trkpt><trkpt lat="44.4473433" lon="11.6067956"><ele>39.0</ele><time>2026-03-28T14:07:42.173Z</time></trkpt><trkpt lat="44.4470867" lon="11.606819"><ele>39.0</ele><time>2026-03-28T14:07:43.18Z</time></trkpt><trkpt lat="44.4468471" lon="11.6068043"><ele>39.0</ele><time>2026-03-28T14:07:44.167Z</time></trkpt><trkpt lat="44.4465589" lon="11.6067164"><ele>39.0</ele><time>2026-03-28T14:07:45.167Z</time></trkpt><trkpt lat="44.4462871" lon="11.6066494"><ele>39.0</ele><time>2026-03-28T14:07:46.198Z</time></trkpt><trkpt lat="44.4460481" lon="11.6065532"><ele>39.0</ele><time>2026-03-28T14:07:47.17Z</time></trkpt><trkpt lat="44.4459131" lon="11.6065342"><ele>39.0</ele><time>2026-03-28T14:07:48.189Z</time></trkpt><trkpt lat="44.4455483" lon="11.607181"><ele>40.0</ele><time>2026-03-28T14:07:49.176Z</time></trkpt><trkpt lat="44.4452978" lon="11.6072369"><ele>41.0</ele><time>2026-03-28T14:07:50.163Z</time></trkpt><trkpt lat="44.4450431" lon="11.607295"><ele>41.0</ele><time>2026-03-28T14:07:51.18Z</time></trkpt><trkpt lat="44.4447961" lon="11.6073478"><ele>41.0</ele><time>2026-03-28T14:07:52.178Z</time></trkpt><trkpt lat="44.4445526" lon="11.6073973"><ele>40.5</ele><time>2026-03-28T14:07:53.169Z</time></trkpt><trkpt lat="44.4443078" lon="11.6074492"><ele>40.0</ele><time>2026-03-28T14:07:54.188Z</time></trkpt><trkpt lat="44.4440662" lon="11.6075038"><ele>40.0</ele><time>2026-03-28T14:07:55.176Z</time></trkpt><trkpt lat="44.4438282" lon="11.6075569"><ele>40.0</ele><time>2026-03-28T14:07:56.172Z</time></trkpt><trkpt lat="44.443587" lon="11.6076039"><ele>40.5</ele><time>2026-03-28T14:07:57.171Z</time></trkpt><trkpt lat="44.4433474" lon="11.6076438"><ele>41.0</ele><time>2026-03-28T14:07:58.172Z</time></trkpt><trkpt lat="44.4431007" lon="11.6076594"><ele>41.0</ele><time>2026-03-28T14:07:59.155Z</time></trkpt><trkpt lat="44.4428597" lon="11.6076405"><ele>41.0</ele><time>2026-03-28T14:08:00.161Z</time></trkpt><trkpt lat="44.4426179" lon="11.6075908"><ele>41.0</ele><time>2026-03-28T14:08:01.176Z</time></trkpt><trkpt lat="44.4423899" lon="11.6075105"><ele>41.0</ele><time>2026-03-28T14:08:02.166Z</time></trkpt><trkpt lat="44.4421588" lon="11.607396"><ele>41.0</ele><time>2026-03-28T14:08:03.177Z</time></trkpt><trkpt lat="44.4419433" lon="11.6072482"><ele>41.0</ele><time>2026-03-28T14:08:04.193Z</time></trkpt><trkpt lat="44.4417398" lon="11.6071034"><ele>41.0</ele><time>2026-03-28T14:08:05.17Z</time></trkpt><trkpt lat="44.4415378" lon="11.6069539"><ele>41.0</ele><time>2026-03-28T14:08:06.192Z</time></trkpt><trkpt lat="44.4413477" lon="11.6068093"><ele>41.0</ele><time>2026-03-28T14:08:07.171Z</time></trkpt><trkpt lat="44.4411412" lon="11.6066754"><ele>41.0</ele><time>2026-03-28T14:08:08.179Z</time></trkpt><trkpt lat="44.4409215" lon="11.6065657"><ele>41.0</ele><time>2026-03-28T14:08:09.18Z</time></trkpt><trkpt lat="44.4407029" lon="11.6064756"><ele>41.0</ele><time>2026-03-28T14:08:10.173Z</time></trkpt><trkpt lat="44.4404845" lon="11.6063871"><ele>41.0</ele><time>2026-03-28T14:08:11.154Z</time></trkpt><trkpt lat="44.4402464" lon="11.6063165"><ele>41.5</ele><time>2026-03-28T14:08:12.175Z</time></trkpt><trkpt lat="44.4400097" lon="11.6062674"><ele>42.0</ele><time>2026-03-28T14:08:13.169Z</time></trkpt><trkpt lat="44.4397627" lon="11.60624"><ele>42.0</ele><time>2026-03-28T14:08:14.172Z</time></trkpt><trkpt lat="44.4395184" lon="11.6062489"><ele>42.0</ele><time>2026-03-28T14:08:15.159Z</time></trkpt><trkpt lat="44.4392676" lon="11.6062696"><ele>42.0</ele><time>2026-03-28T14:08:16.183Z</time></trkpt><trkpt lat="44.4390248" lon="11.6062938"><ele>42.0</ele><time>2026-03-28T14:08:17.179Z</time></trkpt><trkpt lat="44.4387595" lon="11.6063202"><ele>43.0</ele><time>2026-03-28T14:08:18.185Z</time></trkpt><trkpt lat="44.4385188" lon="11.6063455"><ele>44.0</ele><time>2026-03-28T14:08:19.172Z</time></trkpt><trkpt lat="44.4382899" lon="11.6063782"><ele>44.0</ele><time>2026-03-28T14:08:20.161Z</time></trkpt><trkpt lat="44.438082" lon="11.6064153"><ele>44.0</ele><time>2026-03-28T14:08:21.182Z</time></trkpt><trkpt lat="44.4378661" lon="11.6064425"><ele>44.0</ele><time>2026-03-28T14:08:22.168Z</time></trkpt><trkpt lat="44.4376411" lon="11.6064755"><ele>44.0</ele><time>2026-03-28T14:08:23.169Z</time></trkpt><trkpt lat="44.4374091" lon="11.6064983"><ele>44.0</ele><time>2026-03-28T14:08:24.167Z</time></trkpt><trkpt lat="44.4371701" lon="11.606522"><ele>44.5</ele><time>2026-03-28T14:08:25.183Z</time></trkpt><trkpt lat="44.436941" lon="11.606547"><ele>45.0</ele><time>2026-03-28T14:08:26.167Z</time></trkpt><trkpt lat="44.4367074" lon="11.6065656"><ele>45.0</ele><time>2026-03-28T14:08:27.171Z</time></trkpt><trkpt lat="44.4364754" lon="11.6065722"><ele>45.0</ele><time>2026-03-28T14:08:28.171Z</time></trkpt><trkpt lat="44.4362594" lon="11.60655"><ele>45.0</ele><time>2026-03-28T14:08:29.173Z</time></trkpt><trkpt lat="44.436043" lon="11.6065058"><ele>45.0</ele><time>2026-03-28T14:08:30.163Z</time></trkpt><trkpt lat="44.4358249" lon="11.6064353"><ele>45.0</ele><time>2026-03-28T14:08:31.172Z</time></trkpt><trkpt lat="44.4356235" lon="11.6063474"><ele>45.0</ele><time>2026-03-28T14:08:32.176Z</time></trkpt><trkpt lat="44.4354284" lon="11.6062538"><ele>44.666666666666664</ele><time>2026-03-28T14:08:33.168Z</time></trkpt><trkpt lat="44.4352291" lon="11.606164"><ele>44.33333333333333</ele><time>2026-03-28T14:08:34.165Z</time></trkpt><trkpt lat="44.4350521" lon="11.6060702"><ele>44.0</ele><time>2026-03-28T14:08:35.175Z</time></trkpt><trkpt lat="44.4348698" lon="11.6059692"><ele>43.666666666666664</ele><time>2026-03-28T14:08:36.176Z</time></trkpt><trkpt lat="44.4346946" lon="11.6058673"><ele>43.333333333333336</ele><time>2026-03-28T14:08:37.176Z</time></trkpt><trkpt lat="44.4345371" lon="11.6057598"><ele>43.0</ele><time>2026-03-28T14:08:38.155Z</time></trkpt><trkpt lat="44.434373" lon="11.6056487"><ele>44.0</ele><time>2026-03-28T14:08:39.16Z</time></trkpt><trkpt lat="44.4342043" lon="11.60554"><ele>45.0</ele><time>2026-03-28T14:08:40.183Z</time></trkpt><trkpt lat="44.4340499" lon="11.6054545"><ele>46.0</ele><time>2026-03-28T14:08:41.166Z</time></trkpt><trkpt lat="44.4338946" lon="11.6053894"><ele>46.333333333333336</ele><time>2026-03-28T14:08:42.178Z</time></trkpt><trkpt lat="44.4337508" lon="11.60535"><ele>46.666666666666664</ele><time>2026-03-28T14:08:43.173Z</time></trkpt><trkpt lat="44.4336012" lon="11.6053162"><ele>47.0</ele><time>2026-03-28T14:08:44.175Z</time></trkpt><trkpt lat="44.4334442" lon="11.6052822"><ele>47.33333333333333</ele><time>2026-03-28T14:08:45.166Z</time></trkpt><trkpt lat="44.4332676" lon="11.6052423"><ele>47.666666666666664</ele><time>2026-03-28T14:08:46.178Z</time></trkpt><trkpt lat="44.4330923" lon="11.6051946"><ele>48.0</ele><time>2026-03-28T14:08:47.166Z</time></trkpt><trkpt lat="44.4329256" lon="11.6051565"><ele>47.0</ele><time>2026-03-28T14:08:48.182Z</time></trkpt><trkpt lat="44.4327574" lon="11.6051222"><ele>46.0</ele><time>2026-03-28T14:08:49.167Z</time></trkpt><trkpt lat="44.4325905" lon="11.6050886"><ele>45.0</ele><time>2026-03-28T14:08:50.173Z</time></trkpt><trkpt lat="44.4324269" lon="11.605059"><ele>45.0</ele><time>2026-03-28T14:08:51.162Z</time></trkpt><trkpt lat="44.4322596" lon="11.6050273"><ele>45.0</ele><time>2026-03-28T14:08:52.193Z</time></trkpt><trkpt lat="44.4320985" lon="11.6050017"><ele>45.0</ele><time>2026-03-28T14:08:53.174Z</time></trkpt><trkpt lat="44.4319384" lon="11.6049738"><ele>44.666666666666664</ele><time>2026-03-28T14:08:54.199Z</time></trkpt><trkpt lat="44.4317888" lon="11.6049487"><ele>44.33333333333333</ele><time>2026-03-28T14:08:55.165Z</time></trkpt><trkpt lat="44.4316365" lon="11.6049263"><ele>44.0</ele><time>2026-03-28T14:08:56.19Z</time></trkpt><trkpt lat="44.4314804" lon="11.604901"><ele>44.0</ele><time>2026-03-28T14:08:57.179Z</time></trkpt><trkpt lat="44.4313246" lon="11.6048718"><ele>44.0</ele><time>2026-03-28T14:08:58.177Z</time></trkpt><trkpt lat="44.4311732" lon="11.6048395"><ele>44.0</ele><time>2026-03-28T14:08:59.161Z</time></trkpt><trkpt lat="44.43102" lon="11.6048106"><ele>44.666666666666664</ele><time>2026-03-28T14:09:00.186Z</time></trkpt><trkpt lat="44.430879" lon="11.604794"><ele>45.333333333333336</ele><time>2026-03-28T14:09:01.155Z</time></trkpt><trkpt lat="44.4307159" lon="11.6047679"><ele>46.0</ele><time>2026-03-28T14:09:02.169Z</time></trkpt><trkpt lat="44.4305513" lon="11.6047402"><ele>47.0</ele><time>2026-03-28T14:09:03.165Z</time></trkpt><trkpt lat="44.4303767" lon="11.6047104"><ele>48.0</ele><time>2026-03-28T14:09:04.195Z</time></trkpt><trkpt lat="44.43021" lon="11.6046822"><ele>49.0</ele><time>2026-03-28T14:09:05.169Z</time></trkpt><trkpt lat="44.4300364" lon="11.6046597"><ele>49.0</ele><time>2026-03-28T14:09:06.182Z</time></trkpt><trkpt lat="44.4298664" lon="11.6046351"><ele>49.0</ele><time>2026-03-28T14:09:07.174Z</time></trkpt><trkpt lat="44.4296917" lon="11.6046051"><ele>49.0</ele><time>2026-03-28T14:09:08.199Z</time></trkpt><trkpt lat="44.4295284" lon="11.6045744"><ele>48.33333333333333</ele><time>2026-03-28T14:09:09.166Z</time></trkpt><trkpt lat="44.4293593" lon="11.6045397"><ele>47.666666666666664</ele><time>2026-03-28T14:09:10.189Z</time></trkpt><trkpt lat="44.4291991" lon="11.6045079"><ele>47.0</ele><time>2026-03-28T14:09:11.167Z</time></trkpt><trkpt lat="44.4290348" lon="11.604476"><ele>46.666666666666664</ele><time>2026-03-28T14:09:12.183Z</time></trkpt><trkpt lat="44.428879" lon="11.6044483"><ele>46.333333333333336</ele><time>2026-03-28T14:09:13.169Z</time></trkpt><trkpt lat="44.4287268" lon="11.6044196"><ele>46.0</ele><time>2026-03-28T14:09:14.185Z</time></trkpt><trkpt lat="44.4285851" lon="11.6043919"><ele>47.0</ele><time>2026-03-28T14:09:15.171Z</time></trkpt><trkpt lat="44.4284403" lon="11.6043592"><ele>48.0</ele><time>2026-03-28T14:09:16.167Z</time></trkpt><trkpt lat="44.4282906" lon="11.6043267"><ele>49.0</ele><time>2026-03-28T14:09:17.169Z</time></trkpt><trkpt lat="44.4281346" lon="11.6042849"><ele>49.0</ele><time>2026-03-28T14:09:18.2Z</time></trkpt><trkpt lat="44.4279882" lon="11.6042436"><ele>49.0</ele><time>2026-03-28T14:09:19.163Z</time></trkpt><trkpt lat="44.4278354" lon="11.6041978"><ele>49.0</ele><time>2026-03-28T14:09:20.176Z</time></trkpt><trkpt lat="44.4276859" lon="11.6041436"><ele>50.33333333333333</ele><time>2026-03-28T14:09:21.166Z</time></trkpt><trkpt lat="44.4275284" lon="11.6040802"><ele>51.66666666666667</ele><time>2026-03-28T14:09:22.179Z</time></trkpt><trkpt lat="44.4273769" lon="11.6040153"><ele>53.0</ele><time>2026-03-28T14:09:23.161Z</time></trkpt><trkpt lat="44.4272188" lon="11.6039435"><ele>52.66666666666667</ele><time>2026-03-28T14:09:24.179Z</time></trkpt><trkpt lat="44.4270558" lon="11.6038738"><ele>52.33333333333333</ele><time>2026-03-28T14:09:25.168Z</time></trkpt><trkpt lat="44.4268846" lon="11.6038001"><ele>52.0</ele><time>2026-03-28T14:09:26.164Z</time></trkpt><trkpt lat="44.4267101" lon="11.6037196"><ele>52.25</ele><time>2026-03-28T14:09:27.169Z</time></trkpt><trkpt lat="44.4265484" lon="11.6036299"><ele>52.5</ele><time>2026-03-28T14:09:28.185Z</time></trkpt><trkpt lat="44.4264447" lon="11.6035384"><ele>52.75</ele><time>2026-03-28T14:09:29.174Z</time></trkpt><trkpt lat="44.426328" lon="11.6034456"><ele>53.0</ele><time>2026-03-28T14:09:30.175Z</time></trkpt><trkpt lat="44.4261986" lon="11.6033593"><ele>52.333333333333336</ele><time>2026-03-28T14:09:31.169Z</time></trkpt><trkpt lat="44.4260617" lon="11.6032753"><ele>51.66666666666667</ele><time>2026-03-28T14:09:32.183Z</time></trkpt><trkpt lat="44.4259234" lon="11.603193"><ele>51.0</ele><time>2026-03-28T14:09:33.162Z</time></trkpt><trkpt lat="44.4257666" lon="11.6030994"><ele>51.0</ele><time>2026-03-28T14:09:34.185Z</time></trkpt><trkpt lat="44.4256197" lon="11.6030106"><ele>51.0</ele><time>2026-03-28T14:09:35.17Z</time></trkpt><trkpt lat="44.4254622" lon="11.6029206"><ele>51.0</ele><time>2026-03-28T14:09:36.174Z</time></trkpt><trkpt lat="44.4253062" lon="11.6028312"><ele>51.66666666666667</ele><time>2026-03-28T14:09:37.178Z</time></trkpt><trkpt lat="44.4251533" lon="11.6027428"><ele>52.333333333333336</ele><time>2026-03-28T14:09:38.189Z</time></trkpt><trkpt lat="44.4250096" lon="11.6026551"><ele>53.0</ele><time>2026-03-28T14:09:39.179Z</time></trkpt><trkpt lat="44.4248711" lon="11.6025735"><ele>53.0</ele><time>2026-03-28T14:09:40.178Z</time></trkpt><trkpt lat="44.4247346" lon="11.6024957"><ele>53.0</ele><time>2026-03-28T14:09:41.176Z</time></trkpt><trkpt lat="44.4245966" lon="11.6024203"><ele>53.0</ele><time>2026-03-28T14:09:42.17Z</time></trkpt><trkpt lat="44.4244528" lon="11.6023393"><ele>53.333333333333336</ele><time>2026-03-28T14:09:43.18Z</time></trkpt><trkpt lat="44.4243064" lon="11.6022569"><ele>53.66666666666667</ele><time>2026-03-28T14:09:44.185Z</time></trkpt><trkpt lat="44.424157" lon="11.6021703"><ele>54.0</ele><time>2026-03-28T14:09:45.163Z</time></trkpt><trkpt lat="44.4239975" lon="11.6020848"><ele>54.0</ele><time>2026-03-28T14:09:46.169Z</time></trkpt><trkpt lat="44.4238305" lon="11.601994"><ele>54.0</ele><time>2026-03-28T14:09:47.177Z</time></trkpt><trkpt lat="44.4236563" lon="11.6019065"><ele>54.0</ele><time>2026-03-28T14:09:48.185Z</time></trkpt><trkpt lat="44.4234801" lon="11.6018232"><ele>53.33333333333333</ele><time>2026-03-28T14:09:49.169Z</time></trkpt><trkpt lat="44.4232964" lon="11.6017342"><ele>52.666666666666664</ele><time>2026-03-28T14:09:50.173Z</time></trkpt><trkpt lat="44.4231083" lon="11.6016424"><ele>52.0</ele><time>2026-03-28T14:09:51.164Z</time></trkpt><trkpt lat="44.4229244" lon="11.6015552"><ele>52.0</ele><time>2026-03-28T14:09:52.172Z</time></trkpt><trkpt lat="44.422728" lon="11.6014692"><ele>52.0</ele><time>2026-03-28T14:09:53.188Z</time></trkpt><trkpt lat="44.4225362" lon="11.6013843"><ele>52.0</ele><time>2026-03-28T14:09:54.177Z</time></trkpt><trkpt lat="44.4223535" lon="11.6012981"><ele>52.0</ele><time>2026-03-28T14:09:55.17Z</time></trkpt><trkpt lat="44.4221694" lon="11.6012094"><ele>52.0</ele><time>2026-03-28T14:09:56.169Z</time></trkpt><trkpt lat="44.421981" lon="11.6011214"><ele>52.0</ele><time>2026-03-28T14:09:57.193Z</time></trkpt><trkpt lat="44.4217979" lon="11.6010414"><ele>52.0</ele><time>2026-03-28T14:09:58.167Z</time></trkpt><trkpt lat="44.4216058" lon="11.6009606"><ele>52.0</ele><time>2026-03-28T14:09:59.181Z</time></trkpt><trkpt lat="44.4214142" lon="11.6008805"><ele>52.0</ele><time>2026-03-28T14:10:00.173Z</time></trkpt><trkpt lat="44.4212249" lon="11.6007923"><ele>53.0</ele><time>2026-03-28T14:10:01.169Z</time></trkpt><trkpt lat="44.4210347" lon="11.6006987"><ele>54.0</ele><time>2026-03-28T14:10:02.16Z</time></trkpt><trkpt lat="44.4208389" lon="11.6005838"><ele>55.0</ele><time>2026-03-28T14:10:03.193Z</time></trkpt><trkpt lat="44.4206573" lon="11.6004716"><ele>54.666666666666664</ele><time>2026-03-28T14:10:04.182Z</time></trkpt><trkpt lat="44.4204764" lon="11.6003462"><ele>54.33333333333333</ele><time>2026-03-28T14:10:05.174Z</time></trkpt><trkpt lat="44.4203004" lon="11.6002096"><ele>54.0</ele><time>2026-03-28T14:10:06.173Z</time></trkpt><trkpt lat="44.4201173" lon="11.6000673"><ele>53.66666666666667</ele><time>2026-03-28T14:10:07.195Z</time></trkpt><trkpt lat="44.4199428" lon="11.5999274"><ele>53.333333333333336</ele><time>2026-03-28T14:10:08.179Z</time></trkpt><trkpt lat="44.4197607" lon="11.5997824"><ele>53.0</ele><time>2026-03-28T14:10:09.197Z</time></trkpt><trkpt lat="44.4195831" lon="11.59965"><ele>53.0</ele><time>2026-03-28T14:10:10.171Z</time></trkpt><trkpt lat="44.4193976" lon="11.5995199"><ele>53.0</ele><time>2026-03-28T14:10:11.178Z</time></trkpt><trkpt lat="44.419207" lon="11.5994038"><ele>53.0</ele><time>2026-03-28T14:10:12.185Z</time></trkpt><trkpt lat="44.4190252" lon="11.5993003"><ele>53.0</ele><time>2026-03-28T14:10:13.176Z</time></trkpt><trkpt lat="44.4188445" lon="11.599205"><ele>53.0</ele><time>2026-03-28T14:10:14.177Z</time></trkpt><trkpt lat="44.4186656" lon="11.599133"><ele>53.0</ele><time>2026-03-28T14:10:15.167Z</time></trkpt><trkpt lat="44.4184779" lon="11.599059"><ele>53.66666666666667</ele><time>2026-03-28T14:10:16.174Z</time></trkpt><trkpt lat="44.4182806" lon="11.5989928"><ele>54.33333333333333</ele><time>2026-03-28T14:10:17.178Z</time></trkpt><trkpt lat="44.4180771" lon="11.5989258"><ele>55.0</ele><time>2026-03-28T14:10:18.173Z</time></trkpt><trkpt lat="44.417863" lon="11.5988578"><ele>54.666666666666664</ele><time>2026-03-28T14:10:19.174Z</time></trkpt><trkpt lat="44.4176493" lon="11.5987937"><ele>54.33333333333333</ele><time>2026-03-28T14:10:20.17Z</time></trkpt><trkpt lat="44.4174316" lon="11.5987197"><ele>54.0</ele><time>2026-03-28T14:10:21.174Z</time></trkpt><trkpt lat="44.4172263" lon="11.5986364"><ele>55.0</ele><time>2026-03-28T14:10:22.165Z</time></trkpt><trkpt lat="44.4170289" lon="11.598541"><ele>56.0</ele><time>2026-03-28T14:10:23.177Z</time></trkpt><trkpt lat="44.416842" lon="11.598421"><ele>57.0</ele><time>2026-03-28T14:10:24.175Z</time></trkpt><trkpt lat="44.4166685" lon="11.5982814"><ele>57.0</ele><time>2026-03-28T14:10:25.172Z</time></trkpt><trkpt lat="44.4165038" lon="11.598121"><ele>57.0</ele><time>2026-03-28T14:10:26.168Z</time></trkpt><trkpt lat="44.4163557" lon="11.5979469"><ele>57.0</ele><time>2026-03-28T14:10:27.167Z</time></trkpt><trkpt lat="44.4162203" lon="11.5977573"><ele>56.0</ele><time>2026-03-28T14:10:28.17Z</time></trkpt><trkpt lat="44.416093" lon="11.5975473"><ele>55.0</ele><time>2026-03-28T14:10:29.183Z</time></trkpt><trkpt lat="44.4159785" lon="11.5973272"><ele>54.0</ele><time>2026-03-28T14:10:30.178Z</time></trkpt><trkpt lat="44.415868" lon="11.597098"><ele>54.66666666666667</ele><time>2026-03-28T14:10:31.186Z</time></trkpt><trkpt lat="44.4157632" lon="11.5968753"><ele>55.333333333333336</ele><time>2026-03-28T14:10:32.173Z</time></trkpt><trkpt lat="44.4156589" lon="11.5966584"><ele>56.0</ele><time>2026-03-28T14:10:33.171Z</time></trkpt><trkpt lat="44.4155494" lon="11.5964358"><ele>55.66666666666667</ele><time>2026-03-28T14:10:34.183Z</time></trkpt><trkpt lat="44.4154329" lon="11.5962233"><ele>55.33333333333333</ele><time>2026-03-28T14:10:35.179Z</time></trkpt><trkpt lat="44.4153113" lon="11.5959888"><ele>55.0</ele><time>2026-03-28T14:10:36.181Z</time></trkpt><trkpt lat="44.4151887" lon="11.5957622"><ele>55.0</ele><time>2026-03-28T14:10:37.171Z</time></trkpt><trkpt lat="44.4150606" lon="11.5955368"><ele>55.0</ele><time>2026-03-28T14:10:38.17Z</time></trkpt><trkpt lat="44.4149287" lon="11.5953187"><ele>55.0</ele><time>2026-03-28T14:10:39.173Z</time></trkpt><trkpt lat="44.4147981" lon="11.5951052"><ele>55.0</ele><time>2026-03-28T14:10:40.169Z</time></trkpt><trkpt lat="44.4146679" lon="11.5948982"><ele>55.0</ele><time>2026-03-28T14:10:41.167Z</time></trkpt><trkpt lat="44.4145374" lon="11.5946926"><ele>55.0</ele><time>2026-03-28T14:10:42.181Z</time></trkpt><trkpt lat="44.4144063" lon="11.594495"><ele>56.0</ele><time>2026-03-28T14:10:43.179Z</time></trkpt><trkpt lat="44.4142679" lon="11.5942984"><ele>57.0</ele><time>2026-03-28T14:10:44.168Z</time></trkpt><trkpt lat="44.4141246" lon="11.5940968"><ele>58.0</ele><time>2026-03-28T14:10:45.163Z</time></trkpt><trkpt lat="44.4139867" lon="11.5938895"><ele>58.0</ele><time>2026-03-28T14:10:46.177Z</time></trkpt><trkpt lat="44.4138584" lon="11.5937024"><ele>58.0</ele><time>2026-03-28T14:10:47.166Z</time></trkpt><trkpt lat="44.4137114" lon="11.5935004"><ele>58.0</ele><time>2026-03-28T14:10:48.195Z</time></trkpt><trkpt lat="44.4135671" lon="11.5933041"><ele>58.0</ele><time>2026-03-28T14:10:49.167Z</time></trkpt><trkpt lat="44.4134138" lon="11.5930827"><ele>58.0</ele><time>2026-03-28T14:10:50.182Z</time></trkpt><trkpt lat="44.4132491" lon="11.5928674"><ele>58.0</ele><time>2026-03-28T14:10:51.182Z</time></trkpt><trkpt lat="44.4130837" lon="11.5926424"><ele>57.0</ele><time>2026-03-28T14:10:52.185Z</time></trkpt><trkpt lat="44.4129083" lon="11.5923951"><ele>56.0</ele><time>2026-03-28T14:10:53.166Z</time></trkpt><trkpt lat="44.4127283" lon="11.5921175"><ele>57.0</ele><time>2026-03-28T14:10:54.165Z</time></trkpt><trkpt lat="44.412546" lon="11.5918408"><ele>58.0</ele><time>2026-03-28T14:10:55.17Z</time></trkpt><trkpt lat="44.4123489" lon="11.5915499"><ele>58.0</ele><time>2026-03-28T14:10:56.176Z</time></trkpt><trkpt lat="44.4121512" lon="11.5912658"><ele>58.0</ele><time>2026-03-28T14:10:57.175Z</time></trkpt><trkpt lat="44.4119657" lon="11.5909947"><ele>58.5</ele><time>2026-03-28T14:10:58.184Z</time></trkpt><trkpt lat="44.4117538" lon="11.5907408"><ele>59.0</ele><time>2026-03-28T14:10:59.176Z</time></trkpt><trkpt lat="44.4115161" lon="11.590511"><ele>58.5</ele><time>2026-03-28T14:11:00.19Z</time></trkpt><trkpt lat="44.4112941" lon="11.5903184"><ele>58.0</ele><time>2026-03-28T14:11:01.191Z</time></trkpt><trkpt lat="44.4110852" lon="11.5901533"><ele>58.0</ele><time>2026-03-28T14:11:02.173Z</time></trkpt><trkpt lat="44.41088" lon="11.589996"><ele>58.0</ele><time>2026-03-28T14:11:03.166Z</time></trkpt><trkpt lat="44.4106782" lon="11.5898473"><ele>58.0</ele><time>2026-03-28T14:11:04.175Z</time></trkpt><trkpt lat="44.4104808" lon="11.5896938"><ele>58.0</ele><time>2026-03-28T14:11:05.183Z</time></trkpt><trkpt lat="44.4102885" lon="11.5895519"><ele>58.0</ele><time>2026-03-28T14:11:06.18Z</time></trkpt><trkpt lat="44.410087" lon="11.5894078"><ele>58.0</ele><time>2026-03-28T14:11:07.168Z</time></trkpt><trkpt lat="44.4098768" lon="11.5892642"><ele>58.0</ele><time>2026-03-28T14:11:08.177Z</time></trkpt><trkpt lat="44.4096506" lon="11.5891175"><ele>57.5</ele><time>2026-03-28T14:11:09.173Z</time></trkpt><trkpt lat="44.4094284" lon="11.5889941"><ele>57.0</ele><time>2026-03-28T14:11:10.187Z</time></trkpt><trkpt lat="44.4092113" lon="11.5888887"><ele>57.0</ele><time>2026-03-28T14:11:11.165Z</time></trkpt><trkpt lat="44.4089873" lon="11.5887956"><ele>57.0</ele><time>2026-03-28T14:11:12.177Z</time></trkpt><trkpt lat="44.4087726" lon="11.5887113"><ele>58.0</ele><time>2026-03-28T14:11:13.163Z</time></trkpt><trkpt lat="44.4085654" lon="11.5886332"><ele>59.0</ele><time>2026-03-28T14:11:14.171Z</time></trkpt><trkpt lat="44.4083802" lon="11.5885699"><ele>60.0</ele><time>2026-03-28T14:11:15.171Z</time></trkpt><trkpt lat="44.4082093" lon="11.5885181"><ele>60.0</ele><time>2026-03-28T14:11:16.187Z</time></trkpt><trkpt lat="44.4080535" lon="11.5884713"><ele>60.0</ele><time>2026-03-28T14:11:17.176Z</time></trkpt><trkpt lat="44.4079019" lon="11.5884241"><ele>60.0</ele><time>2026-03-28T14:11:18.17Z</time></trkpt><trkpt lat="44.4077408" lon="11.5883789"><ele>59.66666666666667</ele><time>2026-03-28T14:11:19.201Z</time></trkpt><trkpt lat="44.4075915" lon="11.588338"><ele>59.333333333333336</ele><time>2026-03-28T14:11:20.184Z</time></trkpt><trkpt lat="44.4074418" lon="11.5882944"><ele>59.0</ele><time>2026-03-28T14:11:21.191Z</time></trkpt><trkpt lat="44.4072888" lon="11.5882518"><ele>59.0</ele><time>2026-03-28T14:11:22.18Z</time></trkpt><trkpt lat="44.4071224" lon="11.5882084"><ele>59.0</ele><time>2026-03-28T14:11:23.173Z</time></trkpt><trkpt lat="44.4069577" lon="11.5881822"><ele>59.0</ele><time>2026-03-28T14:11:24.171Z</time></trkpt><trkpt lat="44.4067758" lon="11.588162"><ele>59.0</ele><time>2026-03-28T14:11:25.176Z</time></trkpt><trkpt lat="44.4065679" lon="11.5881295"><ele>59.0</ele><time>2026-03-28T14:11:26.188Z</time></trkpt><trkpt lat="44.4063519" lon="11.5880716"><ele>59.0</ele><time>2026-03-28T14:11:27.21Z</time></trkpt><trkpt lat="44.4061427" lon="11.5880068"><ele>59.5</ele><time>2026-03-28T14:11:28.184Z</time></trkpt><trkpt lat="44.4059271" lon="11.5879392"><ele>60.0</ele><time>2026-03-28T14:11:29.169Z</time></trkpt><trkpt lat="44.4056985" lon="11.5878651"><ele>60.66666666666667</ele><time>2026-03-28T14:11:30.192Z</time></trkpt><trkpt lat="44.4054843" lon="11.5877924"><ele>61.333333333333336</ele><time>2026-03-28T14:11:31.16Z</time></trkpt><trkpt lat="44.405265" lon="11.5877142"><ele>62.0</ele><time>2026-03-28T14:11:32.174Z</time></trkpt><trkpt lat="44.4050558" lon="11.5876328"><ele>62.0</ele><time>2026-03-28T14:11:33.172Z</time></trkpt><trkpt lat="44.4048566" lon="11.5875459"><ele>62.0</ele><time>2026-03-28T14:11:34.166Z</time></trkpt><trkpt lat="44.4046592" lon="11.587463"><ele>62.0</ele><time>2026-03-28T14:11:35.193Z</time></trkpt><trkpt lat="44.404479" lon="11.5873898"><ele>62.333333333333336</ele><time>2026-03-28T14:11:36.177Z</time></trkpt><trkpt lat="44.4043021" lon="11.5873217"><ele>62.66666666666667</ele><time>2026-03-28T14:11:37.19Z</time></trkpt><trkpt lat="44.404141" lon="11.5872615"><ele>63.0</ele><time>2026-03-28T14:11:38.176Z</time></trkpt><trkpt lat="44.4039865" lon="11.587202"><ele>63.0</ele><time>2026-03-28T14:11:39.172Z</time></trkpt><trkpt lat="44.403841" lon="11.5871438"><ele>63.0</ele><time>2026-03-28T14:11:40.183Z</time></trkpt><trkpt lat="44.4037092" lon="11.5870893"><ele>63.0</ele><time>2026-03-28T14:11:41.18Z</time></trkpt><trkpt lat="44.4035916" lon="11.5870288"><ele>63.0</ele><time>2026-03-28T14:11:42.179Z</time></trkpt><trkpt lat="44.4034859" lon="11.5869517"><ele>64.0</ele><time>2026-03-28T14:11:43.165Z</time></trkpt><trkpt lat="44.4033918" lon="11.5868525"><ele>65.0</ele><time>2026-03-28T14:11:44.184Z</time></trkpt><trkpt lat="44.4033098" lon="11.586725"><ele>66.0</ele><time>2026-03-28T14:11:45.177Z</time></trkpt><trkpt lat="44.4032489" lon="11.5865753"><ele>67.0</ele><time>2026-03-28T14:11:46.179Z</time></trkpt><trkpt lat="44.4032245" lon="11.5863848"><ele>67.0</ele><time>2026-03-28T14:11:47.18Z</time></trkpt><trkpt lat="44.4032233" lon="11.5861956"><ele>67.0</ele><time>2026-03-28T14:11:48.171Z</time></trkpt><trkpt lat="44.4032448" lon="11.5860226"><ele>67.0</ele><time>2026-03-28T14:11:49.165Z</time></trkpt><trkpt lat="44.4032826" lon="11.5858567"><ele>67.0</ele><time>2026-03-28T14:11:50.181Z</time></trkpt><trkpt lat="44.4033166" lon="11.5856896"><ele>67.25</ele><time>2026-03-28T14:11:51.181Z</time></trkpt><trkpt lat="44.4033512" lon="11.5855009"><ele>67.5</ele><time>2026-03-28T14:11:52.191Z</time></trkpt><trkpt lat="44.4034003" lon="11.5853205"><ele>67.75</ele><time>2026-03-28T14:11:53.194Z</time></trkpt><trkpt lat="44.4034623" lon="11.5851443"><ele>68.0</ele><time>2026-03-28T14:11:54.202Z</time></trkpt><trkpt lat="44.4035308" lon="11.5849852"><ele>68.0</ele><time>2026-03-28T14:11:55.194Z</time></trkpt><trkpt lat="44.4035974" lon="11.5848296"><ele>68.0</ele><time>2026-03-28T14:11:56.176Z</time></trkpt><trkpt lat="44.4036566" lon="11.5846816"><ele>68.0</ele><time>2026-03-28T14:11:57.175Z</time></trkpt><trkpt lat="44.403716" lon="11.5845412"><ele>68.0</ele><time>2026-03-28T14:11:58.178Z</time></trkpt><trkpt lat="44.4037777" lon="11.5843971"><ele>67.75</ele><time>2026-03-28T14:11:59.171Z</time></trkpt><trkpt lat="44.4038345" lon="11.5842643"><ele>67.5</ele><time>2026-03-28T14:12:00.18Z</time></trkpt><trkpt lat="44.4038893" lon="11.58413"><ele>67.25</ele><time>2026-03-28T14:12:01.173Z</time></trkpt><trkpt lat="44.4039453" lon="11.5839881"><ele>67.0</ele><time>2026-03-28T14:12:02.186Z</time></trkpt><trkpt lat="44.4040061" lon="11.5838311"><ele>67.5</ele><time>2026-03-28T14:12:03.173Z</time></trkpt><trkpt lat="44.4040693" lon="11.583663"><ele>68.0</ele><time>2026-03-28T14:12:04.18Z</time></trkpt><trkpt lat="44.4041229" lon="11.5832002"><ele>68.0</ele><time>2026-03-28T14:12:05.163Z</time></trkpt><trkpt lat="44.4041749" lon="11.5830586"><ele>68.0</ele><time>2026-03-28T14:12:06.169Z</time></trkpt><trkpt lat="44.4042217" lon="11.5829332"><ele>68.0</ele><time>2026-03-28T14:12:07.174Z</time></trkpt><trkpt lat="44.4042595" lon="11.582825"><ele>68.0</ele><time>2026-03-28T14:12:08.174Z</time></trkpt><trkpt lat="44.404293" lon="11.5827261"><ele>68.0</ele><time>2026-03-28T14:12:09.178Z</time></trkpt><trkpt lat="44.4043256" lon="11.5826351"><ele>68.16666666666667</ele><time>2026-03-28T14:12:10.176Z</time></trkpt><trkpt lat="44.404377" lon="11.5825437"><ele>68.33333333333334</ele><time>2026-03-28T14:12:11.173Z</time></trkpt><trkpt lat="44.4044415" lon="11.5824714"><ele>68.5</ele><time>2026-03-28T14:12:12.166Z</time></trkpt><trkpt lat="44.4045189" lon="11.5824065"><ele>68.66666666666667</ele><time>2026-03-28T14:12:13.172Z</time></trkpt><trkpt lat="44.4045665" lon="11.5823285"><ele>68.83333333333333</ele><time>2026-03-28T14:12:14.172Z</time></trkpt><trkpt lat="44.4045718" lon="11.5822269"><ele>69.0</ele><time>2026-03-28T14:12:15.167Z</time></trkpt><trkpt lat="44.4045325" lon="11.5821273"><ele>69.0</ele><time>2026-03-28T14:12:16.186Z</time></trkpt><trkpt lat="44.404469" lon="11.5820692"><ele>69.0</ele><time>2026-03-28T14:12:17.173Z</time></trkpt><trkpt lat="44.4043743" lon="11.5820665"><ele>69.0</ele><time>2026-03-28T14:12:18.193Z</time></trkpt><trkpt lat="44.4042845" lon="11.5821142"><ele>69.0</ele><time>2026-03-28T14:12:19.167Z</time></trkpt><trkpt lat="44.4041843" lon="11.58218"><ele>69.0</ele><time>2026-03-28T14:12:20.178Z</time></trkpt><trkpt lat="44.4040841" lon="11.5822373"><ele>69.0</ele><time>2026-03-28T14:12:21.178Z</time></trkpt><trkpt lat="44.403986" lon="11.5822319"><ele>69.0</ele><time>2026-03-28T14:12:22.169Z</time></trkpt><trkpt lat="44.4038954" lon="11.5821942"><ele>69.0</ele><time>2026-03-28T14:12:23.176Z</time></trkpt><trkpt lat="44.4038157" lon="11.5821249"><ele>69.0</ele><time>2026-03-28T14:12:24.171Z</time></trkpt><trkpt lat="44.40374" lon="11.5820543"><ele>69.0</ele><time>2026-03-28T14:12:25.171Z</time></trkpt><trkpt lat="44.4036625" lon="11.5820066"><ele>69.16666666666667</ele><time>2026-03-28T14:12:26.162Z</time></trkpt><trkpt lat="44.4035805" lon="11.5819796"><ele>69.33333333333333</ele><time>2026-03-28T14:12:27.162Z</time></trkpt><trkpt lat="44.4034921" lon="11.5819654"><ele>69.5</ele><time>2026-03-28T14:12:28.198Z</time></trkpt><trkpt lat="44.4034019" lon="11.5819454"><ele>69.66666666666666</ele><time>2026-03-28T14:12:29.167Z</time></trkpt><trkpt lat="44.4033126" lon="11.5819127"><ele>69.83333333333333</ele><time>2026-03-28T14:12:30.173Z</time></trkpt><trkpt lat="44.4032366" lon="11.581866"><ele>70.0</ele><time>2026-03-28T14:12:31.164Z</time></trkpt><trkpt lat="44.4031605" lon="11.5818177"><ele>70.0</ele><time>2026-03-28T14:12:32.192Z</time></trkpt><trkpt lat="44.4030829" lon="11.5817612"><ele>70.0</ele><time>2026-03-28T14:12:33.187Z</time></trkpt><trkpt lat="44.4030069" lon="11.5817037"><ele>70.0</ele><time>2026-03-28T14:12:34.176Z</time></trkpt><trkpt lat="44.4029251" lon="11.5816391"><ele>70.0</ele><time>2026-03-28T14:12:35.17Z</time></trkpt><trkpt lat="44.4028289" lon="11.5815698"><ele>70.0</ele><time>2026-03-28T14:12:36.173Z</time></trkpt><trkpt lat="44.4027366" lon="11.5814977"><ele>70.0</ele><time>2026-03-28T14:12:37.173Z</time></trkpt><trkpt lat="44.4026378" lon="11.581424"><ele>70.0</ele><time>2026-03-28T14:12:38.195Z</time></trkpt><trkpt lat="44.4025472" lon="11.5813612"><ele>70.0</ele><time>2026-03-28T14:12:39.176Z</time></trkpt><trkpt lat="44.4024509" lon="11.5812952"><ele>70.0</ele><time>2026-03-28T14:12:40.174Z</time></trkpt><trkpt lat="44.4023577" lon="11.5812347"><ele>70.0</ele><time>2026-03-28T14:12:41.171Z</time></trkpt><trkpt lat="44.4022652" lon="11.5811791"><ele>70.0</ele><time>2026-03-28T14:12:42.189Z</time></trkpt><trkpt lat="44.4021813" lon="11.5811367"><ele>70.0</ele><time>2026-03-28T14:12:43.163Z</time></trkpt><trkpt lat="44.4021" lon="11.5811068"><ele>70.0</ele><time>2026-03-28T14:12:44.206Z</time></trkpt><trkpt lat="44.402019" lon="11.5810804"><ele>70.0</ele><time>2026-03-28T14:12:45.163Z</time></trkpt><trkpt lat="44.4019314" lon="11.5810555"><ele>70.0</ele><time>2026-03-28T14:12:46.204Z</time></trkpt><trkpt lat="44.4018452" lon="11.5810384"><ele>70.0</ele><time>2026-03-28T14:12:47.18Z</time></trkpt><trkpt lat="44.4017505" lon="11.5810187"><ele>70.33333333333333</ele><time>2026-03-28T14:12:48.196Z</time></trkpt><trkpt lat="44.4016586" lon="11.580999"><ele>70.66666666666666</ele><time>2026-03-28T14:12:49.178Z</time></trkpt><trkpt lat="44.4015698" lon="11.5809846"><ele>71.0</ele><time>2026-03-28T14:12:50.187Z</time></trkpt><trkpt lat="44.4014838" lon="11.5809727"><ele>71.33333333333333</ele><time>2026-03-28T14:12:51.183Z</time></trkpt><trkpt lat="44.4013984" lon="11.5809493"><ele>71.66666666666667</ele><time>2026-03-28T14:12:52.194Z</time></trkpt><trkpt lat="44.4013208" lon="11.5809225"><ele>72.0</ele><time>2026-03-28T14:12:53.179Z</time></trkpt><trkpt lat="44.4012465" lon="11.5808945"><ele>72.33333333333333</ele><time>2026-03-28T14:12:54.177Z</time></trkpt><trkpt lat="44.4011852" lon="11.5808674"><ele>72.66666666666667</ele><time>2026-03-28T14:12:55.179Z</time></trkpt><trkpt lat="44.4010894" lon="11.5807835"><ele>73.0</ele><time>2026-03-28T14:12:57.177Z</time></trkpt><trkpt lat="44.4010203" lon="11.5806478"><ele>73.33333333333334</ele><time>2026-03-28T14:12:59.179Z</time></trkpt><trkpt lat="44.400976" lon="11.5805746"><ele>73.66666666666667</ele><time>2026-03-28T14:13:00.177Z</time></trkpt><trkpt lat="44.4009287" lon="11.5804952"><ele>74.0</ele><time>2026-03-28T14:13:01.176Z</time></trkpt><trkpt lat="44.4008959" lon="11.5804039"><ele>74.16666666666667</ele><time>2026-03-28T14:13:02.187Z</time></trkpt><trkpt lat="44.4008794" lon="11.5803051"><ele>74.33333333333334</ele><time>2026-03-28T14:13:03.163Z</time></trkpt><trkpt lat="44.4008789" lon="11.5801917"><ele>74.5</ele><time>2026-03-28T14:13:04.186Z</time></trkpt><trkpt lat="44.4009008" lon="11.5800834"><ele>74.66666666666667</ele><time>2026-03-28T14:13:05.175Z</time></trkpt><trkpt lat="44.4009332" lon="11.5799752"><ele>74.83333333333333</ele><time>2026-03-28T14:13:06.194Z</time></trkpt><trkpt lat="44.4009666" lon="11.5798711"><ele>75.0</ele><time>2026-03-28T14:13:07.174Z</time></trkpt><trkpt lat="44.4010062" lon="11.5797584"><ele>75.0</ele><time>2026-03-28T14:13:08.189Z</time></trkpt><trkpt lat="44.4010487" lon="11.5796457"><ele>75.0</ele><time>2026-03-28T14:13:09.168Z</time></trkpt><trkpt lat="44.4010986" lon="11.5795174"><ele>75.0</ele><time>2026-03-28T14:13:10.202Z</time></trkpt><trkpt lat="44.4011428" lon="11.579391"><ele>75.0</ele><time>2026-03-28T14:13:11.168Z</time></trkpt><trkpt lat="44.4011935" lon="11.5792417"><ele>75.0</ele><time>2026-03-28T14:13:12.192Z</time></trkpt><trkpt lat="44.4012399" lon="11.5791039"><ele>74.8</ele><time>2026-03-28T14:13:13.175Z</time></trkpt><trkpt lat="44.4012791" lon="11.5789741"><ele>74.6</ele><time>2026-03-28T14:13:14.187Z</time></trkpt><trkpt lat="44.4013038" lon="11.5788638"><ele>74.4</ele><time>2026-03-28T14:13:15.166Z</time></trkpt><trkpt lat="44.4013227" lon="11.5787704"><ele>74.2</ele><time>2026-03-28T14:13:16.179Z</time></trkpt><trkpt lat="44.4013567" lon="11.5786106"><ele>74.0</ele><time>2026-03-28T14:13:18.207Z</time></trkpt><trkpt lat="44.4014309" lon="11.5784768"><ele>74.33333333333334</ele><time>2026-03-28T14:13:20.181Z</time></trkpt><trkpt lat="44.4014669" lon="11.5784032"><ele>74.66666666666667</ele><time>2026-03-28T14:13:21.184Z</time></trkpt><trkpt lat="44.4014756" lon="11.5783142"><ele>75.0</ele><time>2026-03-28T14:13:22.178Z</time></trkpt><trkpt lat="44.4014514" lon="11.5782309"><ele>75.33333333333333</ele><time>2026-03-28T14:13:23.19Z</time></trkpt><trkpt lat="44.4013303" lon="11.5781935"><ele>75.66666666666666</ele><time>2026-03-28T14:13:25.173Z</time></trkpt><trkpt lat="44.4012457" lon="11.5782124"><ele>76.0</ele><time>2026-03-28T14:13:26.179Z</time></trkpt><trkpt lat="44.4011648" lon="11.5782283"><ele>76.0</ele><time>2026-03-28T14:13:27.167Z</time></trkpt><trkpt lat="44.4010676" lon="11.57823"><ele>76.0</ele><time>2026-03-28T14:13:28.183Z</time></trkpt><trkpt lat="44.4009852" lon="11.5782292"><ele>76.0</ele><time>2026-03-28T14:13:29.173Z</time></trkpt><trkpt lat="44.4008988" lon="11.5782368"><ele>76.0</ele><time>2026-03-28T14:13:30.182Z</time></trkpt><trkpt lat="44.4008024" lon="11.5782474"><ele>76.0</ele><time>2026-03-28T14:13:31.172Z</time></trkpt><trkpt lat="44.4007013" lon="11.5782519"><ele>76.0</ele><time>2026-03-28T14:13:32.182Z</time></trkpt><trkpt lat="44.4005935" lon="11.5782605"><ele>76.0</ele><time>2026-03-28T14:13:33.176Z</time></trkpt><trkpt lat="44.4004761" lon="11.5782684"><ele>76.0</ele><time>2026-03-28T14:13:34.178Z</time></trkpt><trkpt lat="44.4003476" lon="11.5782792"><ele>76.0</ele><time>2026-03-28T14:13:35.182Z</time></trkpt><trkpt lat="44.4002239" lon="11.5782912"><ele>76.5</ele><time>2026-03-28T14:13:36.178Z</time></trkpt><trkpt lat="44.4000986" lon="11.5783042"><ele>77.0</ele><time>2026-03-28T14:13:37.178Z</time></trkpt><trkpt lat="44.3999702" lon="11.5783171"><ele>77.5</ele><time>2026-03-28T14:13:38.194Z</time></trkpt><trkpt lat="44.3998477" lon="11.5783282"><ele>78.0</ele><time>2026-03-28T14:13:39.174Z</time></trkpt><trkpt lat="44.3997237" lon="11.5783402"><ele>78.75</ele><time>2026-03-28T14:13:40.17Z</time></trkpt><trkpt lat="44.3995977" lon="11.5783535"><ele>79.5</ele><time>2026-03-28T14:13:41.173Z</time></trkpt><trkpt lat="44.3994689" lon="11.5783667"><ele>80.25</ele><time>2026-03-28T14:13:42.182Z</time></trkpt><trkpt lat="44.3993468" lon="11.578377"><ele>81.0</ele><time>2026-03-28T14:13:43.171Z</time></trkpt><trkpt lat="44.399218" lon="11.5783905"><ele>81.0</ele><time>2026-03-28T14:13:44.19Z</time></trkpt><trkpt lat="44.399091" lon="11.5784057"><ele>81.0</ele><time>2026-03-28T14:13:45.168Z</time></trkpt><trkpt lat="44.3989577" lon="11.5784197"><ele>81.0</ele><time>2026-03-28T14:13:46.175Z</time></trkpt><trkpt lat="44.3988236" lon="11.5784363"><ele>81.0</ele><time>2026-03-28T14:13:47.177Z</time></trkpt><trkpt lat="44.3986924" lon="11.5784501"><ele>82.5</ele><time>2026-03-28T14:13:48.188Z</time></trkpt><trkpt lat="44.3985644" lon="11.5784621"><ele>84.0</ele><time>2026-03-28T14:13:49.171Z</time></trkpt><trkpt lat="44.398439" lon="11.578475"><ele>85.5</ele><time>2026-03-28T14:13:50.177Z</time></trkpt><trkpt lat="44.3983222" lon="11.5784905"><ele>87.0</ele><time>2026-03-28T14:13:51.176Z</time></trkpt><trkpt lat="44.3982145" lon="11.5785043"><ele>87.0</ele><time>2026-03-28T14:13:52.17Z</time></trkpt><trkpt lat="44.3981051" lon="11.5785128"><ele>87.0</ele><time>2026-03-28T14:13:53.174Z</time></trkpt><trkpt lat="44.3979841" lon="11.5785192"><ele>87.0</ele><time>2026-03-28T14:13:54.197Z</time></trkpt><trkpt lat="44.3978772" lon="11.5785274"><ele>87.0</ele><time>2026-03-28T14:13:55.181Z</time></trkpt><trkpt lat="44.397759" lon="11.5785385"><ele>87.0</ele><time>2026-03-28T14:13:56.194Z</time></trkpt><trkpt lat="44.3976408" lon="11.5785496"><ele>87.0</ele><time>2026-03-28T14:13:57.177Z</time></trkpt><trkpt lat="44.3975207" lon="11.5785647"><ele>87.0</ele><time>2026-03-28T14:13:58.191Z</time></trkpt><trkpt lat="44.3973995" lon="11.578587"><ele>87.0</ele><time>2026-03-28T14:13:59.179Z</time></trkpt><trkpt lat="44.3972803" lon="11.5786013"><ele>87.0</ele><time>2026-03-28T14:14:00.188Z</time></trkpt><trkpt lat="44.397165" lon="11.5786178"><ele>87.0</ele><time>2026-03-28T14:14:01.174Z</time></trkpt><trkpt lat="44.3970498" lon="11.5786412"><ele>87.0</ele><time>2026-03-28T14:14:02.181Z</time></trkpt><trkpt lat="44.3969466" lon="11.5786689"><ele>87.0</ele><time>2026-03-28T14:14:03.168Z</time></trkpt><trkpt lat="44.3968542" lon="11.578699"><ele>87.0</ele><time>2026-03-28T14:14:04.178Z</time></trkpt><trkpt lat="44.3967753" lon="11.5787239"><ele>87.0</ele><time>2026-03-28T14:14:05.167Z</time></trkpt><trkpt lat="44.3967031" lon="11.5787415"><ele>87.0</ele><time>2026-03-28T14:14:06.172Z</time></trkpt><trkpt lat="44.3966319" lon="11.5787453"><ele>87.0</ele><time>2026-03-28T14:14:07.168Z</time></trkpt><trkpt lat="44.3965502" lon="11.5787245"><ele>87.0</ele><time>2026-03-28T14:14:08.188Z</time></trkpt><trkpt lat="44.3964689" lon="11.5786779"><ele>87.0</ele><time>2026-03-28T14:14:09.179Z</time></trkpt><trkpt lat="44.3964" lon="11.5785998"><ele>87.0</ele><time>2026-03-28T14:14:10.181Z</time></trkpt><trkpt lat="44.39636" lon="11.578503"><ele>87.6</ele><time>2026-03-28T14:14:11.177Z</time></trkpt><trkpt lat="44.3963513" lon="11.5783579"><ele>88.19999999999999</ele><time>2026-03-28T14:14:13.166Z</time></trkpt><trkpt lat="44.3963812" lon="11.5781893"><ele>88.8</ele><time>2026-03-28T14:14:15.176Z</time></trkpt><trkpt lat="44.3964002" lon="11.5780521"><ele>89.4</ele><time>2026-03-28T14:14:16.185Z</time></trkpt><trkpt lat="44.3964149" lon="11.5779085"><ele>90.0</ele><time>2026-03-28T14:14:17.175Z</time></trkpt><trkpt lat="44.3964352" lon="11.5777314"><ele>90.75</ele><time>2026-03-28T14:14:18.175Z</time></trkpt><trkpt lat="44.3964587" lon="11.5775386"><ele>91.5</ele><time>2026-03-28T14:14:19.175Z</time></trkpt><trkpt lat="44.3964822" lon="11.5773398"><ele>92.25</ele><time>2026-03-28T14:14:20.183Z</time></trkpt><trkpt lat="44.3965079" lon="11.5771346"><ele>93.0</ele><time>2026-03-28T14:14:21.17Z</time></trkpt><trkpt lat="44.3965345" lon="11.576896"><ele>95.33333333333334</ele><time>2026-03-28T14:14:22.209Z</time></trkpt><trkpt lat="44.3965523" lon="11.5766683"><ele>97.66666666666667</ele><time>2026-03-28T14:14:23.183Z</time></trkpt><trkpt lat="44.396547" lon="11.5764235"><ele>100.0</ele><time>2026-03-28T14:14:24.192Z</time></trkpt><trkpt lat="44.3965259" lon="11.5761807"><ele>100.0</ele><time>2026-03-28T14:14:25.175Z</time></trkpt><trkpt lat="44.3964859" lon="11.5759244"><ele>100.0</ele><time>2026-03-28T14:14:26.179Z</time></trkpt><trkpt lat="44.3964424" lon="11.5756742"><ele>100.0</ele><time>2026-03-28T14:14:27.172Z</time></trkpt><trkpt lat="44.3964059" lon="11.5754405"><ele>100.5</ele><time>2026-03-28T14:14:28.171Z</time></trkpt><trkpt lat="44.3963728" lon="11.5752269"><ele>101.0</ele><time>2026-03-28T14:14:29.181Z</time></trkpt><trkpt lat="44.3963393" lon="11.5750278"><ele>101.5</ele><time>2026-03-28T14:14:30.204Z</time></trkpt><trkpt lat="44.3963079" lon="11.5748571"><ele>102.0</ele><time>2026-03-28T14:14:31.177Z</time></trkpt><trkpt lat="44.3962593" lon="11.5746966"><ele>103.5</ele><time>2026-03-28T14:14:32.192Z</time></trkpt><trkpt lat="44.3961867" lon="11.5745651"><ele>105.0</ele><time>2026-03-28T14:14:33.167Z</time></trkpt><trkpt lat="44.3961029" lon="11.5744554"><ele>106.5</ele><time>2026-03-28T14:14:34.189Z</time></trkpt><trkpt lat="44.3960014" lon="11.5743736"><ele>108.0</ele><time>2026-03-28T14:14:35.177Z</time></trkpt><trkpt lat="44.3958827" lon="11.5743209"><ele>108.75</ele><time>2026-03-28T14:14:36.186Z</time></trkpt><trkpt lat="44.3957564" lon="11.5743226"><ele>109.5</ele><time>2026-03-28T14:14:37.179Z</time></trkpt><trkpt lat="44.3956083" lon="11.5743369"><ele>110.25</ele><time>2026-03-28T14:14:38.179Z</time></trkpt><trkpt lat="44.3954374" lon="11.5743755"><ele>111.0</ele><time>2026-03-28T14:14:39.177Z</time></trkpt><trkpt lat="44.3952722" lon="11.5744513"><ele>111.33333333333334</ele><time>2026-03-28T14:14:40.196Z</time></trkpt><trkpt lat="44.3951174" lon="11.5745553"><ele>111.66666666666667</ele><time>2026-03-28T14:14:41.169Z</time></trkpt><trkpt lat="44.3949568" lon="11.5746815"><ele>112.0</ele><time>2026-03-28T14:14:42.19Z</time></trkpt><trkpt lat="44.3947959" lon="11.5748272"><ele>113.33333333333334</ele><time>2026-03-28T14:14:43.184Z</time></trkpt><trkpt lat="44.3946442" lon="11.5749829"><ele>114.66666666666666</ele><time>2026-03-28T14:14:44.175Z</time></trkpt><trkpt lat="44.3945041" lon="11.5751574"><ele>116.0</ele><time>2026-03-28T14:14:45.179Z</time></trkpt><trkpt lat="44.3943706" lon="11.575342"><ele>115.66666666666666</ele><time>2026-03-28T14:14:46.171Z</time></trkpt><trkpt lat="44.394246" lon="11.5755311"><ele>115.33333333333334</ele><time>2026-03-28T14:14:47.182Z</time></trkpt><trkpt lat="44.3941284" lon="11.5757049"><ele>115.0</ele><time>2026-03-28T14:14:48.18Z</time></trkpt><trkpt lat="44.3940141" lon="11.5758473"><ele>115.0</ele><time>2026-03-28T14:14:49.168Z</time></trkpt><trkpt lat="44.3938822" lon="11.5759609"><ele>115.0</ele><time>2026-03-28T14:14:50.191Z</time></trkpt><trkpt lat="44.3937443" lon="11.5760385"><ele>115.0</ele><time>2026-03-28T14:14:51.184Z</time></trkpt><trkpt lat="44.3935959" lon="11.5761175"><ele>115.33333333333334</ele><time>2026-03-28T14:14:52.196Z</time></trkpt><trkpt lat="44.3934413" lon="11.576194"><ele>115.66666666666666</ele><time>2026-03-28T14:14:53.171Z</time></trkpt><trkpt lat="44.3932768" lon="11.5762827"><ele>116.0</ele><time>2026-03-28T14:14:54.207Z</time></trkpt><trkpt lat="44.3931191" lon="11.5763604"><ele>117.33333333333333</ele><time>2026-03-28T14:14:55.174Z</time></trkpt><trkpt lat="44.3929656" lon="11.576438"><ele>118.66666666666666</ele><time>2026-03-28T14:14:56.203Z</time></trkpt><trkpt lat="44.3928276" lon="11.5765093"><ele>120.0</ele><time>2026-03-28T14:14:57.174Z</time></trkpt><trkpt lat="44.3926935" lon="11.5765743"><ele>120.0</ele><time>2026-03-28T14:14:58.194Z</time></trkpt><trkpt lat="44.3925608" lon="11.576623"><ele>120.0</ele><time>2026-03-28T14:14:59.195Z</time></trkpt><trkpt lat="44.3924199" lon="11.5766481"><ele>120.0</ele><time>2026-03-28T14:15:00.179Z</time></trkpt><trkpt lat="44.392269" lon="11.5766405"><ele>120.0</ele><time>2026-03-28T14:15:01.177Z</time></trkpt><trkpt lat="44.3921175" lon="11.5766005"><ele>121.66666666666666</ele><time>2026-03-28T14:15:02.18Z</time></trkpt><trkpt lat="44.3919616" lon="11.5765521"><ele>123.33333333333333</ele><time>2026-03-28T14:15:03.179Z</time></trkpt><trkpt lat="44.3918052" lon="11.5765119"><ele>125.0</ele><time>2026-03-28T14:15:04.183Z</time></trkpt><trkpt lat="44.3916428" lon="11.5764741"><ele>125.0</ele><time>2026-03-28T14:15:05.179Z</time></trkpt><trkpt lat="44.3914738" lon="11.5764345"><ele>125.0</ele><time>2026-03-28T14:15:06.179Z</time></trkpt><trkpt lat="44.3912958" lon="11.5763964"><ele>125.0</ele><time>2026-03-28T14:15:07.182Z</time></trkpt><trkpt lat="44.3911115" lon="11.576352"><ele>127.0</ele><time>2026-03-28T14:15:08.198Z</time></trkpt><trkpt lat="44.3909319" lon="11.5763059"><ele>129.0</ele><time>2026-03-28T14:15:09.166Z</time></trkpt><trkpt lat="44.39074" lon="11.5762533"><ele>131.0</ele><time>2026-03-28T14:15:10.171Z</time></trkpt><trkpt lat="44.3905558" lon="11.5761979"><ele>132.0</ele><time>2026-03-28T14:15:11.186Z</time></trkpt><trkpt lat="44.3903844" lon="11.576165"><ele>133.0</ele><time>2026-03-28T14:15:12.179Z</time></trkpt><trkpt lat="44.3902116" lon="11.576139"><ele>134.0</ele><time>2026-03-28T14:15:13.189Z</time></trkpt><trkpt lat="44.3900451" lon="11.5761252"><ele>134.0</ele><time>2026-03-28T14:15:14.167Z</time></trkpt><trkpt lat="44.3898585" lon="11.5761193"><ele>134.0</ele><time>2026-03-28T14:15:15.189Z</time></trkpt><trkpt lat="44.3896782" lon="11.5761263"><ele>134.0</ele><time>2026-03-28T14:15:16.175Z</time></trkpt><trkpt lat="44.3894888" lon="11.5761518"><ele>135.0</ele><time>2026-03-28T14:15:17.18Z</time></trkpt><trkpt lat="44.3893002" lon="11.5761875"><ele>136.0</ele><time>2026-03-28T14:15:18.181Z</time></trkpt><trkpt lat="44.3891123" lon="11.5762369"><ele>137.0</ele><time>2026-03-28T14:15:19.177Z</time></trkpt><trkpt lat="44.3889199" lon="11.5762804"><ele>138.66666666666666</ele><time>2026-03-28T14:15:20.173Z</time></trkpt><trkpt lat="44.3887286" lon="11.5763158"><ele>140.33333333333334</ele><time>2026-03-28T14:15:21.173Z</time></trkpt><trkpt lat="44.3885389" lon="11.5763341"><ele>142.0</ele><time>2026-03-28T14:15:22.193Z</time></trkpt><trkpt lat="44.3883516" lon="11.5763382"><ele>142.0</ele><time>2026-03-28T14:15:23.169Z</time></trkpt><trkpt lat="44.3881557" lon="11.576334"><ele>142.0</ele><time>2026-03-28T14:15:24.178Z</time></trkpt><trkpt lat="44.3879572" lon="11.5763144"><ele>142.0</ele><time>2026-03-28T14:15:25.187Z</time></trkpt><trkpt lat="44.3877593" lon="11.5762805"><ele>143.0</ele><time>2026-03-28T14:15:26.175Z</time></trkpt><trkpt lat="44.3875572" lon="11.576245"><ele>144.0</ele><time>2026-03-28T14:15:27.176Z</time></trkpt><trkpt lat="44.3873489" lon="11.5761959"><ele>145.0</ele><time>2026-03-28T14:15:28.204Z</time></trkpt><trkpt lat="44.3871502" lon="11.5761381"><ele>146.66666666666669</ele><time>2026-03-28T14:15:29.189Z</time></trkpt><trkpt lat="44.3869618" lon="11.5760798"><ele>148.33333333333334</ele><time>2026-03-28T14:15:30.193Z</time></trkpt><trkpt lat="44.3867773" lon="11.5760179"><ele>150.0</ele><time>2026-03-28T14:15:31.18Z</time></trkpt><trkpt lat="44.3865934" lon="11.5759602"><ele>150.0</ele><time>2026-03-28T14:15:32.193Z</time></trkpt><trkpt lat="44.386415" lon="11.5759011"><ele>150.0</ele><time>2026-03-28T14:15:33.173Z</time></trkpt><trkpt lat="44.3862314" lon="11.5758426"><ele>150.0</ele><time>2026-03-28T14:15:34.171Z</time></trkpt><trkpt lat="44.3860351" lon="11.5757846"><ele>151.0</ele><time>2026-03-28T14:15:35.195Z</time></trkpt><trkpt lat="44.3858396" lon="11.5757242"><ele>152.0</ele><time>2026-03-28T14:15:36.169Z</time></trkpt><trkpt lat="44.3856375" lon="11.5756575"><ele>153.0</ele><time>2026-03-28T14:15:37.19Z</time></trkpt><trkpt lat="44.3854419" lon="11.5755877"><ele>154.66666666666666</ele><time>2026-03-28T14:15:38.171Z</time></trkpt><trkpt lat="44.3852431" lon="11.5755144"><ele>156.33333333333331</ele><time>2026-03-28T14:15:39.188Z</time></trkpt><trkpt lat="44.3850505" lon="11.5754388"><ele>158.0</ele><time>2026-03-28T14:15:40.171Z</time></trkpt><trkpt lat="44.384851" lon="11.5753513"><ele>160.33333333333331</ele><time>2026-03-28T14:15:41.168Z</time></trkpt><trkpt lat="44.3846478" lon="11.5752494"><ele>162.66666666666666</ele><time>2026-03-28T14:15:42.193Z</time></trkpt><trkpt lat="44.3844456" lon="11.5751455"><ele>165.0</ele><time>2026-03-28T14:15:43.195Z</time></trkpt><trkpt lat="44.3842435" lon="11.5750385"><ele>165.0</ele><time>2026-03-28T14:15:44.189Z</time></trkpt><trkpt lat="44.3840389" lon="11.5749352"><ele>165.0</ele><time>2026-03-28T14:15:45.181Z</time></trkpt><trkpt lat="44.3838326" lon="11.5748269"><ele>165.0</ele><time>2026-03-28T14:15:46.183Z</time></trkpt><trkpt lat="44.3836249" lon="11.5747069"><ele>165.66666666666666</ele><time>2026-03-28T14:15:47.187Z</time></trkpt><trkpt lat="44.3834057" lon="11.5745719"><ele>166.33333333333331</ele><time>2026-03-28T14:15:48.253Z</time></trkpt><trkpt lat="44.3832142" lon="11.574456"><ele>167.0</ele><time>2026-03-28T14:15:49.173Z</time></trkpt><trkpt lat="44.3830104" lon="11.5743302"><ele>169.0</ele><time>2026-03-28T14:15:50.167Z</time></trkpt><trkpt lat="44.3828071" lon="11.5741922"><ele>171.0</ele><time>2026-03-28T14:15:51.179Z</time></trkpt><trkpt lat="44.38262" lon="11.5740467"><ele>173.0</ele><time>2026-03-28T14:15:52.175Z</time></trkpt><trkpt lat="44.3824464" lon="11.5738959"><ele>173.0</ele><time>2026-03-28T14:15:53.181Z</time></trkpt><trkpt lat="44.3822713" lon="11.5737403"><ele>173.0</ele><time>2026-03-28T14:15:54.189Z</time></trkpt><trkpt lat="44.3820941" lon="11.5735978"><ele>173.0</ele><time>2026-03-28T14:15:55.189Z</time></trkpt><trkpt lat="44.38192" lon="11.573476"><ele>174.33333333333331</ele><time>2026-03-28T14:15:56.191Z</time></trkpt><trkpt lat="44.3817473" lon="11.5733766"><ele>175.66666666666666</ele><time>2026-03-28T14:15:57.174Z</time></trkpt><trkpt lat="44.3815806" lon="11.5732801"><ele>177.0</ele><time>2026-03-28T14:15:58.183Z</time></trkpt><trkpt lat="44.3814307" lon="11.5731754"><ele>177.66666666666666</ele><time>2026-03-28T14:15:59.194Z</time></trkpt><trkpt lat="44.38128" lon="11.5730647"><ele>178.33333333333331</ele><time>2026-03-28T14:16:00.189Z</time></trkpt><trkpt lat="44.3811307" lon="11.5729345"><ele>179.0</ele><time>2026-03-28T14:16:01.189Z</time></trkpt><trkpt lat="44.3809775" lon="11.5727752"><ele>179.0</ele><time>2026-03-28T14:16:02.181Z</time></trkpt><trkpt lat="44.380819" lon="11.5726079"><ele>179.0</ele><time>2026-03-28T14:16:03.188Z</time></trkpt><trkpt lat="44.3806551" lon="11.5724207"><ele>179.0</ele><time>2026-03-28T14:16:04.203Z</time></trkpt><trkpt lat="44.3804769" lon="11.5722394"><ele>179.33333333333331</ele><time>2026-03-28T14:16:05.184Z</time></trkpt><trkpt lat="44.3802939" lon="11.5720616"><ele>179.66666666666666</ele><time>2026-03-28T14:16:06.191Z</time></trkpt><trkpt lat="44.380124" lon="11.5719049"><ele>180.0</ele><time>2026-03-28T14:16:07.187Z</time></trkpt><trkpt lat="44.3799594" lon="11.5717497"><ele>181.33333333333334</ele><time>2026-03-28T14:16:08.194Z</time></trkpt><trkpt lat="44.3798061" lon="11.5715937"><ele>182.66666666666669</ele><time>2026-03-28T14:16:09.188Z</time></trkpt><trkpt lat="44.3796563" lon="11.5714345"><ele>184.0</ele><time>2026-03-28T14:16:10.18Z</time></trkpt><trkpt lat="44.379517" lon="11.5712533"><ele>185.0</ele><time>2026-03-28T14:16:11.182Z</time></trkpt><trkpt lat="44.3793902" lon="11.5710662"><ele>186.0</ele><time>2026-03-28T14:16:12.164Z</time></trkpt><trkpt lat="44.3792692" lon="11.5708797"><ele>187.0</ele><time>2026-03-28T14:16:13.186Z</time></trkpt><trkpt lat="44.3791582" lon="11.5707125"><ele>187.0</ele><time>2026-03-28T14:16:14.173Z</time></trkpt><trkpt lat="44.379055" lon="11.570542"><ele>187.0</ele><time>2026-03-28T14:16:15.209Z</time></trkpt><trkpt lat="44.3789771" lon="11.5703763"><ele>187.0</ele><time>2026-03-28T14:16:16.189Z</time></trkpt><trkpt lat="44.3789133" lon="11.570191"><ele>187.0</ele><time>2026-03-28T14:16:17.195Z</time></trkpt><trkpt lat="44.3788781" lon="11.5699787"><ele>187.0</ele><time>2026-03-28T14:16:18.187Z</time></trkpt><trkpt lat="44.3788553" lon="11.5697461"><ele>187.0</ele><time>2026-03-28T14:16:19.19Z</time></trkpt><trkpt lat="44.3788281" lon="11.5695019"><ele>187.0</ele><time>2026-03-28T14:16:20.213Z</time></trkpt><trkpt lat="44.378803" lon="11.5692621"><ele>186.66666666666669</ele><time>2026-03-28T14:16:21.169Z</time></trkpt><trkpt lat="44.3787673" lon="11.5690078"><ele>186.33333333333334</ele><time>2026-03-28T14:16:22.187Z</time></trkpt><trkpt lat="44.3787278" lon="11.5687558"><ele>186.0</ele><time>2026-03-28T14:16:23.176Z</time></trkpt><trkpt lat="44.3786796" lon="11.5684856"><ele>186.0</ele><time>2026-03-28T14:16:24.213Z</time></trkpt><trkpt lat="44.3786211" lon="11.5682308"><ele>186.0</ele><time>2026-03-28T14:16:25.18Z</time></trkpt><trkpt lat="44.3785469" lon="11.5679563"><ele>186.0</ele><time>2026-03-28T14:16:26.214Z</time></trkpt><trkpt lat="44.3784731" lon="11.5677019"><ele>187.33333333333334</ele><time>2026-03-28T14:16:27.185Z</time></trkpt><trkpt lat="44.378396" lon="11.567451"><ele>188.66666666666669</ele><time>2026-03-28T14:16:28.185Z</time></trkpt><trkpt lat="44.3783184" lon="11.5672042"><ele>190.0</ele><time>2026-03-28T14:16:29.179Z</time></trkpt><trkpt lat="44.3782425" lon="11.5669584"><ele>192.33333333333334</ele><time>2026-03-28T14:16:30.167Z</time></trkpt><trkpt lat="44.3781604" lon="11.566713"><ele>194.66666666666669</ele><time>2026-03-28T14:16:31.175Z</time></trkpt><trkpt lat="44.3780789" lon="11.5664775"><ele>197.0</ele><time>2026-03-28T14:16:32.183Z</time></trkpt><trkpt lat="44.37801" lon="11.5662524"><ele>200.0</ele><time>2026-03-28T14:16:33.165Z</time></trkpt><trkpt lat="44.3779436" lon="11.5660202"><ele>203.0</ele><time>2026-03-28T14:16:34.196Z</time></trkpt><trkpt lat="44.3778915" lon="11.5657943"><ele>206.0</ele><time>2026-03-28T14:16:35.168Z</time></trkpt><trkpt lat="44.3778474" lon="11.56554"><ele>207.0</ele><time>2026-03-28T14:16:36.233Z</time></trkpt><trkpt lat="44.3778217" lon="11.5653196"><ele>208.0</ele><time>2026-03-28T14:16:37.17Z</time></trkpt><trkpt lat="44.3778001" lon="11.5650734"><ele>209.0</ele><time>2026-03-28T14:16:38.185Z</time></trkpt><trkpt lat="44.3777881" lon="11.5648238"><ele>209.0</ele><time>2026-03-28T14:16:39.181Z</time></trkpt><trkpt lat="44.3777893" lon="11.5645719"><ele>209.0</ele><time>2026-03-28T14:16:40.176Z</time></trkpt><trkpt lat="44.3777962" lon="11.5643099"><ele>209.0</ele><time>2026-03-28T14:16:41.196Z</time></trkpt><trkpt lat="44.3778069" lon="11.5640695"><ele>210.0</ele><time>2026-03-28T14:16:42.179Z</time></trkpt><trkpt lat="44.3778115" lon="11.5638289"><ele>211.0</ele><time>2026-03-28T14:16:43.178Z</time></trkpt><trkpt lat="44.3778167" lon="11.5635913"><ele>212.0</ele><time>2026-03-28T14:16:44.198Z</time></trkpt><trkpt lat="44.3778181" lon="11.5633649"><ele>212.25</ele><time>2026-03-28T14:16:45.191Z</time></trkpt><trkpt lat="44.3778255" lon="11.5631447"><ele>212.5</ele><time>2026-03-28T14:16:46.208Z</time></trkpt><trkpt lat="44.3778313" lon="11.5629377"><ele>212.75</ele><time>2026-03-28T14:16:47.177Z</time></trkpt><trkpt lat="44.3778198" lon="11.5627395"><ele>213.0</ele><time>2026-03-28T14:16:48.183Z</time></trkpt><trkpt lat="44.3777807" lon="11.5625448"><ele>213.0</ele><time>2026-03-28T14:16:49.171Z</time></trkpt><trkpt lat="44.3777176" lon="11.5623388"><ele>213.0</ele><time>2026-03-28T14:16:50.198Z</time></trkpt><trkpt lat="44.3776421" lon="11.5621336"><ele>213.0</ele><time>2026-03-28T14:16:51.18Z</time></trkpt><trkpt lat="44.377548" lon="11.5619308"><ele>212.33333333333331</ele><time>2026-03-28T14:16:52.184Z</time></trkpt><trkpt lat="44.3774314" lon="11.5617491"><ele>211.66666666666666</ele><time>2026-03-28T14:16:53.174Z</time></trkpt><trkpt lat="44.3773019" lon="11.5615775"><ele>211.0</ele><time>2026-03-28T14:16:54.172Z</time></trkpt><trkpt lat="44.3771638" lon="11.5613989"><ele>210.66666666666666</ele><time>2026-03-28T14:16:55.172Z</time></trkpt><trkpt lat="44.3770393" lon="11.5612058"><ele>210.33333333333331</ele><time>2026-03-28T14:16:56.186Z</time></trkpt><trkpt lat="44.3769236" lon="11.5610049"><ele>210.0</ele><time>2026-03-28T14:16:57.202Z</time></trkpt><trkpt lat="44.376822" lon="11.5608151"><ele>210.0</ele><time>2026-03-28T14:16:58.193Z</time></trkpt><trkpt lat="44.3767228" lon="11.5606338"><ele>210.0</ele><time>2026-03-28T14:16:59.186Z</time></trkpt><trkpt lat="44.3766343" lon="11.5604613"><ele>210.0</ele><time>2026-03-28T14:17:00.173Z</time></trkpt><trkpt lat="44.3765481" lon="11.5602897"><ele>209.75</ele><time>2026-03-28T14:17:01.183Z</time></trkpt><trkpt lat="44.3764652" lon="11.5601261"><ele>209.5</ele><time>2026-03-28T14:17:02.181Z</time></trkpt><trkpt lat="44.3763849" lon="11.5599626"><ele>209.25</ele><time>2026-03-28T14:17:03.184Z</time></trkpt><trkpt lat="44.3763192" lon="11.5597953"><ele>209.0</ele><time>2026-03-28T14:17:04.178Z</time></trkpt><trkpt lat="44.3762744" lon="11.5596125"><ele>203.33333333333334</ele><time>2026-03-28T14:17:05.187Z</time></trkpt><trkpt lat="44.37624" lon="11.5594076"><ele>197.66666666666669</ele><time>2026-03-28T14:17:06.185Z</time></trkpt><trkpt lat="44.37622" lon="11.5591937"><ele>192.0</ele><time>2026-03-28T14:17:07.176Z</time></trkpt><trkpt lat="44.3762084" lon="11.5589692"><ele>192.0</ele><time>2026-03-28T14:17:08.181Z</time></trkpt><trkpt lat="44.3761914" lon="11.5587377"><ele>192.0</ele><time>2026-03-28T14:17:09.174Z</time></trkpt><trkpt lat="44.3761635" lon="11.5585028"><ele>192.0</ele><time>2026-03-28T14:17:10.173Z</time></trkpt><trkpt lat="44.3761251" lon="11.558266"><ele>192.0</ele><time>2026-03-28T14:17:11.181Z</time></trkpt><trkpt lat="44.3760732" lon="11.5580333"><ele>192.0</ele><time>2026-03-28T14:17:12.169Z</time></trkpt><trkpt lat="44.3760253" lon="11.5577884"><ele>192.0</ele><time>2026-03-28T14:17:13.192Z</time></trkpt><trkpt lat="44.3759879" lon="11.5575428"><ele>195.0</ele><time>2026-03-28T14:17:14.179Z</time></trkpt><trkpt lat="44.3759472" lon="11.5572894"><ele>198.0</ele><time>2026-03-28T14:17:15.198Z</time></trkpt><trkpt lat="44.3759059" lon="11.5570459"><ele>201.0</ele><time>2026-03-28T14:17:16.177Z</time></trkpt><trkpt lat="44.3758655" lon="11.5567992"><ele>202.66666666666669</ele><time>2026-03-28T14:17:17.183Z</time></trkpt><trkpt lat="44.3758311" lon="11.5565521"><ele>204.33333333333334</ele><time>2026-03-28T14:17:18.179Z</time></trkpt><trkpt lat="44.3758039" lon="11.5563046"><ele>206.0</ele><time>2026-03-28T14:17:19.2Z</time></trkpt><trkpt lat="44.375781" lon="11.5560793"><ele>207.66666666666669</ele><time>2026-03-28T14:17:20.186Z</time></trkpt><trkpt lat="44.375764" lon="11.5558513"><ele>209.33333333333331</ele><time>2026-03-28T14:17:21.204Z</time></trkpt><trkpt lat="44.3757651" lon="11.5556418"><ele>211.0</ele><time>2026-03-28T14:17:22.182Z</time></trkpt><trkpt lat="44.3758061" lon="11.555434"><ele>213.25</ele><time>2026-03-28T14:17:23.2Z</time></trkpt><trkpt lat="44.3758662" lon="11.5552512"><ele>215.5</ele><time>2026-03-28T14:17:24.179Z</time></trkpt><trkpt lat="44.3759324" lon="11.5550876"><ele>217.75</ele><time>2026-03-28T14:17:25.183Z</time></trkpt><trkpt lat="44.3759863" lon="11.5549536"><ele>220.0</ele><time>2026-03-28T14:17:26.178Z</time></trkpt><trkpt lat="44.3760173" lon="11.554821"><ele>220.0</ele><time>2026-03-28T14:17:27.187Z</time></trkpt><trkpt lat="44.3760025" lon="11.5547009"><ele>220.0</ele><time>2026-03-28T14:17:28.184Z</time></trkpt><trkpt lat="44.3759456" lon="11.5546056"><ele>220.0</ele><time>2026-03-28T14:17:29.177Z</time></trkpt><trkpt lat="44.3758546" lon="11.5545337"><ele>220.0</ele><time>2026-03-28T14:17:30.2Z</time></trkpt><trkpt lat="44.3757419" lon="11.5544763"><ele>220.0</ele><time>2026-03-28T14:17:31.166Z</time></trkpt><trkpt lat="44.3755957" lon="11.5544246"><ele>221.25</ele><time>2026-03-28T14:17:32.191Z</time></trkpt><trkpt lat="44.3754587" lon="11.5543622"><ele>222.5</ele><time>2026-03-28T14:17:33.171Z</time></trkpt><trkpt lat="44.3753233" lon="11.5543077"><ele>223.75</ele><time>2026-03-28T14:17:34.177Z</time></trkpt><trkpt lat="44.3752047" lon="11.5542566"><ele>225.0</ele><time>2026-03-28T14:17:35.182Z</time></trkpt><trkpt lat="44.3751181" lon="11.554189"><ele>225.0</ele><time>2026-03-28T14:17:36.191Z</time></trkpt><trkpt lat="44.3750581" lon="11.5540934"><ele>225.0</ele><time>2026-03-28T14:17:37.199Z</time></trkpt><trkpt lat="44.3750432" lon="11.5539833"><ele>225.0</ele><time>2026-03-28T14:17:38.191Z</time></trkpt><trkpt lat="44.3750621" lon="11.5538551"><ele>225.0</ele><time>2026-03-28T14:17:39.167Z</time></trkpt><trkpt lat="44.3751255" lon="11.5537508"><ele>225.0</ele><time>2026-03-28T14:17:40.196Z</time></trkpt><trkpt lat="44.3752184" lon="11.5536964"><ele>226.0</ele><time>2026-03-28T14:17:41.176Z</time></trkpt><trkpt lat="44.3753412" lon="11.5536846"><ele>227.0</ele><time>2026-03-28T14:17:42.186Z</time></trkpt><trkpt lat="44.3754804" lon="11.5536978"><ele>228.0</ele><time>2026-03-28T14:17:43.176Z</time></trkpt><trkpt lat="44.3756374" lon="11.5537229"><ele>229.0</ele><time>2026-03-28T14:17:44.189Z</time></trkpt><trkpt lat="44.3757991" lon="11.5537459"><ele>229.0</ele><time>2026-03-28T14:17:45.18Z</time></trkpt><trkpt lat="44.3759727" lon="11.5537675"><ele>229.0</ele><time>2026-03-28T14:17:46.181Z</time></trkpt><trkpt lat="44.3761501" lon="11.5537983"><ele>229.0</ele><time>2026-03-28T14:17:47.19Z</time></trkpt><trkpt lat="44.3763204" lon="11.5538336"><ele>231.0</ele><time>2026-03-28T14:17:48.189Z</time></trkpt><trkpt lat="44.37653" lon="11.5539006"><ele>233.0</ele><time>2026-03-28T14:17:49.532Z</time></trkpt><trkpt lat="44.3767015" lon="11.5539231"><ele>235.0</ele><time>2026-03-28T14:17:51.235Z</time></trkpt><trkpt lat="44.376799" lon="11.5539226"><ele>234.99999999999997</ele><time>2026-03-28T14:17:52.226Z</time></trkpt><trkpt lat="44.3768792" lon="11.5538767"><ele>235.0</ele><time>2026-03-28T14:17:53.241Z</time></trkpt><trkpt lat="44.3769392" lon="11.5537937"><ele>235.0</ele><time>2026-03-28T14:17:54.242Z</time></trkpt><trkpt lat="44.3769727" lon="11.5536964"><ele>235.0</ele><time>2026-03-28T14:17:55.19Z</time></trkpt><trkpt lat="44.3769866" lon="11.5535794"><ele>234.99999999999997</ele><time>2026-03-28T14:17:56.181Z</time></trkpt><trkpt lat="44.3769798" lon="11.5534554"><ele>235.0</ele><time>2026-03-28T14:17:57.191Z</time></trkpt><trkpt lat="44.3769374" lon="11.5533423"><ele>237.75</ele><time>2026-03-28T14:17:58.166Z</time></trkpt><trkpt lat="44.3768517" lon="11.5532353"><ele>240.5</ele><time>2026-03-28T14:17:59.176Z</time></trkpt><trkpt lat="44.3767337" lon="11.5531415"><ele>243.25</ele><time>2026-03-28T14:18:00.178Z</time></trkpt><trkpt lat="44.3766045" lon="11.5530463"><ele>246.0</ele><time>2026-03-28T14:18:01.168Z</time></trkpt><trkpt lat="44.3764649" lon="11.5529304"><ele>249.33333333333331</ele><time>2026-03-28T14:18:02.193Z</time></trkpt><trkpt lat="44.3763191" lon="11.5528046"><ele>252.66666666666666</ele><time>2026-03-28T14:18:03.2Z</time></trkpt><trkpt lat="44.3761067" lon="11.5526169"><ele>256.0</ele><time>2026-03-28T14:18:04.536Z</time></trkpt><trkpt lat="44.3758963" lon="11.5524651"><ele>256.0</ele><time>2026-03-28T14:18:06.241Z</time></trkpt><trkpt lat="44.3757592" lon="11.5523311"><ele>256.0</ele><time>2026-03-28T14:18:07.245Z</time></trkpt><trkpt lat="44.3756408" lon="11.5521717"><ele>256.0</ele><time>2026-03-28T14:18:08.244Z</time></trkpt><trkpt lat="44.3755315" lon="11.551994"><ele>257.0</ele><time>2026-03-28T14:18:09.246Z</time></trkpt><trkpt lat="44.3754267" lon="11.5518081"><ele>258.0</ele><time>2026-03-28T14:18:10.247Z</time></trkpt><trkpt lat="44.3753418" lon="11.5516148"><ele>259.0</ele><time>2026-03-28T14:18:11.222Z</time></trkpt><trkpt lat="44.3752781" lon="11.5513961"><ele>261.3333333333333</ele><time>2026-03-28T14:18:12.235Z</time></trkpt><trkpt lat="44.3752238" lon="11.5511843"><ele>263.6666666666667</ele><time>2026-03-28T14:18:13.189Z</time></trkpt><trkpt lat="44.3751717" lon="11.5509585"><ele>266.0</ele><time>2026-03-28T14:18:14.182Z</time></trkpt><trkpt lat="44.3751133" lon="11.550734"><ele>266.0</ele><time>2026-03-28T14:18:15.175Z</time></trkpt><trkpt lat="44.3750461" lon="11.5505156"><ele>266.0</ele><time>2026-03-28T14:18:16.184Z</time></trkpt><trkpt lat="44.3749835" lon="11.550316"><ele>266.0</ele><time>2026-03-28T14:18:17.181Z</time></trkpt><trkpt lat="44.374915" lon="11.5501251"><ele>266.0</ele><time>2026-03-28T14:18:18.185Z</time></trkpt><trkpt lat="44.3748496" lon="11.5499534"><ele>266.0</ele><time>2026-03-28T14:18:19.18Z</time></trkpt><trkpt lat="44.3747827" lon="11.5497833"><ele>266.0</ele><time>2026-03-28T14:18:20.168Z</time></trkpt><trkpt lat="44.3747176" lon="11.5496137"><ele>266.0</ele><time>2026-03-28T14:18:21.187Z</time></trkpt><trkpt lat="44.3746498" lon="11.5494409"><ele>267.5</ele><time>2026-03-28T14:18:22.189Z</time></trkpt><trkpt lat="44.3745838" lon="11.5492792"><ele>269.0</ele><time>2026-03-28T14:18:23.186Z</time></trkpt><trkpt lat="44.3745025" lon="11.549077"><ele>270.5</ele><time>2026-03-28T14:18:24.181Z</time></trkpt><trkpt lat="44.3744319" lon="11.5488926"><ele>272.0</ele><time>2026-03-28T14:18:25.196Z</time></trkpt><trkpt lat="44.3743531" lon="11.5487054"><ele>273.75</ele><time>2026-03-28T14:18:26.181Z</time></trkpt><trkpt lat="44.3742818" lon="11.5485365"><ele>275.5</ele><time>2026-03-28T14:18:27.176Z</time></trkpt><trkpt lat="44.3742036" lon="11.5483854"><ele>277.25</ele><time>2026-03-28T14:18:28.181Z</time></trkpt><trkpt lat="44.3741177" lon="11.5482696"><ele>279.0</ele><time>2026-03-28T14:18:29.167Z</time></trkpt><trkpt lat="44.3740164" lon="11.5481953"><ele>279.0</ele><time>2026-03-28T14:18:30.187Z</time></trkpt><trkpt lat="44.3738947" lon="11.5481439"><ele>279.0</ele><time>2026-03-28T14:18:31.191Z</time></trkpt><trkpt lat="44.3737894" lon="11.5480928"><ele>279.0</ele><time>2026-03-28T14:18:32.177Z</time></trkpt><trkpt lat="44.3736818" lon="11.5480551"><ele>279.0</ele><time>2026-03-28T14:18:33.192Z</time></trkpt><trkpt lat="44.3735658" lon="11.5480208"><ele>280.0</ele><time>2026-03-28T14:18:34.178Z</time></trkpt><trkpt lat="44.3733797" lon="11.5479587"><ele>281.0</ele><time>2026-03-28T14:18:35.499Z</time></trkpt><trkpt lat="44.3732636" lon="11.5479351"><ele>282.0</ele><time>2026-03-28T14:18:37.254Z</time></trkpt><trkpt lat="44.3731572" lon="11.5479066"><ele>283.0</ele><time>2026-03-28T14:18:38.234Z</time></trkpt><trkpt lat="44.3730342" lon="11.5478768"><ele>283.5</ele><time>2026-03-28T14:18:39.235Z</time></trkpt><trkpt lat="44.3728874" lon="11.547879"><ele>284.0</ele><time>2026-03-28T14:18:40.241Z</time></trkpt><trkpt lat="44.3727248" lon="11.5479042"><ele>284.5</ele><time>2026-03-28T14:18:41.241Z</time></trkpt><trkpt lat="44.3726507" lon="11.548001"><ele>285.0</ele><time>2026-03-28T14:18:42.247Z</time></trkpt><trkpt lat="44.3725346" lon="11.5480979"><ele>285.0</ele><time>2026-03-28T14:18:43.234Z</time></trkpt><trkpt lat="44.3724643" lon="11.5481892"><ele>285.0</ele><time>2026-03-28T14:18:44.232Z</time></trkpt><trkpt lat="44.372361" lon="11.5482963"><ele>285.0</ele><time>2026-03-28T14:18:45.226Z</time></trkpt><trkpt lat="44.3722553" lon="11.5483731"><ele>285.0</ele><time>2026-03-28T14:18:46.24Z</time></trkpt><trkpt lat="44.3720745" lon="11.5484709"><ele>284.25</ele><time>2026-03-28T14:18:48.263Z</time></trkpt><trkpt lat="44.371952" lon="11.5485093"><ele>283.5</ele><time>2026-03-28T14:18:49.239Z</time></trkpt><trkpt lat="44.3718224" lon="11.5485229"><ele>282.75</ele><time>2026-03-28T14:18:50.182Z</time></trkpt><trkpt lat="44.3716883" lon="11.5485314"><ele>282.0</ele><time>2026-03-28T14:18:51.176Z</time></trkpt><trkpt lat="44.3715568" lon="11.5485172"><ele>282.0</ele><time>2026-03-28T14:18:52.192Z</time></trkpt><trkpt lat="44.3713874" lon="11.5484365"><ele>282.0</ele><time>2026-03-28T14:18:54.183Z</time></trkpt><trkpt lat="44.3712641" lon="11.5483603"><ele>282.0</ele><time>2026-03-28T14:18:55.174Z</time></trkpt><trkpt lat="44.3711291" lon="11.5482583"><ele>282.5</ele><time>2026-03-28T14:18:56.19Z</time></trkpt><trkpt lat="44.3710147" lon="11.5481551"><ele>283.0</ele><time>2026-03-28T14:18:57.18Z</time></trkpt><trkpt lat="44.3709052" lon="11.5480411"><ele>283.5</ele><time>2026-03-28T14:18:58.195Z</time></trkpt><trkpt lat="44.3707967" lon="11.5479355"><ele>284.0</ele><time>2026-03-28T14:18:59.203Z</time></trkpt><trkpt lat="44.3706927" lon="11.547838"><ele>284.0</ele><time>2026-03-28T14:19:00.19Z</time></trkpt><trkpt lat="44.370594" lon="11.5477407"><ele>284.0</ele><time>2026-03-28T14:19:01.191Z</time></trkpt><trkpt lat="44.3705088" lon="11.547643"><ele>284.0</ele><time>2026-03-28T14:19:02.182Z</time></trkpt><trkpt lat="44.3704239" lon="11.5475273"><ele>284.0</ele><time>2026-03-28T14:19:03.176Z</time></trkpt><trkpt lat="44.3703511" lon="11.5473991"><ele>282.5</ele><time>2026-03-28T14:19:04.185Z</time></trkpt><trkpt lat="44.3702938" lon="11.5472571"><ele>281.0</ele><time>2026-03-28T14:19:05.21Z</time></trkpt><trkpt lat="44.3702546" lon="11.5471154"><ele>279.5</ele><time>2026-03-28T14:19:06.184Z</time></trkpt><trkpt lat="44.3702134" lon="11.5469579"><ele>278.0</ele><time>2026-03-28T14:19:07.184Z</time></trkpt><trkpt lat="44.3701774" lon="11.5467815"><ele>278.0</ele><time>2026-03-28T14:19:08.199Z</time></trkpt><trkpt lat="44.3701318" lon="11.5465958"><ele>278.0</ele><time>2026-03-28T14:19:09.187Z</time></trkpt><trkpt lat="44.3700976" lon="11.5464018"><ele>278.0</ele><time>2026-03-28T14:19:10.181Z</time></trkpt><trkpt lat="44.3700587" lon="11.5462001"><ele>278.0</ele><time>2026-03-28T14:19:11.186Z</time></trkpt><trkpt lat="44.3700207" lon="11.5459985"><ele>278.0</ele><time>2026-03-28T14:19:12.183Z</time></trkpt><trkpt lat="44.369991" lon="11.5457946"><ele>278.0</ele><time>2026-03-28T14:19:13.179Z</time></trkpt><trkpt lat="44.3699762" lon="11.5455788"><ele>278.0</ele><time>2026-03-28T14:19:14.192Z</time></trkpt><trkpt lat="44.36998" lon="11.5453803"><ele>278.0</ele><time>2026-03-28T14:19:15.195Z</time></trkpt><trkpt lat="44.3700061" lon="11.5452093"><ele>278.0</ele><time>2026-03-28T14:19:16.17Z</time></trkpt><trkpt lat="44.3700612" lon="11.5450368"><ele>278.0</ele><time>2026-03-28T14:19:17.179Z</time></trkpt><trkpt lat="44.3701329" lon="11.544877"><ele>278.0</ele><time>2026-03-28T14:19:18.188Z</time></trkpt><trkpt lat="44.3702028" lon="11.5447223"><ele>278.0</ele><time>2026-03-28T14:19:19.181Z</time></trkpt><trkpt lat="44.3702512" lon="11.5445699"><ele>275.5</ele><time>2026-03-28T14:19:20.19Z</time></trkpt><trkpt lat="44.370289" lon="11.5444271"><ele>273.0</ele><time>2026-03-28T14:19:21.182Z</time></trkpt><trkpt lat="44.370332" lon="11.5442821"><ele>270.5</ele><time>2026-03-28T14:19:22.186Z</time></trkpt><trkpt lat="44.3703802" lon="11.5441208"><ele>268.0</ele><time>2026-03-28T14:19:23.181Z</time></trkpt><trkpt lat="44.3704323" lon="11.5439296"><ele>268.0</ele><time>2026-03-28T14:19:24.183Z</time></trkpt><trkpt lat="44.3704833" lon="11.5437439"><ele>268.0</ele><time>2026-03-28T14:19:25.191Z</time></trkpt><trkpt lat="44.3705412" lon="11.5435556"><ele>268.0</ele><time>2026-03-28T14:19:26.206Z</time></trkpt><trkpt lat="44.370588" lon="11.5433983"><ele>268.0</ele><time>2026-03-28T14:19:27.185Z</time></trkpt><trkpt lat="44.3706465" lon="11.5432534"><ele>270.16666666666663</ele><time>2026-03-28T14:19:28.175Z</time></trkpt><trkpt lat="44.370714" lon="11.5431544"><ele>272.3333333333333</ele><time>2026-03-28T14:19:29.181Z</time></trkpt><trkpt lat="44.3707898" lon="11.5431039"><ele>274.5</ele><time>2026-03-28T14:19:30.191Z</time></trkpt><trkpt lat="44.3708634" lon="11.5431035"><ele>276.6666666666667</ele><time>2026-03-28T14:19:31.188Z</time></trkpt><trkpt lat="44.3709297" lon="11.5431459"><ele>278.83333333333337</ele><time>2026-03-28T14:19:32.221Z</time></trkpt><trkpt lat="44.3710244" lon="11.5432375"><ele>281.0</ele><time>2026-03-28T14:19:33.192Z</time></trkpt><trkpt lat="44.3710756" lon="11.5433147"><ele>281.0</ele><time>2026-03-28T14:19:34.18Z</time></trkpt><trkpt lat="44.3711454" lon="11.5434001"><ele>281.0</ele><time>2026-03-28T14:19:36.194Z</time></trkpt><trkpt lat="44.371104" lon="11.543314"><ele>281.0</ele><time>2026-03-28T14:19:39.186Z</time></trkpt><trkpt lat="44.3710225" lon="11.5433573"><ele>281.0</ele><time>2026-03-28T14:19:40.182Z</time></trkpt><trkpt lat="44.3709594" lon="11.5434545"><ele>281.0</ele><time>2026-03-28T14:19:41.181Z</time></trkpt><trkpt lat="44.370901" lon="11.5435046"><ele>281.0</ele><time>2026-03-28T14:19:42.189Z</time></trkpt><trkpt lat="44.3708491" lon="11.5428121"><ele>278.0</ele><time>2026-03-28T14:19:44.179Z</time></trkpt><trkpt lat="44.3707668" lon="11.5426865"><ele>275.0</ele><time>2026-03-28T14:19:45.192Z</time></trkpt><trkpt lat="44.370682" lon="11.5425403"><ele>272.0</ele><time>2026-03-28T14:19:46.173Z</time></trkpt><trkpt lat="44.3705919" lon="11.5424066"><ele>269.0</ele><time>2026-03-28T14:19:47.181Z</time></trkpt><trkpt lat="44.3704947" lon="11.5422737"><ele>268.5</ele><time>2026-03-28T14:19:48.179Z</time></trkpt><trkpt lat="44.3703996" lon="11.5421359"><ele>268.0</ele><time>2026-03-28T14:19:49.181Z</time></trkpt><trkpt lat="44.370293" lon="11.5419831"><ele>267.5</ele><time>2026-03-28T14:19:50.197Z</time></trkpt><trkpt lat="44.3701876" lon="11.5418398"><ele>267.0</ele><time>2026-03-28T14:19:51.184Z</time></trkpt><trkpt lat="44.3700721" lon="11.5417006"><ele>266.75</ele><time>2026-03-28T14:19:52.185Z</time></trkpt><trkpt lat="44.3699696" lon="11.5415584"><ele>266.5</ele><time>2026-03-28T14:19:53.181Z</time></trkpt><trkpt lat="44.3698737" lon="11.5414016"><ele>266.25</ele><time>2026-03-28T14:19:54.187Z</time></trkpt><trkpt lat="44.3697866" lon="11.5412321"><ele>266.0</ele><time>2026-03-28T14:19:55.221Z</time></trkpt><trkpt lat="44.3697187" lon="11.541072"><ele>263.5</ele><time>2026-03-28T14:19:56.205Z</time></trkpt><trkpt lat="44.3696485" lon="11.5409154"><ele>261.0</ele><time>2026-03-28T14:19:57.192Z</time></trkpt><trkpt lat="44.3695608" lon="11.540786"><ele>258.5</ele><time>2026-03-28T14:19:58.189Z</time></trkpt><trkpt lat="44.3694811" lon="11.5406596"><ele>256.0</ele><time>2026-03-28T14:19:59.19Z</time></trkpt><trkpt lat="44.3694121" lon="11.540561"><ele>255.99999999999997</ele><time>2026-03-28T14:20:00.179Z</time></trkpt><trkpt lat="44.3693355" lon="11.5405106"><ele>256.0</ele><time>2026-03-28T14:20:01.19Z</time></trkpt><trkpt lat="44.3692549" lon="11.5404648"><ele>256.0</ele><time>2026-03-28T14:20:02.184Z</time></trkpt><trkpt lat="44.3691808" lon="11.5404122"><ele>256.0</ele><time>2026-03-28T14:20:03.182Z</time></trkpt><trkpt lat="44.3691106" lon="11.5403354"><ele>255.99999999999997</ele><time>2026-03-28T14:20:04.182Z</time></trkpt><trkpt lat="44.3690531" lon="11.5402327"><ele>256.0</ele><time>2026-03-28T14:20:05.176Z</time></trkpt><trkpt lat="44.3689955" lon="11.5401026"><ele>255.0</ele><time>2026-03-28T14:20:06.179Z</time></trkpt><trkpt lat="44.3689352" lon="11.5399661"><ele>254.0</ele><time>2026-03-28T14:20:07.178Z</time></trkpt><trkpt lat="44.3688615" lon="11.5398237"><ele>253.0</ele><time>2026-03-28T14:20:08.19Z</time></trkpt><trkpt lat="44.3687832" lon="11.5396998"><ele>252.0</ele><time>2026-03-28T14:20:09.178Z</time></trkpt><trkpt lat="44.3686927" lon="11.5395941"><ele>251.0</ele><time>2026-03-28T14:20:10.187Z</time></trkpt><trkpt lat="44.3686058" lon="11.5395308"><ele>250.0</ele><time>2026-03-28T14:20:11.173Z</time></trkpt><trkpt lat="44.3685189" lon="11.539474"><ele>249.0</ele><time>2026-03-28T14:20:12.198Z</time></trkpt><trkpt lat="44.3684393" lon="11.5394246"><ele>248.0</ele><time>2026-03-28T14:20:13.188Z</time></trkpt><trkpt lat="44.3683837" lon="11.5393467"><ele>247.0</ele><time>2026-03-28T14:20:14.179Z</time></trkpt><trkpt lat="44.3683528" lon="11.5392423"><ele>246.0</ele><time>2026-03-28T14:20:15.188Z</time></trkpt><trkpt lat="44.3683524" lon="11.5391291"><ele>246.0</ele><time>2026-03-28T14:20:16.181Z</time></trkpt><trkpt lat="44.3683793" lon="11.5390025"><ele>246.00000000000003</ele><time>2026-03-28T14:20:17.185Z</time></trkpt><trkpt lat="44.3684214" lon="11.5388731"><ele>246.00000000000003</ele><time>2026-03-28T14:20:18.19Z</time></trkpt><trkpt lat="44.3684638" lon="11.5387445"><ele>246.0</ele><time>2026-03-28T14:20:19.193Z</time></trkpt><trkpt lat="44.3685116" lon="11.5386225"><ele>246.0</ele><time>2026-03-28T14:20:20.173Z</time></trkpt><trkpt lat="44.3685692" lon="11.5385051"><ele>245.0</ele><time>2026-03-28T14:20:21.192Z</time></trkpt><trkpt lat="44.3686211" lon="11.538408"><ele>244.00000000000003</ele><time>2026-03-28T14:20:22.18Z</time></trkpt><trkpt lat="44.3686676" lon="11.5382783"><ele>243.00000000000003</ele><time>2026-03-28T14:20:23.197Z</time></trkpt><trkpt lat="44.3686881" lon="11.5381304"><ele>242.0</ele><time>2026-03-28T14:20:24.182Z</time></trkpt><trkpt lat="44.368651" lon="11.5379308"><ele>241.0</ele><time>2026-03-28T14:20:26.174Z</time></trkpt><trkpt lat="44.3685991" lon="11.5378219"><ele>241.0</ele><time>2026-03-28T14:20:27.174Z</time></trkpt><trkpt lat="44.3685371" lon="11.5377151"><ele>241.00000000000003</ele><time>2026-03-28T14:20:28.176Z</time></trkpt><trkpt lat="44.3684888" lon="11.5376098"><ele>241.00000000000003</ele><time>2026-03-28T14:20:29.18Z</time></trkpt><trkpt lat="44.3684362" lon="11.5375005"><ele>241.0</ele><time>2026-03-28T14:20:30.186Z</time></trkpt><trkpt lat="44.3683796" lon="11.537381"><ele>241.0</ele><time>2026-03-28T14:20:31.202Z</time></trkpt><trkpt lat="44.3683213" lon="11.537258"><ele>241.0</ele><time>2026-03-28T14:20:32.173Z</time></trkpt><trkpt lat="44.368255" lon="11.5371292"><ele>241.0</ele><time>2026-03-28T14:20:33.176Z</time></trkpt><trkpt lat="44.3681869" lon="11.5370081"><ele>241.0</ele><time>2026-03-28T14:20:34.179Z</time></trkpt><trkpt lat="44.3681138" lon="11.5368788"><ele>241.0</ele><time>2026-03-28T14:20:35.187Z</time></trkpt><trkpt lat="44.3680476" lon="11.5367496"><ele>240.0</ele><time>2026-03-28T14:20:36.183Z</time></trkpt><trkpt lat="44.3679819" lon="11.5366199"><ele>239.00000000000003</ele><time>2026-03-28T14:20:37.192Z</time></trkpt><trkpt lat="44.3679131" lon="11.5364953"><ele>238.00000000000003</ele><time>2026-03-28T14:20:38.187Z</time></trkpt><trkpt lat="44.3678442" lon="11.5363787"><ele>237.0</ele><time>2026-03-28T14:20:39.18Z</time></trkpt><trkpt lat="44.3677712" lon="11.5362987"><ele>236.0</ele><time>2026-03-28T14:20:40.182Z</time></trkpt><trkpt lat="44.3676904" lon="11.5362497"><ele>236.5</ele><time>2026-03-28T14:20:41.177Z</time></trkpt><trkpt lat="44.3675837" lon="11.5362129"><ele>237.0</ele><time>2026-03-28T14:20:42.169Z</time></trkpt><trkpt lat="44.3674526" lon="11.5361752"><ele>237.5</ele><time>2026-03-28T14:20:43.175Z</time></trkpt><trkpt lat="44.3673118" lon="11.5361164"><ele>238.0</ele><time>2026-03-28T14:20:44.193Z</time></trkpt><trkpt lat="44.3671912" lon="11.5359921"><ele>240.5</ele><time>2026-03-28T14:20:45.179Z</time></trkpt><trkpt lat="44.3670694" lon="11.5358859"><ele>243.0</ele><time>2026-03-28T14:20:46.2Z</time></trkpt><trkpt lat="44.3669623" lon="11.5358021"><ele>245.5</ele><time>2026-03-28T14:20:47.19Z</time></trkpt><trkpt lat="44.3668644" lon="11.5357177"><ele>248.0</ele><time>2026-03-28T14:20:48.187Z</time></trkpt><trkpt lat="44.3667637" lon="11.5356213"><ele>248.0</ele><time>2026-03-28T14:20:49.184Z</time></trkpt><trkpt lat="44.3666746" lon="11.5355069"><ele>248.0</ele><time>2026-03-28T14:20:50.183Z</time></trkpt><trkpt lat="44.3665953" lon="11.5353749"><ele>248.0</ele><time>2026-03-28T14:20:51.193Z</time></trkpt><trkpt lat="44.3665179" lon="11.5352318"><ele>248.0</ele><time>2026-03-28T14:20:52.193Z</time></trkpt><trkpt lat="44.3664417" lon="11.5350873"><ele>248.5</ele><time>2026-03-28T14:20:53.183Z</time></trkpt><trkpt lat="44.3663705" lon="11.5349432"><ele>249.0</ele><time>2026-03-28T14:20:54.182Z</time></trkpt><trkpt lat="44.3663133" lon="11.5347955"><ele>249.5</ele><time>2026-03-28T14:20:55.176Z</time></trkpt><trkpt lat="44.366268" lon="11.5346291"><ele>250.0</ele><time>2026-03-28T14:20:56.192Z</time></trkpt><trkpt lat="44.3662301" lon="11.5344564"><ele>250.0</ele><time>2026-03-28T14:20:57.181Z</time></trkpt><trkpt lat="44.3661897" lon="11.5342732"><ele>250.0</ele><time>2026-03-28T14:20:58.18Z</time></trkpt><trkpt lat="44.3661393" lon="11.5340995"><ele>250.0</ele><time>2026-03-28T14:20:59.167Z</time></trkpt><trkpt lat="44.3660891" lon="11.5339225"><ele>250.0</ele><time>2026-03-28T14:21:00.182Z</time></trkpt><trkpt lat="44.3660469" lon="11.5337498"><ele>252.0</ele><time>2026-03-28T14:21:01.185Z</time></trkpt><trkpt lat="44.3660225" lon="11.5335707"><ele>254.0</ele><time>2026-03-28T14:21:02.179Z</time></trkpt><trkpt lat="44.3660076" lon="11.5333817"><ele>256.0</ele><time>2026-03-28T14:21:03.191Z</time></trkpt><trkpt lat="44.3660013" lon="11.5331846"><ele>258.0</ele><time>2026-03-28T14:21:04.187Z</time></trkpt><trkpt lat="44.3659994" lon="11.5329751"><ele>258.75</ele><time>2026-03-28T14:21:05.184Z</time></trkpt><trkpt lat="44.3660125" lon="11.5327628"><ele>259.5</ele><time>2026-03-28T14:21:06.191Z</time></trkpt><trkpt lat="44.3660348" lon="11.5325541"><ele>260.25</ele><time>2026-03-28T14:21:07.193Z</time></trkpt><trkpt lat="44.3660573" lon="11.5323545"><ele>261.0</ele><time>2026-03-28T14:21:08.197Z</time></trkpt><trkpt lat="44.3660779" lon="11.5321659"><ele>262.25</ele><time>2026-03-28T14:21:09.192Z</time></trkpt><trkpt lat="44.3660939" lon="11.5319899"><ele>263.5</ele><time>2026-03-28T14:21:10.182Z</time></trkpt><trkpt lat="44.3661011" lon="11.5318074"><ele>264.75</ele><time>2026-03-28T14:21:11.214Z</time></trkpt><trkpt lat="44.3660968" lon="11.5316314"><ele>266.0</ele><time>2026-03-28T14:21:12.174Z</time></trkpt><trkpt lat="44.3660848" lon="11.5314413"><ele>266.0</ele><time>2026-03-28T14:21:13.181Z</time></trkpt><trkpt lat="44.3660732" lon="11.5312484"><ele>266.0</ele><time>2026-03-28T14:21:14.19Z</time></trkpt><trkpt lat="44.3660575" lon="11.5310689"><ele>266.0</ele><time>2026-03-28T14:21:15.183Z</time></trkpt><trkpt lat="44.3660438" lon="11.5308951"><ele>266.0</ele><time>2026-03-28T14:21:16.176Z</time></trkpt><trkpt lat="44.3660358" lon="11.530725"><ele>264.75</ele><time>2026-03-28T14:21:17.203Z</time></trkpt><trkpt lat="44.3660407" lon="11.5305648"><ele>263.5</ele><time>2026-03-28T14:21:18.21Z</time></trkpt><trkpt lat="44.3660747" lon="11.5304268"><ele>262.25</ele><time>2026-03-28T14:21:19.211Z</time></trkpt><trkpt lat="44.3661365" lon="11.530283"><ele>261.0</ele><time>2026-03-28T14:21:20.194Z</time></trkpt><trkpt lat="44.3662259" lon="11.5301583"><ele>259.75</ele><time>2026-03-28T14:21:21.187Z</time></trkpt><trkpt lat="44.3663267" lon="11.5300702"><ele>258.5</ele><time>2026-03-28T14:21:22.181Z</time></trkpt><trkpt lat="44.3664549" lon="11.5300351"><ele>257.25</ele><time>2026-03-28T14:21:23.186Z</time></trkpt><trkpt lat="44.3665868" lon="11.5300326"><ele>256.0</ele><time>2026-03-28T14:21:24.184Z</time></trkpt><trkpt lat="44.3667181" lon="11.5300479"><ele>260.25</ele><time>2026-03-28T14:21:25.187Z</time></trkpt><trkpt lat="44.3668439" lon="11.5300743"><ele>264.5</ele><time>2026-03-28T14:21:26.18Z</time></trkpt><trkpt lat="44.3669649" lon="11.53011"><ele>268.75</ele><time>2026-03-28T14:21:27.183Z</time></trkpt><trkpt lat="44.3670791" lon="11.5301555"><ele>273.0</ele><time>2026-03-28T14:21:28.201Z</time></trkpt><trkpt lat="44.367175" lon="11.5302217"><ele>272.0</ele><time>2026-03-28T14:21:29.188Z</time></trkpt><trkpt lat="44.3672686" lon="11.5303099"><ele>271.0</ele><time>2026-03-28T14:21:30.185Z</time></trkpt><trkpt lat="44.3673591" lon="11.5304067"><ele>270.0</ele><time>2026-03-28T14:21:31.19Z</time></trkpt><trkpt lat="44.3674504" lon="11.530477"><ele>269.0</ele><time>2026-03-28T14:21:32.184Z</time></trkpt><trkpt lat="44.3675418" lon="11.5305052"><ele>268.0</ele><time>2026-03-28T14:21:33.193Z</time></trkpt><trkpt lat="44.3676425" lon="11.5304975"><ele>268.0</ele><time>2026-03-28T14:21:34.203Z</time></trkpt><trkpt lat="44.3677567" lon="11.5304674"><ele>268.0</ele><time>2026-03-28T14:21:35.191Z</time></trkpt><trkpt lat="44.3679045" lon="11.5304171"><ele>268.0</ele><time>2026-03-28T14:21:36.171Z</time></trkpt><trkpt lat="44.3680709" lon="11.5303775"><ele>268.0</ele><time>2026-03-28T14:21:37.173Z</time></trkpt><trkpt lat="44.368225" lon="11.5303428"><ele>271.8</ele><time>2026-03-28T14:21:38.182Z</time></trkpt><trkpt lat="44.3683491" lon="11.5303093"><ele>275.6</ele><time>2026-03-28T14:21:39.208Z</time></trkpt><trkpt lat="44.368449" lon="11.5302705"><ele>279.4</ele><time>2026-03-28T14:21:40.178Z</time></trkpt><trkpt lat="44.3685336" lon="11.5302268"><ele>283.2</ele><time>2026-03-28T14:21:41.189Z</time></trkpt><trkpt lat="44.3686001" lon="11.5301779"><ele>287.0</ele><time>2026-03-28T14:21:42.186Z</time></trkpt><trkpt lat="44.3686465" lon="11.5301068"><ele>287.0</ele><time>2026-03-28T14:21:43.187Z</time></trkpt><trkpt lat="44.3686632" lon="11.5300198"><ele>287.0</ele><time>2026-03-28T14:21:44.187Z</time></trkpt><trkpt lat="44.3686377" lon="11.5299203"><ele>287.0</ele><time>2026-03-28T14:21:45.189Z</time></trkpt><trkpt lat="44.3685673" lon="11.529825"><ele>287.0</ele><time>2026-03-28T14:21:46.185Z</time></trkpt><trkpt lat="44.3684709" lon="11.5297846"><ele>287.0</ele><time>2026-03-28T14:21:47.2Z</time></trkpt><trkpt lat="44.3683773" lon="11.5298042"><ele>287.0</ele><time>2026-03-28T14:21:48.197Z</time></trkpt><trkpt lat="44.3682647" lon="11.5298547"><ele>287.0</ele><time>2026-03-28T14:21:49.205Z</time></trkpt><trkpt lat="44.3681495" lon="11.5299022"><ele>287.0</ele><time>2026-03-28T14:21:50.202Z</time></trkpt><trkpt lat="44.3680622" lon="11.5299409"><ele>287.0</ele><time>2026-03-28T14:21:51.186Z</time></trkpt><trkpt lat="44.3679755" lon="11.5299286"><ele>287.0</ele><time>2026-03-28T14:21:52.191Z</time></trkpt><trkpt lat="44.3679031" lon="11.5299185"><ele>287.0</ele><time>2026-03-28T14:21:53.176Z</time></trkpt><trkpt lat="44.3678381" lon="11.5298866"><ele>287.0</ele><time>2026-03-28T14:21:54.185Z</time></trkpt><trkpt lat="44.3677857" lon="11.5298319"><ele>287.0</ele><time>2026-03-28T14:21:55.181Z</time></trkpt><trkpt lat="44.3677496" lon="11.5297519"><ele>287.0</ele><time>2026-03-28T14:21:56.184Z</time></trkpt><trkpt lat="44.3677133" lon="11.5296278"><ele>287.0</ele><time>2026-03-28T14:21:57.192Z</time></trkpt><trkpt lat="44.3676962" lon="11.5294864"><ele>287.0</ele><time>2026-03-28T14:21:58.197Z</time></trkpt><trkpt lat="44.3676898" lon="11.5293305"><ele>287.0</ele><time>2026-03-28T14:21:59.19Z</time></trkpt><trkpt lat="44.3676773" lon="11.5291489"><ele>288.75</ele><time>2026-03-28T14:22:00.205Z</time></trkpt><trkpt lat="44.3676653" lon="11.528965"><ele>290.5</ele><time>2026-03-28T14:22:01.189Z</time></trkpt><trkpt lat="44.3676576" lon="11.5287791"><ele>292.25</ele><time>2026-03-28T14:22:02.182Z</time></trkpt><trkpt lat="44.3676502" lon="11.5285966"><ele>294.0</ele><time>2026-03-28T14:22:03.179Z</time></trkpt><trkpt lat="44.367643" lon="11.528413"><ele>295.5</ele><time>2026-03-28T14:22:04.184Z</time></trkpt><trkpt lat="44.3676395" lon="11.5282369"><ele>297.0</ele><time>2026-03-28T14:22:05.179Z</time></trkpt><trkpt lat="44.3676376" lon="11.5280561"><ele>298.5</ele><time>2026-03-28T14:22:06.2Z</time></trkpt><trkpt lat="44.3676532" lon="11.5278838"><ele>300.0</ele><time>2026-03-28T14:22:07.171Z</time></trkpt><trkpt lat="44.3676952" lon="11.5277283"><ele>300.75</ele><time>2026-03-28T14:22:08.196Z</time></trkpt><trkpt lat="44.3677663" lon="11.5275972"><ele>301.5</ele><time>2026-03-28T14:22:09.189Z</time></trkpt><trkpt lat="44.3678558" lon="11.5274611"><ele>302.25</ele><time>2026-03-28T14:22:10.204Z</time></trkpt><trkpt lat="44.3679309" lon="11.5273395"><ele>303.0</ele><time>2026-03-28T14:22:11.186Z</time></trkpt><trkpt lat="44.368005" lon="11.5271958"><ele>303.6</ele><time>2026-03-28T14:22:12.2Z</time></trkpt><trkpt lat="44.3680315" lon="11.5270307"><ele>304.20000000000005</ele><time>2026-03-28T14:22:13.182Z</time></trkpt><trkpt lat="44.3680032" lon="11.5269354"><ele>304.8</ele><time>2026-03-28T14:22:14.187Z</time></trkpt><trkpt lat="44.3679531" lon="11.5268063"><ele>305.40000000000003</ele><time>2026-03-28T14:22:15.186Z</time></trkpt><trkpt lat="44.3678827" lon="11.5266914"><ele>306.0</ele><time>2026-03-28T14:22:16.198Z</time></trkpt><trkpt lat="44.3678182" lon="11.5265858"><ele>306.0</ele><time>2026-03-28T14:22:17.188Z</time></trkpt><trkpt lat="44.3677762" lon="11.5264703"><ele>306.0</ele><time>2026-03-28T14:22:18.191Z</time></trkpt><trkpt lat="44.3677605" lon="11.5263541"><ele>306.0</ele><time>2026-03-28T14:22:19.177Z</time></trkpt><trkpt lat="44.3677682" lon="11.5262267"><ele>306.0</ele><time>2026-03-28T14:22:20.184Z</time></trkpt><trkpt lat="44.3678049" lon="11.5260827"><ele>306.0</ele><time>2026-03-28T14:22:21.196Z</time></trkpt><trkpt lat="44.3678716" lon="11.525935"><ele>307.0</ele><time>2026-03-28T14:22:22.18Z</time></trkpt><trkpt lat="44.3679317" lon="11.5257722"><ele>308.0</ele><time>2026-03-28T14:22:23.181Z</time></trkpt><trkpt lat="44.3679755" lon="11.5255971"><ele>309.0</ele><time>2026-03-28T14:22:24.198Z</time></trkpt><trkpt lat="44.3679712" lon="11.5254577"><ele>310.0</ele><time>2026-03-28T14:22:25.199Z</time></trkpt><trkpt lat="44.3679383" lon="11.5252879"><ele>312.0</ele><time>2026-03-28T14:22:26.177Z</time></trkpt><trkpt lat="44.3678755" lon="11.5251206"><ele>314.0</ele><time>2026-03-28T14:22:27.19Z</time></trkpt><trkpt lat="44.3678025" lon="11.5249621"><ele>316.0</ele><time>2026-03-28T14:22:28.184Z</time></trkpt><trkpt lat="44.3677238" lon="11.5248179"><ele>318.0</ele><time>2026-03-28T14:22:29.182Z</time></trkpt><trkpt lat="44.367631" lon="11.5247023"><ele>318.0</ele><time>2026-03-28T14:22:30.2Z</time></trkpt><trkpt lat="44.3675374" lon="11.5246011"><ele>318.0</ele><time>2026-03-28T14:22:31.173Z</time></trkpt><trkpt lat="44.3674467" lon="11.5245269"><ele>318.0</ele><time>2026-03-28T14:22:32.189Z</time></trkpt><trkpt lat="44.3673727" lon="11.5244617"><ele>318.0</ele><time>2026-03-28T14:22:33.178Z</time></trkpt><trkpt lat="44.3673144" lon="11.5243801"><ele>318.0</ele><time>2026-03-28T14:22:34.187Z</time></trkpt><trkpt lat="44.367296" lon="11.524284"><ele>320.2</ele><time>2026-03-28T14:22:35.192Z</time></trkpt><trkpt lat="44.367373" lon="11.5241563"><ele>322.4</ele><time>2026-03-28T14:22:37.174Z</time></trkpt><trkpt lat="44.3674381" lon="11.5241495"><ele>324.59999999999997</ele><time>2026-03-28T14:22:38.187Z</time></trkpt><trkpt lat="44.3675011" lon="11.5241883"><ele>326.8</ele><time>2026-03-28T14:22:39.213Z</time></trkpt><trkpt lat="44.3675779" lon="11.5242502"><ele>329.0</ele><time>2026-03-28T14:22:40.178Z</time></trkpt><trkpt lat="44.3676725" lon="11.524338"><ele>329.0</ele><time>2026-03-28T14:22:41.211Z</time></trkpt><trkpt lat="44.3677752" lon="11.5244083"><ele>329.0</ele><time>2026-03-28T14:22:42.184Z</time></trkpt><trkpt lat="44.367888" lon="11.5244818"><ele>329.0</ele><time>2026-03-28T14:22:43.193Z</time></trkpt><trkpt lat="44.3680126" lon="11.5245586"><ele>329.0</ele><time>2026-03-28T14:22:44.19Z</time></trkpt><trkpt lat="44.3681284" lon="11.5246375"><ele>329.4</ele><time>2026-03-28T14:22:45.175Z</time></trkpt><trkpt lat="44.3682312" lon="11.5247035"><ele>329.79999999999995</ele><time>2026-03-28T14:22:46.178Z</time></trkpt><trkpt lat="44.3683272" lon="11.5247326"><ele>330.20000000000005</ele><time>2026-03-28T14:22:47.187Z</time></trkpt><trkpt lat="44.3684331" lon="11.5246302"><ele>330.6</ele><time>2026-03-28T14:22:49.184Z</time></trkpt><trkpt lat="44.3684621" lon="11.5245087"><ele>331.0</ele><time>2026-03-28T14:22:50.185Z</time></trkpt><trkpt lat="44.3684719" lon="11.5243576"><ele>332.16666666666663</ele><time>2026-03-28T14:22:51.173Z</time></trkpt><trkpt lat="44.3684684" lon="11.524219"><ele>333.3333333333333</ele><time>2026-03-28T14:22:52.18Z</time></trkpt><trkpt lat="44.3684579" lon="11.5240855"><ele>334.5</ele><time>2026-03-28T14:22:53.176Z</time></trkpt><trkpt lat="44.3684501" lon="11.5239652"><ele>335.6666666666667</ele><time>2026-03-28T14:22:54.172Z</time></trkpt><trkpt lat="44.3684396" lon="11.5238301"><ele>336.83333333333337</ele><time>2026-03-28T14:22:55.172Z</time></trkpt><trkpt lat="44.3684083" lon="11.5237442"><ele>338.0</ele><time>2026-03-28T14:22:56.185Z</time></trkpt><trkpt lat="44.3683456" lon="11.5236407"><ele>339.2</ele><time>2026-03-28T14:22:57.175Z</time></trkpt><trkpt lat="44.3682777" lon="11.523519"><ele>340.4</ele><time>2026-03-28T14:22:58.188Z</time></trkpt><trkpt lat="44.3682152" lon="11.5234051"><ele>341.59999999999997</ele><time>2026-03-28T14:22:59.188Z</time></trkpt><trkpt lat="44.3681754" lon="11.5232769"><ele>342.79999999999995</ele><time>2026-03-28T14:23:00.194Z</time></trkpt><trkpt lat="44.3681529" lon="11.5231582"><ele>344.0</ele><time>2026-03-28T14:23:01.18Z</time></trkpt><trkpt lat="44.3681366" lon="11.5230452"><ele>344.0</ele><time>2026-03-28T14:23:02.184Z</time></trkpt><trkpt lat="44.3681173" lon="11.5229015"><ele>344.0</ele><time>2026-03-28T14:23:03.193Z</time></trkpt><trkpt lat="44.3680961" lon="11.5227383"><ele>344.0</ele><time>2026-03-28T14:23:04.178Z</time></trkpt><trkpt lat="44.3680759" lon="11.5225702"><ele>344.0</ele><time>2026-03-28T14:23:05.181Z</time></trkpt><trkpt lat="44.3680611" lon="11.5224059"><ele>342.0</ele><time>2026-03-28T14:23:06.19Z</time></trkpt><trkpt lat="44.3680595" lon="11.5222528"><ele>340.0</ele><time>2026-03-28T14:23:07.191Z</time></trkpt><trkpt lat="44.3680768" lon="11.5220899"><ele>338.0</ele><time>2026-03-28T14:23:08.196Z</time></trkpt><trkpt lat="44.3681029" lon="11.5219314"><ele>336.0</ele><time>2026-03-28T14:23:09.185Z</time></trkpt><trkpt lat="44.3681322" lon="11.5217496"><ele>335.25</ele><time>2026-03-28T14:23:10.187Z</time></trkpt><trkpt lat="44.3681438" lon="11.521559"><ele>334.5</ele><time>2026-03-28T14:23:11.184Z</time></trkpt><trkpt lat="44.3681377" lon="11.5213724"><ele>333.75</ele><time>2026-03-28T14:23:12.19Z</time></trkpt><trkpt lat="44.3681115" lon="11.5211852"><ele>333.0</ele><time>2026-03-28T14:23:13.177Z</time></trkpt><trkpt lat="44.368056" lon="11.5209947"><ele>333.0</ele><time>2026-03-28T14:23:14.194Z</time></trkpt><trkpt lat="44.3679843" lon="11.5208181"><ele>333.0</ele><time>2026-03-28T14:23:15.181Z</time></trkpt><trkpt lat="44.3679018" lon="11.5206558"><ele>333.0</ele><time>2026-03-28T14:23:16.188Z</time></trkpt><trkpt lat="44.3678362" lon="11.5205117"><ele>333.0</ele><time>2026-03-28T14:23:17.182Z</time></trkpt><trkpt lat="44.3677988" lon="11.5203665"><ele>333.2</ele><time>2026-03-28T14:23:18.197Z</time></trkpt><trkpt lat="44.3677877" lon="11.5202233"><ele>333.4</ele><time>2026-03-28T14:23:19.189Z</time></trkpt><trkpt lat="44.3677918" lon="11.5200861"><ele>333.59999999999997</ele><time>2026-03-28T14:23:20.191Z</time></trkpt><trkpt lat="44.3678037" lon="11.5199486"><ele>333.79999999999995</ele><time>2026-03-28T14:23:21.187Z</time></trkpt><trkpt lat="44.3678245" lon="11.5198158"><ele>334.0</ele><time>2026-03-28T14:23:22.19Z</time></trkpt><trkpt lat="44.3678457" lon="11.5196909"><ele>335.6</ele><time>2026-03-28T14:23:23.185Z</time></trkpt><trkpt lat="44.367865" lon="11.5195581"><ele>337.2</ele><time>2026-03-28T14:23:24.186Z</time></trkpt><trkpt lat="44.3678781" lon="11.5194186"><ele>338.8</ele><time>2026-03-28T14:23:25.185Z</time></trkpt><trkpt lat="44.3678836" lon="11.519272"><ele>340.40000000000003</ele><time>2026-03-28T14:23:26.192Z</time></trkpt><trkpt lat="44.3678834" lon="11.5191343"><ele>342.0</ele><time>2026-03-28T14:23:27.195Z</time></trkpt><trkpt lat="44.3678731" lon="11.5190054"><ele>342.0</ele><time>2026-03-28T14:23:28.205Z</time></trkpt><trkpt lat="44.3678594" lon="11.5188896"><ele>342.0</ele><time>2026-03-28T14:23:29.19Z</time></trkpt><trkpt lat="44.3678455" lon="11.5187785"><ele>342.0</ele><time>2026-03-28T14:23:30.199Z</time></trkpt><trkpt lat="44.3678264" lon="11.5186546"><ele>342.0</ele><time>2026-03-28T14:23:31.179Z</time></trkpt><trkpt lat="44.3678015" lon="11.5184978"><ele>342.0</ele><time>2026-03-28T14:23:32.201Z</time></trkpt><trkpt lat="44.3677745" lon="11.5183096"><ele>343.75</ele><time>2026-03-28T14:23:33.181Z</time></trkpt><trkpt lat="44.3677323" lon="11.5181104"><ele>345.5</ele><time>2026-03-28T14:23:34.186Z</time></trkpt><trkpt lat="44.3676738" lon="11.5179202"><ele>347.25</ele><time>2026-03-28T14:23:35.181Z</time></trkpt><trkpt lat="44.3675927" lon="11.5177686"><ele>349.0</ele><time>2026-03-28T14:23:36.184Z</time></trkpt><trkpt lat="44.367486" lon="11.5176432"><ele>351.5</ele><time>2026-03-28T14:23:37.179Z</time></trkpt><trkpt lat="44.3673606" lon="11.5175414"><ele>354.0</ele><time>2026-03-28T14:23:38.191Z</time></trkpt><trkpt lat="44.3672366" lon="11.5174579"><ele>356.5</ele><time>2026-03-28T14:23:39.187Z</time></trkpt><trkpt lat="44.3671074" lon="11.5173925"><ele>359.0</ele><time>2026-03-28T14:23:40.191Z</time></trkpt><trkpt lat="44.3669939" lon="11.5173359"><ele>359.0</ele><time>2026-03-28T14:23:41.178Z</time></trkpt><trkpt lat="44.366887" lon="11.5172561"><ele>359.0</ele><time>2026-03-28T14:23:42.196Z</time></trkpt><trkpt lat="44.3667964" lon="11.5171541"><ele>359.0</ele><time>2026-03-28T14:23:43.191Z</time></trkpt><trkpt lat="44.3667157" lon="11.5170165"><ele>359.0</ele><time>2026-03-28T14:23:44.209Z</time></trkpt><trkpt lat="44.3666597" lon="11.5168612"><ele>363.5</ele><time>2026-03-28T14:23:45.178Z</time></trkpt><trkpt lat="44.3666143" lon="11.5166751"><ele>368.0</ele><time>2026-03-28T14:23:46.196Z</time></trkpt><trkpt lat="44.3665768" lon="11.5164829"><ele>372.5</ele><time>2026-03-28T14:23:47.179Z</time></trkpt><trkpt lat="44.3665375" lon="11.5162931"><ele>377.0</ele><time>2026-03-28T14:23:48.177Z</time></trkpt><trkpt lat="44.3664945" lon="11.5161257"><ele>377.25</ele><time>2026-03-28T14:23:49.19Z</time></trkpt><trkpt lat="44.3664291" lon="11.5159862"><ele>377.5</ele><time>2026-03-28T14:23:50.178Z</time></trkpt><trkpt lat="44.3663434" lon="11.5158786"><ele>377.75</ele><time>2026-03-28T14:23:51.186Z</time></trkpt><trkpt lat="44.3662364" lon="11.5157827"><ele>378.0</ele><time>2026-03-28T14:23:52.183Z</time></trkpt><trkpt lat="44.3661219" lon="11.5157003"><ele>378.0</ele><time>2026-03-28T14:23:53.181Z</time></trkpt><trkpt lat="44.3659994" lon="11.5156264"><ele>378.0</ele><time>2026-03-28T14:23:54.187Z</time></trkpt><trkpt lat="44.3658611" lon="11.5155772"><ele>378.0</ele><time>2026-03-28T14:23:55.196Z</time></trkpt><trkpt lat="44.3657193" lon="11.5155374"><ele>378.0</ele><time>2026-03-28T14:23:56.185Z</time></trkpt><trkpt lat="44.3655669" lon="11.5155089"><ele>380.0</ele><time>2026-03-28T14:23:57.199Z</time></trkpt><trkpt lat="44.3654128" lon="11.5154977"><ele>382.0</ele><time>2026-03-28T14:23:58.176Z</time></trkpt><trkpt lat="44.365239" lon="11.5154994"><ele>384.0</ele><time>2026-03-28T14:23:59.195Z</time></trkpt><trkpt lat="44.3650754" lon="11.5155312"><ele>384.0</ele><time>2026-03-28T14:24:00.185Z</time></trkpt><trkpt lat="44.3649184" lon="11.5156016"><ele>384.0</ele><time>2026-03-28T14:24:01.186Z</time></trkpt><trkpt lat="44.3647783" lon="11.5157047"><ele>384.0</ele><time>2026-03-28T14:24:02.177Z</time></trkpt><trkpt lat="44.3646558" lon="11.5158045"><ele>384.4</ele><time>2026-03-28T14:24:03.191Z</time></trkpt><trkpt lat="44.3645634" lon="11.5158742"><ele>384.79999999999995</ele><time>2026-03-28T14:24:04.194Z</time></trkpt><trkpt lat="44.3644894" lon="11.5158946"><ele>385.20000000000005</ele><time>2026-03-28T14:24:05.174Z</time></trkpt><trkpt lat="44.3644137" lon="11.5158556"><ele>385.6</ele><time>2026-03-28T14:24:06.194Z</time></trkpt><trkpt lat="44.3643471" lon="11.5157796"><ele>386.0</ele><time>2026-03-28T14:24:07.196Z</time></trkpt><trkpt lat="44.3642516" lon="11.5156565"><ele>386.0</ele><time>2026-03-28T14:24:08.185Z</time></trkpt><trkpt lat="44.3641617" lon="11.5155115"><ele>386.0</ele><time>2026-03-28T14:24:09.196Z</time></trkpt><trkpt lat="44.3640824" lon="11.515348"><ele>386.0</ele><time>2026-03-28T14:24:10.185Z</time></trkpt><trkpt lat="44.3640098" lon="11.515166"><ele>386.0</ele><time>2026-03-28T14:24:11.187Z</time></trkpt><trkpt lat="44.3639487" lon="11.5149901"><ele>388.25</ele><time>2026-03-28T14:24:12.186Z</time></trkpt><trkpt lat="44.3638956" lon="11.5148177"><ele>390.5</ele><time>2026-03-28T14:24:13.201Z</time></trkpt><trkpt lat="44.3638326" lon="11.5146584"><ele>392.75</ele><time>2026-03-28T14:24:14.173Z</time></trkpt><trkpt lat="44.3637828" lon="11.5145051"><ele>395.0</ele><time>2026-03-28T14:24:15.175Z</time></trkpt><trkpt lat="44.3637417" lon="11.5143637"><ele>394.0</ele><time>2026-03-28T14:24:16.194Z</time></trkpt><trkpt lat="44.3637243" lon="11.5142354"><ele>393.0</ele><time>2026-03-28T14:24:17.203Z</time></trkpt><trkpt lat="44.363725" lon="11.5141208"><ele>392.0</ele><time>2026-03-28T14:24:18.192Z</time></trkpt><trkpt lat="44.363745" lon="11.5139698"><ele>391.0</ele><time>2026-03-28T14:24:19.192Z</time></trkpt><trkpt lat="44.3638124" lon="11.5138426"><ele>390.0</ele><time>2026-03-28T14:24:20.186Z</time></trkpt><trkpt lat="44.3638998" lon="11.5137006"><ele>390.0</ele><time>2026-03-28T14:24:21.185Z</time></trkpt><trkpt lat="44.3639986" lon="11.5135284"><ele>390.0</ele><time>2026-03-28T14:24:22.175Z</time></trkpt><trkpt lat="44.3640933" lon="11.5133321"><ele>390.0</ele><time>2026-03-28T14:24:23.186Z</time></trkpt><trkpt lat="44.3641879" lon="11.5131453"><ele>390.0</ele><time>2026-03-28T14:24:24.196Z</time></trkpt><trkpt lat="44.364269" lon="11.5129782"><ele>390.0</ele><time>2026-03-28T14:24:25.202Z</time></trkpt><trkpt lat="44.3643399" lon="11.5128452"><ele>390.0</ele><time>2026-03-28T14:24:26.175Z</time></trkpt><trkpt lat="44.3644122" lon="11.5127381"><ele>390.0</ele><time>2026-03-28T14:24:27.194Z</time></trkpt><trkpt lat="44.3644896" lon="11.5126744"><ele>391.5</ele><time>2026-03-28T14:24:28.189Z</time></trkpt><trkpt lat="44.3645809" lon="11.512607"><ele>393.0</ele><time>2026-03-28T14:24:29.183Z</time></trkpt><trkpt lat="44.3646701" lon="11.5125114"><ele>394.5</ele><time>2026-03-28T14:24:30.182Z</time></trkpt><trkpt lat="44.3647766" lon="11.5124096"><ele>396.0</ele><time>2026-03-28T14:24:31.181Z</time></trkpt><trkpt lat="44.3648858" lon="11.5123277"><ele>396.0</ele><time>2026-03-28T14:24:32.192Z</time></trkpt><trkpt lat="44.3650024" lon="11.5122644"><ele>396.0</ele><time>2026-03-28T14:24:33.188Z</time></trkpt><trkpt lat="44.3651179" lon="11.5122043"><ele>396.0</ele><time>2026-03-28T14:24:34.183Z</time></trkpt><trkpt lat="44.3652249" lon="11.5121161"><ele>396.0</ele><time>2026-03-28T14:24:35.192Z</time></trkpt><trkpt lat="44.3653112" lon="11.511986"><ele>390.0</ele><time>2026-03-28T14:24:36.206Z</time></trkpt><trkpt lat="44.3653836" lon="11.5118362"><ele>384.0</ele><time>2026-03-28T14:24:37.198Z</time></trkpt><trkpt lat="44.3654435" lon="11.5116868"><ele>378.0</ele><time>2026-03-28T14:24:38.179Z</time></trkpt><trkpt lat="44.3654892" lon="11.5115312"><ele>372.0</ele><time>2026-03-28T14:24:39.208Z</time></trkpt><trkpt lat="44.3655282" lon="11.5113889"><ele>378.0</ele><time>2026-03-28T14:24:40.194Z</time></trkpt><trkpt lat="44.3655636" lon="11.5112528"><ele>384.0</ele><time>2026-03-28T14:24:41.181Z</time></trkpt><trkpt lat="44.3655945" lon="11.5111176"><ele>390.0</ele><time>2026-03-28T14:24:42.179Z</time></trkpt><trkpt lat="44.365607" lon="11.5109734"><ele>396.0</ele><time>2026-03-28T14:24:43.196Z</time></trkpt><trkpt lat="44.3655818" lon="11.510821"><ele>402.0</ele><time>2026-03-28T14:24:44.18Z</time></trkpt><trkpt lat="44.3655319" lon="11.510663"><ele>393.25</ele><time>2026-03-28T14:24:45.196Z</time></trkpt><trkpt lat="44.3654665" lon="11.510518"><ele>384.5</ele><time>2026-03-28T14:24:46.184Z</time></trkpt><trkpt lat="44.3654029" lon="11.5103774"><ele>375.75</ele><time>2026-03-28T14:24:47.21Z</time></trkpt><trkpt lat="44.3653643" lon="11.5102153"><ele>367.0</ele><time>2026-03-28T14:24:48.551Z</time></trkpt><trkpt lat="44.3653479" lon="11.5099779"><ele>367.0</ele><time>2026-03-28T14:24:50.254Z</time></trkpt><trkpt lat="44.3653588" lon="11.5098508"><ele>367.0</ele><time>2026-03-28T14:24:51.243Z</time></trkpt><trkpt lat="44.3653853" lon="11.5097258"><ele>367.0</ele><time>2026-03-28T14:24:52.233Z</time></trkpt><trkpt lat="44.3654193" lon="11.5095962"><ele>367.0</ele><time>2026-03-28T14:24:53.247Z</time></trkpt><trkpt lat="44.3654456" lon="11.5094636"><ele>367.0</ele><time>2026-03-28T14:24:54.232Z</time></trkpt><trkpt lat="44.3654517" lon="11.509323"><ele>366.8</ele><time>2026-03-28T14:24:55.238Z</time></trkpt><trkpt lat="44.3654424" lon="11.509181"><ele>366.6</ele><time>2026-03-28T14:24:56.245Z</time></trkpt><trkpt lat="44.3654465" lon="11.5090425"><ele>366.40000000000003</ele><time>2026-03-28T14:24:57.228Z</time></trkpt><trkpt lat="44.3654661" lon="11.5089172"><ele>366.20000000000005</ele><time>2026-03-28T14:24:58.18Z</time></trkpt><trkpt lat="44.365513" lon="11.508785"><ele>366.0</ele><time>2026-03-28T14:24:59.187Z</time></trkpt><trkpt lat="44.3655808" lon="11.5086654"><ele>366.0</ele><time>2026-03-28T14:25:00.194Z</time></trkpt><trkpt lat="44.3656535" lon="11.5085484"><ele>366.0</ele><time>2026-03-28T14:25:01.185Z</time></trkpt><trkpt lat="44.3657194" lon="11.5084411"><ele>366.0</ele><time>2026-03-28T14:25:02.192Z</time></trkpt><trkpt lat="44.3657687" lon="11.508339"><ele>366.0</ele><time>2026-03-28T14:25:03.2Z</time></trkpt><trkpt lat="44.3657911" lon="11.5082429"><ele>366.0</ele><time>2026-03-28T14:25:04.18Z</time></trkpt><trkpt lat="44.365792" lon="11.5081531"><ele>366.0</ele><time>2026-03-28T14:25:05.187Z</time></trkpt><trkpt lat="44.3657596" lon="11.5080578"><ele>366.0</ele><time>2026-03-28T14:25:06.183Z</time></trkpt><trkpt lat="44.3657013" lon="11.5079718"><ele>366.0</ele><time>2026-03-28T14:25:07.194Z</time></trkpt><trkpt lat="44.3656192" lon="11.5079016"><ele>366.0</ele><time>2026-03-28T14:25:08.195Z</time></trkpt><trkpt lat="44.3655308" lon="11.5078321"><ele>366.0</ele><time>2026-03-28T14:25:09.215Z</time></trkpt><trkpt lat="44.3654561" lon="11.5077505"><ele>366.0</ele><time>2026-03-28T14:25:10.185Z</time></trkpt><trkpt lat="44.3653835" lon="11.5076366"><ele>364.5</ele><time>2026-03-28T14:25:11.189Z</time></trkpt><trkpt lat="44.3653222" lon="11.5074926"><ele>363.0</ele><time>2026-03-28T14:25:12.185Z</time></trkpt><trkpt lat="44.3652733" lon="11.5073229"><ele>361.5</ele><time>2026-03-28T14:25:13.185Z</time></trkpt><trkpt lat="44.3652321" lon="11.5071751"><ele>360.0</ele><time>2026-03-28T14:25:14.176Z</time></trkpt><trkpt lat="44.3651638" lon="11.5070225"><ele>360.0</ele><time>2026-03-28T14:25:15.186Z</time></trkpt><trkpt lat="44.3650759" lon="11.5068947"><ele>360.0</ele><time>2026-03-28T14:25:16.171Z</time></trkpt><trkpt lat="44.3649788" lon="11.5067785"><ele>360.0</ele><time>2026-03-28T14:25:17.191Z</time></trkpt><trkpt lat="44.3648746" lon="11.506691"><ele>360.0</ele><time>2026-03-28T14:25:18.189Z</time></trkpt><trkpt lat="44.3647705" lon="11.5066263"><ele>359.25</ele><time>2026-03-28T14:25:19.182Z</time></trkpt><trkpt lat="44.3646667" lon="11.5065652"><ele>358.5</ele><time>2026-03-28T14:25:20.182Z</time></trkpt><trkpt lat="44.3645764" lon="11.5064841"><ele>357.75</ele><time>2026-03-28T14:25:21.175Z</time></trkpt><trkpt lat="44.3644932" lon="11.5063602"><ele>357.0</ele><time>2026-03-28T14:25:22.185Z</time></trkpt><trkpt lat="44.3644326" lon="11.5062038"><ele>356.25</ele><time>2026-03-28T14:25:23.192Z</time></trkpt><trkpt lat="44.364375" lon="11.5060251"><ele>355.5</ele><time>2026-03-28T14:25:24.201Z</time></trkpt><trkpt lat="44.3643192" lon="11.505848"><ele>354.75</ele><time>2026-03-28T14:25:25.184Z</time></trkpt><trkpt lat="44.3642347" lon="11.5056617"><ele>354.0</ele><time>2026-03-28T14:25:26.201Z</time></trkpt><trkpt lat="44.3641419" lon="11.5054996"><ele>352.6666666666667</ele><time>2026-03-28T14:25:27.185Z</time></trkpt><trkpt lat="44.3640209" lon="11.5053536"><ele>351.33333333333337</ele><time>2026-03-28T14:25:28.197Z</time></trkpt><trkpt lat="44.3638787" lon="11.5052349"><ele>350.0</ele><time>2026-03-28T14:25:29.197Z</time></trkpt><trkpt lat="44.3637458" lon="11.5050952"><ele>349.0</ele><time>2026-03-28T14:25:30.192Z</time></trkpt><trkpt lat="44.3636148" lon="11.5049183"><ele>348.0</ele><time>2026-03-28T14:25:31.218Z</time></trkpt><trkpt lat="44.3634987" lon="11.5047348"><ele>347.0</ele><time>2026-03-28T14:25:32.2Z</time></trkpt><trkpt lat="44.3633736" lon="11.5045582"><ele>347.0</ele><time>2026-03-28T14:25:33.189Z</time></trkpt><trkpt lat="44.3632282" lon="11.5043939"><ele>347.0</ele><time>2026-03-28T14:25:34.194Z</time></trkpt><trkpt lat="44.36307" lon="11.5042692"><ele>347.0</ele><time>2026-03-28T14:25:35.19Z</time></trkpt><trkpt lat="44.3629004" lon="11.5041816"><ele>349.33333333333337</ele><time>2026-03-28T14:25:36.18Z</time></trkpt><trkpt lat="44.3627394" lon="11.5040965"><ele>351.6666666666667</ele><time>2026-03-28T14:25:37.188Z</time></trkpt><trkpt lat="44.3625936" lon="11.5039905"><ele>354.0</ele><time>2026-03-28T14:25:38.191Z</time></trkpt><trkpt lat="44.362471" lon="11.5038683"><ele>354.0</ele><time>2026-03-28T14:25:39.196Z</time></trkpt><trkpt lat="44.3623595" lon="11.5037638"><ele>354.0</ele><time>2026-03-28T14:25:40.192Z</time></trkpt><trkpt lat="44.3622456" lon="11.5037044"><ele>354.0</ele><time>2026-03-28T14:25:41.2Z</time></trkpt><trkpt lat="44.3621209" lon="11.5037138"><ele>354.0</ele><time>2026-03-28T14:25:42.177Z</time></trkpt><trkpt lat="44.361995" lon="11.5037387"><ele>355.6</ele><time>2026-03-28T14:25:43.195Z</time></trkpt><trkpt lat="44.3618811" lon="11.5037419"><ele>357.2</ele><time>2026-03-28T14:25:44.179Z</time></trkpt><trkpt lat="44.3617732" lon="11.5037112"><ele>358.8</ele><time>2026-03-28T14:25:45.202Z</time></trkpt><trkpt lat="44.36168" lon="11.5036407"><ele>360.40000000000003</ele><time>2026-03-28T14:25:46.177Z</time></trkpt><trkpt lat="44.361608" lon="11.5035324"><ele>362.0</ele><time>2026-03-28T14:25:47.194Z</time></trkpt><trkpt lat="44.3615417" lon="11.5033769"><ele>362.0</ele><time>2026-03-28T14:25:48.179Z</time></trkpt><trkpt lat="44.3614943" lon="11.5031971"><ele>362.0</ele><time>2026-03-28T14:25:49.192Z</time></trkpt><trkpt lat="44.3614522" lon="11.5029996"><ele>362.0</ele><time>2026-03-28T14:25:50.192Z</time></trkpt><trkpt lat="44.3614113" lon="11.5027944"><ele>362.0</ele><time>2026-03-28T14:25:51.194Z</time></trkpt><trkpt lat="44.3613667" lon="11.5026002"><ele>363.5</ele><time>2026-03-28T14:25:52.188Z</time></trkpt><trkpt lat="44.361316" lon="11.5024103"><ele>365.0</ele><time>2026-03-28T14:25:53.187Z</time></trkpt><trkpt lat="44.361277" lon="11.5022211"><ele>366.5</ele><time>2026-03-28T14:25:54.187Z</time></trkpt><trkpt lat="44.3612483" lon="11.502032"><ele>368.0</ele><time>2026-03-28T14:25:55.187Z</time></trkpt><trkpt lat="44.3612224" lon="11.5018409"><ele>368.0</ele><time>2026-03-28T14:25:56.192Z</time></trkpt><trkpt lat="44.3611998" lon="11.5016548"><ele>368.0</ele><time>2026-03-28T14:25:57.188Z</time></trkpt><trkpt lat="44.3611655" lon="11.5014641"><ele>368.0</ele><time>2026-03-28T14:25:58.186Z</time></trkpt><trkpt lat="44.3611296" lon="11.5012657"><ele>368.0</ele><time>2026-03-28T14:25:59.191Z</time></trkpt><trkpt lat="44.361086" lon="11.5010593"><ele>367.33333333333337</ele><time>2026-03-28T14:26:00.187Z</time></trkpt><trkpt lat="44.3610505" lon="11.5008416"><ele>366.6666666666667</ele><time>2026-03-28T14:26:01.191Z</time></trkpt><trkpt lat="44.3610289" lon="11.5006124"><ele>366.0</ele><time>2026-03-28T14:26:02.188Z</time></trkpt><trkpt lat="44.361019" lon="11.5003764"><ele>366.0</ele><time>2026-03-28T14:26:03.2Z</time></trkpt><trkpt lat="44.3610142" lon="11.5001467"><ele>366.0</ele><time>2026-03-28T14:26:04.187Z</time></trkpt><trkpt lat="44.3609961" lon="11.4999417"><ele>366.0</ele><time>2026-03-28T14:26:05.208Z</time></trkpt><trkpt lat="44.3609437" lon="11.4997395"><ele>367.0</ele><time>2026-03-28T14:26:06.187Z</time></trkpt><trkpt lat="44.3608792" lon="11.4995101"><ele>368.0</ele><time>2026-03-28T14:26:07.235Z</time></trkpt><trkpt lat="44.3608171" lon="11.4992874"><ele>369.0</ele><time>2026-03-28T14:26:08.186Z</time></trkpt><trkpt lat="44.3607335" lon="11.4990584"><ele>369.0</ele><time>2026-03-28T14:26:09.187Z</time></trkpt><trkpt lat="44.360651" lon="11.4988572"><ele>369.0</ele><time>2026-03-28T14:26:10.175Z</time></trkpt><trkpt lat="44.3605628" lon="11.4986621"><ele>369.0</ele><time>2026-03-28T14:26:11.203Z</time></trkpt><trkpt lat="44.3605261" lon="11.4984857"><ele>367.75</ele><time>2026-03-28T14:26:12.173Z</time></trkpt><trkpt lat="44.3605088" lon="11.498299"><ele>366.5</ele><time>2026-03-28T14:26:13.197Z</time></trkpt><trkpt lat="44.3604964" lon="11.4981089"><ele>365.25</ele><time>2026-03-28T14:26:14.19Z</time></trkpt><trkpt lat="44.3604841" lon="11.4979025"><ele>364.0</ele><time>2026-03-28T14:26:15.188Z</time></trkpt><trkpt lat="44.3604552" lon="11.4976895"><ele>364.0</ele><time>2026-03-28T14:26:16.174Z</time></trkpt><trkpt lat="44.3604249" lon="11.4974756"><ele>364.0</ele><time>2026-03-28T14:26:17.198Z</time></trkpt><trkpt lat="44.3604056" lon="11.4972724"><ele>364.0</ele><time>2026-03-28T14:26:18.183Z</time></trkpt><trkpt lat="44.3603923" lon="11.4970655"><ele>364.0</ele><time>2026-03-28T14:26:19.187Z</time></trkpt><trkpt lat="44.3603934" lon="11.4968588"><ele>364.0</ele><time>2026-03-28T14:26:20.193Z</time></trkpt><trkpt lat="44.3603962" lon="11.4966653"><ele>364.0</ele><time>2026-03-28T14:26:21.199Z</time></trkpt><trkpt lat="44.3604025" lon="11.4964884"><ele>364.0</ele><time>2026-03-28T14:26:22.193Z</time></trkpt><trkpt lat="44.3604098" lon="11.4963366"><ele>365.4</ele><time>2026-03-28T14:26:23.186Z</time></trkpt><trkpt lat="44.3604214" lon="11.4962023"><ele>366.79999999999995</ele><time>2026-03-28T14:26:24.182Z</time></trkpt><trkpt lat="44.3604402" lon="11.4960584"><ele>368.20000000000005</ele><time>2026-03-28T14:26:25.199Z</time></trkpt><trkpt lat="44.3604798" lon="11.4959179"><ele>369.6</ele><time>2026-03-28T14:26:26.178Z</time></trkpt><trkpt lat="44.3605439" lon="11.4957714"><ele>371.0</ele><time>2026-03-28T14:26:27.197Z</time></trkpt><trkpt lat="44.360614" lon="11.4956322"><ele>375.0</ele><time>2026-03-28T14:26:28.202Z</time></trkpt><trkpt lat="44.3606594" lon="11.4954969"><ele>379.0</ele><time>2026-03-28T14:26:29.192Z</time></trkpt><trkpt lat="44.3606809" lon="11.4953658"><ele>383.0</ele><time>2026-03-28T14:26:30.193Z</time></trkpt><trkpt lat="44.3606839" lon="11.4952354"><ele>387.0</ele><time>2026-03-28T14:26:31.18Z</time></trkpt><trkpt lat="44.3606927" lon="11.4950978"><ele>391.0</ele><time>2026-03-28T14:26:32.18Z</time></trkpt><trkpt lat="44.3607027" lon="11.494955"><ele>392.6</ele><time>2026-03-28T14:26:33.191Z</time></trkpt><trkpt lat="44.3607089" lon="11.4948117"><ele>394.20000000000005</ele><time>2026-03-28T14:26:34.186Z</time></trkpt><trkpt lat="44.3607146" lon="11.4946629"><ele>395.79999999999995</ele><time>2026-03-28T14:26:35.212Z</time></trkpt><trkpt lat="44.3607077" lon="11.4945189"><ele>397.4</ele><time>2026-03-28T14:26:36.18Z</time></trkpt><trkpt lat="44.3606856" lon="11.4943756"><ele>399.0</ele><time>2026-03-28T14:26:37.184Z</time></trkpt><trkpt lat="44.3606573" lon="11.4942348"><ele>400.3333333333333</ele><time>2026-03-28T14:26:38.175Z</time></trkpt><trkpt lat="44.3606302" lon="11.494103"><ele>401.66666666666663</ele><time>2026-03-28T14:26:39.207Z</time></trkpt><trkpt lat="44.3606092" lon="11.493996"><ele>403.0</ele><time>2026-03-28T14:26:40.186Z</time></trkpt><trkpt lat="44.3605973" lon="11.4939038"><ele>404.3333333333333</ele><time>2026-03-28T14:26:41.197Z</time></trkpt><trkpt lat="44.3606388" lon="11.4937542"><ele>405.66666666666663</ele><time>2026-03-28T14:26:43.182Z</time></trkpt><trkpt lat="44.3607037" lon="11.4937155"><ele>407.0</ele><time>2026-03-28T14:26:44.194Z</time></trkpt><trkpt lat="44.3607844" lon="11.493806"><ele>406.99999999999994</ele><time>2026-03-28T14:26:46.183Z</time></trkpt><trkpt lat="44.3608321" lon="11.4938787"><ele>407.0</ele><time>2026-03-28T14:26:47.178Z</time></trkpt><trkpt lat="44.3608889" lon="11.4939668"><ele>407.0</ele><time>2026-03-28T14:26:48.176Z</time></trkpt><trkpt lat="44.3609405" lon="11.4940538"><ele>407.0</ele><time>2026-03-28T14:26:49.187Z</time></trkpt><trkpt lat="44.3609972" lon="11.4941451"><ele>406.99999999999994</ele><time>2026-03-28T14:26:50.209Z</time></trkpt><trkpt lat="44.3610481" lon="11.4942304"><ele>407.0</ele><time>2026-03-28T14:26:51.18Z</time></trkpt><trkpt lat="44.3611261" lon="11.4943196"><ele>407.0</ele><time>2026-03-28T14:26:52.196Z</time></trkpt><trkpt lat="44.3612142" lon="11.4944026"><ele>407.0</ele><time>2026-03-28T14:26:53.179Z</time></trkpt><trkpt lat="44.3613229" lon="11.4944906"><ele>407.0</ele><time>2026-03-28T14:26:54.193Z</time></trkpt><trkpt lat="44.3614399" lon="11.4945801"><ele>407.0</ele><time>2026-03-28T14:26:55.292Z</time></trkpt><trkpt lat="44.3615184" lon="11.4946434"><ele>407.0</ele><time>2026-03-28T14:26:56.204Z</time></trkpt><trkpt lat="44.3615897" lon="11.4947069"><ele>407.0</ele><time>2026-03-28T14:26:57.226Z</time></trkpt><trkpt lat="44.3616936" lon="11.494757"><ele>407.0</ele><time>2026-03-28T14:26:59.201Z</time></trkpt><trkpt lat="44.3617735" lon="11.4946606"><ele>407.0</ele><time>2026-03-28T14:27:01.192Z</time></trkpt><trkpt lat="44.3617513" lon="11.4944951"><ele>407.0</ele><time>2026-03-28T14:27:03.196Z</time></trkpt><trkpt lat="44.3617045" lon="11.494413"><ele>409.0</ele><time>2026-03-28T14:27:04.191Z</time></trkpt><trkpt lat="44.3616483" lon="11.4943284"><ele>411.0</ele><time>2026-03-28T14:27:05.19Z</time></trkpt><trkpt lat="44.3615857" lon="11.4942422"><ele>413.0</ele><time>2026-03-28T14:27:06.186Z</time></trkpt><trkpt lat="44.3615168" lon="11.4941437"><ele>415.0</ele><time>2026-03-28T14:27:07.199Z</time></trkpt><trkpt lat="44.3614506" lon="11.4940326"><ele>417.0</ele><time>2026-03-28T14:27:08.204Z</time></trkpt><trkpt lat="44.3613846" lon="11.4939031"><ele>417.25</ele><time>2026-03-28T14:27:09.194Z</time></trkpt><trkpt lat="44.3613235" lon="11.4937698"><ele>417.5</ele><time>2026-03-28T14:27:10.186Z</time></trkpt><trkpt lat="44.3612613" lon="11.4936262"><ele>417.75</ele><time>2026-03-28T14:27:11.21Z</time></trkpt><trkpt lat="44.3612051" lon="11.4934921"><ele>418.0</ele><time>2026-03-28T14:27:12.2Z</time></trkpt><trkpt lat="44.3611526" lon="11.4933458"><ele>418.0</ele><time>2026-03-28T14:27:13.197Z</time></trkpt><trkpt lat="44.3611036" lon="11.4931992"><ele>418.0</ele><time>2026-03-28T14:27:14.191Z</time></trkpt><trkpt lat="44.3610559" lon="11.4930513"><ele>418.0</ele><time>2026-03-28T14:27:15.211Z</time></trkpt><trkpt lat="44.3610094" lon="11.4928986"><ele>418.0</ele><time>2026-03-28T14:27:16.182Z</time></trkpt><trkpt lat="44.3609745" lon="11.4927237"><ele>420.25</ele><time>2026-03-28T14:27:17.194Z</time></trkpt><trkpt lat="44.3609463" lon="11.4925579"><ele>422.5</ele><time>2026-03-28T14:27:18.183Z</time></trkpt><trkpt lat="44.360931" lon="11.4924052"><ele>424.75</ele><time>2026-03-28T14:27:19.185Z</time></trkpt><trkpt lat="44.3609178" lon="11.4922405"><ele>427.0</ele><time>2026-03-28T14:27:20.18Z</time></trkpt><trkpt lat="44.3608998" lon="11.4920673"><ele>429.75</ele><time>2026-03-28T14:27:21.195Z</time></trkpt><trkpt lat="44.3608693" lon="11.4918962"><ele>432.5</ele><time>2026-03-28T14:27:22.199Z</time></trkpt><trkpt lat="44.3608318" lon="11.4917269"><ele>435.25</ele><time>2026-03-28T14:27:23.188Z</time></trkpt><trkpt lat="44.3607871" lon="11.4915652"><ele>438.0</ele><time>2026-03-28T14:27:24.199Z</time></trkpt><trkpt lat="44.3607307" lon="11.4914048"><ele>438.0</ele><time>2026-03-28T14:27:25.201Z</time></trkpt><trkpt lat="44.3606703" lon="11.4912704"><ele>437.99999999999994</ele><time>2026-03-28T14:27:26.184Z</time></trkpt><trkpt lat="44.360599" lon="11.4911583"><ele>437.99999999999994</ele><time>2026-03-28T14:27:27.192Z</time></trkpt><trkpt lat="44.3605395" lon="11.4910752"><ele>438.0</ele><time>2026-03-28T14:27:28.199Z</time></trkpt><trkpt lat="44.3604867" lon="11.4910141"><ele>438.0</ele><time>2026-03-28T14:27:29.192Z</time></trkpt><trkpt lat="44.3604247" lon="11.4908786"><ele>438.59999999999997</ele><time>2026-03-28T14:27:31.188Z</time></trkpt><trkpt lat="44.3604862" lon="11.4907541"><ele>439.19999999999993</ele><time>2026-03-28T14:27:33.191Z</time></trkpt><trkpt lat="44.3605616" lon="11.4907611"><ele>439.8</ele><time>2026-03-28T14:27:34.202Z</time></trkpt><trkpt lat="44.3606305" lon="11.4908204"><ele>440.4</ele><time>2026-03-28T14:27:35.198Z</time></trkpt><trkpt lat="44.3607023" lon="11.4908911"><ele>441.0</ele><time>2026-03-28T14:27:36.192Z</time></trkpt><trkpt lat="44.360792" lon="11.4909671"><ele>440.25</ele><time>2026-03-28T14:27:37.194Z</time></trkpt><trkpt lat="44.360891" lon="11.4910497"><ele>439.5</ele><time>2026-03-28T14:27:38.187Z</time></trkpt><trkpt lat="44.3609524" lon="11.4911593"><ele>438.75</ele><time>2026-03-28T14:27:39.19Z</time></trkpt><trkpt lat="44.3610248" lon="11.4912593"><ele>438.0</ele><time>2026-03-28T14:27:40.185Z</time></trkpt><trkpt lat="44.361123" lon="11.4913873"><ele>438.0</ele><time>2026-03-28T14:27:41.21Z</time></trkpt><trkpt lat="44.3612137" lon="11.4914931"><ele>438.0</ele><time>2026-03-28T14:27:42.199Z</time></trkpt><trkpt lat="44.3613131" lon="11.4916056"><ele>438.0</ele><time>2026-03-28T14:27:43.189Z</time></trkpt><trkpt lat="44.3614055" lon="11.4917219"><ele>438.0</ele><time>2026-03-28T14:27:44.218Z</time></trkpt><trkpt lat="44.3614871" lon="11.491829"><ele>440.6666666666667</ele><time>2026-03-28T14:27:45.193Z</time></trkpt><trkpt lat="44.3615603" lon="11.4919183"><ele>443.33333333333337</ele><time>2026-03-28T14:27:46.193Z</time></trkpt><trkpt lat="44.3616312" lon="11.4919854"><ele>446.0</ele><time>2026-03-28T14:27:47.189Z</time></trkpt><trkpt lat="44.3616957" lon="11.4920188"><ele>448.6666666666667</ele><time>2026-03-28T14:27:48.195Z</time></trkpt><trkpt lat="44.3617743" lon="11.4920208"><ele>451.33333333333337</ele><time>2026-03-28T14:27:49.187Z</time></trkpt><trkpt lat="44.3618487" lon="11.4919762"><ele>454.0</ele><time>2026-03-28T14:27:50.195Z</time></trkpt><trkpt lat="44.3619093" lon="11.4918942"><ele>454.0</ele><time>2026-03-28T14:27:51.186Z</time></trkpt><trkpt lat="44.3619765" lon="11.4917878"><ele>454.0</ele><time>2026-03-28T14:27:52.177Z</time></trkpt><trkpt lat="44.3620507" lon="11.4916655"><ele>454.0</ele><time>2026-03-28T14:27:53.189Z</time></trkpt><trkpt lat="44.3621335" lon="11.4915392"><ele>454.0</ele><time>2026-03-28T14:27:54.187Z</time></trkpt><trkpt lat="44.3622277" lon="11.4914333"><ele>455.0</ele><time>2026-03-28T14:27:55.2Z</time></trkpt><trkpt lat="44.362344" lon="11.4913541"><ele>456.0</ele><time>2026-03-28T14:27:56.191Z</time></trkpt><trkpt lat="44.3624671" lon="11.4913091"><ele>457.0</ele><time>2026-03-28T14:27:57.205Z</time></trkpt><trkpt lat="44.3625947" lon="11.4912878"><ele>458.0</ele><time>2026-03-28T14:27:58.192Z</time></trkpt><trkpt lat="44.3627255" lon="11.49128"><ele>458.0</ele><time>2026-03-28T14:27:59.213Z</time></trkpt><trkpt lat="44.3628484" lon="11.491276"><ele>458.0</ele><time>2026-03-28T14:28:00.183Z</time></trkpt><trkpt lat="44.3629808" lon="11.4912769"><ele>458.0</ele><time>2026-03-28T14:28:01.2Z</time></trkpt><trkpt lat="44.3630927" lon="11.491292"><ele>458.0</ele><time>2026-03-28T14:28:02.194Z</time></trkpt><trkpt lat="44.3631997" lon="11.4913282"><ele>459.79999999999995</ele><time>2026-03-28T14:28:03.204Z</time></trkpt><trkpt lat="44.3632909" lon="11.4913941"><ele>461.59999999999997</ele><time>2026-03-28T14:28:04.19Z</time></trkpt><trkpt lat="44.363372" lon="11.4914961"><ele>463.40000000000003</ele><time>2026-03-28T14:28:05.216Z</time></trkpt><trkpt lat="44.3634359" lon="11.4916137"><ele>465.20000000000005</ele><time>2026-03-28T14:28:06.186Z</time></trkpt><trkpt lat="44.3634804" lon="11.4917312"><ele>467.0</ele><time>2026-03-28T14:28:07.194Z</time></trkpt><trkpt lat="44.3635121" lon="11.491811"><ele>467.0</ele><time>2026-03-28T14:28:08.188Z</time></trkpt><trkpt lat="44.3635877" lon="11.4918383"><ele>467.00000000000006</ele><time>2026-03-28T14:28:10.19Z</time></trkpt><trkpt lat="44.3635696" lon="11.4916923"><ele>467.00000000000006</ele><time>2026-03-28T14:28:12.181Z</time></trkpt><trkpt lat="44.3634768" lon="11.4916274"><ele>467.0</ele><time>2026-03-28T14:28:13.184Z</time></trkpt><trkpt lat="44.3633596" lon="11.4915667"><ele>467.0</ele><time>2026-03-28T14:28:14.182Z</time></trkpt><trkpt lat="44.3632437" lon="11.4914845"><ele>467.0</ele><time>2026-03-28T14:28:15.182Z</time></trkpt><trkpt lat="44.3631276" lon="11.4913924"><ele>467.0</ele><time>2026-03-28T14:28:16.183Z</time></trkpt><trkpt lat="44.3629844" lon="11.4913099"><ele>467.0</ele><time>2026-03-28T14:28:17.177Z</time></trkpt><trkpt lat="44.3633017" lon="11.4909583"><ele>469.5</ele><time>2026-03-28T14:28:18.186Z</time></trkpt><trkpt lat="44.3631973" lon="11.4908654"><ele>472.0</ele><time>2026-03-28T14:28:19.177Z</time></trkpt><trkpt lat="44.3630586" lon="11.4907717"><ele>474.5</ele><time>2026-03-28T14:28:20.211Z</time></trkpt><trkpt lat="44.3629217" lon="11.4906963"><ele>477.0</ele><time>2026-03-28T14:28:21.19Z</time></trkpt><trkpt lat="44.3627983" lon="11.4906531"><ele>477.0</ele><time>2026-03-28T14:28:22.193Z</time></trkpt><trkpt lat="44.3626758" lon="11.4906523"><ele>477.00000000000006</ele><time>2026-03-28T14:28:23.194Z</time></trkpt><trkpt lat="44.3625778" lon="11.4906433"><ele>477.00000000000006</ele><time>2026-03-28T14:28:24.192Z</time></trkpt><trkpt lat="44.3624859" lon="11.490653"><ele>477.0</ele><time>2026-03-28T14:28:25.198Z</time></trkpt><trkpt lat="44.362397" lon="11.490634"><ele>477.0</ele><time>2026-03-28T14:28:26.179Z</time></trkpt><trkpt lat="44.362317" lon="11.4906055"><ele>477.0</ele><time>2026-03-28T14:28:27.193Z</time></trkpt><trkpt lat="44.3622439" lon="11.4905562"><ele>477.0</ele><time>2026-03-28T14:28:29.199Z</time></trkpt><trkpt lat="44.3622459" lon="11.4903655"><ele>477.0</ele><time>2026-03-28T14:28:32.182Z</time></trkpt><trkpt lat="44.362351" lon="11.4902395"><ele>477.0</ele><time>2026-03-28T14:28:33.549Z</time></trkpt><trkpt lat="44.3620526" lon="11.4894369"><ele>479.6</ele><time>2026-03-28T14:28:35.247Z</time></trkpt><trkpt lat="44.3620427" lon="11.4892866"><ele>482.20000000000005</ele><time>2026-03-28T14:28:37.242Z</time></trkpt><trkpt lat="44.3620153" lon="11.4891449"><ele>484.8</ele><time>2026-03-28T14:28:39.245Z</time></trkpt><trkpt lat="44.3619801" lon="11.4890709"><ele>487.4</ele><time>2026-03-28T14:28:40.239Z</time></trkpt><trkpt lat="44.3619128" lon="11.4889907"><ele>490.0</ele><time>2026-03-28T14:28:41.232Z</time></trkpt><trkpt lat="44.3618326" lon="11.4889079"><ele>490.0</ele><time>2026-03-28T14:28:42.242Z</time></trkpt><trkpt lat="44.3617343" lon="11.4888333"><ele>490.0</ele><time>2026-03-28T14:28:43.244Z</time></trkpt><trkpt lat="44.3616341" lon="11.4887845"><ele>490.0</ele><time>2026-03-28T14:28:44.19Z</time></trkpt><trkpt lat="44.3615324" lon="11.4887535"><ele>490.0</ele><time>2026-03-28T14:28:45.203Z</time></trkpt><trkpt lat="44.3614479" lon="11.4887883"><ele>490.0</ele><time>2026-03-28T14:28:46.547Z</time></trkpt><trkpt lat="44.3613394" lon="11.4887496"><ele>484.0</ele><time>2026-03-28T14:28:49.275Z</time></trkpt><trkpt lat="44.3612306" lon="11.4888823"><ele>478.0</ele><time>2026-03-28T14:28:51.263Z</time></trkpt><trkpt lat="44.3607347" lon="11.4881878"><ele>483.5</ele><time>2026-03-28T14:28:52.254Z</time></trkpt><trkpt lat="44.3605949" lon="11.4881517"><ele>489.0</ele><time>2026-03-28T14:28:53.281Z</time></trkpt><trkpt lat="44.3604607" lon="11.4881175"><ele>494.5</ele><time>2026-03-28T14:28:54.256Z</time></trkpt><trkpt lat="44.3603256" lon="11.4880811"><ele>500.0</ele><time>2026-03-28T14:28:55.263Z</time></trkpt><trkpt lat="44.3602022" lon="11.4880447"><ele>500.0</ele><time>2026-03-28T14:28:56.246Z</time></trkpt><trkpt lat="44.3600902" lon="11.4880043"><ele>500.0</ele><time>2026-03-28T14:28:57.247Z</time></trkpt><trkpt lat="44.3599797" lon="11.4879602"><ele>500.0</ele><time>2026-03-28T14:28:58.251Z</time></trkpt><trkpt lat="44.3598734" lon="11.4878915"><ele>500.0</ele><time>2026-03-28T14:28:59.254Z</time></trkpt><trkpt lat="44.3597683" lon="11.4877882"><ele>501.66666666666663</ele><time>2026-03-28T14:29:00.248Z</time></trkpt><trkpt lat="44.3596265" lon="11.4876883"><ele>503.33333333333337</ele><time>2026-03-28T14:29:01.202Z</time></trkpt><trkpt lat="44.359476" lon="11.4875894"><ele>505.0</ele><time>2026-03-28T14:29:02.197Z</time></trkpt><trkpt lat="44.3593391" lon="11.4874762"><ele>505.0</ele><time>2026-03-28T14:29:03.213Z</time></trkpt><trkpt lat="44.3592473" lon="11.4873625"><ele>505.0</ele><time>2026-03-28T14:29:04.186Z</time></trkpt><trkpt lat="44.3591815" lon="11.4872539"><ele>505.0</ele><time>2026-03-28T14:29:05.199Z</time></trkpt><trkpt lat="44.3591477" lon="11.4871527"><ele>505.0</ele><time>2026-03-28T14:29:06.203Z</time></trkpt><trkpt lat="44.3590781" lon="11.48703"><ele>505.0</ele><time>2026-03-28T14:29:07.192Z</time></trkpt><trkpt lat="44.359011" lon="11.4869314"><ele>506.6</ele><time>2026-03-28T14:29:08.204Z</time></trkpt><trkpt lat="44.3589364" lon="11.4868436"><ele>508.2</ele><time>2026-03-28T14:29:09.195Z</time></trkpt><trkpt lat="44.3588542" lon="11.4867866"><ele>509.79999999999995</ele><time>2026-03-28T14:29:10.188Z</time></trkpt><trkpt lat="44.3587709" lon="11.486764"><ele>511.4</ele><time>2026-03-28T14:29:11.188Z</time></trkpt><trkpt lat="44.3586776" lon="11.4867636"><ele>513.0</ele><time>2026-03-28T14:29:12.194Z</time></trkpt><trkpt lat="44.3585934" lon="11.4867787"><ele>513.0</ele><time>2026-03-28T14:29:13.184Z</time></trkpt><trkpt lat="44.3585009" lon="11.4868037"><ele>513.0</ele><time>2026-03-28T14:29:14.19Z</time></trkpt><trkpt lat="44.3584233" lon="11.4868164"><ele>513.0</ele><time>2026-03-28T14:29:15.189Z</time></trkpt><trkpt lat="44.3583289" lon="11.4868097"><ele>513.0</ele><time>2026-03-28T14:29:16.184Z</time></trkpt><trkpt lat="44.3582222" lon="11.4867756"><ele>513.0</ele><time>2026-03-28T14:29:17.194Z</time></trkpt><trkpt lat="44.3581013" lon="11.486708"><ele>512.5</ele><time>2026-03-28T14:29:18.201Z</time></trkpt><trkpt lat="44.3579799" lon="11.4866337"><ele>512.0</ele><time>2026-03-28T14:29:19.193Z</time></trkpt><trkpt lat="44.3578532" lon="11.4865605"><ele>511.5</ele><time>2026-03-28T14:29:20.194Z</time></trkpt><trkpt lat="44.3577198" lon="11.4864848"><ele>511.0</ele><time>2026-03-28T14:29:21.214Z</time></trkpt><trkpt lat="44.3575903" lon="11.4864026"><ele>511.0</ele><time>2026-03-28T14:29:22.189Z</time></trkpt><trkpt lat="44.3574482" lon="11.4863023"><ele>511.0</ele><time>2026-03-28T14:29:23.197Z</time></trkpt><trkpt lat="44.3573131" lon="11.4862076"><ele>511.0</ele><time>2026-03-28T14:29:24.189Z</time></trkpt><trkpt lat="44.3571811" lon="11.4861146"><ele>511.75</ele><time>2026-03-28T14:29:25.188Z</time></trkpt><trkpt lat="44.3570478" lon="11.4860296"><ele>512.5</ele><time>2026-03-28T14:29:26.189Z</time></trkpt><trkpt lat="44.3569172" lon="11.4859669"><ele>513.25</ele><time>2026-03-28T14:29:27.204Z</time></trkpt><trkpt lat="44.3567834" lon="11.4859175"><ele>514.0</ele><time>2026-03-28T14:29:28.185Z</time></trkpt><trkpt lat="44.3566583" lon="11.4858872"><ele>514.0</ele><time>2026-03-28T14:29:29.191Z</time></trkpt><trkpt lat="44.3565362" lon="11.4858686"><ele>514.0</ele><time>2026-03-28T14:29:30.198Z</time></trkpt><trkpt lat="44.3564063" lon="11.4858703"><ele>514.0</ele><time>2026-03-28T14:29:31.193Z</time></trkpt><trkpt lat="44.3562811" lon="11.4859023"><ele>514.0</ele><time>2026-03-28T14:29:32.188Z</time></trkpt><trkpt lat="44.3561578" lon="11.485957"><ele>513.5</ele><time>2026-03-28T14:29:33.197Z</time></trkpt><trkpt lat="44.3560359" lon="11.4860215"><ele>513.0</ele><time>2026-03-28T14:29:34.209Z</time></trkpt><trkpt lat="44.3559073" lon="11.4860901"><ele>512.5</ele><time>2026-03-28T14:29:35.192Z</time></trkpt><trkpt lat="44.3557652" lon="11.4861608"><ele>512.0</ele><time>2026-03-28T14:29:36.208Z</time></trkpt><trkpt lat="44.3556136" lon="11.4862161"><ele>515.5</ele><time>2026-03-28T14:29:37.195Z</time></trkpt><trkpt lat="44.3554893" lon="11.486252"><ele>519.0</ele><time>2026-03-28T14:29:38.182Z</time></trkpt><trkpt lat="44.3553836" lon="11.4862952"><ele>522.5</ele><time>2026-03-28T14:29:39.202Z</time></trkpt><trkpt lat="44.3555004" lon="11.4863404"><ele>526.0</ele><time>2026-03-28T14:29:40.197Z</time></trkpt><trkpt lat="44.3554286" lon="11.4864803"><ele>526.0</ele><time>2026-03-28T14:29:42.182Z</time></trkpt><trkpt lat="44.355337" lon="11.4865903"><ele>526.0</ele><time>2026-03-28T14:29:44.186Z</time></trkpt><trkpt lat="44.3552562" lon="11.4866297"><ele>526.0</ele><time>2026-03-28T14:29:45.188Z</time></trkpt><trkpt lat="44.3551469" lon="11.4866847"><ele>526.0</ele><time>2026-03-28T14:29:46.187Z</time></trkpt><trkpt lat="44.3550404" lon="11.4867525"><ele>526.0</ele><time>2026-03-28T14:29:47.194Z</time></trkpt><trkpt lat="44.3549709" lon="11.4868423"><ele>526.0</ele><time>2026-03-28T14:29:48.185Z</time></trkpt><trkpt lat="44.3548909" lon="11.486946"><ele>526.0</ele><time>2026-03-28T14:29:49.191Z</time></trkpt><trkpt lat="44.3548394" lon="11.487057"><ele>526.0</ele><time>2026-03-28T14:29:50.194Z</time></trkpt><trkpt lat="44.3548311" lon="11.4871575"><ele>526.0</ele><time>2026-03-28T14:29:51.187Z</time></trkpt><trkpt lat="44.3548104" lon="11.4872635"><ele>526.0</ele><time>2026-03-28T14:29:52.177Z</time></trkpt><trkpt lat="44.3547758" lon="11.4873796"><ele>526.0</ele><time>2026-03-28T14:29:53.204Z</time></trkpt><trkpt lat="44.354742" lon="11.4875045"><ele>523.75</ele><time>2026-03-28T14:29:54.185Z</time></trkpt><trkpt lat="44.3547069" lon="11.4876692"><ele>521.5</ele><time>2026-03-28T14:29:55.18Z</time></trkpt><trkpt lat="44.354686" lon="11.4878638"><ele>519.25</ele><time>2026-03-28T14:29:56.186Z</time></trkpt><trkpt lat="44.3546758" lon="11.4880524"><ele>517.0</ele><time>2026-03-28T14:29:57.194Z</time></trkpt><trkpt lat="44.3546401" lon="11.4882205"><ele>521.75</ele><time>2026-03-28T14:29:58.183Z</time></trkpt><trkpt lat="44.3545923" lon="11.4883797"><ele>526.5</ele><time>2026-03-28T14:29:59.194Z</time></trkpt><trkpt lat="44.3545439" lon="11.4885252"><ele>531.25</ele><time>2026-03-28T14:30:00.194Z</time></trkpt><trkpt lat="44.354506" lon="11.4886871"><ele>536.0</ele><time>2026-03-28T14:30:01.197Z</time></trkpt><trkpt lat="44.3544744" lon="11.4888496"><ele>536.0</ele><time>2026-03-28T14:30:02.196Z</time></trkpt><trkpt lat="44.3544512" lon="11.488993"><ele>536.0</ele><time>2026-03-28T14:30:03.179Z</time></trkpt><trkpt lat="44.3544329" lon="11.4891244"><ele>536.0</ele><time>2026-03-28T14:30:04.197Z</time></trkpt><trkpt lat="44.3543866" lon="11.4890542"><ele>536.0</ele><time>2026-03-28T14:30:05.189Z</time></trkpt><trkpt lat="44.3543301" lon="11.4891537"><ele>536.0</ele><time>2026-03-28T14:30:06.198Z</time></trkpt><trkpt lat="44.3542711" lon="11.4892449"><ele>536.0</ele><time>2026-03-28T14:30:07.199Z</time></trkpt><trkpt lat="44.3542107" lon="11.489323"><ele>536.0</ele><time>2026-03-28T14:30:08.183Z</time></trkpt><trkpt lat="44.3541419" lon="11.4893771"><ele>536.0</ele><time>2026-03-28T14:30:09.195Z</time></trkpt><trkpt lat="44.3540644" lon="11.4894299"><ele>536.0</ele><time>2026-03-28T14:30:10.191Z</time></trkpt><trkpt lat="44.3539728" lon="11.4894865"><ele>536.0</ele><time>2026-03-28T14:30:11.212Z</time></trkpt><trkpt lat="44.3539091" lon="11.4895392"><ele>536.0</ele><time>2026-03-28T14:30:12.197Z</time></trkpt><trkpt lat="44.353803" lon="11.4896477"><ele>535.6</ele><time>2026-03-28T14:30:14.202Z</time></trkpt><trkpt lat="44.3537444" lon="11.4896964"><ele>535.2</ele><time>2026-03-28T14:30:15.199Z</time></trkpt><trkpt lat="44.3536381" lon="11.4897589"><ele>534.8</ele><time>2026-03-28T14:30:17.185Z</time></trkpt><trkpt lat="44.3535829" lon="11.4898034"><ele>534.4</ele><time>2026-03-28T14:30:18.194Z</time></trkpt><trkpt lat="44.3534592" lon="11.4899071"><ele>534.0</ele><time>2026-03-28T14:30:19.187Z</time></trkpt><trkpt lat="44.3533857" lon="11.4899707"><ele>534.0</ele><time>2026-03-28T14:30:20.186Z</time></trkpt><trkpt lat="44.35333" lon="11.4900465"><ele>534.0</ele><time>2026-03-28T14:30:21.177Z</time></trkpt><trkpt lat="44.3532801" lon="11.4901235"><ele>534.0</ele><time>2026-03-28T14:30:22.186Z</time></trkpt><trkpt lat="44.3532504" lon="11.4902012"><ele>534.0</ele><time>2026-03-28T14:30:23.189Z</time></trkpt><trkpt lat="44.3532038" lon="11.4903341"><ele>534.0</ele><time>2026-03-28T14:30:25.184Z</time></trkpt><trkpt lat="44.3531427" lon="11.4904689"><ele>534.0</ele><time>2026-03-28T14:30:27.183Z</time></trkpt><trkpt lat="44.3530867" lon="11.4905389"><ele>534.2</ele><time>2026-03-28T14:30:28.202Z</time></trkpt><trkpt lat="44.3529607" lon="11.4905791"><ele>534.4</ele><time>2026-03-28T14:30:30.194Z</time></trkpt><trkpt lat="44.3528798" lon="11.4905884"><ele>534.6</ele><time>2026-03-28T14:30:31.192Z</time></trkpt><trkpt lat="44.3527902" lon="11.4905897"><ele>534.8</ele><time>2026-03-28T14:30:32.202Z</time></trkpt><trkpt lat="44.3527109" lon="11.4905757"><ele>535.0</ele><time>2026-03-28T14:30:33.182Z</time></trkpt><trkpt lat="44.3525795" lon="11.4904964"><ele>535.0</ele><time>2026-03-28T14:30:35.19Z</time></trkpt><trkpt lat="44.3525157" lon="11.4904402"><ele>535.0</ele><time>2026-03-28T14:30:36.185Z</time></trkpt><trkpt lat="44.3524294" lon="11.4903031"><ele>535.0</ele><time>2026-03-28T14:30:38.203Z</time></trkpt><trkpt lat="44.352409" lon="11.4902164"><ele>535.0</ele><time>2026-03-28T14:30:39.193Z</time></trkpt><trkpt lat="44.352409" lon="11.4901245"><ele>535.0</ele><time>2026-03-28T14:30:40.196Z</time></trkpt><trkpt lat="44.3524284" lon="11.4900382"><ele>535.0</ele><time>2026-03-28T14:30:41.188Z</time></trkpt><trkpt lat="44.3524516" lon="11.4899448"><ele>538.2</ele><time>2026-03-28T14:30:42.198Z</time></trkpt><trkpt lat="44.3524567" lon="11.4898565"><ele>541.4</ele><time>2026-03-28T14:30:43.191Z</time></trkpt><trkpt lat="44.3523813" lon="11.4897169"><ele>544.6</ele><time>2026-03-28T14:30:45.203Z</time></trkpt><trkpt lat="44.3523074" lon="11.4896599"><ele>547.8</ele><time>2026-03-28T14:30:46.191Z</time></trkpt><trkpt lat="44.3522213" lon="11.4896087"><ele>551.0</ele><time>2026-03-28T14:30:47.191Z</time></trkpt><trkpt lat="44.3521241" lon="11.4895502"><ele>554.4</ele><time>2026-03-28T14:30:48.198Z</time></trkpt><trkpt lat="44.3520299" lon="11.4894954"><ele>557.8</ele><time>2026-03-28T14:30:49.19Z</time></trkpt><trkpt lat="44.3519223" lon="11.4894537"><ele>561.1999999999999</ele><time>2026-03-28T14:30:50.19Z</time></trkpt><trkpt lat="44.3518109" lon="11.4894291"><ele>564.6</ele><time>2026-03-28T14:30:51.211Z</time></trkpt><trkpt lat="44.351713" lon="11.4894019"><ele>568.0</ele><time>2026-03-28T14:30:52.197Z</time></trkpt><trkpt lat="44.3516258" lon="11.4893629"><ele>568.0</ele><time>2026-03-28T14:30:53.194Z</time></trkpt><trkpt lat="44.3515624" lon="11.4893039"><ele>568.0</ele><time>2026-03-28T14:30:54.214Z</time></trkpt><trkpt lat="44.3515051" lon="11.4892251"><ele>568.0</ele><time>2026-03-28T14:30:55.196Z</time></trkpt><trkpt lat="44.3514458" lon="11.4891298"><ele>568.0</ele><time>2026-03-28T14:30:56.205Z</time></trkpt><trkpt lat="44.3513824" lon="11.4890243"><ele>568.0</ele><time>2026-03-28T14:30:57.204Z</time></trkpt><trkpt lat="44.3513059" lon="11.4889334"><ele>568.0</ele><time>2026-03-28T14:30:58.203Z</time></trkpt><trkpt lat="44.3512158" lon="11.4888547"><ele>567.6666666666667</ele><time>2026-03-28T14:30:59.187Z</time></trkpt><trkpt lat="44.3511344" lon="11.4887835"><ele>567.3333333333334</ele><time>2026-03-28T14:31:00.205Z</time></trkpt><trkpt lat="44.3510592" lon="11.4887342"><ele>567.0</ele><time>2026-03-28T14:31:01.195Z</time></trkpt><trkpt lat="44.3509823" lon="11.4887184"><ele>566.6666666666666</ele><time>2026-03-28T14:31:02.198Z</time></trkpt><trkpt lat="44.3509164" lon="11.4887218"><ele>566.3333333333333</ele><time>2026-03-28T14:31:03.212Z</time></trkpt><trkpt lat="44.350852" lon="11.4887372"><ele>566.0</ele><time>2026-03-28T14:31:04.183Z</time></trkpt><trkpt lat="44.3507624" lon="11.488778"><ele>565.75</ele><time>2026-03-28T14:31:05.198Z</time></trkpt><trkpt lat="44.3506748" lon="11.488834"><ele>565.5</ele><time>2026-03-28T14:31:06.182Z</time></trkpt><trkpt lat="44.3505753" lon="11.4889064"><ele>565.25</ele><time>2026-03-28T14:31:07.201Z</time></trkpt><trkpt lat="44.3504649" lon="11.4889884"><ele>565.0</ele><time>2026-03-28T14:31:08.206Z</time></trkpt><trkpt lat="44.3503474" lon="11.4890695"><ele>565.0</ele><time>2026-03-28T14:31:09.198Z</time></trkpt><trkpt lat="44.3502232" lon="11.4891487"><ele>565.0</ele><time>2026-03-28T14:31:10.188Z</time></trkpt><trkpt lat="44.3501063" lon="11.4892055"><ele>565.0</ele><time>2026-03-28T14:31:11.192Z</time></trkpt><trkpt lat="44.3499913" lon="11.4892543"><ele>565.0</ele><time>2026-03-28T14:31:12.187Z</time></trkpt><trkpt lat="44.3498824" lon="11.4892977"><ele>565.0</ele><time>2026-03-28T14:31:13.221Z</time></trkpt><trkpt lat="44.3497757" lon="11.4893395"><ele>565.0</ele><time>2026-03-28T14:31:14.195Z</time></trkpt><trkpt lat="44.3496854" lon="11.4894039"><ele>565.0</ele><time>2026-03-28T14:31:15.198Z</time></trkpt><trkpt lat="44.3496088" lon="11.4894992"><ele>565.0</ele><time>2026-03-28T14:31:16.194Z</time></trkpt><trkpt lat="44.3495477" lon="11.4896148"><ele>565.0</ele><time>2026-03-28T14:31:17.197Z</time></trkpt><trkpt lat="44.3494949" lon="11.4897365"><ele>567.8</ele><time>2026-03-28T14:31:18.201Z</time></trkpt><trkpt lat="44.3494391" lon="11.4898587"><ele>570.6</ele><time>2026-03-28T14:31:19.187Z</time></trkpt><trkpt lat="44.3493761" lon="11.4899845"><ele>573.4</ele><time>2026-03-28T14:31:20.197Z</time></trkpt><trkpt lat="44.3493183" lon="11.4901003"><ele>576.2</ele><time>2026-03-28T14:31:21.192Z</time></trkpt><trkpt lat="44.3492583" lon="11.4902226"><ele>579.0</ele><time>2026-03-28T14:31:22.199Z</time></trkpt><trkpt lat="44.349194" lon="11.4903498"><ele>578.3333333333334</ele><time>2026-03-28T14:31:23.193Z</time></trkpt><trkpt lat="44.3491093" lon="11.4905091"><ele>577.6666666666667</ele><time>2026-03-28T14:31:24.51Z</time></trkpt><trkpt lat="44.348961" lon="11.4907774"><ele>577.0</ele><time>2026-03-28T14:31:26.25Z</time></trkpt><trkpt lat="44.348891" lon="11.490936"><ele>575.75</ele><time>2026-03-28T14:31:27.249Z</time></trkpt><trkpt lat="44.3488242" lon="11.4911045"><ele>574.5</ele><time>2026-03-28T14:31:28.26Z</time></trkpt><trkpt lat="44.348759" lon="11.491275"><ele>573.25</ele><time>2026-03-28T14:31:29.239Z</time></trkpt><trkpt lat="44.3486951" lon="11.491453"><ele>572.0</ele><time>2026-03-28T14:31:30.251Z</time></trkpt><trkpt lat="44.3486368" lon="11.4916195"><ele>572.0</ele><time>2026-03-28T14:31:31.184Z</time></trkpt><trkpt lat="44.3485771" lon="11.4917949"><ele>572.0</ele><time>2026-03-28T14:31:32.194Z</time></trkpt><trkpt lat="44.3485036" lon="11.4920076"><ele>572.0</ele><time>2026-03-28T14:31:33.511Z</time></trkpt><trkpt lat="44.3484499" lon="11.4920843"><ele>572.0</ele><time>2026-03-28T14:31:34.253Z</time></trkpt><trkpt lat="44.3483689" lon="11.4922349"><ele>573.6</ele><time>2026-03-28T14:31:35.281Z</time></trkpt><trkpt lat="44.348318" lon="11.4923608"><ele>575.2</ele><time>2026-03-28T14:31:36.249Z</time></trkpt><trkpt lat="44.3482815" lon="11.4924939"><ele>576.8</ele><time>2026-03-28T14:31:37.259Z</time></trkpt><trkpt lat="44.3482518" lon="11.4926252"><ele>578.4</ele><time>2026-03-28T14:31:38.251Z</time></trkpt><trkpt lat="44.3482178" lon="11.4927658"><ele>580.0</ele><time>2026-03-28T14:31:39.262Z</time></trkpt><trkpt lat="44.3481771" lon="11.4929074"><ele>580.2</ele><time>2026-03-28T14:31:40.26Z</time></trkpt><trkpt lat="44.3481371" lon="11.4930506"><ele>580.4</ele><time>2026-03-28T14:31:41.263Z</time></trkpt><trkpt lat="44.3481096" lon="11.4931872"><ele>580.6</ele><time>2026-03-28T14:31:42.26Z</time></trkpt><trkpt lat="44.3481069" lon="11.4933259"><ele>580.8</ele><time>2026-03-28T14:31:43.263Z</time></trkpt><trkpt lat="44.3481187" lon="11.4934733"><ele>581.0</ele><time>2026-03-28T14:31:44.258Z</time></trkpt><trkpt lat="44.3481407" lon="11.4936182"><ele>581.2</ele><time>2026-03-28T14:31:45.25Z</time></trkpt><trkpt lat="44.3481679" lon="11.4937566"><ele>581.4000000000001</ele><time>2026-03-28T14:31:46.242Z</time></trkpt><trkpt lat="44.3481871" lon="11.4938926"><ele>581.6</ele><time>2026-03-28T14:31:47.245Z</time></trkpt><trkpt lat="44.3482049" lon="11.4940286"><ele>581.8000000000001</ele><time>2026-03-28T14:31:48.265Z</time></trkpt><trkpt lat="44.3482185" lon="11.4941577"><ele>582.0</ele><time>2026-03-28T14:31:49.247Z</time></trkpt><trkpt lat="44.3482339" lon="11.4942743"><ele>582.0</ele><time>2026-03-28T14:31:50.195Z</time></trkpt><trkpt lat="44.348254" lon="11.4943807"><ele>582.0</ele><time>2026-03-28T14:31:51.181Z</time></trkpt><trkpt lat="44.3482831" lon="11.4944787"><ele>582.0</ele><time>2026-03-28T14:31:52.219Z</time></trkpt><trkpt lat="44.3483081" lon="11.4945635"><ele>582.0</ele><time>2026-03-28T14:31:53.201Z</time></trkpt><trkpt lat="44.3483339" lon="11.4946556"><ele>582.0</ele><time>2026-03-28T14:31:54.204Z</time></trkpt><trkpt lat="44.3483421" lon="11.4948018"><ele>582.0</ele><time>2026-03-28T14:31:56.187Z</time></trkpt><trkpt lat="44.3482593" lon="11.4948886"><ele>580.5714285714286</ele><time>2026-03-28T14:31:58.198Z</time></trkpt><trkpt lat="44.3481964" lon="11.4949005"><ele>579.1428571428571</ele><time>2026-03-28T14:31:59.195Z</time></trkpt><trkpt lat="44.3481236" lon="11.494906"><ele>577.7142857142857</ele><time>2026-03-28T14:32:00.191Z</time></trkpt><trkpt lat="44.348045" lon="11.4949149"><ele>576.2857142857142</ele><time>2026-03-28T14:32:01.186Z</time></trkpt><trkpt lat="44.3479792" lon="11.494936"><ele>574.8571428571429</ele><time>2026-03-28T14:32:02.204Z</time></trkpt><trkpt lat="44.3479094" lon="11.494972"><ele>573.4285714285713</ele><time>2026-03-28T14:32:03.192Z</time></trkpt><trkpt lat="44.3478376" lon="11.4950029"><ele>572.0</ele><time>2026-03-28T14:32:04.185Z</time></trkpt><trkpt lat="44.347763" lon="11.4950444"><ele>572.0</ele><time>2026-03-28T14:32:05.189Z</time></trkpt><trkpt lat="44.3476967" lon="11.4951031"><ele>572.0</ele><time>2026-03-28T14:32:06.211Z</time></trkpt><trkpt lat="44.3476371" lon="11.4951797"><ele>572.0</ele><time>2026-03-28T14:32:07.193Z</time></trkpt><trkpt lat="44.347585" lon="11.4952765"><ele>572.0</ele><time>2026-03-28T14:32:08.209Z</time></trkpt><trkpt lat="44.3475295" lon="11.4953881"><ele>572.0</ele><time>2026-03-28T14:32:09.195Z</time></trkpt><trkpt lat="44.3474706" lon="11.4955102"><ele>572.0</ele><time>2026-03-28T14:32:10.192Z</time></trkpt><trkpt lat="44.3474047" lon="11.4956514"><ele>565.75</ele><time>2026-03-28T14:32:11.207Z</time></trkpt><trkpt lat="44.3473406" lon="11.4958138"><ele>559.5</ele><time>2026-03-28T14:32:12.194Z</time></trkpt><trkpt lat="44.3472854" lon="11.4959387"><ele>553.25</ele><time>2026-03-28T14:32:13.195Z</time></trkpt><trkpt lat="44.3472084" lon="11.4960612"><ele>547.0</ele><time>2026-03-28T14:32:14.204Z</time></trkpt><trkpt lat="44.3471381" lon="11.4961638"><ele>546.3333333333334</ele><time>2026-03-28T14:32:15.202Z</time></trkpt><trkpt lat="44.3471007" lon="11.4962487"><ele>545.6666666666667</ele><time>2026-03-28T14:32:16.183Z</time></trkpt><trkpt lat="44.3470754" lon="11.4963763"><ele>545.0</ele><time>2026-03-28T14:32:17.198Z</time></trkpt><trkpt lat="44.3470608" lon="11.4965107"><ele>544.3333333333334</ele><time>2026-03-28T14:32:18.2Z</time></trkpt><trkpt lat="44.3470405" lon="11.4966285"><ele>543.6666666666666</ele><time>2026-03-28T14:32:19.193Z</time></trkpt><trkpt lat="44.3470342" lon="11.4967364"><ele>543.0</ele><time>2026-03-28T14:32:20.184Z</time></trkpt><trkpt lat="44.3470101" lon="11.4968289"><ele>541.8</ele><time>2026-03-28T14:32:21.201Z</time></trkpt><trkpt lat="44.346919" lon="11.4968986"><ele>540.5999999999999</ele><time>2026-03-28T14:32:23.191Z</time></trkpt><trkpt lat="44.3468481" lon="11.4969022"><ele>539.4000000000001</ele><time>2026-03-28T14:32:24.192Z</time></trkpt><trkpt lat="44.3467309" lon="11.4968336"><ele>538.2</ele><time>2026-03-28T14:32:26.185Z</time></trkpt><trkpt lat="44.34666" lon="11.4967818"><ele>537.0</ele><time>2026-03-28T14:32:27.19Z</time></trkpt><trkpt lat="44.3465802" lon="11.4967257"><ele>537.0</ele><time>2026-03-28T14:32:28.189Z</time></trkpt><trkpt lat="44.3464967" lon="11.4966609"><ele>537.0</ele><time>2026-03-28T14:32:29.216Z</time></trkpt><trkpt lat="44.3464204" lon="11.4965992"><ele>537.0</ele><time>2026-03-28T14:32:30.185Z</time></trkpt><trkpt lat="44.3463555" lon="11.4965321"><ele>537.0</ele><time>2026-03-28T14:32:31.194Z</time></trkpt><trkpt lat="44.3462995" lon="11.4964591"><ele>537.0</ele><time>2026-03-28T14:32:32.197Z</time></trkpt><trkpt lat="44.346234" lon="11.4962886"><ele>534.25</ele><time>2026-03-28T14:32:34.21Z</time></trkpt><trkpt lat="44.3461798" lon="11.4961734"><ele>531.5</ele><time>2026-03-28T14:32:35.205Z</time></trkpt><trkpt lat="44.3461159" lon="11.4960512"><ele>528.75</ele><time>2026-03-28T14:32:36.221Z</time></trkpt><trkpt lat="44.3460323" lon="11.4959343"><ele>526.0</ele><time>2026-03-28T14:32:37.199Z</time></trkpt><trkpt lat="44.3459157" lon="11.4958376"><ele>526.0</ele><time>2026-03-28T14:32:38.197Z</time></trkpt><trkpt lat="44.3457751" lon="11.4957415"><ele>526.0</ele><time>2026-03-28T14:32:39.203Z</time></trkpt><trkpt lat="44.3456374" lon="11.4956737"><ele>526.0</ele><time>2026-03-28T14:32:40.201Z</time></trkpt><trkpt lat="44.3455167" lon="11.4955928"><ele>526.0</ele><time>2026-03-28T14:32:41.202Z</time></trkpt><trkpt lat="44.3454694" lon="11.4955278"><ele>526.0</ele><time>2026-03-28T14:32:44.184Z</time></trkpt><trkpt lat="44.3456191" lon="11.4955829"><ele>526.0</ele><time>2026-03-28T14:32:45.201Z</time></trkpt><trkpt lat="44.345536" lon="11.4956182"><ele>526.0</ele><time>2026-03-28T14:32:47.197Z</time></trkpt><trkpt lat="44.3455426" lon="11.4957129"><ele>526.0</ele><time>2026-03-28T14:32:51.193Z</time></trkpt><trkpt lat="44.3455694" lon="11.4958032"><ele>526.0</ele><time>2026-03-28T14:32:53.181Z</time></trkpt><trkpt lat="44.3456005" lon="11.4959196"><ele>526.0</ele><time>2026-03-28T14:32:55.186Z</time></trkpt><trkpt lat="44.3456349" lon="11.4961653"><ele>526.0</ele><time>2026-03-28T14:32:56.22Z</time></trkpt><trkpt lat="44.3455847" lon="11.4962843"><ele>526.0</ele><time>2026-03-28T14:32:58.195Z</time></trkpt><trkpt lat="44.3455312" lon="11.496334"><ele>526.0</ele><time>2026-03-28T14:32:59.193Z</time></trkpt><trkpt lat="44.345458" lon="11.4963739"><ele>526.0</ele><time>2026-03-28T14:33:00.195Z</time></trkpt><trkpt lat="44.345377" lon="11.4964082"><ele>519.6</ele><time>2026-03-28T14:33:01.188Z</time></trkpt><trkpt lat="44.3452954" lon="11.4964447"><ele>513.2</ele><time>2026-03-28T14:33:02.19Z</time></trkpt><trkpt lat="44.3452192" lon="11.4964716"><ele>506.79999999999995</ele><time>2026-03-28T14:33:03.207Z</time></trkpt><trkpt lat="44.3451494" lon="11.4964796"><ele>500.4</ele><time>2026-03-28T14:33:04.194Z</time></trkpt><trkpt lat="44.345073" lon="11.4964144"><ele>494.0</ele><time>2026-03-28T14:33:06.2Z</time></trkpt><trkpt lat="44.3449828" lon="11.4962621"><ele>496.0</ele><time>2026-03-28T14:33:08.191Z</time></trkpt><trkpt lat="44.3449304" lon="11.4961581"><ele>498.0</ele><time>2026-03-28T14:33:09.205Z</time></trkpt><trkpt lat="44.3448758" lon="11.4960495"><ele>500.0</ele><time>2026-03-28T14:33:10.184Z</time></trkpt><trkpt lat="44.344809" lon="11.4959336"><ele>502.0</ele><time>2026-03-28T14:33:11.217Z</time></trkpt><trkpt lat="44.344744" lon="11.4958469"><ele>504.0</ele><time>2026-03-28T14:33:12.206Z</time></trkpt><trkpt lat="44.3446874" lon="11.4957831"><ele>500.5</ele><time>2026-03-28T14:33:13.199Z</time></trkpt><trkpt lat="44.3445899" lon="11.4956688"><ele>497.0</ele><time>2026-03-28T14:33:15.199Z</time></trkpt><trkpt lat="44.3445334" lon="11.4956152"><ele>493.5</ele><time>2026-03-28T14:33:16.202Z</time></trkpt><trkpt lat="44.3444662" lon="11.4955548"><ele>490.0</ele><time>2026-03-28T14:33:17.213Z</time></trkpt><trkpt lat="44.3444005" lon="11.4955064"><ele>486.5</ele><time>2026-03-28T14:33:18.195Z</time></trkpt><trkpt lat="44.344322" lon="11.4954594"><ele>483.0</ele><time>2026-03-28T14:33:19.207Z</time></trkpt><trkpt lat="44.344253" lon="11.4954336"><ele>483.0</ele><time>2026-03-28T14:33:20.19Z</time></trkpt><trkpt lat="44.3441441" lon="11.4954648"><ele>483.0</ele><time>2026-03-28T14:33:22.197Z</time></trkpt><trkpt lat="44.3440815" lon="11.4954798"><ele>483.0</ele><time>2026-03-28T14:33:24.18Z</time></trkpt><trkpt lat="44.3441204" lon="11.4953664"><ele>483.0</ele><time>2026-03-28T14:33:27.218Z</time></trkpt><trkpt lat="44.3442119" lon="11.4953538"><ele>483.0</ele><time>2026-03-28T14:33:29.194Z</time></trkpt><trkpt lat="44.3442657" lon="11.4952621"><ele>483.0</ele><time>2026-03-28T14:33:31.196Z</time></trkpt><trkpt lat="44.3441925" lon="11.4951529"><ele>483.0</ele><time>2026-03-28T14:33:33.223Z</time></trkpt><trkpt lat="44.3440898" lon="11.4951268"><ele>483.0</ele><time>2026-03-28T14:33:35.196Z</time></trkpt><trkpt lat="44.3440201" lon="11.4951225"><ele>483.0</ele><time>2026-03-28T14:33:36.193Z</time></trkpt><trkpt lat="44.3439483" lon="11.4951256"><ele>483.0</ele><time>2026-03-28T14:33:37.192Z</time></trkpt><trkpt lat="44.3438781" lon="11.4951277"><ele>483.0</ele><time>2026-03-28T14:33:38.206Z</time></trkpt><trkpt lat="44.3438025" lon="11.4951279"><ele>483.0</ele><time>2026-03-28T14:33:39.182Z</time></trkpt><trkpt lat="44.3437256" lon="11.4951543"><ele>477.0</ele><time>2026-03-28T14:33:40.226Z</time></trkpt><trkpt lat="44.3436557" lon="11.4952221"><ele>470.99999999999994</ele><time>2026-03-28T14:33:41.224Z</time></trkpt><trkpt lat="44.3436138" lon="11.4954013"><ele>464.99999999999994</ele><time>2026-03-28T14:33:43.195Z</time></trkpt><trkpt lat="44.3436278" lon="11.4955044"><ele>459.0</ele><time>2026-03-28T14:33:44.212Z</time></trkpt><trkpt lat="44.3437257" lon="11.4956145"><ele>453.0</ele><time>2026-03-28T14:33:46.198Z</time></trkpt><trkpt lat="44.3437858" lon="11.4956481"><ele>459.0</ele><time>2026-03-28T14:33:47.196Z</time></trkpt><trkpt lat="44.3438923" lon="11.4957568"><ele>464.99999999999994</ele><time>2026-03-28T14:33:49.207Z</time></trkpt><trkpt lat="44.3439643" lon="11.4958964"><ele>470.99999999999994</ele><time>2026-03-28T14:33:51.206Z</time></trkpt><trkpt lat="44.3439942" lon="11.4959856"><ele>477.0</ele><time>2026-03-28T14:33:52.218Z</time></trkpt><trkpt lat="44.3440133" lon="11.4960911"><ele>483.0</ele><time>2026-03-28T14:33:53.216Z</time></trkpt><trkpt lat="44.3440158" lon="11.4961857"><ele>480.79999999999995</ele><time>2026-03-28T14:33:54.194Z</time></trkpt><trkpt lat="44.3440131" lon="11.4963264"><ele>478.59999999999997</ele><time>2026-03-28T14:33:55.199Z</time></trkpt><trkpt lat="44.3440305" lon="11.4964545"><ele>476.40000000000003</ele><time>2026-03-28T14:33:56.199Z</time></trkpt><trkpt lat="44.3440918" lon="11.4965634"><ele>474.20000000000005</ele><time>2026-03-28T14:33:57.512Z</time></trkpt><trkpt lat="44.3442102" lon="11.496646"><ele>472.0</ele><time>2026-03-28T14:33:59.253Z</time></trkpt><trkpt lat="44.3442966" lon="11.4967294"><ele>472.00000000000006</ele><time>2026-03-28T14:34:00.242Z</time></trkpt><trkpt lat="44.3443753" lon="11.4968245"><ele>472.0</ele><time>2026-03-28T14:34:01.252Z</time></trkpt><trkpt lat="44.3444479" lon="11.4969017"><ele>472.0</ele><time>2026-03-28T14:34:02.256Z</time></trkpt><trkpt lat="44.3445026" lon="11.4969711"><ele>472.0</ele><time>2026-03-28T14:34:03.268Z</time></trkpt><trkpt lat="44.3445539" lon="11.4970332"><ele>472.00000000000006</ele><time>2026-03-28T14:34:04.247Z</time></trkpt><trkpt lat="44.3446242" lon="11.497147"><ele>472.0</ele><time>2026-03-28T14:34:05.27Z</time></trkpt><trkpt lat="44.3447476" lon="11.4974729"><ele>472.40000000000003</ele><time>2026-03-28T14:34:07.253Z</time></trkpt><trkpt lat="44.3447539" lon="11.4976334"><ele>472.80000000000007</ele><time>2026-03-28T14:34:08.246Z</time></trkpt><trkpt lat="44.3447511" lon="11.4978003"><ele>473.2</ele><time>2026-03-28T14:34:09.259Z</time></trkpt><trkpt lat="44.3447624" lon="11.4979401"><ele>473.6</ele><time>2026-03-28T14:34:10.261Z</time></trkpt><trkpt lat="44.3447847" lon="11.4980677"><ele>474.0</ele><time>2026-03-28T14:34:11.256Z</time></trkpt><trkpt lat="44.3448248" lon="11.4981817"><ele>470.1666666666667</ele><time>2026-03-28T14:34:12.268Z</time></trkpt><trkpt lat="44.344878" lon="11.4982796"><ele>466.33333333333337</ele><time>2026-03-28T14:34:13.258Z</time></trkpt><trkpt lat="44.3449304" lon="11.4983789"><ele>462.5</ele><time>2026-03-28T14:34:14.275Z</time></trkpt><trkpt lat="44.344974" lon="11.4984692"><ele>458.6666666666667</ele><time>2026-03-28T14:34:15.259Z</time></trkpt><trkpt lat="44.3450105" lon="11.4985545"><ele>454.83333333333337</ele><time>2026-03-28T14:34:16.275Z</time></trkpt><trkpt lat="44.3450442" lon="11.4986311"><ele>451.0</ele><time>2026-03-28T14:34:17.252Z</time></trkpt><trkpt lat="44.3450822" lon="11.4987023"><ele>450.6</ele><time>2026-03-28T14:34:18.258Z</time></trkpt><trkpt lat="44.3451285" lon="11.4987718"><ele>450.20000000000005</ele><time>2026-03-28T14:34:19.26Z</time></trkpt><trkpt lat="44.34519" lon="11.4988433"><ele>449.79999999999995</ele><time>2026-03-28T14:34:20.26Z</time></trkpt><trkpt lat="44.3452723" lon="11.4989097"><ele>449.4</ele><time>2026-03-28T14:34:21.243Z</time></trkpt><trkpt lat="44.3453774" lon="11.4989674"><ele>449.0</ele><time>2026-03-28T14:34:22.248Z</time></trkpt><trkpt lat="44.3454991" lon="11.4990146"><ele>449.25</ele><time>2026-03-28T14:34:23.254Z</time></trkpt><trkpt lat="44.3456196" lon="11.4990564"><ele>449.5</ele><time>2026-03-28T14:34:24.189Z</time></trkpt><trkpt lat="44.3457528" lon="11.4991152"><ele>449.75</ele><time>2026-03-28T14:34:25.22Z</time></trkpt><trkpt lat="44.3458856" lon="11.4991724"><ele>450.0</ele><time>2026-03-28T14:34:26.184Z</time></trkpt><trkpt lat="44.3460274" lon="11.4992282"><ele>450.0</ele><time>2026-03-28T14:34:27.218Z</time></trkpt><trkpt lat="44.3461579" lon="11.4992791"><ele>450.0</ele><time>2026-03-28T14:34:28.192Z</time></trkpt><trkpt lat="44.3462934" lon="11.4993336"><ele>450.0</ele><time>2026-03-28T14:34:29.21Z</time></trkpt><trkpt lat="44.346417" lon="11.49938"><ele>450.0</ele><time>2026-03-28T14:34:30.197Z</time></trkpt><trkpt lat="44.3465513" lon="11.4994219"><ele>451.0</ele><time>2026-03-28T14:34:31.196Z</time></trkpt><trkpt lat="44.3466859" lon="11.4994686"><ele>452.0</ele><time>2026-03-28T14:34:32.195Z</time></trkpt><trkpt lat="44.3468096" lon="11.4995102"><ele>453.0</ele><time>2026-03-28T14:34:33.206Z</time></trkpt><trkpt lat="44.3469246" lon="11.499553"><ele>454.0</ele><time>2026-03-28T14:34:34.201Z</time></trkpt><trkpt lat="44.3470225" lon="11.4996049"><ele>448.75</ele><time>2026-03-28T14:34:35.197Z</time></trkpt><trkpt lat="44.3471253" lon="11.4996863"><ele>443.5</ele><time>2026-03-28T14:34:36.234Z</time></trkpt><trkpt lat="44.3472081" lon="11.4997714"><ele>438.25</ele><time>2026-03-28T14:34:37.198Z</time></trkpt><trkpt lat="44.347283" lon="11.4998816"><ele>433.0</ele><time>2026-03-28T14:34:38.215Z</time></trkpt><trkpt lat="44.3473578" lon="11.5000191"><ele>432.2</ele><time>2026-03-28T14:34:39.203Z</time></trkpt><trkpt lat="44.3474224" lon="11.5001515"><ele>431.4</ele><time>2026-03-28T14:34:40.198Z</time></trkpt><trkpt lat="44.3474775" lon="11.5002925"><ele>430.59999999999997</ele><time>2026-03-28T14:34:41.192Z</time></trkpt><trkpt lat="44.3475144" lon="11.5004308"><ele>429.79999999999995</ele><time>2026-03-28T14:34:42.19Z</time></trkpt><trkpt lat="44.3475307" lon="11.5005606"><ele>429.0</ele><time>2026-03-28T14:34:43.2Z</time></trkpt><trkpt lat="44.3475216" lon="11.500678"><ele>427.0</ele><time>2026-03-28T14:34:44.203Z</time></trkpt><trkpt lat="44.3474881" lon="11.5007775"><ele>425.0</ele><time>2026-03-28T14:34:45.221Z</time></trkpt><trkpt lat="44.3474993" lon="11.5008693"><ele>423.0</ele><time>2026-03-28T14:34:46.194Z</time></trkpt><trkpt lat="44.3474744" lon="11.5009789"><ele>421.0</ele><time>2026-03-28T14:34:47.202Z</time></trkpt><trkpt lat="44.3474295" lon="11.5010553"><ele>419.0</ele><time>2026-03-28T14:34:48.209Z</time></trkpt><trkpt lat="44.347328" lon="11.5010825"><ele>417.0</ele><time>2026-03-28T14:34:50.192Z</time></trkpt><trkpt lat="44.3472149" lon="11.5010199"><ele>419.1666666666667</ele><time>2026-03-28T14:34:52.201Z</time></trkpt><trkpt lat="44.3471521" lon="11.5009661"><ele>421.33333333333337</ele><time>2026-03-28T14:34:53.189Z</time></trkpt><trkpt lat="44.3470824" lon="11.5009085"><ele>423.5</ele><time>2026-03-28T14:34:54.187Z</time></trkpt><trkpt lat="44.34701" lon="11.5008532"><ele>425.6666666666667</ele><time>2026-03-28T14:34:55.209Z</time></trkpt><trkpt lat="44.3469313" lon="11.5008094"><ele>427.83333333333337</ele><time>2026-03-28T14:34:56.198Z</time></trkpt><trkpt lat="44.34685" lon="11.5007988"><ele>430.0</ele><time>2026-03-28T14:34:57.2Z</time></trkpt><trkpt lat="44.3468172" lon="11.5008896"><ele>430.00000000000006</ele><time>2026-03-28T14:34:59.203Z</time></trkpt><trkpt lat="44.3468179" lon="11.5009785"><ele>430.0</ele><time>2026-03-28T14:35:00.217Z</time></trkpt><trkpt lat="44.3468434" lon="11.5010791"><ele>430.0</ele><time>2026-03-28T14:35:01.216Z</time></trkpt><trkpt lat="44.346878" lon="11.5011789"><ele>430.0</ele><time>2026-03-28T14:35:02.2Z</time></trkpt><trkpt lat="44.3469112" lon="11.5012779"><ele>430.00000000000006</ele><time>2026-03-28T14:35:03.188Z</time></trkpt><trkpt lat="44.3469403" lon="11.5013678"><ele>430.0</ele><time>2026-03-28T14:35:04.214Z</time></trkpt><trkpt lat="44.3469578" lon="11.5015444"><ele>429.0</ele><time>2026-03-28T14:35:06.216Z</time></trkpt><trkpt lat="44.3469652" lon="11.5016599"><ele>428.0</ele><time>2026-03-28T14:35:07.217Z</time></trkpt><trkpt lat="44.3470119" lon="11.5018063"><ele>427.0</ele><time>2026-03-28T14:35:08.196Z</time></trkpt><trkpt lat="44.3471044" lon="11.5019597"><ele>426.0</ele><time>2026-03-28T14:35:09.202Z</time></trkpt><trkpt lat="44.3472367" lon="11.502085"><ele>415.33333333333337</ele><time>2026-03-28T14:35:10.196Z</time></trkpt><trkpt lat="44.3473925" lon="11.5021769"><ele>404.6666666666667</ele><time>2026-03-28T14:35:11.203Z</time></trkpt><trkpt lat="44.3475964" lon="11.5022586"><ele>394.0</ele><time>2026-03-28T14:35:12.219Z</time></trkpt><trkpt lat="44.3478247" lon="11.5023009"><ele>432.0</ele><time>2026-03-28T14:35:13.2Z</time></trkpt><trkpt lat="44.3471586" lon="11.5026902"><ele>425.20000000000005</ele><time>2026-03-28T14:35:14.189Z</time></trkpt><trkpt lat="44.3472296" lon="11.5027837"><ele>418.40000000000003</ele><time>2026-03-28T14:35:15.2Z</time></trkpt><trkpt lat="44.3472977" lon="11.50287"><ele>411.6</ele><time>2026-03-28T14:35:16.187Z</time></trkpt><trkpt lat="44.347363" lon="11.5029611"><ele>404.79999999999995</ele><time>2026-03-28T14:35:17.195Z</time></trkpt><trkpt lat="44.347418" lon="11.5030769"><ele>398.0</ele><time>2026-03-28T14:35:18.196Z</time></trkpt><trkpt lat="44.3474632" lon="11.503206"><ele>398.0</ele><time>2026-03-28T14:35:19.201Z</time></trkpt><trkpt lat="44.3474944" lon="11.5033504"><ele>398.0</ele><time>2026-03-28T14:35:20.238Z</time></trkpt><trkpt lat="44.3475211" lon="11.5034913"><ele>398.0</ele><time>2026-03-28T14:35:21.192Z</time></trkpt><trkpt lat="44.3475489" lon="11.503631"><ele>398.0</ele><time>2026-03-28T14:35:22.205Z</time></trkpt><trkpt lat="44.347585" lon="11.5037474"><ele>398.0</ele><time>2026-03-28T14:35:23.194Z</time></trkpt><trkpt lat="44.3476182" lon="11.5038559"><ele>398.79999999999995</ele><time>2026-03-28T14:35:24.195Z</time></trkpt><trkpt lat="44.3476784" lon="11.5039726"><ele>399.6</ele><time>2026-03-28T14:35:25.189Z</time></trkpt><trkpt lat="44.3477587" lon="11.5040818"><ele>400.4</ele><time>2026-03-28T14:35:26.195Z</time></trkpt><trkpt lat="44.3478414" lon="11.5041951"><ele>401.20000000000005</ele><time>2026-03-28T14:35:27.193Z</time></trkpt><trkpt lat="44.3479223" lon="11.5043089"><ele>402.0</ele><time>2026-03-28T14:35:28.197Z</time></trkpt><trkpt lat="44.3480166" lon="11.5044132"><ele>396.0</ele><time>2026-03-28T14:35:29.186Z</time></trkpt><trkpt lat="44.3481122" lon="11.5045214"><ele>390.0</ele><time>2026-03-28T14:35:30.215Z</time></trkpt><trkpt lat="44.3481828" lon="11.504636"><ele>384.0</ele><time>2026-03-28T14:35:31.198Z</time></trkpt><trkpt lat="44.3482388" lon="11.5047496"><ele>378.0</ele><time>2026-03-28T14:35:32.193Z</time></trkpt><trkpt lat="44.3483151" lon="11.5048384"><ele>372.0</ele><time>2026-03-28T14:35:33.199Z</time></trkpt><trkpt lat="44.348399" lon="11.5048932"><ele>372.0</ele><time>2026-03-28T14:35:34.202Z</time></trkpt><trkpt lat="44.3484912" lon="11.504921"><ele>372.0</ele><time>2026-03-28T14:35:35.205Z</time></trkpt><trkpt lat="44.3485775" lon="11.5049506"><ele>372.0</ele><time>2026-03-28T14:35:36.208Z</time></trkpt><trkpt lat="44.3486506" lon="11.5049865"><ele>372.0</ele><time>2026-03-28T14:35:37.189Z</time></trkpt><trkpt lat="44.3487241" lon="11.5050196"><ele>372.0</ele><time>2026-03-28T14:35:38.193Z</time></trkpt><trkpt lat="44.3487723" lon="11.5050789"><ele>372.0</ele><time>2026-03-28T14:35:39.234Z</time></trkpt><trkpt lat="44.3487956" lon="11.5052193"><ele>372.0</ele><time>2026-03-28T14:35:42.197Z</time></trkpt><trkpt lat="44.3487676" lon="11.5053457"><ele>372.0</ele><time>2026-03-28T14:35:44.511Z</time></trkpt><trkpt lat="44.3486322" lon="11.5057169"><ele>372.0</ele><time>2026-03-28T14:35:46.26Z</time></trkpt><trkpt lat="44.3486125" lon="11.5058137"><ele>371.0</ele><time>2026-03-28T14:35:47.275Z</time></trkpt><trkpt lat="44.3486087" lon="11.5059033"><ele>370.0</ele><time>2026-03-28T14:35:48.273Z</time></trkpt><trkpt lat="44.3486257" lon="11.5060577"><ele>369.0</ele><time>2026-03-28T14:35:49.266Z</time></trkpt><trkpt lat="44.3486404" lon="11.506166"><ele>368.0</ele><time>2026-03-28T14:35:50.264Z</time></trkpt><trkpt lat="44.3486599" lon="11.5062594"><ele>367.0</ele><time>2026-03-28T14:35:51.277Z</time></trkpt><trkpt lat="44.3487052" lon="11.5063495"><ele>366.0</ele><time>2026-03-28T14:35:52.264Z</time></trkpt><trkpt lat="44.3487612" lon="11.5064436"><ele>365.6666666666667</ele><time>2026-03-28T14:35:53.281Z</time></trkpt><trkpt lat="44.3488297" lon="11.5065233"><ele>365.3333333333333</ele><time>2026-03-28T14:35:54.261Z</time></trkpt><trkpt lat="44.3488801" lon="11.5066069"><ele>365.0</ele><time>2026-03-28T14:35:55.259Z</time></trkpt><trkpt lat="44.3489304" lon="11.506702"><ele>364.66666666666663</ele><time>2026-03-28T14:35:56.26Z</time></trkpt><trkpt lat="44.3489397" lon="11.5067998"><ele>364.3333333333333</ele><time>2026-03-28T14:35:57.275Z</time></trkpt><trkpt lat="44.3489539" lon="11.5069612"><ele>364.0</ele><time>2026-03-28T14:35:59.275Z</time></trkpt><trkpt lat="44.3490215" lon="11.5070053"><ele>358.6</ele><time>2026-03-28T14:36:01.196Z</time></trkpt><trkpt lat="44.349066" lon="11.506875"><ele>353.2</ele><time>2026-03-28T14:36:03.219Z</time></trkpt><trkpt lat="44.34907" lon="11.5067225"><ele>347.8</ele><time>2026-03-28T14:36:04.197Z</time></trkpt><trkpt lat="44.3490848" lon="11.506609"><ele>342.40000000000003</ele><time>2026-03-28T14:36:05.187Z</time></trkpt><trkpt lat="44.3490998" lon="11.5064875"><ele>337.0</ele><time>2026-03-28T14:36:06.21Z</time></trkpt><trkpt lat="44.3491061" lon="11.5063879"><ele>336.66666666666663</ele><time>2026-03-28T14:36:07.214Z</time></trkpt><trkpt lat="44.3490532" lon="11.5062319"><ele>336.3333333333333</ele><time>2026-03-28T14:36:09.195Z</time></trkpt><trkpt lat="44.34901" lon="11.5061599"><ele>336.0</ele><time>2026-03-28T14:36:10.204Z</time></trkpt><trkpt lat="44.348987" lon="11.5060584"><ele>335.6666666666667</ele><time>2026-03-28T14:36:12.223Z</time></trkpt><trkpt lat="44.3490792" lon="11.5060488"><ele>335.33333333333337</ele><time>2026-03-28T14:36:15.21Z</time></trkpt><trkpt lat="44.3491273" lon="11.5061119"><ele>335.0</ele><time>2026-03-28T14:36:16.198Z</time></trkpt><trkpt lat="44.3491773" lon="11.5061938"><ele>335.33333333333337</ele><time>2026-03-28T14:36:17.196Z</time></trkpt><trkpt lat="44.349207" lon="11.5062808"><ele>335.6666666666667</ele><time>2026-03-28T14:36:18.197Z</time></trkpt><trkpt lat="44.3492418" lon="11.5063706"><ele>336.0</ele><time>2026-03-28T14:36:19.198Z</time></trkpt><trkpt lat="44.3492643" lon="11.5064715"><ele>336.3333333333333</ele><time>2026-03-28T14:36:20.201Z</time></trkpt><trkpt lat="44.3492726" lon="11.5065776"><ele>336.66666666666663</ele><time>2026-03-28T14:36:21.195Z</time></trkpt><trkpt lat="44.3492765" lon="11.5066951"><ele>337.0</ele><time>2026-03-28T14:36:22.189Z</time></trkpt><trkpt lat="44.3492832" lon="11.5068098"><ele>337.0</ele><time>2026-03-28T14:36:23.197Z</time></trkpt><trkpt lat="44.3493077" lon="11.5069306"><ele>337.0</ele><time>2026-03-28T14:36:24.205Z</time></trkpt><trkpt lat="44.3493339" lon="11.507035"><ele>337.0</ele><time>2026-03-28T14:36:25.197Z</time></trkpt><trkpt lat="44.3493606" lon="11.5071283"><ele>337.0</ele><time>2026-03-28T14:36:26.204Z</time></trkpt><trkpt lat="44.3494325" lon="11.5072477"><ele>337.0</ele><time>2026-03-28T14:36:28.198Z</time></trkpt><trkpt lat="44.3495345" lon="11.5072"><ele>337.0</ele><time>2026-03-28T14:36:30.209Z</time></trkpt><trkpt lat="44.349565" lon="11.5071228"><ele>337.0</ele><time>2026-03-28T14:36:31.19Z</time></trkpt><trkpt lat="44.3495779" lon="11.50702"><ele>337.0</ele><time>2026-03-28T14:36:32.208Z</time></trkpt><trkpt lat="44.3495793" lon="11.5069018"><ele>337.0</ele><time>2026-03-28T14:36:33.19Z</time></trkpt><trkpt lat="44.3495823" lon="11.5067741"><ele>337.0</ele><time>2026-03-28T14:36:34.191Z</time></trkpt><trkpt lat="44.3496072" lon="11.5066547"><ele>337.0</ele><time>2026-03-28T14:36:35.187Z</time></trkpt><trkpt lat="44.3496215" lon="11.506521"><ele>337.0</ele><time>2026-03-28T14:36:36.185Z</time></trkpt><trkpt lat="44.3496303" lon="11.5063881"><ele>337.0</ele><time>2026-03-28T14:36:37.198Z</time></trkpt><trkpt lat="44.349611" lon="11.5062641"><ele>337.0</ele><time>2026-03-28T14:36:38.222Z</time></trkpt><trkpt lat="44.3495827" lon="11.5061535"><ele>337.0</ele><time>2026-03-28T14:36:39.198Z</time></trkpt><trkpt lat="44.3495504" lon="11.5060647"><ele>337.0</ele><time>2026-03-28T14:36:40.203Z</time></trkpt><trkpt lat="44.3495155" lon="11.5059781"><ele>337.0</ele><time>2026-03-28T14:36:41.2Z</time></trkpt><trkpt lat="44.349562" lon="11.5058952"><ele>336.66666666666663</ele><time>2026-03-28T14:36:42.196Z</time></trkpt><trkpt lat="44.3495612" lon="11.5057827"><ele>336.3333333333333</ele><time>2026-03-28T14:36:43.197Z</time></trkpt><trkpt lat="44.3495779" lon="11.505663"><ele>336.0</ele><time>2026-03-28T14:36:44.207Z</time></trkpt><trkpt lat="44.3495975" lon="11.5055408"><ele>335.6666666666667</ele><time>2026-03-28T14:36:45.209Z</time></trkpt><trkpt lat="44.3496074" lon="11.5054279"><ele>335.33333333333337</ele><time>2026-03-28T14:36:46.208Z</time></trkpt><trkpt lat="44.3496062" lon="11.5053142"><ele>335.0</ele><time>2026-03-28T14:36:47.197Z</time></trkpt><trkpt lat="44.3495923" lon="11.5052026"><ele>334.6666666666667</ele><time>2026-03-28T14:36:48.202Z</time></trkpt><trkpt lat="44.3495817" lon="11.5050955"><ele>334.33333333333337</ele><time>2026-03-28T14:36:49.223Z</time></trkpt><trkpt lat="44.3495716" lon="11.5049856"><ele>334.0</ele><time>2026-03-28T14:36:50.202Z</time></trkpt><trkpt lat="44.349578" lon="11.5048652"><ele>333.6666666666667</ele><time>2026-03-28T14:36:51.187Z</time></trkpt><trkpt lat="44.3496052" lon="11.5047395"><ele>333.3333333333333</ele><time>2026-03-28T14:36:52.202Z</time></trkpt><trkpt lat="44.3496503" lon="11.5046333"><ele>333.0</ele><time>2026-03-28T14:36:53.196Z</time></trkpt><trkpt lat="44.3497125" lon="11.5045488"><ele>329.3333333333333</ele><time>2026-03-28T14:36:54.19Z</time></trkpt><trkpt lat="44.3497851" lon="11.5044956"><ele>325.6666666666667</ele><time>2026-03-28T14:36:55.198Z</time></trkpt><trkpt lat="44.3498563" lon="11.5044748"><ele>322.0</ele><time>2026-03-28T14:36:56.206Z</time></trkpt><trkpt lat="44.3499226" lon="11.5044881"><ele>318.33333333333337</ele><time>2026-03-28T14:36:57.198Z</time></trkpt><trkpt lat="44.3499881" lon="11.5045257"><ele>314.6666666666667</ele><time>2026-03-28T14:36:58.198Z</time></trkpt><trkpt lat="44.3500561" lon="11.5046025"><ele>311.0</ele><time>2026-03-28T14:36:59.214Z</time></trkpt><trkpt lat="44.3501192" lon="11.5046998"><ele>308.6</ele><time>2026-03-28T14:37:00.193Z</time></trkpt><trkpt lat="44.3501923" lon="11.5048148"><ele>306.20000000000005</ele><time>2026-03-28T14:37:01.22Z</time></trkpt><trkpt lat="44.350258" lon="11.5049312"><ele>303.79999999999995</ele><time>2026-03-28T14:37:02.211Z</time></trkpt><trkpt lat="44.35033" lon="11.5050393"><ele>301.4</ele><time>2026-03-28T14:37:03.199Z</time></trkpt><trkpt lat="44.3504062" lon="11.5051423"><ele>299.0</ele><time>2026-03-28T14:37:04.204Z</time></trkpt><trkpt lat="44.3504761" lon="11.5052385"><ele>297.0</ele><time>2026-03-28T14:37:05.21Z</time></trkpt><trkpt lat="44.3505449" lon="11.5053463"><ele>295.0</ele><time>2026-03-28T14:37:06.214Z</time></trkpt><trkpt lat="44.3506" lon="11.505458"><ele>293.0</ele><time>2026-03-28T14:37:07.202Z</time></trkpt><trkpt lat="44.3506458" lon="11.5055755"><ele>291.0</ele><time>2026-03-28T14:37:08.205Z</time></trkpt><trkpt lat="44.3507068" lon="11.5056805"><ele>289.0</ele><time>2026-03-28T14:37:09.197Z</time></trkpt><trkpt lat="44.3507774" lon="11.5057572"><ele>288.2</ele><time>2026-03-28T14:37:10.203Z</time></trkpt><trkpt lat="44.3508563" lon="11.505811"><ele>287.4</ele><time>2026-03-28T14:37:11.223Z</time></trkpt><trkpt lat="44.350959" lon="11.5058435"><ele>286.6</ele><time>2026-03-28T14:37:12.205Z</time></trkpt><trkpt lat="44.3510508" lon="11.505852"><ele>285.8</ele><time>2026-03-28T14:37:13.201Z</time></trkpt><trkpt lat="44.3511367" lon="11.5058373"><ele>285.0</ele><time>2026-03-28T14:37:14.202Z</time></trkpt><trkpt lat="44.3512283" lon="11.5058142"><ele>285.0</ele><time>2026-03-28T14:37:15.201Z</time></trkpt><trkpt lat="44.3513399" lon="11.5057843"><ele>285.0</ele><time>2026-03-28T14:37:16.197Z</time></trkpt><trkpt lat="44.3514541" lon="11.5057632"><ele>285.0</ele><time>2026-03-28T14:37:17.202Z</time></trkpt><trkpt lat="44.3515717" lon="11.5057966"><ele>285.0</ele><time>2026-03-28T14:37:18.194Z</time></trkpt><trkpt lat="44.3516717" lon="11.5058721"><ele>283.3333333333333</ele><time>2026-03-28T14:37:19.207Z</time></trkpt><trkpt lat="44.3517532" lon="11.5059534"><ele>281.6666666666667</ele><time>2026-03-28T14:37:20.196Z</time></trkpt><trkpt lat="44.3518329" lon="11.5060404"><ele>280.0</ele><time>2026-03-28T14:37:21.215Z</time></trkpt><trkpt lat="44.3518967" lon="11.5061224"><ele>278.33333333333337</ele><time>2026-03-28T14:37:22.201Z</time></trkpt><trkpt lat="44.3519422" lon="11.5061966"><ele>276.6666666666667</ele><time>2026-03-28T14:37:23.203Z</time></trkpt><trkpt lat="44.3520012" lon="11.5062927"><ele>275.0</ele><time>2026-03-28T14:37:24.19Z</time></trkpt><trkpt lat="44.3520385" lon="11.5063976"><ele>275.0</ele><time>2026-03-28T14:37:25.199Z</time></trkpt><trkpt lat="44.3520609" lon="11.5065025"><ele>275.0</ele><time>2026-03-28T14:37:26.205Z</time></trkpt><trkpt lat="44.3520793" lon="11.5065972"><ele>275.0</ele><time>2026-03-28T14:37:27.206Z</time></trkpt><trkpt lat="44.3521364" lon="11.506743"><ele>275.0</ele><time>2026-03-28T14:37:29.202Z</time></trkpt><trkpt lat="44.3521853" lon="11.5068567"><ele>275.0</ele><time>2026-03-28T14:37:30.208Z</time></trkpt><trkpt lat="44.35225" lon="11.5069849"><ele>272.1666666666667</ele><time>2026-03-28T14:37:31.2Z</time></trkpt><trkpt lat="44.3523083" lon="11.5071259"><ele>269.33333333333337</ele><time>2026-03-28T14:37:32.207Z</time></trkpt><trkpt lat="44.3523473" lon="11.5072429"><ele>266.5</ele><time>2026-03-28T14:37:33.236Z</time></trkpt><trkpt lat="44.3523662" lon="11.5073426"><ele>263.6666666666667</ele><time>2026-03-28T14:37:34.197Z</time></trkpt><trkpt lat="44.3523836" lon="11.507448"><ele>260.8333333333333</ele><time>2026-03-28T14:37:35.214Z</time></trkpt><trkpt lat="44.3524009" lon="11.507554"><ele>258.0</ele><time>2026-03-28T14:37:36.19Z</time></trkpt><trkpt lat="44.352418" lon="11.5076693"><ele>258.0</ele><time>2026-03-28T14:37:37.21Z</time></trkpt><trkpt lat="44.35244" lon="11.5077829"><ele>258.0</ele><time>2026-03-28T14:37:38.191Z</time></trkpt><trkpt lat="44.3524603" lon="11.5079005"><ele>258.0</ele><time>2026-03-28T14:37:39.223Z</time></trkpt><trkpt lat="44.3524719" lon="11.5080121"><ele>258.0</ele><time>2026-03-28T14:37:40.196Z</time></trkpt><trkpt lat="44.3524805" lon="11.5081398"><ele>258.0</ele><time>2026-03-28T14:37:41.206Z</time></trkpt><trkpt lat="44.3524727" lon="11.5082726"><ele>258.0</ele><time>2026-03-28T14:37:42.187Z</time></trkpt><trkpt lat="44.3524442" lon="11.5084089"><ele>257.2</ele><time>2026-03-28T14:37:43.204Z</time></trkpt><trkpt lat="44.3524169" lon="11.5085416"><ele>256.4</ele><time>2026-03-28T14:37:44.219Z</time></trkpt><trkpt lat="44.3524179" lon="11.5086685"><ele>255.59999999999997</ele><time>2026-03-28T14:37:45.209Z</time></trkpt><trkpt lat="44.3524489" lon="11.5087928"><ele>254.79999999999998</ele><time>2026-03-28T14:37:46.187Z</time></trkpt><trkpt lat="44.3525044" lon="11.5089157"><ele>254.0</ele><time>2026-03-28T14:37:47.198Z</time></trkpt><trkpt lat="44.3525723" lon="11.509053"><ele>253.75</ele><time>2026-03-28T14:37:48.209Z</time></trkpt><trkpt lat="44.3526345" lon="11.5092011"><ele>253.5</ele><time>2026-03-28T14:37:49.21Z</time></trkpt><trkpt lat="44.3526905" lon="11.5093537"><ele>253.25</ele><time>2026-03-28T14:37:50.197Z</time></trkpt><trkpt lat="44.3527481" lon="11.5095067"><ele>253.0</ele><time>2026-03-28T14:37:51.208Z</time></trkpt><trkpt lat="44.3528158" lon="11.5096557"><ele>252.25</ele><time>2026-03-28T14:37:52.202Z</time></trkpt><trkpt lat="44.3528935" lon="11.5097999"><ele>251.5</ele><time>2026-03-28T14:37:53.191Z</time></trkpt><trkpt lat="44.3529804" lon="11.509955"><ele>250.75</ele><time>2026-03-28T14:37:54.197Z</time></trkpt><trkpt lat="44.3530709" lon="11.5101128"><ele>250.0</ele><time>2026-03-28T14:37:55.2Z</time></trkpt><trkpt lat="44.3531582" lon="11.5102703"><ele>247.75</ele><time>2026-03-28T14:37:56.196Z</time></trkpt><trkpt lat="44.3532435" lon="11.5104333"><ele>245.5</ele><time>2026-03-28T14:37:57.2Z</time></trkpt><trkpt lat="44.3533148" lon="11.5105877"><ele>243.25</ele><time>2026-03-28T14:37:58.193Z</time></trkpt><trkpt lat="44.3533849" lon="11.5107486"><ele>241.0</ele><time>2026-03-28T14:37:59.224Z</time></trkpt><trkpt lat="44.3534483" lon="11.5108953"><ele>241.0</ele><time>2026-03-28T14:38:00.2Z</time></trkpt><trkpt lat="44.3535154" lon="11.5110362"><ele>241.0</ele><time>2026-03-28T14:38:01.225Z</time></trkpt><trkpt lat="44.3535827" lon="11.5111606"><ele>241.0</ele><time>2026-03-28T14:38:02.189Z</time></trkpt><trkpt lat="44.3536575" lon="11.5112876"><ele>241.0</ele><time>2026-03-28T14:38:03.201Z</time></trkpt><trkpt lat="44.3537277" lon="11.5114076"><ele>241.20000000000002</ele><time>2026-03-28T14:38:04.195Z</time></trkpt><trkpt lat="44.3537984" lon="11.5115191"><ele>241.40000000000003</ele><time>2026-03-28T14:38:05.206Z</time></trkpt><trkpt lat="44.3538694" lon="11.5116259"><ele>241.6</ele><time>2026-03-28T14:38:06.192Z</time></trkpt><trkpt lat="44.3539542" lon="11.5117376"><ele>241.8</ele><time>2026-03-28T14:38:07.225Z</time></trkpt><trkpt lat="44.3540353" lon="11.5118024"><ele>242.0</ele><time>2026-03-28T14:38:08.206Z</time></trkpt><trkpt lat="44.3541399" lon="11.5118439"><ele>240.6</ele><time>2026-03-28T14:38:09.207Z</time></trkpt><trkpt lat="44.3542366" lon="11.5118464"><ele>239.2</ele><time>2026-03-28T14:38:10.207Z</time></trkpt><trkpt lat="44.3543378" lon="11.5118111"><ele>237.8</ele><time>2026-03-28T14:38:11.217Z</time></trkpt><trkpt lat="44.3544287" lon="11.5117643"><ele>236.4</ele><time>2026-03-28T14:38:12.189Z</time></trkpt><trkpt lat="44.3545083" lon="11.5117137"><ele>235.0</ele><time>2026-03-28T14:38:13.205Z</time></trkpt><trkpt lat="44.3545867" lon="11.5116886"><ele>235.0</ele><time>2026-03-28T14:38:14.203Z</time></trkpt><trkpt lat="44.3547005" lon="11.5117511"><ele>235.0</ele><time>2026-03-28T14:38:16.2Z</time></trkpt><trkpt lat="44.3547809" lon="11.5118538"><ele>235.0</ele><time>2026-03-28T14:38:18.201Z</time></trkpt><trkpt lat="44.3548791" lon="11.5118603"><ele>235.0</ele><time>2026-03-28T14:38:20.208Z</time></trkpt><trkpt lat="44.3548923" lon="11.5116959"><ele>235.0</ele><time>2026-03-28T14:38:22.213Z</time></trkpt><trkpt lat="44.354837" lon="11.5115856"><ele>233.2</ele><time>2026-03-28T14:38:23.204Z</time></trkpt><trkpt lat="44.3547719" lon="11.5114819"><ele>231.4</ele><time>2026-03-28T14:38:24.195Z</time></trkpt><trkpt lat="44.3547062" lon="11.5114161"><ele>229.60000000000002</ele><time>2026-03-28T14:38:26.211Z</time></trkpt><trkpt lat="44.3547779" lon="11.5113541"><ele>227.8</ele><time>2026-03-28T14:38:28.223Z</time></trkpt><trkpt lat="44.3548775" lon="11.5114266"><ele>226.0</ele><time>2026-03-28T14:38:30.2Z</time></trkpt><trkpt lat="44.3549326" lon="11.5115086"><ele>225.99999999999997</ele><time>2026-03-28T14:38:31.194Z</time></trkpt><trkpt lat="44.3549968" lon="11.511589"><ele>226.0</ele><time>2026-03-28T14:38:32.201Z</time></trkpt><trkpt lat="44.3550676" lon="11.5116502"><ele>226.0</ele><time>2026-03-28T14:38:33.208Z</time></trkpt><trkpt lat="44.3551474" lon="11.5116838"><ele>226.0</ele><time>2026-03-28T14:38:34.213Z</time></trkpt><trkpt lat="44.3552215" lon="11.5117205"><ele>225.99999999999997</ele><time>2026-03-28T14:38:35.196Z</time></trkpt><trkpt lat="44.3552732" lon="11.511777"><ele>226.0</ele><time>2026-03-28T14:38:36.2Z</time></trkpt><trkpt lat="44.3553321" lon="11.5118122"><ele>226.0</ele><time>2026-03-28T14:38:37.201Z</time></trkpt><trkpt lat="44.355371" lon="11.5119369"><ele>226.00000000000003</ele><time>2026-03-28T14:38:39.195Z</time></trkpt><trkpt lat="44.3553562" lon="11.5120464"><ele>226.00000000000003</ele><time>2026-03-28T14:38:40.208Z</time></trkpt><trkpt lat="44.3553375" lon="11.5121795"><ele>226.0</ele><time>2026-03-28T14:38:41.198Z</time></trkpt><trkpt lat="44.3553017" lon="11.5123142"><ele>226.0</ele><time>2026-03-28T14:38:42.205Z</time></trkpt><trkpt lat="44.3552607" lon="11.5124378"><ele>225.83333333333331</ele><time>2026-03-28T14:38:43.209Z</time></trkpt><trkpt lat="44.3552149" lon="11.5125428"><ele>225.66666666666666</ele><time>2026-03-28T14:38:44.223Z</time></trkpt><trkpt lat="44.3551593" lon="11.5126503"><ele>225.5</ele><time>2026-03-28T14:38:45.21Z</time></trkpt><trkpt lat="44.3551087" lon="11.5127545"><ele>225.33333333333331</ele><time>2026-03-28T14:38:46.207Z</time></trkpt><trkpt lat="44.3550688" lon="11.5128522"><ele>225.16666666666666</ele><time>2026-03-28T14:38:47.197Z</time></trkpt><trkpt lat="44.3550537" lon="11.5129519"><ele>225.0</ele><time>2026-03-28T14:38:48.203Z</time></trkpt><trkpt lat="44.3550808" lon="11.5131197"><ele>224.6</ele><time>2026-03-28T14:38:50.202Z</time></trkpt><trkpt lat="44.3551218" lon="11.5132296"><ele>224.2</ele><time>2026-03-28T14:38:51.201Z</time></trkpt><trkpt lat="44.3551798" lon="11.5133417"><ele>223.8</ele><time>2026-03-28T14:38:52.214Z</time></trkpt><trkpt lat="44.3552402" lon="11.5134631"><ele>223.4</ele><time>2026-03-28T14:38:53.218Z</time></trkpt><trkpt lat="44.3552984" lon="11.5135944"><ele>223.0</ele><time>2026-03-28T14:38:54.206Z</time></trkpt><trkpt lat="44.3553695" lon="11.513731"><ele>222.4</ele><time>2026-03-28T14:38:55.209Z</time></trkpt><trkpt lat="44.3554424" lon="11.5138718"><ele>221.8</ele><time>2026-03-28T14:38:56.203Z</time></trkpt><trkpt lat="44.3555124" lon="11.5140094"><ele>221.2</ele><time>2026-03-28T14:38:57.219Z</time></trkpt><trkpt lat="44.3555805" lon="11.5141253"><ele>220.6</ele><time>2026-03-28T14:38:58.195Z</time></trkpt><trkpt lat="44.3556259" lon="11.5142169"><ele>220.0</ele><time>2026-03-28T14:38:59.207Z</time></trkpt><trkpt lat="44.3556764" lon="11.5143291"><ele>217.8</ele><time>2026-03-28T14:39:01.195Z</time></trkpt><trkpt lat="44.3557106" lon="11.5144101"><ele>215.6</ele><time>2026-03-28T14:39:02.204Z</time></trkpt><trkpt lat="44.3557595" lon="11.514531"><ele>213.39999999999998</ele><time>2026-03-28T14:39:03.216Z</time></trkpt><trkpt lat="44.3558121" lon="11.5146976"><ele>211.2</ele><time>2026-03-28T14:39:04.216Z</time></trkpt><trkpt lat="44.3558347" lon="11.5148121"><ele>209.0</ele><time>2026-03-28T14:39:05.202Z</time></trkpt><trkpt lat="44.3558363" lon="11.5149713"><ele>209.0</ele><time>2026-03-28T14:39:06.205Z</time></trkpt><trkpt lat="44.3558027" lon="11.5151116"><ele>209.0</ele><time>2026-03-28T14:39:07.198Z</time></trkpt><trkpt lat="44.355742" lon="11.5152486"><ele>209.0</ele><time>2026-03-28T14:39:08.193Z</time></trkpt><trkpt lat="44.3556709" lon="11.5153746"><ele>209.0</ele><time>2026-03-28T14:39:09.211Z</time></trkpt><trkpt lat="44.3555892" lon="11.5155055"><ele>208.2</ele><time>2026-03-28T14:39:10.227Z</time></trkpt><trkpt lat="44.3555067" lon="11.5156283"><ele>207.39999999999998</ele><time>2026-03-28T14:39:11.223Z</time></trkpt><trkpt lat="44.3554286" lon="11.5157392"><ele>206.6</ele><time>2026-03-28T14:39:12.194Z</time></trkpt><trkpt lat="44.3553454" lon="11.5158401"><ele>205.8</ele><time>2026-03-28T14:39:13.189Z</time></trkpt><trkpt lat="44.3552665" lon="11.5159386"><ele>205.0</ele><time>2026-03-28T14:39:14.214Z</time></trkpt><trkpt lat="44.3551891" lon="11.5160387"><ele>205.0</ele><time>2026-03-28T14:39:15.212Z</time></trkpt><trkpt lat="44.3550899" lon="11.5161064"><ele>205.0</ele><time>2026-03-28T14:39:16.203Z</time></trkpt><trkpt lat="44.3549656" lon="11.5161419"><ele>205.0</ele><time>2026-03-28T14:39:17.203Z</time></trkpt><trkpt lat="44.3548113" lon="11.5161676"><ele>205.0</ele><time>2026-03-28T14:39:18.206Z</time></trkpt><trkpt lat="44.3546469" lon="11.5162169"><ele>203.66666666666666</ele><time>2026-03-28T14:39:19.198Z</time></trkpt><trkpt lat="44.3544491" lon="11.5162819"><ele>202.33333333333331</ele><time>2026-03-28T14:39:20.205Z</time></trkpt><trkpt lat="44.3543342" lon="11.5163031"><ele>201.0</ele><time>2026-03-28T14:39:21.211Z</time></trkpt><trkpt lat="44.3541456" lon="11.5163825"><ele>201.0</ele><time>2026-03-28T14:39:22.2Z</time></trkpt><trkpt lat="44.3539451" lon="11.5164746"><ele>201.0</ele><time>2026-03-28T14:39:23.213Z</time></trkpt><trkpt lat="44.3537769" lon="11.5165324"><ele>201.0</ele><time>2026-03-28T14:39:24.197Z</time></trkpt><trkpt lat="44.353563" lon="11.5165786"><ele>199.66666666666669</ele><time>2026-03-28T14:39:25.205Z</time></trkpt><trkpt lat="44.3533487" lon="11.5166167"><ele>198.33333333333334</ele><time>2026-03-28T14:39:26.193Z</time></trkpt><trkpt lat="44.3535669" lon="11.5166601"><ele>197.0</ele><time>2026-03-28T14:39:27.201Z</time></trkpt><trkpt lat="44.3535075" lon="11.516781"><ele>197.0</ele><time>2026-03-28T14:39:29.201Z</time></trkpt><trkpt lat="44.3534134" lon="11.5168552"><ele>197.0</ele><time>2026-03-28T14:39:30.206Z</time></trkpt><trkpt lat="44.3533501" lon="11.5169309"><ele>197.0</ele><time>2026-03-28T14:39:31.197Z</time></trkpt><trkpt lat="44.3533029" lon="11.5170164"><ele>197.0</ele><time>2026-03-28T14:39:32.212Z</time></trkpt><trkpt lat="44.3532329" lon="11.5171194"><ele>197.0</ele><time>2026-03-28T14:39:33.209Z</time></trkpt><trkpt lat="44.3531664" lon="11.5172361"><ele>196.75</ele><time>2026-03-28T14:39:34.198Z</time></trkpt><trkpt lat="44.3531014" lon="11.5173585"><ele>196.5</ele><time>2026-03-28T14:39:35.203Z</time></trkpt><trkpt lat="44.3530327" lon="11.5174835"><ele>196.25</ele><time>2026-03-28T14:39:36.203Z</time></trkpt><trkpt lat="44.3529639" lon="11.5176166"><ele>196.0</ele><time>2026-03-28T14:39:37.219Z</time></trkpt><trkpt lat="44.3528987" lon="11.5177598"><ele>195.5</ele><time>2026-03-28T14:39:38.205Z</time></trkpt><trkpt lat="44.3528265" lon="11.5178991"><ele>195.0</ele><time>2026-03-28T14:39:39.203Z</time></trkpt><trkpt lat="44.3527522" lon="11.5180346"><ele>194.5</ele><time>2026-03-28T14:39:40.213Z</time></trkpt><trkpt lat="44.3526846" lon="11.5181789"><ele>194.0</ele><time>2026-03-28T14:39:41.215Z</time></trkpt><trkpt lat="44.3526264" lon="11.5183226"><ele>193.0</ele><time>2026-03-28T14:39:42.207Z</time></trkpt><trkpt lat="44.3525799" lon="11.518477"><ele>192.0</ele><time>2026-03-28T14:39:43.203Z</time></trkpt><trkpt lat="44.3525445" lon="11.5186466"><ele>191.0</ele><time>2026-03-28T14:39:44.209Z</time></trkpt><trkpt lat="44.3525062" lon="11.518819"><ele>190.0</ele><time>2026-03-28T14:39:45.21Z</time></trkpt><trkpt lat="44.3524688" lon="11.5189941"><ele>190.0</ele><time>2026-03-28T14:39:46.204Z</time></trkpt><trkpt lat="44.3524279" lon="11.5191842"><ele>190.0</ele><time>2026-03-28T14:39:47.22Z</time></trkpt><trkpt lat="44.3523891" lon="11.5193735"><ele>190.0</ele><time>2026-03-28T14:39:48.207Z</time></trkpt><trkpt lat="44.3523616" lon="11.5195541"><ele>190.0</ele><time>2026-03-28T14:39:49.198Z</time></trkpt><trkpt lat="44.352336" lon="11.5197407"><ele>189.0</ele><time>2026-03-28T14:39:50.193Z</time></trkpt><trkpt lat="44.3523314" lon="11.5199305"><ele>188.0</ele><time>2026-03-28T14:39:51.198Z</time></trkpt><trkpt lat="44.3523407" lon="11.5200749"><ele>187.0</ele><time>2026-03-28T14:39:52.201Z</time></trkpt><trkpt lat="44.352381" lon="11.5202573"><ele>186.0</ele><time>2026-03-28T14:39:53.212Z</time></trkpt><trkpt lat="44.3524279" lon="11.5204352"><ele>185.66666666666666</ele><time>2026-03-28T14:39:54.199Z</time></trkpt><trkpt lat="44.352485" lon="11.5206613"><ele>185.33333333333331</ele><time>2026-03-28T14:39:55.511Z</time></trkpt><trkpt lat="44.3525818" lon="11.5209611"><ele>185.0</ele><time>2026-03-28T14:39:57.256Z</time></trkpt><trkpt lat="44.3526188" lon="11.5211137"><ele>185.25</ele><time>2026-03-28T14:39:58.248Z</time></trkpt><trkpt lat="44.3526457" lon="11.5212702"><ele>185.5</ele><time>2026-03-28T14:39:59.266Z</time></trkpt><trkpt lat="44.3526531" lon="11.5214217"><ele>185.75</ele><time>2026-03-28T14:40:00.253Z</time></trkpt><trkpt lat="44.3526326" lon="11.5215656"><ele>186.0</ele><time>2026-03-28T14:40:01.257Z</time></trkpt><trkpt lat="44.3525706" lon="11.521729"><ele>186.0</ele><time>2026-03-28T14:40:02.267Z</time></trkpt><trkpt lat="44.3524993" lon="11.5218714"><ele>186.0</ele><time>2026-03-28T14:40:03.264Z</time></trkpt><trkpt lat="44.3524193" lon="11.5220117"><ele>186.0</ele><time>2026-03-28T14:40:04.275Z</time></trkpt><trkpt lat="44.3523377" lon="11.5221525"><ele>186.0</ele><time>2026-03-28T14:40:05.26Z</time></trkpt><trkpt lat="44.3522548" lon="11.5222981"><ele>185.25</ele><time>2026-03-28T14:40:06.268Z</time></trkpt><trkpt lat="44.3521718" lon="11.5224485"><ele>184.5</ele><time>2026-03-28T14:40:07.275Z</time></trkpt><trkpt lat="44.3520948" lon="11.5226026"><ele>183.75</ele><time>2026-03-28T14:40:08.271Z</time></trkpt><trkpt lat="44.3520238" lon="11.5227677"><ele>183.0</ele><time>2026-03-28T14:40:09.28Z</time></trkpt><trkpt lat="44.3519634" lon="11.5229354"><ele>182.25</ele><time>2026-03-28T14:40:10.267Z</time></trkpt><trkpt lat="44.351918" lon="11.5231094"><ele>181.5</ele><time>2026-03-28T14:40:11.261Z</time></trkpt><trkpt lat="44.3518903" lon="11.5232903"><ele>180.75</ele><time>2026-03-28T14:40:12.244Z</time></trkpt><trkpt lat="44.351877" lon="11.5234786"><ele>180.0</ele><time>2026-03-28T14:40:13.271Z</time></trkpt><trkpt lat="44.3518682" lon="11.523654"><ele>180.25</ele><time>2026-03-28T14:40:14.269Z</time></trkpt><trkpt lat="44.3518539" lon="11.5238202"><ele>180.5</ele><time>2026-03-28T14:40:15.268Z</time></trkpt><trkpt lat="44.351825" lon="11.523978"><ele>180.75</ele><time>2026-03-28T14:40:16.279Z</time></trkpt><trkpt lat="44.3517891" lon="11.5241143"><ele>181.0</ele><time>2026-03-28T14:40:17.196Z</time></trkpt><trkpt lat="44.3517236" lon="11.5242418"><ele>181.0</ele><time>2026-03-28T14:40:18.206Z</time></trkpt><trkpt lat="44.3516301" lon="11.5243482"><ele>181.0</ele><time>2026-03-28T14:40:19.204Z</time></trkpt><trkpt lat="44.3515152" lon="11.5244182"><ele>181.0</ele><time>2026-03-28T14:40:20.205Z</time></trkpt><trkpt lat="44.3513923" lon="11.5244906"><ele>181.0</ele><time>2026-03-28T14:40:21.199Z</time></trkpt><trkpt lat="44.3512815" lon="11.5245833"><ele>179.75</ele><time>2026-03-28T14:40:22.214Z</time></trkpt><trkpt lat="44.3511873" lon="11.5247034"><ele>178.5</ele><time>2026-03-28T14:40:23.2Z</time></trkpt><trkpt lat="44.3511126" lon="11.5248849"><ele>177.25</ele><time>2026-03-28T14:40:24.22Z</time></trkpt><trkpt lat="44.351055" lon="11.5250619"><ele>176.0</ele><time>2026-03-28T14:40:25.195Z</time></trkpt><trkpt lat="44.3509864" lon="11.5252438"><ele>176.25</ele><time>2026-03-28T14:40:26.224Z</time></trkpt><trkpt lat="44.3509135" lon="11.5254163"><ele>176.5</ele><time>2026-03-28T14:40:27.208Z</time></trkpt><trkpt lat="44.3508377" lon="11.525586"><ele>176.75</ele><time>2026-03-28T14:40:28.202Z</time></trkpt><trkpt lat="44.3507558" lon="11.525748"><ele>177.0</ele><time>2026-03-28T14:40:29.194Z</time></trkpt><trkpt lat="44.3506544" lon="11.5259179"><ele>177.0</ele><time>2026-03-28T14:40:30.212Z</time></trkpt><trkpt lat="44.3505491" lon="11.5260816"><ele>177.0</ele><time>2026-03-28T14:40:31.211Z</time></trkpt><trkpt lat="44.3504384" lon="11.5262393"><ele>177.0</ele><time>2026-03-28T14:40:32.209Z</time></trkpt><trkpt lat="44.3503238" lon="11.5263862"><ele>174.33333333333334</ele><time>2026-03-28T14:40:33.209Z</time></trkpt><trkpt lat="44.3502089" lon="11.5265254"><ele>171.66666666666669</ele><time>2026-03-28T14:40:34.201Z</time></trkpt><trkpt lat="44.3500938" lon="11.5266591"><ele>169.0</ele><time>2026-03-28T14:40:35.202Z</time></trkpt><trkpt lat="44.3499733" lon="11.5267978"><ele>169.0</ele><time>2026-03-28T14:40:36.217Z</time></trkpt><trkpt lat="44.3498559" lon="11.5269315"><ele>169.0</ele><time>2026-03-28T14:40:37.2Z</time></trkpt><trkpt lat="44.3497328" lon="11.5270638"><ele>169.0</ele><time>2026-03-28T14:40:38.2Z</time></trkpt><trkpt lat="44.3496234" lon="11.5271851"><ele>169.0</ele><time>2026-03-28T14:40:39.199Z</time></trkpt><trkpt lat="44.3495157" lon="11.5273069"><ele>169.0</ele><time>2026-03-28T14:40:40.198Z</time></trkpt><trkpt lat="44.349417" lon="11.5274228"><ele>169.0</ele><time>2026-03-28T14:40:41.216Z</time></trkpt><trkpt lat="44.3493415" lon="11.5275445"><ele>169.0</ele><time>2026-03-28T14:40:42.216Z</time></trkpt><trkpt lat="44.3493024" lon="11.52768"><ele>169.0</ele><time>2026-03-28T14:40:43.2Z</time></trkpt><trkpt lat="44.3492958" lon="11.527835"><ele>169.0</ele><time>2026-03-28T14:40:44.209Z</time></trkpt><trkpt lat="44.349308" lon="11.5280146"><ele>169.0</ele><time>2026-03-28T14:40:45.21Z</time></trkpt><trkpt lat="44.3493287" lon="11.5282035"><ele>169.0</ele><time>2026-03-28T14:40:46.222Z</time></trkpt><trkpt lat="44.3493538" lon="11.5284009"><ele>169.0</ele><time>2026-03-28T14:40:47.207Z</time></trkpt><trkpt lat="44.3493677" lon="11.5285935"><ele>168.0</ele><time>2026-03-28T14:40:48.203Z</time></trkpt><trkpt lat="44.3493679" lon="11.5288045"><ele>167.0</ele><time>2026-03-28T14:40:49.216Z</time></trkpt><trkpt lat="44.3493494" lon="11.5290185"><ele>166.0</ele><time>2026-03-28T14:40:50.205Z</time></trkpt><trkpt lat="44.3493165" lon="11.5292229"><ele>166.0</ele><time>2026-03-28T14:40:51.212Z</time></trkpt><trkpt lat="44.3492636" lon="11.5295059"><ele>166.0</ele><time>2026-03-28T14:40:52.575Z</time></trkpt><trkpt lat="44.3492137" lon="11.529774"><ele>166.0</ele><time>2026-03-28T14:40:54.265Z</time></trkpt><trkpt lat="44.3491787" lon="11.5299535"><ele>165.66666666666669</ele><time>2026-03-28T14:40:55.258Z</time></trkpt><trkpt lat="44.3491142" lon="11.530152"><ele>165.33333333333334</ele><time>2026-03-28T14:40:56.264Z</time></trkpt><trkpt lat="44.3490014" lon="11.530357"><ele>165.0</ele><time>2026-03-28T14:40:57.254Z</time></trkpt><trkpt lat="44.3488644" lon="11.5305157"><ele>163.0</ele><time>2026-03-28T14:40:58.265Z</time></trkpt><trkpt lat="44.3487532" lon="11.5306772"><ele>161.0</ele><time>2026-03-28T14:40:59.275Z</time></trkpt><trkpt lat="44.3486422" lon="11.5308342"><ele>159.0</ele><time>2026-03-28T14:41:00.255Z</time></trkpt><trkpt lat="44.3485221" lon="11.5310092"><ele>159.0</ele><time>2026-03-28T14:41:02.271Z</time></trkpt><trkpt lat="44.3484728" lon="11.5311164"><ele>159.0</ele><time>2026-03-28T14:41:03.256Z</time></trkpt><trkpt lat="44.3484182" lon="11.5312148"><ele>159.0</ele><time>2026-03-28T14:41:04.256Z</time></trkpt><trkpt lat="44.3483585" lon="11.5314159"><ele>159.0</ele><time>2026-03-28T14:41:05.279Z</time></trkpt><trkpt lat="44.3482999" lon="11.5316098"><ele>159.0</ele><time>2026-03-28T14:41:06.255Z</time></trkpt><trkpt lat="44.3482442" lon="11.5318117"><ele>159.0</ele><time>2026-03-28T14:41:07.27Z</time></trkpt><trkpt lat="44.3481851" lon="11.5320044"><ele>159.0</ele><time>2026-03-28T14:41:08.256Z</time></trkpt><trkpt lat="44.3481263" lon="11.532198"><ele>159.0</ele><time>2026-03-28T14:41:09.26Z</time></trkpt><trkpt lat="44.3480654" lon="11.5323909"><ele>159.0</ele><time>2026-03-28T14:41:10.267Z</time></trkpt><trkpt lat="44.348002" lon="11.5325776"><ele>159.0</ele><time>2026-03-28T14:41:11.24Z</time></trkpt><trkpt lat="44.3479372" lon="11.5327644"><ele>159.0</ele><time>2026-03-28T14:41:12.2Z</time></trkpt><trkpt lat="44.3478684" lon="11.5329573"><ele>156.66666666666666</ele><time>2026-03-28T14:41:13.215Z</time></trkpt><trkpt lat="44.3477958" lon="11.5331444"><ele>154.33333333333331</ele><time>2026-03-28T14:41:14.218Z</time></trkpt><trkpt lat="44.3477213" lon="11.5333372"><ele>152.0</ele><time>2026-03-28T14:41:15.217Z</time></trkpt><trkpt lat="44.3476532" lon="11.5335241"><ele>152.66666666666666</ele><time>2026-03-28T14:41:16.212Z</time></trkpt><trkpt lat="44.3475736" lon="11.5337307"><ele>153.33333333333334</ele><time>2026-03-28T14:41:17.21Z</time></trkpt><trkpt lat="44.3474928" lon="11.5339305"><ele>154.0</ele><time>2026-03-28T14:41:18.202Z</time></trkpt><trkpt lat="44.3474073" lon="11.5341373"><ele>154.0</ele><time>2026-03-28T14:41:19.21Z</time></trkpt><trkpt lat="44.3473277" lon="11.5343435"><ele>154.0</ele><time>2026-03-28T14:41:20.197Z</time></trkpt><trkpt lat="44.3472416" lon="11.5345578"><ele>154.0</ele><time>2026-03-28T14:41:21.231Z</time></trkpt><trkpt lat="44.3471586" lon="11.5347688"><ele>152.0</ele><time>2026-03-28T14:41:22.202Z</time></trkpt><trkpt lat="44.3470749" lon="11.5350015"><ele>150.0</ele><time>2026-03-28T14:41:23.218Z</time></trkpt><trkpt lat="44.3469908" lon="11.5352082"><ele>148.0</ele><time>2026-03-28T14:41:24.211Z</time></trkpt><trkpt lat="44.3469142" lon="11.5354154"><ele>147.66666666666669</ele><time>2026-03-28T14:41:25.205Z</time></trkpt><trkpt lat="44.3468375" lon="11.5356133"><ele>147.33333333333334</ele><time>2026-03-28T14:41:26.212Z</time></trkpt><trkpt lat="44.3467675" lon="11.5358003"><ele>147.0</ele><time>2026-03-28T14:41:27.202Z</time></trkpt><trkpt lat="44.3467038" lon="11.5359867"><ele>147.0</ele><time>2026-03-28T14:41:28.213Z</time></trkpt><trkpt lat="44.3466426" lon="11.5361021"><ele>147.0</ele><time>2026-03-28T14:41:29.196Z</time></trkpt><trkpt lat="44.3465553" lon="11.5362569"><ele>147.0</ele><time>2026-03-28T14:41:30.215Z</time></trkpt><trkpt lat="44.3464539" lon="11.5364007"><ele>147.0</ele><time>2026-03-28T14:41:31.207Z</time></trkpt><trkpt lat="44.3463375" lon="11.5365392"><ele>147.33333333333334</ele><time>2026-03-28T14:41:32.201Z</time></trkpt><trkpt lat="44.3462176" lon="11.5366854"><ele>147.66666666666669</ele><time>2026-03-28T14:41:33.204Z</time></trkpt><trkpt lat="44.3460929" lon="11.5368259"><ele>148.0</ele><time>2026-03-28T14:41:34.199Z</time></trkpt><trkpt lat="44.3459629" lon="11.5369733"><ele>147.0</ele><time>2026-03-28T14:41:35.218Z</time></trkpt><trkpt lat="44.3458391" lon="11.5371232"><ele>146.0</ele><time>2026-03-28T14:41:36.234Z</time></trkpt><trkpt lat="44.3457266" lon="11.5372546"><ele>145.0</ele><time>2026-03-28T14:41:37.206Z</time></trkpt><trkpt lat="44.3456245" lon="11.5373677"><ele>144.0</ele><time>2026-03-28T14:41:38.211Z</time></trkpt><trkpt lat="44.3455107" lon="11.5374722"><ele>143.66666666666666</ele><time>2026-03-28T14:41:39.203Z</time></trkpt><trkpt lat="44.3453714" lon="11.5375732"><ele>143.33333333333331</ele><time>2026-03-28T14:41:40.227Z</time></trkpt><trkpt lat="44.3452364" lon="11.5376844"><ele>143.0</ele><time>2026-03-28T14:41:41.206Z</time></trkpt><trkpt lat="44.3450779" lon="11.5378165"><ele>142.0</ele><time>2026-03-28T14:41:42.21Z</time></trkpt><trkpt lat="44.344914" lon="11.5379264"><ele>141.0</ele><time>2026-03-28T14:41:43.21Z</time></trkpt><trkpt lat="44.3447717" lon="11.5380344"><ele>140.0</ele><time>2026-03-28T14:41:44.207Z</time></trkpt><trkpt lat="44.344629" lon="11.5381721"><ele>142.25</ele><time>2026-03-28T14:41:45.206Z</time></trkpt><trkpt lat="44.3446409" lon="11.5380299"><ele>144.5</ele><time>2026-03-28T14:41:46.23Z</time></trkpt><trkpt lat="44.344545" lon="11.5381387"><ele>146.75</ele><time>2026-03-28T14:41:47.208Z</time></trkpt><trkpt lat="44.344507" lon="11.5382995"><ele>149.0</ele><time>2026-03-28T14:41:48.211Z</time></trkpt><trkpt lat="44.3444403" lon="11.5384645"><ele>149.0</ele><time>2026-03-28T14:41:49.203Z</time></trkpt><trkpt lat="44.3443663" lon="11.5386287"><ele>149.0</ele><time>2026-03-28T14:41:50.206Z</time></trkpt><trkpt lat="44.3442773" lon="11.5387895"><ele>149.0</ele><time>2026-03-28T14:41:51.211Z</time></trkpt><trkpt lat="44.3441307" lon="11.5389672"><ele>151.33333333333331</ele><time>2026-03-28T14:41:52.21Z</time></trkpt><trkpt lat="44.3439765" lon="11.5391004"><ele>153.66666666666666</ele><time>2026-03-28T14:41:53.197Z</time></trkpt><trkpt lat="44.343801" lon="11.5392323"><ele>156.0</ele><time>2026-03-28T14:41:54.213Z</time></trkpt><trkpt lat="44.3436037" lon="11.5393691"><ele>156.0</ele><time>2026-03-28T14:41:55.21Z</time></trkpt><trkpt lat="44.3434375" lon="11.53951"><ele>156.0</ele><time>2026-03-28T14:41:56.214Z</time></trkpt><trkpt lat="44.3438278" lon="11.5396969"><ele>153.0</ele><time>2026-03-28T14:41:57.215Z</time></trkpt><trkpt lat="44.3437159" lon="11.5398501"><ele>150.0</ele><time>2026-03-28T14:41:58.198Z</time></trkpt><trkpt lat="44.3436033" lon="11.5400172"><ele>147.0</ele><time>2026-03-28T14:41:59.223Z</time></trkpt><trkpt lat="44.3434897" lon="11.5401809"><ele>147.0</ele><time>2026-03-28T14:42:00.205Z</time></trkpt><trkpt lat="44.3433758" lon="11.5403496"><ele>147.0</ele><time>2026-03-28T14:42:01.196Z</time></trkpt><trkpt lat="44.3432647" lon="11.5405176"><ele>147.0</ele><time>2026-03-28T14:42:02.205Z</time></trkpt><trkpt lat="44.3431571" lon="11.5406694"><ele>147.0</ele><time>2026-03-28T14:42:03.208Z</time></trkpt><trkpt lat="44.3430479" lon="11.540809"><ele>147.0</ele><time>2026-03-28T14:42:04.191Z</time></trkpt><trkpt lat="44.3429198" lon="11.5409235"><ele>147.0</ele><time>2026-03-28T14:42:05.209Z</time></trkpt><trkpt lat="44.342813" lon="11.5410744"><ele>145.25</ele><time>2026-03-28T14:42:06.204Z</time></trkpt><trkpt lat="44.3427029" lon="11.5412273"><ele>143.5</ele><time>2026-03-28T14:42:07.204Z</time></trkpt><trkpt lat="44.3425947" lon="11.5413779"><ele>141.75</ele><time>2026-03-28T14:42:08.206Z</time></trkpt><trkpt lat="44.3425039" lon="11.5413706"><ele>140.0</ele><time>2026-03-28T14:42:09.209Z</time></trkpt><trkpt lat="44.3423975" lon="11.541492"><ele>140.0</ele><time>2026-03-28T14:42:10.205Z</time></trkpt><trkpt lat="44.3423109" lon="11.5415891"><ele>140.0</ele><time>2026-03-28T14:42:11.218Z</time></trkpt><trkpt lat="44.3422428" lon="11.5417189"><ele>140.0</ele><time>2026-03-28T14:42:12.204Z</time></trkpt><trkpt lat="44.3421939" lon="11.5418547"><ele>140.0</ele><time>2026-03-28T14:42:13.217Z</time></trkpt><trkpt lat="44.342138" lon="11.5420007"><ele>140.6</ele><time>2026-03-28T14:42:14.207Z</time></trkpt><trkpt lat="44.3420685" lon="11.5421267"><ele>141.2</ele><time>2026-03-28T14:42:15.2Z</time></trkpt><trkpt lat="44.3419867" lon="11.5422374"><ele>141.8</ele><time>2026-03-28T14:42:16.216Z</time></trkpt><trkpt lat="44.3418963" lon="11.5423195"><ele>142.4</ele><time>2026-03-28T14:42:17.212Z</time></trkpt><trkpt lat="44.341805" lon="11.5423886"><ele>143.0</ele><time>2026-03-28T14:42:18.221Z</time></trkpt><trkpt lat="44.34172" lon="11.542442"><ele>143.0</ele><time>2026-03-28T14:42:19.199Z</time></trkpt><trkpt lat="44.3416449" lon="11.5424862"><ele>143.0</ele><time>2026-03-28T14:42:20.225Z</time></trkpt><trkpt lat="44.3415839" lon="11.5425202"><ele>143.0</ele><time>2026-03-28T14:42:21.214Z</time></trkpt><trkpt lat="44.3415106" lon="11.5425734"><ele>143.0</ele><time>2026-03-28T14:42:23.196Z</time></trkpt><trkpt lat="44.3414534" lon="11.5426115"><ele>143.0</ele><time>2026-03-28T14:42:30.226Z</time></trkpt><trkpt lat="44.3414763" lon="11.5427307"><ele>143.0</ele><time>2026-03-28T14:42:48.198Z</time></trkpt><trkpt lat="44.3415245" lon="11.5428"><ele>141.0</ele><time>2026-03-28T14:42:49.209Z</time></trkpt><trkpt lat="44.3415936" lon="11.5428853"><ele>139.0</ele><time>2026-03-28T14:42:50.204Z</time></trkpt><trkpt lat="44.3416837" lon="11.5429917"><ele>137.0</ele><time>2026-03-28T14:42:51.219Z</time></trkpt><trkpt lat="44.3417798" lon="11.5431128"><ele>135.0</ele><time>2026-03-28T14:42:52.198Z</time></trkpt><trkpt lat="44.3418797" lon="11.543239"><ele>135.0</ele><time>2026-03-28T14:42:53.2Z</time></trkpt><trkpt lat="44.3419935" lon="11.5433753"><ele>135.0</ele><time>2026-03-28T14:42:54.208Z</time></trkpt><trkpt lat="44.3421161" lon="11.5435242"><ele>135.0</ele><time>2026-03-28T14:42:55.214Z</time></trkpt><trkpt lat="44.3422463" lon="11.5436827"><ele>135.0</ele><time>2026-03-28T14:42:56.226Z</time></trkpt><trkpt lat="44.3423753" lon="11.5438366"><ele>135.0</ele><time>2026-03-28T14:42:57.197Z</time></trkpt><trkpt lat="44.3425083" lon="11.5439979"><ele>135.0</ele><time>2026-03-28T14:42:58.205Z</time></trkpt><trkpt lat="44.3426424" lon="11.544155"><ele>135.0</ele><time>2026-03-28T14:42:59.208Z</time></trkpt><trkpt lat="44.3427682" lon="11.5443131"><ele>135.0</ele><time>2026-03-28T14:43:00.205Z</time></trkpt><trkpt lat="44.3428912" lon="11.5444647"><ele>135.0</ele><time>2026-03-28T14:43:01.193Z</time></trkpt><trkpt lat="44.3430221" lon="11.5446162"><ele>132.5</ele><time>2026-03-28T14:43:02.2Z</time></trkpt><trkpt lat="44.3431405" lon="11.5447559"><ele>130.0</ele><time>2026-03-28T14:43:03.219Z</time></trkpt><trkpt lat="44.3432578" lon="11.5448765"><ele>127.5</ele><time>2026-03-28T14:43:04.223Z</time></trkpt><trkpt lat="44.3433719" lon="11.544974"><ele>125.0</ele><time>2026-03-28T14:43:05.205Z</time></trkpt><trkpt lat="44.3434933" lon="11.5450601"><ele>125.0</ele><time>2026-03-28T14:43:06.194Z</time></trkpt><trkpt lat="44.3436148" lon="11.5451324"><ele>125.0</ele><time>2026-03-28T14:43:07.225Z</time></trkpt><trkpt lat="44.343729" lon="11.5452018"><ele>125.0</ele><time>2026-03-28T14:43:08.215Z</time></trkpt><trkpt lat="44.34384" lon="11.5452689"><ele>125.0</ele><time>2026-03-28T14:43:09.208Z</time></trkpt><trkpt lat="44.3439447" lon="11.5453373"><ele>125.5</ele><time>2026-03-28T14:43:10.214Z</time></trkpt><trkpt lat="44.3440498" lon="11.5454214"><ele>126.0</ele><time>2026-03-28T14:43:11.218Z</time></trkpt><trkpt lat="44.3441405" lon="11.5455363"><ele>126.5</ele><time>2026-03-28T14:43:12.204Z</time></trkpt><trkpt lat="44.3442006" lon="11.5456937"><ele>127.0</ele><time>2026-03-28T14:43:13.212Z</time></trkpt><trkpt lat="44.3442345" lon="11.5458721"><ele>127.0</ele><time>2026-03-28T14:43:14.216Z</time></trkpt><trkpt lat="44.3442265" lon="11.5460604"><ele>127.0</ele><time>2026-03-28T14:43:15.215Z</time></trkpt><trkpt lat="44.34418" lon="11.5462264"><ele>127.0</ele><time>2026-03-28T14:43:16.223Z</time></trkpt><trkpt lat="44.3441168" lon="11.5463972"><ele>127.0</ele><time>2026-03-28T14:43:17.212Z</time></trkpt><trkpt lat="44.3440407" lon="11.5465378"><ele>127.0</ele><time>2026-03-28T14:43:18.204Z</time></trkpt><trkpt lat="44.3439897" lon="11.5466642"><ele>127.0</ele><time>2026-03-28T14:43:19.219Z</time></trkpt><trkpt lat="44.3439453" lon="11.5468177"><ele>127.0</ele><time>2026-03-28T14:43:20.208Z</time></trkpt><trkpt lat="44.3439211" lon="11.5469885"><ele>127.0</ele><time>2026-03-28T14:43:21.206Z</time></trkpt><trkpt lat="44.3439126" lon="11.5471782"><ele>125.0</ele><time>2026-03-28T14:43:22.202Z</time></trkpt><trkpt lat="44.3439152" lon="11.5473785"><ele>123.0</ele><time>2026-03-28T14:43:23.208Z</time></trkpt><trkpt lat="44.3439224" lon="11.5475861"><ele>121.0</ele><time>2026-03-28T14:43:24.198Z</time></trkpt><trkpt lat="44.3439274" lon="11.5477907"><ele>119.0</ele><time>2026-03-28T14:43:25.204Z</time></trkpt><trkpt lat="44.3439341" lon="11.5479911"><ele>119.0</ele><time>2026-03-28T14:43:26.204Z</time></trkpt><trkpt lat="44.3439428" lon="11.5481905"><ele>119.0</ele><time>2026-03-28T14:43:27.215Z</time></trkpt><trkpt lat="44.3439496" lon="11.5483859"><ele>119.0</ele><time>2026-03-28T14:43:28.194Z</time></trkpt><trkpt lat="44.3439441" lon="11.5485904"><ele>119.0</ele><time>2026-03-28T14:43:29.207Z</time></trkpt><trkpt lat="44.3439232" lon="11.5487992"><ele>120.0</ele><time>2026-03-28T14:43:30.213Z</time></trkpt><trkpt lat="44.3438864" lon="11.5490045"><ele>121.0</ele><time>2026-03-28T14:43:31.217Z</time></trkpt><trkpt lat="44.3438462" lon="11.5492038"><ele>122.0</ele><time>2026-03-28T14:43:32.206Z</time></trkpt><trkpt lat="44.343811" lon="11.5494022"><ele>123.0</ele><time>2026-03-28T14:43:33.217Z</time></trkpt><trkpt lat="44.3437809" lon="11.5495965"><ele>120.75</ele><time>2026-03-28T14:43:34.203Z</time></trkpt><trkpt lat="44.3437493" lon="11.5497996"><ele>118.5</ele><time>2026-03-28T14:43:35.216Z</time></trkpt><trkpt lat="44.3437262" lon="11.5499981"><ele>116.25</ele><time>2026-03-28T14:43:36.202Z</time></trkpt><trkpt lat="44.3437064" lon="11.5502027"><ele>114.0</ele><time>2026-03-28T14:43:37.196Z</time></trkpt><trkpt lat="44.3436916" lon="11.5504059"><ele>113.25</ele><time>2026-03-28T14:43:38.202Z</time></trkpt><trkpt lat="44.3436795" lon="11.5506134"><ele>112.5</ele><time>2026-03-28T14:43:39.238Z</time></trkpt><trkpt lat="44.3436716" lon="11.5508083"><ele>111.75</ele><time>2026-03-28T14:43:40.214Z</time></trkpt><trkpt lat="44.3436668" lon="11.5510032"><ele>111.0</ele><time>2026-03-28T14:43:41.204Z</time></trkpt><trkpt lat="44.3436631" lon="11.5511994"><ele>111.25</ele><time>2026-03-28T14:43:42.203Z</time></trkpt><trkpt lat="44.3436651" lon="11.5513988"><ele>111.5</ele><time>2026-03-28T14:43:43.227Z</time></trkpt><trkpt lat="44.3436694" lon="11.5515871"><ele>111.75</ele><time>2026-03-28T14:43:44.225Z</time></trkpt><trkpt lat="44.3436794" lon="11.5517714"><ele>112.0</ele><time>2026-03-28T14:43:45.203Z</time></trkpt><trkpt lat="44.3436965" lon="11.5519612"><ele>111.25</ele><time>2026-03-28T14:43:46.221Z</time></trkpt><trkpt lat="44.3437197" lon="11.5521448"><ele>110.5</ele><time>2026-03-28T14:43:47.204Z</time></trkpt><trkpt lat="44.343751" lon="11.5523269"><ele>109.75</ele><time>2026-03-28T14:43:48.208Z</time></trkpt><trkpt lat="44.3437971" lon="11.5525003"><ele>109.0</ele><time>2026-03-28T14:43:49.197Z</time></trkpt><trkpt lat="44.3438657" lon="11.5526746"><ele>109.0</ele><time>2026-03-28T14:43:50.21Z</time></trkpt><trkpt lat="44.3439506" lon="11.5528366"><ele>109.0</ele><time>2026-03-28T14:43:51.206Z</time></trkpt><trkpt lat="44.3440662" lon="11.5529938"><ele>109.0</ele><time>2026-03-28T14:43:52.228Z</time></trkpt><trkpt lat="44.3441909" lon="11.5531559"><ele>108.66666666666667</ele><time>2026-03-28T14:43:53.217Z</time></trkpt><trkpt lat="44.3443342" lon="11.553333"><ele>108.33333333333334</ele><time>2026-03-28T14:43:54.214Z</time></trkpt><trkpt lat="44.3444828" lon="11.5535302"><ele>108.0</ele><time>2026-03-28T14:43:55.207Z</time></trkpt><trkpt lat="44.3446302" lon="11.5537437"><ele>107.66666666666666</ele><time>2026-03-28T14:43:56.204Z</time></trkpt><trkpt lat="44.3447859" lon="11.5539654"><ele>107.33333333333333</ele><time>2026-03-28T14:43:57.214Z</time></trkpt><trkpt lat="44.3449468" lon="11.554189"><ele>107.0</ele><time>2026-03-28T14:43:58.212Z</time></trkpt><trkpt lat="44.3451089" lon="11.5544089"><ele>106.0</ele><time>2026-03-28T14:43:59.22Z</time></trkpt><trkpt lat="44.3452661" lon="11.5546207"><ele>105.0</ele><time>2026-03-28T14:44:00.2Z</time></trkpt><trkpt lat="44.3454328" lon="11.554844"><ele>104.0</ele><time>2026-03-28T14:44:01.219Z</time></trkpt><trkpt lat="44.3455915" lon="11.5550563"><ele>104.0</ele><time>2026-03-28T14:44:02.198Z</time></trkpt><trkpt lat="44.3457571" lon="11.555278"><ele>104.0</ele><time>2026-03-28T14:44:03.208Z</time></trkpt><trkpt lat="44.3459184" lon="11.5554943"><ele>104.0</ele><time>2026-03-28T14:44:04.202Z</time></trkpt><trkpt lat="44.3460784" lon="11.5557199"><ele>104.0</ele><time>2026-03-28T14:44:05.227Z</time></trkpt><trkpt lat="44.346225" lon="11.5559266"><ele>104.0</ele><time>2026-03-28T14:44:06.206Z</time></trkpt><trkpt lat="44.3463642" lon="11.5561316"><ele>104.0</ele><time>2026-03-28T14:44:07.208Z</time></trkpt><trkpt lat="44.3464957" lon="11.5563214"><ele>104.0</ele><time>2026-03-28T14:44:08.212Z</time></trkpt><trkpt lat="44.3466237" lon="11.5565026"><ele>104.0</ele><time>2026-03-28T14:44:09.204Z</time></trkpt><trkpt lat="44.346747" lon="11.5566717"><ele>104.0</ele><time>2026-03-28T14:44:10.199Z</time></trkpt><trkpt lat="44.346883" lon="11.5568178"><ele>104.0</ele><time>2026-03-28T14:44:11.206Z</time></trkpt><trkpt lat="44.3470297" lon="11.5569251"><ele>104.0</ele><time>2026-03-28T14:44:12.202Z</time></trkpt><trkpt lat="44.3471875" lon="11.5570022"><ele>103.66666666666666</ele><time>2026-03-28T14:44:13.212Z</time></trkpt><trkpt lat="44.3473526" lon="11.5570611"><ele>103.33333333333334</ele><time>2026-03-28T14:44:14.199Z</time></trkpt><trkpt lat="44.3475418" lon="11.5571134"><ele>103.0</ele><time>2026-03-28T14:44:15.232Z</time></trkpt><trkpt lat="44.3477299" lon="11.5571609"><ele>103.0</ele><time>2026-03-28T14:44:16.207Z</time></trkpt><trkpt lat="44.3479167" lon="11.5572242"><ele>103.0</ele><time>2026-03-28T14:44:17.21Z</time></trkpt><trkpt lat="44.3480911" lon="11.5573023"><ele>103.0</ele><time>2026-03-28T14:44:18.205Z</time></trkpt><trkpt lat="44.348277" lon="11.5574055"><ele>102.66666666666667</ele><time>2026-03-28T14:44:19.211Z</time></trkpt><trkpt lat="44.3484599" lon="11.5575286"><ele>102.33333333333334</ele><time>2026-03-28T14:44:20.213Z</time></trkpt><trkpt lat="44.348625" lon="11.5576587"><ele>102.0</ele><time>2026-03-28T14:44:21.22Z</time></trkpt><trkpt lat="44.348785" lon="11.5577828"><ele>101.66666666666666</ele><time>2026-03-28T14:44:22.197Z</time></trkpt><trkpt lat="44.3489441" lon="11.5579122"><ele>101.33333333333333</ele><time>2026-03-28T14:44:23.206Z</time></trkpt><trkpt lat="44.3491029" lon="11.5580404"><ele>101.0</ele><time>2026-03-28T14:44:24.208Z</time></trkpt><trkpt lat="44.3492621" lon="11.55817"><ele>101.0</ele><time>2026-03-28T14:44:25.231Z</time></trkpt><trkpt lat="44.3494121" lon="11.5582933"><ele>101.0</ele><time>2026-03-28T14:44:26.212Z</time></trkpt><trkpt lat="44.3495636" lon="11.558416"><ele>101.0</ele><time>2026-03-28T14:44:27.219Z</time></trkpt><trkpt lat="44.349708" lon="11.5585317"><ele>101.33333333333333</ele><time>2026-03-28T14:44:28.212Z</time></trkpt><trkpt lat="44.3498537" lon="11.5586476"><ele>101.66666666666666</ele><time>2026-03-28T14:44:29.235Z</time></trkpt><trkpt lat="44.349986" lon="11.5587536"><ele>102.0</ele><time>2026-03-28T14:44:30.195Z</time></trkpt><trkpt lat="44.3501175" lon="11.5588627"><ele>101.5</ele><time>2026-03-28T14:44:31.198Z</time></trkpt><trkpt lat="44.3502349" lon="11.5589633"><ele>101.0</ele><time>2026-03-28T14:44:32.206Z</time></trkpt><trkpt lat="44.3503462" lon="11.5590531"><ele>100.5</ele><time>2026-03-28T14:44:33.197Z</time></trkpt><trkpt lat="44.3504625" lon="11.55915"><ele>100.0</ele><time>2026-03-28T14:44:34.198Z</time></trkpt><trkpt lat="44.350584" lon="11.5592534"><ele>100.0</ele><time>2026-03-28T14:44:35.214Z</time></trkpt><trkpt lat="44.3507002" lon="11.5593545"><ele>100.0</ele><time>2026-03-28T14:44:36.207Z</time></trkpt><trkpt lat="44.3508264" lon="11.5594582"><ele>100.0</ele><time>2026-03-28T14:44:37.223Z</time></trkpt><trkpt lat="44.3509528" lon="11.559553"><ele>100.0</ele><time>2026-03-28T14:44:38.197Z</time></trkpt><trkpt lat="44.3510707" lon="11.5596398"><ele>100.0</ele><time>2026-03-28T14:44:39.223Z</time></trkpt><trkpt lat="44.3511721" lon="11.5597154"><ele>100.0</ele><time>2026-03-28T14:44:40.2Z</time></trkpt><trkpt lat="44.3512658" lon="11.5597914"><ele>100.0</ele><time>2026-03-28T14:44:41.203Z</time></trkpt><trkpt lat="44.3513577" lon="11.5598644"><ele>100.0</ele><time>2026-03-28T14:44:42.215Z</time></trkpt><trkpt lat="44.3514452" lon="11.559934"><ele>100.0</ele><time>2026-03-28T14:44:43.218Z</time></trkpt><trkpt lat="44.3515305" lon="11.5599984"><ele>100.4</ele><time>2026-03-28T14:44:44.208Z</time></trkpt><trkpt lat="44.3516186" lon="11.5600657"><ele>100.8</ele><time>2026-03-28T14:44:45.235Z</time></trkpt><trkpt lat="44.3517009" lon="11.5601301"><ele>101.19999999999999</ele><time>2026-03-28T14:44:46.198Z</time></trkpt><trkpt lat="44.3517907" lon="11.560201"><ele>101.6</ele><time>2026-03-28T14:44:47.235Z</time></trkpt><trkpt lat="44.3518714" lon="11.5602767"><ele>102.0</ele><time>2026-03-28T14:44:48.209Z</time></trkpt><trkpt lat="44.3519519" lon="11.5603663"><ele>101.8</ele><time>2026-03-28T14:44:49.215Z</time></trkpt><trkpt lat="44.3520241" lon="11.5604632"><ele>101.6</ele><time>2026-03-28T14:44:50.213Z</time></trkpt><trkpt lat="44.3520852" lon="11.5605713"><ele>101.39999999999999</ele><time>2026-03-28T14:44:51.205Z</time></trkpt><trkpt lat="44.3521455" lon="11.560682"><ele>101.19999999999999</ele><time>2026-03-28T14:44:52.204Z</time></trkpt><trkpt lat="44.3522042" lon="11.5607897"><ele>101.0</ele><time>2026-03-28T14:44:53.221Z</time></trkpt><trkpt lat="44.3522614" lon="11.5608949"><ele>101.6</ele><time>2026-03-28T14:44:54.225Z</time></trkpt><trkpt lat="44.352318" lon="11.5610016"><ele>102.19999999999999</ele><time>2026-03-28T14:44:55.235Z</time></trkpt><trkpt lat="44.3523761" lon="11.5611065"><ele>102.80000000000001</ele><time>2026-03-28T14:44:56.223Z</time></trkpt><trkpt lat="44.3524331" lon="11.561212"><ele>103.4</ele><time>2026-03-28T14:44:57.207Z</time></trkpt><trkpt lat="44.352494" lon="11.5613186"><ele>104.0</ele><time>2026-03-28T14:44:58.207Z</time></trkpt><trkpt lat="44.3525566" lon="11.5614322"><ele>104.0</ele><time>2026-03-28T14:44:59.208Z</time></trkpt><trkpt lat="44.3526202" lon="11.5615459"><ele>104.0</ele><time>2026-03-28T14:45:00.207Z</time></trkpt><trkpt lat="44.3526858" lon="11.5616671"><ele>104.0</ele><time>2026-03-28T14:45:01.229Z</time></trkpt><trkpt lat="44.3527475" lon="11.5617869"><ele>104.0</ele><time>2026-03-28T14:45:02.215Z</time></trkpt><trkpt lat="44.352811" lon="11.5619023"><ele>104.0</ele><time>2026-03-28T14:45:03.204Z</time></trkpt><trkpt lat="44.352876" lon="11.5620237"><ele>104.2</ele><time>2026-03-28T14:45:04.207Z</time></trkpt><trkpt lat="44.3529471" lon="11.5621415"><ele>104.4</ele><time>2026-03-28T14:45:05.228Z</time></trkpt><trkpt lat="44.3530143" lon="11.5622553"><ele>104.6</ele><time>2026-03-28T14:45:06.208Z</time></trkpt><trkpt lat="44.35308" lon="11.5623796"><ele>104.8</ele><time>2026-03-28T14:45:07.211Z</time></trkpt><trkpt lat="44.3531469" lon="11.5624958"><ele>105.0</ele><time>2026-03-28T14:45:08.199Z</time></trkpt><trkpt lat="44.353219" lon="11.5626125"><ele>105.0</ele><time>2026-03-28T14:45:09.223Z</time></trkpt><trkpt lat="44.3532858" lon="11.5627242"><ele>105.0</ele><time>2026-03-28T14:45:10.206Z</time></trkpt><trkpt lat="44.3533479" lon="11.5628381"><ele>105.0</ele><time>2026-03-28T14:45:11.208Z</time></trkpt><trkpt lat="44.3534134" lon="11.5629605"><ele>105.0</ele><time>2026-03-28T14:45:12.212Z</time></trkpt><trkpt lat="44.3534874" lon="11.5630901"><ele>105.0</ele><time>2026-03-28T14:45:13.216Z</time></trkpt><trkpt lat="44.3535661" lon="11.5632189"><ele>104.25</ele><time>2026-03-28T14:45:14.2Z</time></trkpt><trkpt lat="44.353659" lon="11.5633508"><ele>103.5</ele><time>2026-03-28T14:45:15.234Z</time></trkpt><trkpt lat="44.3537595" lon="11.5634669"><ele>102.75</ele><time>2026-03-28T14:45:16.226Z</time></trkpt><trkpt lat="44.3538767" lon="11.5635587"><ele>102.0</ele><time>2026-03-28T14:45:17.22Z</time></trkpt><trkpt lat="44.3539956" lon="11.5636158"><ele>101.0</ele><time>2026-03-28T14:45:18.208Z</time></trkpt><trkpt lat="44.3541251" lon="11.5636547"><ele>100.0</ele><time>2026-03-28T14:45:19.213Z</time></trkpt><trkpt lat="44.3542485" lon="11.5636788"><ele>99.0</ele><time>2026-03-28T14:45:20.206Z</time></trkpt><trkpt lat="44.3543872" lon="11.5637001"><ele>98.0</ele><time>2026-03-28T14:45:21.208Z</time></trkpt><trkpt lat="44.3545191" lon="11.5637311"><ele>97.75</ele><time>2026-03-28T14:45:22.209Z</time></trkpt><trkpt lat="44.354649" lon="11.5637647"><ele>97.5</ele><time>2026-03-28T14:45:23.234Z</time></trkpt><trkpt lat="44.3547671" lon="11.5637877"><ele>97.25</ele><time>2026-03-28T14:45:24.207Z</time></trkpt><trkpt lat="44.3548834" lon="11.5637975"><ele>97.0</ele><time>2026-03-28T14:45:25.226Z</time></trkpt><trkpt lat="44.3549935" lon="11.5637999"><ele>97.0</ele><time>2026-03-28T14:45:26.209Z</time></trkpt><trkpt lat="44.3551032" lon="11.5638109"><ele>97.0</ele><time>2026-03-28T14:45:27.213Z</time></trkpt><trkpt lat="44.3552246" lon="11.5638327"><ele>97.0</ele><time>2026-03-28T14:45:28.22Z</time></trkpt><trkpt lat="44.3553459" lon="11.5638805"><ele>97.0</ele><time>2026-03-28T14:45:29.218Z</time></trkpt><trkpt lat="44.3554643" lon="11.5639643"><ele>98.0</ele><time>2026-03-28T14:45:30.222Z</time></trkpt><trkpt lat="44.3555789" lon="11.5640823"><ele>99.0</ele><time>2026-03-28T14:45:31.217Z</time></trkpt><trkpt lat="44.3556893" lon="11.5642249"><ele>100.0</ele><time>2026-03-28T14:45:32.22Z</time></trkpt><trkpt lat="44.3557992" lon="11.5643891"><ele>98.66666666666667</ele><time>2026-03-28T14:45:33.218Z</time></trkpt><trkpt lat="44.3559017" lon="11.5645601"><ele>97.33333333333334</ele><time>2026-03-28T14:45:34.212Z</time></trkpt><trkpt lat="44.3560053" lon="11.5647365"><ele>96.0</ele><time>2026-03-28T14:45:35.205Z</time></trkpt><trkpt lat="44.3561149" lon="11.5649062"><ele>96.0</ele><time>2026-03-28T14:45:36.223Z</time></trkpt><trkpt lat="44.3562284" lon="11.5650631"><ele>96.0</ele><time>2026-03-28T14:45:37.214Z</time></trkpt><trkpt lat="44.3563459" lon="11.5652114"><ele>96.0</ele><time>2026-03-28T14:45:38.212Z</time></trkpt><trkpt lat="44.3564641" lon="11.5653578"><ele>95.66666666666667</ele><time>2026-03-28T14:45:39.213Z</time></trkpt><trkpt lat="44.3565901" lon="11.5655089"><ele>95.33333333333334</ele><time>2026-03-28T14:45:40.207Z</time></trkpt><trkpt lat="44.356722" lon="11.565661"><ele>95.0</ele><time>2026-03-28T14:45:41.214Z</time></trkpt><trkpt lat="44.3568656" lon="11.5658225"><ele>95.0</ele><time>2026-03-28T14:45:42.222Z</time></trkpt><trkpt lat="44.3570006" lon="11.5659719"><ele>95.0</ele><time>2026-03-28T14:45:43.218Z</time></trkpt><trkpt lat="44.3571244" lon="11.566109"><ele>95.0</ele><time>2026-03-28T14:45:44.215Z</time></trkpt><trkpt lat="44.357252" lon="11.566249"><ele>95.66666666666667</ele><time>2026-03-28T14:45:45.22Z</time></trkpt><trkpt lat="44.357375" lon="11.5663856"><ele>96.33333333333334</ele><time>2026-03-28T14:45:46.207Z</time></trkpt><trkpt lat="44.3574895" lon="11.5665272"><ele>97.0</ele><time>2026-03-28T14:45:47.222Z</time></trkpt><trkpt lat="44.3576108" lon="11.5666632"><ele>97.0</ele><time>2026-03-28T14:45:48.222Z</time></trkpt><trkpt lat="44.3577341" lon="11.566784"><ele>97.0</ele><time>2026-03-28T14:45:49.229Z</time></trkpt><trkpt lat="44.3578246" lon="11.5668434"><ele>97.0</ele><time>2026-03-28T14:45:50.215Z</time></trkpt><trkpt lat="44.3579299" lon="11.5668828"><ele>97.0</ele><time>2026-03-28T14:45:51.216Z</time></trkpt><trkpt lat="44.3580188" lon="11.5668945"><ele>97.0</ele><time>2026-03-28T14:45:52.209Z</time></trkpt><trkpt lat="44.358145" lon="11.5669067"><ele>96.66666666666667</ele><time>2026-03-28T14:45:53.228Z</time></trkpt><trkpt lat="44.3582744" lon="11.5669011"><ele>96.33333333333334</ele><time>2026-03-28T14:45:54.211Z</time></trkpt><trkpt lat="44.3584659" lon="11.5668998"><ele>96.0</ele><time>2026-03-28T14:45:55.218Z</time></trkpt><trkpt lat="44.3587396" lon="11.5668969"><ele>97.5</ele><time>2026-03-28T14:45:56.201Z</time></trkpt><trkpt lat="44.3590197" lon="11.5668986"><ele>99.0</ele><time>2026-03-28T14:45:57.205Z</time></trkpt><trkpt lat="44.3592298" lon="11.5669282"><ele>99.0</ele><time>2026-03-28T14:45:58.225Z</time></trkpt><trkpt lat="44.3594081" lon="11.5669772"><ele>99.0</ele><time>2026-03-28T14:45:59.208Z</time></trkpt><trkpt lat="44.3595857" lon="11.5670414"><ele>99.0</ele><time>2026-03-28T14:46:00.198Z</time></trkpt><trkpt lat="44.3597634" lon="11.5671025"><ele>98.33333333333334</ele><time>2026-03-28T14:46:01.21Z</time></trkpt><trkpt lat="44.3599321" lon="11.5671676"><ele>97.66666666666667</ele><time>2026-03-28T14:46:02.225Z</time></trkpt><trkpt lat="44.3600881" lon="11.5672214"><ele>97.0</ele><time>2026-03-28T14:46:03.201Z</time></trkpt><trkpt lat="44.3602339" lon="11.567286"><ele>97.0</ele><time>2026-03-28T14:46:04.221Z</time></trkpt><trkpt lat="44.3603744" lon="11.5673742"><ele>97.0</ele><time>2026-03-28T14:46:05.203Z</time></trkpt><trkpt lat="44.3605065" lon="11.567491"><ele>97.0</ele><time>2026-03-28T14:46:06.201Z</time></trkpt><trkpt lat="44.3606191" lon="11.5676265"><ele>98.33333333333334</ele><time>2026-03-28T14:46:07.203Z</time></trkpt><trkpt lat="44.3607322" lon="11.5677924"><ele>99.66666666666666</ele><time>2026-03-28T14:46:08.21Z</time></trkpt><trkpt lat="44.3608347" lon="11.5679574"><ele>101.0</ele><time>2026-03-28T14:46:09.208Z</time></trkpt><trkpt lat="44.3609359" lon="11.5681103"><ele>101.25</ele><time>2026-03-28T14:46:10.211Z</time></trkpt><trkpt lat="44.3610309" lon="11.5682621"><ele>101.5</ele><time>2026-03-28T14:46:11.206Z</time></trkpt><trkpt lat="44.3611259" lon="11.5684155"><ele>101.75</ele><time>2026-03-28T14:46:12.229Z</time></trkpt><trkpt lat="44.3612027" lon="11.5685615"><ele>102.0</ele><time>2026-03-28T14:46:13.218Z</time></trkpt><trkpt lat="44.3612757" lon="11.5687241"><ele>100.25</ele><time>2026-03-28T14:46:14.226Z</time></trkpt><trkpt lat="44.3613278" lon="11.5688937"><ele>98.5</ele><time>2026-03-28T14:46:15.213Z</time></trkpt><trkpt lat="44.3613814" lon="11.5690824"><ele>96.75</ele><time>2026-03-28T14:46:16.224Z</time></trkpt><trkpt lat="44.3614295" lon="11.5692698"><ele>95.0</ele><time>2026-03-28T14:46:17.212Z</time></trkpt><trkpt lat="44.3614786" lon="11.5694516"><ele>97.5</ele><time>2026-03-28T14:46:18.226Z</time></trkpt><trkpt lat="44.3615201" lon="11.569612"><ele>100.0</ele><time>2026-03-28T14:46:19.203Z</time></trkpt><trkpt lat="44.3615733" lon="11.5697582"><ele>102.5</ele><time>2026-03-28T14:46:20.199Z</time></trkpt><trkpt lat="44.361647" lon="11.5698822"><ele>105.0</ele><time>2026-03-28T14:46:21.205Z</time></trkpt><trkpt lat="44.3617466" lon="11.5699824"><ele>105.0</ele><time>2026-03-28T14:46:22.218Z</time></trkpt><trkpt lat="44.3618534" lon="11.5700632"><ele>105.0</ele><time>2026-03-28T14:46:23.217Z</time></trkpt><trkpt lat="44.3619817" lon="11.5701507"><ele>105.0</ele><time>2026-03-28T14:46:24.212Z</time></trkpt><trkpt lat="44.3621062" lon="11.5702495"><ele>105.0</ele><time>2026-03-28T14:46:25.247Z</time></trkpt><trkpt lat="44.3622252" lon="11.5703547"><ele>105.5</ele><time>2026-03-28T14:46:26.23Z</time></trkpt><trkpt lat="44.3623399" lon="11.5704802"><ele>106.0</ele><time>2026-03-28T14:46:27.216Z</time></trkpt><trkpt lat="44.3624531" lon="11.5706167"><ele>106.5</ele><time>2026-03-28T14:46:28.211Z</time></trkpt><trkpt lat="44.3625542" lon="11.5707706"><ele>107.0</ele><time>2026-03-28T14:46:29.215Z</time></trkpt><trkpt lat="44.3626296" lon="11.5709433"><ele>107.0</ele><time>2026-03-28T14:46:30.205Z</time></trkpt><trkpt lat="44.3627008" lon="11.5711398"><ele>107.0</ele><time>2026-03-28T14:46:31.204Z</time></trkpt><trkpt lat="44.3627688" lon="11.5713482"><ele>107.0</ele><time>2026-03-28T14:46:32.203Z</time></trkpt><trkpt lat="44.3628388" lon="11.571557"><ele>107.0</ele><time>2026-03-28T14:46:33.219Z</time></trkpt><trkpt lat="44.3629076" lon="11.5717678"><ele>107.0</ele><time>2026-03-28T14:46:34.208Z</time></trkpt><trkpt lat="44.362978" lon="11.5719814"><ele>107.0</ele><time>2026-03-28T14:46:35.214Z</time></trkpt><trkpt lat="44.3630361" lon="11.5721832"><ele>107.0</ele><time>2026-03-28T14:46:36.218Z</time></trkpt><trkpt lat="44.3630883" lon="11.5723709"><ele>107.0</ele><time>2026-03-28T14:46:37.212Z</time></trkpt><trkpt lat="44.3631451" lon="11.5725541"><ele>107.0</ele><time>2026-03-28T14:46:38.214Z</time></trkpt><trkpt lat="44.3631974" lon="11.5727333"><ele>107.0</ele><time>2026-03-28T14:46:39.209Z</time></trkpt><trkpt lat="44.3632557" lon="11.572901"><ele>105.75</ele><time>2026-03-28T14:46:40.214Z</time></trkpt><trkpt lat="44.3633308" lon="11.5730548"><ele>104.5</ele><time>2026-03-28T14:46:41.218Z</time></trkpt><trkpt lat="44.3634165" lon="11.5731689"><ele>103.25</ele><time>2026-03-28T14:46:42.21Z</time></trkpt><trkpt lat="44.3635247" lon="11.573246"><ele>102.0</ele><time>2026-03-28T14:46:43.212Z</time></trkpt><trkpt lat="44.3636805" lon="11.5733079"><ele>102.0</ele><time>2026-03-28T14:46:44.2Z</time></trkpt><trkpt lat="44.3638362" lon="11.5733175"><ele>102.0</ele><time>2026-03-28T14:46:45.213Z</time></trkpt><trkpt lat="44.3639994" lon="11.5733094"><ele>102.0</ele><time>2026-03-28T14:46:46.206Z</time></trkpt><trkpt lat="44.3641681" lon="11.5733234"><ele>104.0</ele><time>2026-03-28T14:46:47.232Z</time></trkpt><trkpt lat="44.364337" lon="11.5733445"><ele>106.0</ele><time>2026-03-28T14:46:48.203Z</time></trkpt><trkpt lat="44.3645113" lon="11.5733777"><ele>108.0</ele><time>2026-03-28T14:46:49.208Z</time></trkpt><trkpt lat="44.364688" lon="11.5734082"><ele>107.66666666666666</ele><time>2026-03-28T14:46:50.211Z</time></trkpt><trkpt lat="44.3648674" lon="11.5734373"><ele>107.33333333333333</ele><time>2026-03-28T14:46:51.22Z</time></trkpt><trkpt lat="44.3650444" lon="11.5734628"><ele>107.0</ele><time>2026-03-28T14:46:52.214Z</time></trkpt><trkpt lat="44.365224" lon="11.5734837"><ele>107.0</ele><time>2026-03-28T14:46:53.2Z</time></trkpt><trkpt lat="44.3654116" lon="11.5735039"><ele>107.0</ele><time>2026-03-28T14:46:54.218Z</time></trkpt><trkpt lat="44.3655932" lon="11.573521"><ele>107.0</ele><time>2026-03-28T14:46:55.212Z</time></trkpt><trkpt lat="44.3657827" lon="11.573543"><ele>106.33333333333333</ele><time>2026-03-28T14:46:56.233Z</time></trkpt><trkpt lat="44.3659659" lon="11.5735915"><ele>105.66666666666666</ele><time>2026-03-28T14:46:57.217Z</time></trkpt><trkpt lat="44.3661406" lon="11.5736875"><ele>105.0</ele><time>2026-03-28T14:46:58.226Z</time></trkpt><trkpt lat="44.3663074" lon="11.5738276"><ele>103.66666666666666</ele><time>2026-03-28T14:46:59.213Z</time></trkpt><trkpt lat="44.366467" lon="11.5739983"><ele>102.33333333333333</ele><time>2026-03-28T14:47:00.215Z</time></trkpt><trkpt lat="44.3666251" lon="11.5741708"><ele>101.0</ele><time>2026-03-28T14:47:01.213Z</time></trkpt><trkpt lat="44.3667812" lon="11.5743512"><ele>100.0</ele><time>2026-03-28T14:47:02.219Z</time></trkpt><trkpt lat="44.366931" lon="11.5745271"><ele>99.0</ele><time>2026-03-28T14:47:03.21Z</time></trkpt><trkpt lat="44.3670876" lon="11.5746991"><ele>98.0</ele><time>2026-03-28T14:47:04.211Z</time></trkpt><trkpt lat="44.3672417" lon="11.5748444"><ele>98.0</ele><time>2026-03-28T14:47:05.213Z</time></trkpt><trkpt lat="44.3674094" lon="11.5749499"><ele>98.0</ele><time>2026-03-28T14:47:06.225Z</time></trkpt><trkpt lat="44.3675525" lon="11.575001"><ele>98.0</ele><time>2026-03-28T14:47:07.214Z</time></trkpt><trkpt lat="44.3677074" lon="11.5750518"><ele>98.0</ele><time>2026-03-28T14:47:08.23Z</time></trkpt><trkpt lat="44.3678939" lon="11.5751111"><ele>98.0</ele><time>2026-03-28T14:47:09.216Z</time></trkpt><trkpt lat="44.3680431" lon="11.5752063"><ele>98.0</ele><time>2026-03-28T14:47:10.218Z</time></trkpt><trkpt lat="44.3682248" lon="11.5753274"><ele>97.66666666666666</ele><time>2026-03-28T14:47:11.219Z</time></trkpt><trkpt lat="44.3684172" lon="11.575465"><ele>97.33333333333334</ele><time>2026-03-28T14:47:12.215Z</time></trkpt><trkpt lat="44.3686023" lon="11.5756026"><ele>97.0</ele><time>2026-03-28T14:47:13.211Z</time></trkpt><trkpt lat="44.3687776" lon="11.5757363"><ele>95.33333333333334</ele><time>2026-03-28T14:47:14.219Z</time></trkpt><trkpt lat="44.3689388" lon="11.575859"><ele>93.66666666666667</ele><time>2026-03-28T14:47:15.219Z</time></trkpt><trkpt lat="44.3690843" lon="11.5759698"><ele>92.0</ele><time>2026-03-28T14:47:16.21Z</time></trkpt><trkpt lat="44.3692139" lon="11.5760723"><ele>92.0</ele><time>2026-03-28T14:47:17.206Z</time></trkpt><trkpt lat="44.3693366" lon="11.5761679"><ele>92.0</ele><time>2026-03-28T14:47:18.226Z</time></trkpt><trkpt lat="44.3694494" lon="11.5762505"><ele>92.0</ele><time>2026-03-28T14:47:19.213Z</time></trkpt><trkpt lat="44.3695572" lon="11.5763254"><ele>92.0</ele><time>2026-03-28T14:47:20.214Z</time></trkpt><trkpt lat="44.3696598" lon="11.5763838"><ele>93.0</ele><time>2026-03-28T14:47:21.219Z</time></trkpt><trkpt lat="44.3697675" lon="11.5764247"><ele>94.0</ele><time>2026-03-28T14:47:22.228Z</time></trkpt><trkpt lat="44.369879" lon="11.576444"><ele>95.0</ele><time>2026-03-28T14:47:23.214Z</time></trkpt><trkpt lat="44.3699967" lon="11.57645"><ele>96.0</ele><time>2026-03-28T14:47:24.211Z</time></trkpt><trkpt lat="44.3701242" lon="11.5764422"><ele>96.0</ele><time>2026-03-28T14:47:25.21Z</time></trkpt><trkpt lat="44.3702622" lon="11.5764274"><ele>96.0</ele><time>2026-03-28T14:47:26.221Z</time></trkpt><trkpt lat="44.3703957" lon="11.5764179"><ele>96.0</ele><time>2026-03-28T14:47:27.207Z</time></trkpt><trkpt lat="44.3705313" lon="11.5764216"><ele>96.0</ele><time>2026-03-28T14:47:28.216Z</time></trkpt><trkpt lat="44.3706686" lon="11.576438"><ele>96.5</ele><time>2026-03-28T14:47:29.213Z</time></trkpt><trkpt lat="44.3708117" lon="11.5764541"><ele>97.0</ele><time>2026-03-28T14:47:30.213Z</time></trkpt><trkpt lat="44.3709523" lon="11.5764651"><ele>97.5</ele><time>2026-03-28T14:47:31.206Z</time></trkpt><trkpt lat="44.3710944" lon="11.5764839"><ele>98.0</ele><time>2026-03-28T14:47:32.23Z</time></trkpt><trkpt lat="44.3712248" lon="11.5765035"><ele>97.75</ele><time>2026-03-28T14:47:33.199Z</time></trkpt><trkpt lat="44.3713612" lon="11.5765267"><ele>97.5</ele><time>2026-03-28T14:47:34.214Z</time></trkpt><trkpt lat="44.371498" lon="11.5765604"><ele>97.25</ele><time>2026-03-28T14:47:35.217Z</time></trkpt><trkpt lat="44.3716373" lon="11.576593"><ele>97.0</ele><time>2026-03-28T14:47:36.207Z</time></trkpt><trkpt lat="44.3717821" lon="11.5766239"><ele>97.0</ele><time>2026-03-28T14:47:37.219Z</time></trkpt><trkpt lat="44.3719246" lon="11.5766564"><ele>97.0</ele><time>2026-03-28T14:47:38.21Z</time></trkpt><trkpt lat="44.3720669" lon="11.5766862"><ele>97.0</ele><time>2026-03-28T14:47:39.217Z</time></trkpt><trkpt lat="44.3722083" lon="11.5767146"><ele>97.0</ele><time>2026-03-28T14:47:40.21Z</time></trkpt><trkpt lat="44.3723535" lon="11.5767396"><ele>97.0</ele><time>2026-03-28T14:47:41.244Z</time></trkpt><trkpt lat="44.3724898" lon="11.5767595"><ele>97.0</ele><time>2026-03-28T14:47:42.214Z</time></trkpt><trkpt lat="44.3726295" lon="11.5767773"><ele>97.0</ele><time>2026-03-28T14:47:43.224Z</time></trkpt><trkpt lat="44.3727704" lon="11.5768106"><ele>97.0</ele><time>2026-03-28T14:47:44.22Z</time></trkpt><trkpt lat="44.3729143" lon="11.5768599"><ele>97.33333333333334</ele><time>2026-03-28T14:47:45.201Z</time></trkpt><trkpt lat="44.3730633" lon="11.5769415"><ele>97.66666666666666</ele><time>2026-03-28T14:47:46.21Z</time></trkpt><trkpt lat="44.3732172" lon="11.5770417"><ele>98.0</ele><time>2026-03-28T14:47:47.234Z</time></trkpt><trkpt lat="44.3733765" lon="11.5771449"><ele>96.0</ele><time>2026-03-28T14:47:48.232Z</time></trkpt><trkpt lat="44.3735266" lon="11.5772394"><ele>94.0</ele><time>2026-03-28T14:47:49.205Z</time></trkpt><trkpt lat="44.37368" lon="11.5773312"><ele>92.0</ele><time>2026-03-28T14:47:50.214Z</time></trkpt><trkpt lat="44.3738324" lon="11.5774165"><ele>93.33333333333334</ele><time>2026-03-28T14:47:51.218Z</time></trkpt><trkpt lat="44.3739752" lon="11.5774934"><ele>94.66666666666667</ele><time>2026-03-28T14:47:52.22Z</time></trkpt><trkpt lat="44.3741356" lon="11.5775784"><ele>96.0</ele><time>2026-03-28T14:47:53.231Z</time></trkpt><trkpt lat="44.3743041" lon="11.5776705"><ele>96.0</ele><time>2026-03-28T14:47:54.24Z</time></trkpt><trkpt lat="44.3744659" lon="11.5777609"><ele>96.0</ele><time>2026-03-28T14:47:55.205Z</time></trkpt><trkpt lat="44.3746312" lon="11.5778558"><ele>96.0</ele><time>2026-03-28T14:47:56.228Z</time></trkpt><trkpt lat="44.3747914" lon="11.5779431"><ele>96.0</ele><time>2026-03-28T14:47:57.224Z</time></trkpt><trkpt lat="44.374944" lon="11.5780332"><ele>96.0</ele><time>2026-03-28T14:47:58.212Z</time></trkpt><trkpt lat="44.3750903" lon="11.5781223"><ele>96.0</ele><time>2026-03-28T14:47:59.213Z</time></trkpt><trkpt lat="44.3752276" lon="11.5782052"><ele>96.0</ele><time>2026-03-28T14:48:00.212Z</time></trkpt><trkpt lat="44.3753652" lon="11.5782855"><ele>96.0</ele><time>2026-03-28T14:48:01.229Z</time></trkpt><trkpt lat="44.3754973" lon="11.5783556"><ele>96.0</ele><time>2026-03-28T14:48:02.22Z</time></trkpt><trkpt lat="44.375637" lon="11.5784173"><ele>96.0</ele><time>2026-03-28T14:48:03.225Z</time></trkpt><trkpt lat="44.3757846" lon="11.5784736"><ele>95.66666666666667</ele><time>2026-03-28T14:48:04.216Z</time></trkpt><trkpt lat="44.3759376" lon="11.5785292"><ele>95.33333333333334</ele><time>2026-03-28T14:48:05.215Z</time></trkpt><trkpt lat="44.3760981" lon="11.5785815"><ele>95.0</ele><time>2026-03-28T14:48:06.21Z</time></trkpt><trkpt lat="44.3762602" lon="11.5786361"><ele>93.33333333333334</ele><time>2026-03-28T14:48:07.212Z</time></trkpt><trkpt lat="44.3764288" lon="11.5786921"><ele>91.66666666666667</ele><time>2026-03-28T14:48:08.228Z</time></trkpt><trkpt lat="44.3765957" lon="11.5787472"><ele>90.0</ele><time>2026-03-28T14:48:09.22Z</time></trkpt><trkpt lat="44.3767674" lon="11.578803"><ele>90.0</ele><time>2026-03-28T14:48:10.236Z</time></trkpt><trkpt lat="44.3769325" lon="11.5788576"><ele>90.0</ele><time>2026-03-28T14:48:11.232Z</time></trkpt><trkpt lat="44.3770906" lon="11.578908"><ele>90.0</ele><time>2026-03-28T14:48:12.206Z</time></trkpt><trkpt lat="44.3772546" lon="11.5789646"><ele>89.66666666666667</ele><time>2026-03-28T14:48:13.216Z</time></trkpt><trkpt lat="44.3774185" lon="11.5790191"><ele>89.33333333333334</ele><time>2026-03-28T14:48:14.215Z</time></trkpt><trkpt lat="44.3775832" lon="11.5790694"><ele>89.0</ele><time>2026-03-28T14:48:15.21Z</time></trkpt><trkpt lat="44.3777475" lon="11.5791251"><ele>89.0</ele><time>2026-03-28T14:48:16.209Z</time></trkpt><trkpt lat="44.3779118" lon="11.5791806"><ele>89.0</ele><time>2026-03-28T14:48:17.206Z</time></trkpt><trkpt lat="44.3780722" lon="11.5792337"><ele>89.0</ele><time>2026-03-28T14:48:18.213Z</time></trkpt><trkpt lat="44.378232" lon="11.5792855"><ele>89.0</ele><time>2026-03-28T14:48:19.224Z</time></trkpt><trkpt lat="44.3783859" lon="11.579336"><ele>89.0</ele><time>2026-03-28T14:48:20.219Z</time></trkpt><trkpt lat="44.3785372" lon="11.5793927"><ele>89.0</ele><time>2026-03-28T14:48:21.204Z</time></trkpt><trkpt lat="44.3787033" lon="11.5794557"><ele>88.66666666666667</ele><time>2026-03-28T14:48:22.234Z</time></trkpt><trkpt lat="44.37887" lon="11.5795215"><ele>88.33333333333333</ele><time>2026-03-28T14:48:23.223Z</time></trkpt><trkpt lat="44.3790399" lon="11.5795895"><ele>88.0</ele><time>2026-03-28T14:48:24.214Z</time></trkpt><trkpt lat="44.3792076" lon="11.5796544"><ele>88.0</ele><time>2026-03-28T14:48:25.199Z</time></trkpt><trkpt lat="44.3793851" lon="11.5797122"><ele>88.0</ele><time>2026-03-28T14:48:26.228Z</time></trkpt><trkpt lat="44.3795549" lon="11.5797631"><ele>88.0</ele><time>2026-03-28T14:48:27.211Z</time></trkpt><trkpt lat="44.379729" lon="11.5798116"><ele>87.66666666666666</ele><time>2026-03-28T14:48:28.21Z</time></trkpt><trkpt lat="44.3799047" lon="11.5798642"><ele>87.33333333333333</ele><time>2026-03-28T14:48:29.213Z</time></trkpt><trkpt lat="44.3800811" lon="11.5799171"><ele>87.0</ele><time>2026-03-28T14:48:30.229Z</time></trkpt><trkpt lat="44.3802457" lon="11.5799703"><ele>87.0</ele><time>2026-03-28T14:48:31.214Z</time></trkpt><trkpt lat="44.3804076" lon="11.5800239"><ele>87.0</ele><time>2026-03-28T14:48:32.212Z</time></trkpt><trkpt lat="44.3805721" lon="11.5800786"><ele>87.0</ele><time>2026-03-28T14:48:33.228Z</time></trkpt><trkpt lat="44.3807353" lon="11.5801314"><ele>87.0</ele><time>2026-03-28T14:48:34.229Z</time></trkpt><trkpt lat="44.3808972" lon="11.5801754"><ele>87.0</ele><time>2026-03-28T14:48:35.211Z</time></trkpt><trkpt lat="44.3810364" lon="11.5802202"><ele>87.0</ele><time>2026-03-28T14:48:36.231Z</time></trkpt><trkpt lat="44.3811378" lon="11.5802618"><ele>87.0</ele><time>2026-03-28T14:48:37.214Z</time></trkpt><trkpt lat="44.3812241" lon="11.5803266"><ele>86.5</ele><time>2026-03-28T14:48:38.224Z</time></trkpt><trkpt lat="44.38128" lon="11.5804253"><ele>86.0</ele><time>2026-03-28T14:48:39.218Z</time></trkpt><trkpt lat="44.3812983" lon="11.5805693"><ele>85.5</ele><time>2026-03-28T14:48:40.224Z</time></trkpt><trkpt lat="44.3812887" lon="11.5807487"><ele>85.0</ele><time>2026-03-28T14:48:41.224Z</time></trkpt><trkpt lat="44.3812542" lon="11.580936"><ele>85.0</ele><time>2026-03-28T14:48:42.207Z</time></trkpt><trkpt lat="44.3812088" lon="11.5811283"><ele>85.0</ele><time>2026-03-28T14:48:43.216Z</time></trkpt><trkpt lat="44.381162" lon="11.5813142"><ele>85.0</ele><time>2026-03-28T14:48:44.212Z</time></trkpt><trkpt lat="44.3811226" lon="11.5815158"><ele>85.0</ele><time>2026-03-28T14:48:45.23Z</time></trkpt><trkpt lat="44.381079" lon="11.5817186"><ele>84.66666666666666</ele><time>2026-03-28T14:48:46.223Z</time></trkpt><trkpt lat="44.3810348" lon="11.5819232"><ele>84.33333333333333</ele><time>2026-03-28T14:48:47.225Z</time></trkpt><trkpt lat="44.3809878" lon="11.5821322"><ele>84.0</ele><time>2026-03-28T14:48:48.201Z</time></trkpt><trkpt lat="44.3809388" lon="11.5823487"><ele>83.0</ele><time>2026-03-28T14:48:49.237Z</time></trkpt><trkpt lat="44.3808902" lon="11.5825432"><ele>82.0</ele><time>2026-03-28T14:48:50.203Z</time></trkpt><trkpt lat="44.3808491" lon="11.5827271"><ele>81.0</ele><time>2026-03-28T14:48:51.22Z</time></trkpt><trkpt lat="44.3808094" lon="11.5828929"><ele>80.0</ele><time>2026-03-28T14:48:52.198Z</time></trkpt><trkpt lat="44.3807669" lon="11.5830565"><ele>79.5</ele><time>2026-03-28T14:48:53.223Z</time></trkpt><trkpt lat="44.3807292" lon="11.5832068"><ele>79.0</ele><time>2026-03-28T14:48:54.207Z</time></trkpt><trkpt lat="44.3806972" lon="11.583362"><ele>78.5</ele><time>2026-03-28T14:48:55.215Z</time></trkpt><trkpt lat="44.380662" lon="11.5835295"><ele>78.0</ele><time>2026-03-28T14:48:56.211Z</time></trkpt><trkpt lat="44.3806263" lon="11.5837058"><ele>77.5</ele><time>2026-03-28T14:48:57.216Z</time></trkpt><trkpt lat="44.3805832" lon="11.5838973"><ele>77.0</ele><time>2026-03-28T14:48:58.213Z</time></trkpt><trkpt lat="44.3805373" lon="11.5840907"><ele>76.5</ele><time>2026-03-28T14:48:59.22Z</time></trkpt><trkpt lat="44.3804961" lon="11.5842842"><ele>76.0</ele><time>2026-03-28T14:49:00.211Z</time></trkpt><trkpt lat="44.3804586" lon="11.584479"><ele>76.25</ele><time>2026-03-28T14:49:01.236Z</time></trkpt><trkpt lat="44.3804275" lon="11.5846616"><ele>76.5</ele><time>2026-03-28T14:49:02.207Z</time></trkpt><trkpt lat="44.3803893" lon="11.5848437"><ele>76.75</ele><time>2026-03-28T14:49:03.225Z</time></trkpt><trkpt lat="44.3803483" lon="11.5850188"><ele>77.0</ele><time>2026-03-28T14:49:04.215Z</time></trkpt><trkpt lat="44.3803063" lon="11.5851934"><ele>76.6</ele><time>2026-03-28T14:49:05.219Z</time></trkpt><trkpt lat="44.3802773" lon="11.5853518"><ele>76.2</ele><time>2026-03-28T14:49:06.216Z</time></trkpt><trkpt lat="44.3802475" lon="11.5855058"><ele>75.8</ele><time>2026-03-28T14:49:07.224Z</time></trkpt><trkpt lat="44.3802156" lon="11.5856482"><ele>75.4</ele><time>2026-03-28T14:49:08.204Z</time></trkpt><trkpt lat="44.3801818" lon="11.585791"><ele>75.0</ele><time>2026-03-28T14:49:09.211Z</time></trkpt><trkpt lat="44.3801481" lon="11.5859429"><ele>75.0</ele><time>2026-03-28T14:49:10.218Z</time></trkpt><trkpt lat="44.3801188" lon="11.5861013"><ele>75.0</ele><time>2026-03-28T14:49:11.212Z</time></trkpt><trkpt lat="44.3800982" lon="11.5862837"><ele>75.0</ele><time>2026-03-28T14:49:12.218Z</time></trkpt><trkpt lat="44.3800947" lon="11.5864539"><ele>75.0</ele><time>2026-03-28T14:49:13.215Z</time></trkpt><trkpt lat="44.3801127" lon="11.586624"><ele>75.25</ele><time>2026-03-28T14:49:14.214Z</time></trkpt><trkpt lat="44.3801482" lon="11.5867826"><ele>75.5</ele><time>2026-03-28T14:49:15.211Z</time></trkpt><trkpt lat="44.3802172" lon="11.5869396"><ele>75.75</ele><time>2026-03-28T14:49:16.212Z</time></trkpt><trkpt lat="44.3803069" lon="11.5870799"><ele>76.0</ele><time>2026-03-28T14:49:17.225Z</time></trkpt><trkpt lat="44.3804115" lon="11.5871979"><ele>75.5</ele><time>2026-03-28T14:49:18.212Z</time></trkpt><trkpt lat="44.3805233" lon="11.5873108"><ele>75.0</ele><time>2026-03-28T14:49:19.21Z</time></trkpt><trkpt lat="44.3806391" lon="11.5874245"><ele>74.5</ele><time>2026-03-28T14:49:20.213Z</time></trkpt><trkpt lat="44.3807562" lon="11.5875311"><ele>74.0</ele><time>2026-03-28T14:49:21.243Z</time></trkpt><trkpt lat="44.3808575" lon="11.5876285"><ele>74.0</ele><time>2026-03-28T14:49:22.208Z</time></trkpt><trkpt lat="44.3809674" lon="11.5877338"><ele>74.0</ele><time>2026-03-28T14:49:23.218Z</time></trkpt><trkpt lat="44.3810668" lon="11.5878384"><ele>74.0</ele><time>2026-03-28T14:49:24.211Z</time></trkpt><trkpt lat="44.3811758" lon="11.5879396"><ele>74.0</ele><time>2026-03-28T14:49:25.222Z</time></trkpt><trkpt lat="44.3812912" lon="11.588027"><ele>73.5</ele><time>2026-03-28T14:49:26.217Z</time></trkpt><trkpt lat="44.3814096" lon="11.5880945"><ele>73.0</ele><time>2026-03-28T14:49:27.215Z</time></trkpt><trkpt lat="44.3815341" lon="11.5881498"><ele>72.5</ele><time>2026-03-28T14:49:28.213Z</time></trkpt><trkpt lat="44.3816656" lon="11.58819"><ele>72.0</ele><time>2026-03-28T14:49:29.224Z</time></trkpt><trkpt lat="44.3817992" lon="11.5882201"><ele>72.0</ele><time>2026-03-28T14:49:30.22Z</time></trkpt><trkpt lat="44.3819255" lon="11.5882462"><ele>72.0</ele><time>2026-03-28T14:49:31.236Z</time></trkpt><trkpt lat="44.3820505" lon="11.5882716"><ele>72.0</ele><time>2026-03-28T14:49:32.215Z</time></trkpt><trkpt lat="44.3821859" lon="11.5882878"><ele>72.0</ele><time>2026-03-28T14:49:33.226Z</time></trkpt><trkpt lat="44.3823186" lon="11.5882954"><ele>71.5</ele><time>2026-03-28T14:49:34.219Z</time></trkpt><trkpt lat="44.3824495" lon="11.5883009"><ele>71.0</ele><time>2026-03-28T14:49:35.215Z</time></trkpt><trkpt lat="44.3825824" lon="11.5883094"><ele>70.5</ele><time>2026-03-28T14:49:36.209Z</time></trkpt><trkpt lat="44.3827195" lon="11.5883175"><ele>70.0</ele><time>2026-03-28T14:49:37.22Z</time></trkpt><trkpt lat="44.3828394" lon="11.5883188"><ele>70.0</ele><time>2026-03-28T14:49:38.218Z</time></trkpt><trkpt lat="44.3829673" lon="11.5883242"><ele>70.0</ele><time>2026-03-28T14:49:39.236Z</time></trkpt><trkpt lat="44.3830926" lon="11.5883301"><ele>70.0</ele><time>2026-03-28T14:49:40.212Z</time></trkpt><trkpt lat="44.3832184" lon="11.5883348"><ele>70.0</ele><time>2026-03-28T14:49:41.214Z</time></trkpt><trkpt lat="44.3833436" lon="11.5883396"><ele>70.25</ele><time>2026-03-28T14:49:42.221Z</time></trkpt><trkpt lat="44.3834655" lon="11.5883456"><ele>70.5</ele><time>2026-03-28T14:49:43.202Z</time></trkpt><trkpt lat="44.3835935" lon="11.5883539"><ele>70.75</ele><time>2026-03-28T14:49:44.214Z</time></trkpt><trkpt lat="44.3837173" lon="11.588362"><ele>71.0</ele><time>2026-03-28T14:49:45.209Z</time></trkpt><trkpt lat="44.3838383" lon="11.5883713"><ele>71.75</ele><time>2026-03-28T14:49:46.217Z</time></trkpt><trkpt lat="44.3839549" lon="11.5883775"><ele>72.5</ele><time>2026-03-28T14:49:47.216Z</time></trkpt><trkpt lat="44.3840727" lon="11.5883795"><ele>73.25</ele><time>2026-03-28T14:49:48.219Z</time></trkpt><trkpt lat="44.3841924" lon="11.5883864"><ele>74.0</ele><time>2026-03-28T14:49:49.214Z</time></trkpt><trkpt lat="44.3843037" lon="11.5883952"><ele>74.0</ele><time>2026-03-28T14:49:50.224Z</time></trkpt><trkpt lat="44.3844141" lon="11.5884031"><ele>74.0</ele><time>2026-03-28T14:49:51.218Z</time></trkpt><trkpt lat="44.3845293" lon="11.5884076"><ele>74.0</ele><time>2026-03-28T14:49:52.22Z</time></trkpt><trkpt lat="44.3846542" lon="11.5884177"><ele>74.0</ele><time>2026-03-28T14:49:53.208Z</time></trkpt><trkpt lat="44.3847789" lon="11.5884322"><ele>73.75</ele><time>2026-03-28T14:49:54.231Z</time></trkpt><trkpt lat="44.3849151" lon="11.5884437"><ele>73.5</ele><time>2026-03-28T14:49:55.214Z</time></trkpt><trkpt lat="44.3850551" lon="11.5884577"><ele>73.25</ele><time>2026-03-28T14:49:56.216Z</time></trkpt><trkpt lat="44.3851879" lon="11.5884652"><ele>73.0</ele><time>2026-03-28T14:49:57.22Z</time></trkpt><trkpt lat="44.3853236" lon="11.5884775"><ele>73.0</ele><time>2026-03-28T14:49:58.23Z</time></trkpt><trkpt lat="44.3854541" lon="11.5884876"><ele>73.0</ele><time>2026-03-28T14:49:59.231Z</time></trkpt><trkpt lat="44.385589" lon="11.5884926"><ele>73.0</ele><time>2026-03-28T14:50:00.239Z</time></trkpt><trkpt lat="44.3857203" lon="11.5885004"><ele>73.0</ele><time>2026-03-28T14:50:01.208Z</time></trkpt><trkpt lat="44.3858626" lon="11.5885091"><ele>73.0</ele><time>2026-03-28T14:50:02.221Z</time></trkpt><trkpt lat="44.3859927" lon="11.5885172"><ele>73.0</ele><time>2026-03-28T14:50:03.21Z</time></trkpt><trkpt lat="44.3861319" lon="11.5885249"><ele>73.0</ele><time>2026-03-28T14:50:04.219Z</time></trkpt><trkpt lat="44.3862614" lon="11.5885319"><ele>73.0</ele><time>2026-03-28T14:50:05.22Z</time></trkpt><trkpt lat="44.3863894" lon="11.5885388"><ele>72.5</ele><time>2026-03-28T14:50:06.211Z</time></trkpt><trkpt lat="44.3865165" lon="11.5885454"><ele>72.0</ele><time>2026-03-28T14:50:07.215Z</time></trkpt><trkpt lat="44.3866485" lon="11.5885513"><ele>71.5</ele><time>2026-03-28T14:50:08.219Z</time></trkpt><trkpt lat="44.3867814" lon="11.5885533"><ele>71.0</ele><time>2026-03-28T14:50:09.23Z</time></trkpt><trkpt lat="44.3869103" lon="11.5885552"><ele>71.0</ele><time>2026-03-28T14:50:10.217Z</time></trkpt><trkpt lat="44.387039" lon="11.5885574"><ele>71.0</ele><time>2026-03-28T14:50:11.219Z</time></trkpt><trkpt lat="44.3871712" lon="11.5885547"><ele>71.0</ele><time>2026-03-28T14:50:12.232Z</time></trkpt><trkpt lat="44.3873032" lon="11.5885456"><ele>71.0</ele><time>2026-03-28T14:50:13.221Z</time></trkpt><trkpt lat="44.3874361" lon="11.5885321"><ele>70.75</ele><time>2026-03-28T14:50:14.239Z</time></trkpt><trkpt lat="44.3875705" lon="11.5885173"><ele>70.5</ele><time>2026-03-28T14:50:15.236Z</time></trkpt><trkpt lat="44.3877129" lon="11.5884988"><ele>70.25</ele><time>2026-03-28T14:50:16.247Z</time></trkpt><trkpt lat="44.3878504" lon="11.5884845"><ele>70.0</ele><time>2026-03-28T14:50:17.215Z</time></trkpt><trkpt lat="44.3879834" lon="11.5884698"><ele>69.75</ele><time>2026-03-28T14:50:18.208Z</time></trkpt><trkpt lat="44.3881298" lon="11.5884554"><ele>69.5</ele><time>2026-03-28T14:50:19.233Z</time></trkpt><trkpt lat="44.3882725" lon="11.5884419"><ele>69.25</ele><time>2026-03-28T14:50:20.211Z</time></trkpt><trkpt lat="44.3884085" lon="11.5884302"><ele>69.0</ele><time>2026-03-28T14:50:21.207Z</time></trkpt><trkpt lat="44.3885553" lon="11.5884169"><ele>69.0</ele><time>2026-03-28T14:50:22.205Z</time></trkpt><trkpt lat="44.3887095" lon="11.5884144"><ele>69.0</ele><time>2026-03-28T14:50:23.205Z</time></trkpt><trkpt lat="44.3888626" lon="11.5884036"><ele>69.0</ele><time>2026-03-28T14:50:24.229Z</time></trkpt><trkpt lat="44.3890048" lon="11.5883906"><ele>69.25</ele><time>2026-03-28T14:50:25.218Z</time></trkpt><trkpt lat="44.3891399" lon="11.5883759"><ele>69.5</ele><time>2026-03-28T14:50:26.231Z</time></trkpt><trkpt lat="44.3892622" lon="11.5883629"><ele>69.75</ele><time>2026-03-28T14:50:27.217Z</time></trkpt><trkpt lat="44.389385" lon="11.5883558"><ele>70.0</ele><time>2026-03-28T14:50:28.202Z</time></trkpt><trkpt lat="44.3895096" lon="11.5883737"><ele>70.0</ele><time>2026-03-28T14:50:29.219Z</time></trkpt><trkpt lat="44.3896344" lon="11.5884186"><ele>70.0</ele><time>2026-03-28T14:50:30.236Z</time></trkpt><trkpt lat="44.3897537" lon="11.5884746"><ele>70.0</ele><time>2026-03-28T14:50:31.207Z</time></trkpt><trkpt lat="44.3898663" lon="11.5885198"><ele>70.0</ele><time>2026-03-28T14:50:32.203Z</time></trkpt><trkpt lat="44.389986" lon="11.5885662"><ele>70.75</ele><time>2026-03-28T14:50:33.217Z</time></trkpt><trkpt lat="44.3901091" lon="11.5886095"><ele>71.5</ele><time>2026-03-28T14:50:34.221Z</time></trkpt><trkpt lat="44.3902323" lon="11.588633"><ele>72.25</ele><time>2026-03-28T14:50:35.235Z</time></trkpt><trkpt lat="44.3903555" lon="11.5886412"><ele>73.0</ele><time>2026-03-28T14:50:36.221Z</time></trkpt><trkpt lat="44.3904801" lon="11.588637"><ele>72.25</ele><time>2026-03-28T14:50:37.212Z</time></trkpt><trkpt lat="44.39061" lon="11.5886277"><ele>71.5</ele><time>2026-03-28T14:50:38.211Z</time></trkpt><trkpt lat="44.3907434" lon="11.5886191"><ele>70.75</ele><time>2026-03-28T14:50:39.214Z</time></trkpt><trkpt lat="44.3908752" lon="11.5886121"><ele>70.0</ele><time>2026-03-28T14:50:40.215Z</time></trkpt><trkpt lat="44.3910144" lon="11.5886036"><ele>70.0</ele><time>2026-03-28T14:50:41.227Z</time></trkpt><trkpt lat="44.3911532" lon="11.5885963"><ele>70.0</ele><time>2026-03-28T14:50:42.218Z</time></trkpt><trkpt lat="44.391291" lon="11.5885827"><ele>70.0</ele><time>2026-03-28T14:50:43.222Z</time></trkpt><trkpt lat="44.3914285" lon="11.5885697"><ele>70.0</ele><time>2026-03-28T14:50:44.226Z</time></trkpt><trkpt lat="44.3915658" lon="11.5885637"><ele>70.75</ele><time>2026-03-28T14:50:45.211Z</time></trkpt><trkpt lat="44.3917106" lon="11.5885616"><ele>71.5</ele><time>2026-03-28T14:50:46.228Z</time></trkpt><trkpt lat="44.3918575" lon="11.588566"><ele>72.25</ele><time>2026-03-28T14:50:47.228Z</time></trkpt><trkpt lat="44.3920077" lon="11.588594"><ele>73.0</ele><time>2026-03-28T14:50:48.216Z</time></trkpt><trkpt lat="44.3921685" lon="11.5886488"><ele>71.66666666666666</ele><time>2026-03-28T14:50:49.213Z</time></trkpt><trkpt lat="44.3923348" lon="11.5887007"><ele>70.33333333333333</ele><time>2026-03-28T14:50:50.227Z</time></trkpt><trkpt lat="44.3924817" lon="11.5887484"><ele>69.0</ele><time>2026-03-28T14:50:51.246Z</time></trkpt><trkpt lat="44.392657" lon="11.5887745"><ele>69.0</ele><time>2026-03-28T14:50:52.225Z</time></trkpt><trkpt lat="44.3928048" lon="11.5887773"><ele>69.0</ele><time>2026-03-28T14:50:53.214Z</time></trkpt><trkpt lat="44.3929619" lon="11.5887728"><ele>69.0</ele><time>2026-03-28T14:50:54.223Z</time></trkpt><trkpt lat="44.393073" lon="11.588793"><ele>69.0</ele><time>2026-03-28T14:50:55.244Z</time></trkpt><trkpt lat="44.3931943" lon="11.5888198"><ele>69.60000000000001</ele><time>2026-03-28T14:50:56.22Z</time></trkpt><trkpt lat="44.3933367" lon="11.5888072"><ele>70.2</ele><time>2026-03-28T14:50:57.238Z</time></trkpt><trkpt lat="44.3934158" lon="11.5887927"><ele>70.80000000000001</ele><time>2026-03-28T14:50:58.217Z</time></trkpt><trkpt lat="44.3935444" lon="11.5887369"><ele>71.4</ele><time>2026-03-28T14:50:59.225Z</time></trkpt><trkpt lat="44.3936309" lon="11.5886966"><ele>72.0</ele><time>2026-03-28T14:51:00.215Z</time></trkpt><trkpt lat="44.3937689" lon="11.5886869"><ele>73.5</ele><time>2026-03-28T14:51:01.232Z</time></trkpt><trkpt lat="44.3939194" lon="11.588706"><ele>75.0</ele><time>2026-03-28T14:51:02.221Z</time></trkpt><trkpt lat="44.3940525" lon="11.5887743"><ele>76.5</ele><time>2026-03-28T14:51:03.214Z</time></trkpt><trkpt lat="44.3941997" lon="11.5888388"><ele>78.0</ele><time>2026-03-28T14:51:04.227Z</time></trkpt><trkpt lat="44.3943354" lon="11.5889009"><ele>78.0</ele><time>2026-03-28T14:51:05.217Z</time></trkpt><trkpt lat="44.3944546" lon="11.5889812"><ele>78.0</ele><time>2026-03-28T14:51:06.214Z</time></trkpt><trkpt lat="44.3945744" lon="11.5890606"><ele>78.0</ele><time>2026-03-28T14:51:07.216Z</time></trkpt><trkpt lat="44.3946891" lon="11.5891306"><ele>78.0</ele><time>2026-03-28T14:51:08.215Z</time></trkpt><trkpt lat="44.3947857" lon="11.589196"><ele>78.8</ele><time>2026-03-28T14:51:09.212Z</time></trkpt><trkpt lat="44.3948801" lon="11.5892612"><ele>79.6</ele><time>2026-03-28T14:51:10.241Z</time></trkpt><trkpt lat="44.3949675" lon="11.5893144"><ele>80.39999999999999</ele><time>2026-03-28T14:51:11.215Z</time></trkpt><trkpt lat="44.3950489" lon="11.5893533"><ele>81.19999999999999</ele><time>2026-03-28T14:51:12.226Z</time></trkpt><trkpt lat="44.3951357" lon="11.5893874"><ele>82.0</ele><time>2026-03-28T14:51:13.217Z</time></trkpt><trkpt lat="44.3952221" lon="11.5894166"><ele>82.0</ele><time>2026-03-28T14:51:14.235Z</time></trkpt><trkpt lat="44.3952846" lon="11.5894412"><ele>82.0</ele><time>2026-03-28T14:51:15.224Z</time></trkpt><trkpt lat="44.3953662" lon="11.5894825"><ele>82.0</ele><time>2026-03-28T14:51:17.223Z</time></trkpt><trkpt lat="44.3954475" lon="11.5895192"><ele>82.0</ele><time>2026-03-28T14:51:19.215Z</time></trkpt><trkpt lat="44.3955121" lon="11.5895687"><ele>82.0</ele><time>2026-03-28T14:51:21.207Z</time></trkpt><trkpt lat="44.3956053" lon="11.5895906"><ele>82.0</ele><time>2026-03-28T14:51:23.212Z</time></trkpt><trkpt lat="44.3956462" lon="11.5894927"><ele>82.39999999999999</ele><time>2026-03-28T14:51:25.237Z</time></trkpt><trkpt lat="44.3957104" lon="11.5893356"><ele>82.8</ele><time>2026-03-28T14:51:27.218Z</time></trkpt><trkpt lat="44.3957793" lon="11.5892558"><ele>83.2</ele><time>2026-03-28T14:51:28.223Z</time></trkpt><trkpt lat="44.3958426" lon="11.5891887"><ele>83.6</ele><time>2026-03-28T14:51:29.214Z</time></trkpt><trkpt lat="44.3959011" lon="11.5891272"><ele>84.0</ele><time>2026-03-28T14:51:30.217Z</time></trkpt><trkpt lat="44.3959929" lon="11.5890373"><ele>84.0</ele><time>2026-03-28T14:51:32.225Z</time></trkpt><trkpt lat="44.3960885" lon="11.588939"><ele>84.0</ele><time>2026-03-28T14:51:34.225Z</time></trkpt><trkpt lat="44.3961592" lon="11.5888723"><ele>84.0</ele><time>2026-03-28T14:51:35.214Z</time></trkpt><trkpt lat="44.3962176" lon="11.5887995"><ele>84.0</ele><time>2026-03-28T14:51:36.228Z</time></trkpt><trkpt lat="44.3962803" lon="11.5887124"><ele>84.0</ele><time>2026-03-28T14:51:37.22Z</time></trkpt><trkpt lat="44.3963299" lon="11.5886232"><ele>84.4</ele><time>2026-03-28T14:51:38.223Z</time></trkpt><trkpt lat="44.3963704" lon="11.5885261"><ele>84.80000000000001</ele><time>2026-03-28T14:51:39.208Z</time></trkpt><trkpt lat="44.3964126" lon="11.5883777"><ele>85.19999999999999</ele><time>2026-03-28T14:51:40.213Z</time></trkpt><trkpt lat="44.3964199" lon="11.5882583"><ele>85.6</ele><time>2026-03-28T14:51:41.209Z</time></trkpt><trkpt lat="44.3964141" lon="11.5881311"><ele>86.0</ele><time>2026-03-28T14:51:42.23Z</time></trkpt><trkpt lat="44.3964091" lon="11.5880147"><ele>86.0</ele><time>2026-03-28T14:51:43.216Z</time></trkpt><trkpt lat="44.3964305" lon="11.5879074"><ele>86.0</ele><time>2026-03-28T14:51:44.225Z</time></trkpt><trkpt lat="44.3964802" lon="11.5878072"><ele>86.0</ele><time>2026-03-28T14:51:45.221Z</time></trkpt><trkpt lat="44.3965425" lon="11.587714"><ele>86.0</ele><time>2026-03-28T14:51:46.229Z</time></trkpt><trkpt lat="44.3966058" lon="11.587648"><ele>86.0</ele><time>2026-03-28T14:51:47.221Z</time></trkpt><trkpt lat="44.39669" lon="11.5876047"><ele>86.0</ele><time>2026-03-28T14:51:48.227Z</time></trkpt><trkpt lat="44.3968039" lon="11.5875846"><ele>85.83333333333334</ele><time>2026-03-28T14:51:49.219Z</time></trkpt><trkpt lat="44.3969119" lon="11.5875933"><ele>85.66666666666667</ele><time>2026-03-28T14:51:50.232Z</time></trkpt><trkpt lat="44.3970209" lon="11.5876294"><ele>85.5</ele><time>2026-03-28T14:51:51.215Z</time></trkpt><trkpt lat="44.3970801" lon="11.5876727"><ele>85.33333333333333</ele><time>2026-03-28T14:51:52.211Z</time></trkpt><trkpt lat="44.3971355" lon="11.5877202"><ele>85.16666666666666</ele><time>2026-03-28T14:51:53.226Z</time></trkpt><trkpt lat="44.3971864" lon="11.5877803"><ele>85.0</ele><time>2026-03-28T14:51:55.216Z</time></trkpt><trkpt lat="44.3972471" lon="11.5878118"><ele>82.0</ele><time>2026-03-28T14:51:57.22Z</time></trkpt><trkpt lat="44.3976837" lon="11.5880158"><ele>82.0</ele><time>2026-03-28T14:51:58.217Z</time></trkpt><trkpt lat="44.3977659" lon="11.5880819"><ele>82.0</ele><time>2026-03-28T14:52:00.229Z</time></trkpt><trkpt lat="44.397841" lon="11.5881351"><ele>82.0</ele><time>2026-03-28T14:52:11.221Z</time></trkpt><trkpt lat="44.3979377" lon="11.5881922"><ele>82.0</ele><time>2026-03-28T14:52:13.21Z</time></trkpt><trkpt lat="44.398016" lon="11.5882418"><ele>82.0</ele><time>2026-03-28T14:52:14.229Z</time></trkpt><trkpt lat="44.3980756" lon="11.5882956"><ele>82.0</ele><time>2026-03-28T14:52:15.21Z</time></trkpt><trkpt lat="44.3981458" lon="11.5883415"><ele>81.0</ele><time>2026-03-28T14:52:16.24Z</time></trkpt><trkpt lat="44.3982107" lon="11.5883871"><ele>80.0</ele><time>2026-03-28T14:52:17.208Z</time></trkpt><trkpt lat="44.3982984" lon="11.5884316"><ele>79.0</ele><time>2026-03-28T14:52:18.214Z</time></trkpt><trkpt lat="44.398397" lon="11.5884904"><ele>78.0</ele><time>2026-03-28T14:52:19.519Z</time></trkpt><trkpt lat="44.3985667" lon="11.588596"><ele>78.0</ele><time>2026-03-28T14:52:21.281Z</time></trkpt><trkpt lat="44.3986439" lon="11.5886424"><ele>78.0</ele><time>2026-03-28T14:52:22.277Z</time></trkpt><trkpt lat="44.3987207" lon="11.5886932"><ele>78.0</ele><time>2026-03-28T14:52:23.312Z</time></trkpt><trkpt lat="44.3987886" lon="11.5887384"><ele>78.0</ele><time>2026-03-28T14:52:24.292Z</time></trkpt><trkpt lat="44.39886" lon="11.5887824"><ele>78.0</ele><time>2026-03-28T14:52:25.299Z</time></trkpt><trkpt lat="44.3989267" lon="11.5888244"><ele>78.0</ele><time>2026-03-28T14:52:26.269Z</time></trkpt><trkpt lat="44.398997" lon="11.5888662"><ele>77.85714285714286</ele><time>2026-03-28T14:52:27.281Z</time></trkpt><trkpt lat="44.3990639" lon="11.5889096"><ele>77.71428571428571</ele><time>2026-03-28T14:52:28.282Z</time></trkpt><trkpt lat="44.3991305" lon="11.5889533"><ele>77.57142857142857</ele><time>2026-03-28T14:52:29.283Z</time></trkpt><trkpt lat="44.3991977" lon="11.5889979"><ele>77.42857142857143</ele><time>2026-03-28T14:52:30.275Z</time></trkpt><trkpt lat="44.399261" lon="11.5890391"><ele>77.28571428571428</ele><time>2026-03-28T14:52:31.238Z</time></trkpt><trkpt lat="44.3993261" lon="11.5890814"><ele>77.14285714285714</ele><time>2026-03-28T14:52:32.208Z</time></trkpt><trkpt lat="44.3993916" lon="11.5891177"><ele>77.0</ele><time>2026-03-28T14:52:33.222Z</time></trkpt><trkpt lat="44.3994796" lon="11.5891759"><ele>77.0</ele><time>2026-03-28T14:52:35.232Z</time></trkpt><trkpt lat="44.3995515" lon="11.5891913"><ele>77.0</ele><time>2026-03-28T14:52:38.219Z</time></trkpt><trkpt lat="44.3996212" lon="11.5891871"><ele>77.0</ele><time>2026-03-28T14:52:41.218Z</time></trkpt><trkpt lat="44.3997014" lon="11.5891331"><ele>77.0</ele><time>2026-03-28T14:52:43.216Z</time></trkpt><trkpt lat="44.3997876" lon="11.5889972"><ele>77.0</ele><time>2026-03-28T14:52:45.23Z</time></trkpt><trkpt lat="44.3998283" lon="11.5888953"><ele>77.0</ele><time>2026-03-28T14:52:46.22Z</time></trkpt><trkpt lat="44.399886" lon="11.5887812"><ele>76.75</ele><time>2026-03-28T14:52:47.242Z</time></trkpt><trkpt lat="44.3999615" lon="11.5886166"><ele>76.5</ele><time>2026-03-28T14:52:48.217Z</time></trkpt><trkpt lat="44.4000317" lon="11.5885015"><ele>76.25</ele><time>2026-03-28T14:52:49.218Z</time></trkpt><trkpt lat="44.4000976" lon="11.5884396"><ele>76.0</ele><time>2026-03-28T14:52:50.535Z</time></trkpt><trkpt lat="44.4002614" lon="11.5882888"><ele>76.0</ele><time>2026-03-28T14:52:52.279Z</time></trkpt><trkpt lat="44.4003816" lon="11.5881714"><ele>76.0</ele><time>2026-03-28T14:52:53.277Z</time></trkpt><trkpt lat="44.4004768" lon="11.5880949"><ele>76.0</ele><time>2026-03-28T14:52:54.277Z</time></trkpt><trkpt lat="44.4005603" lon="11.5880338"><ele>76.0</ele><time>2026-03-28T14:52:55.268Z</time></trkpt><trkpt lat="44.4006452" lon="11.5879645"><ele>76.0</ele><time>2026-03-28T14:52:56.276Z</time></trkpt><trkpt lat="44.4007479" lon="11.587883"><ele>75.5</ele><time>2026-03-28T14:52:57.276Z</time></trkpt><trkpt lat="44.400854" lon="11.587803"><ele>75.0</ele><time>2026-03-28T14:52:58.296Z</time></trkpt><trkpt lat="44.4009735" lon="11.5877176"><ele>74.5</ele><time>2026-03-28T14:52:59.275Z</time></trkpt><trkpt lat="44.4011059" lon="11.5876239"><ele>74.0</ele><time>2026-03-28T14:53:00.272Z</time></trkpt><trkpt lat="44.4012069" lon="11.5875649"><ele>74.0</ele><time>2026-03-28T14:53:01.269Z</time></trkpt><trkpt lat="44.4013103" lon="11.587505"><ele>74.0</ele><time>2026-03-28T14:53:02.267Z</time></trkpt><trkpt lat="44.4014159" lon="11.5874513"><ele>74.0</ele><time>2026-03-28T14:53:03.27Z</time></trkpt><trkpt lat="44.4015223" lon="11.5873963"><ele>74.0</ele><time>2026-03-28T14:53:04.275Z</time></trkpt><trkpt lat="44.4016305" lon="11.5873427"><ele>73.75</ele><time>2026-03-28T14:53:05.268Z</time></trkpt><trkpt lat="44.4017394" lon="11.5872885"><ele>73.5</ele><time>2026-03-28T14:53:06.279Z</time></trkpt><trkpt lat="44.4018478" lon="11.5872321"><ele>73.25</ele><time>2026-03-28T14:53:07.288Z</time></trkpt><trkpt lat="44.4019526" lon="11.587178"><ele>73.0</ele><time>2026-03-28T14:53:08.277Z</time></trkpt><trkpt lat="44.4020582" lon="11.587126"><ele>73.0</ele><time>2026-03-28T14:53:09.281Z</time></trkpt><trkpt lat="44.4021618" lon="11.5870775"><ele>73.0</ele><time>2026-03-28T14:53:10.28Z</time></trkpt><trkpt lat="44.4022535" lon="11.5870326"><ele>73.0</ele><time>2026-03-28T14:53:11.264Z</time></trkpt><trkpt lat="44.4023325" lon="11.5869937"><ele>73.0</ele><time>2026-03-28T14:53:12.301Z</time></trkpt><trkpt lat="44.4023952" lon="11.5869674"><ele>73.0</ele><time>2026-03-28T14:53:13.271Z</time></trkpt><trkpt lat="44.4024921" lon="11.5869421"><ele>72.5</ele><time>2026-03-28T14:53:15.276Z</time></trkpt><trkpt lat="44.4025611" lon="11.5869447"><ele>72.0</ele><time>2026-03-28T14:53:19.268Z</time></trkpt><trkpt lat="44.402629" lon="11.586972"><ele>71.5</ele><time>2026-03-28T14:53:25.229Z</time></trkpt><trkpt lat="44.402695" lon="11.5869996"><ele>71.0</ele><time>2026-03-28T14:53:43.211Z</time></trkpt><trkpt lat="44.4027741" lon="11.5871132"><ele>70.5</ele><time>2026-03-28T14:53:45.218Z</time></trkpt><trkpt lat="44.4028361" lon="11.5871939"><ele>70.0</ele><time>2026-03-28T14:53:46.236Z</time></trkpt><trkpt lat="44.4029074" lon="11.5872588"><ele>69.8</ele><time>2026-03-28T14:53:47.212Z</time></trkpt><trkpt lat="44.4029961" lon="11.5872902"><ele>69.6</ele><time>2026-03-28T14:53:48.208Z</time></trkpt><trkpt lat="44.4030992" lon="11.5872743"><ele>69.4</ele><time>2026-03-28T14:53:49.22Z</time></trkpt><trkpt lat="44.4031981" lon="11.5872312"><ele>69.2</ele><time>2026-03-28T14:53:50.22Z</time></trkpt><trkpt lat="44.403313" lon="11.5871873"><ele>69.0</ele><time>2026-03-28T14:53:51.221Z</time></trkpt><trkpt lat="44.4034435" lon="11.5871669"><ele>68.0</ele><time>2026-03-28T14:53:52.231Z</time></trkpt><trkpt lat="44.4035968" lon="11.5871805"><ele>67.0</ele><time>2026-03-28T14:53:53.212Z</time></trkpt><trkpt lat="44.4037658" lon="11.5872256"><ele>66.0</ele><time>2026-03-28T14:53:54.224Z</time></trkpt><trkpt lat="44.4039363" lon="11.5872856"><ele>65.0</ele><time>2026-03-28T14:53:55.205Z</time></trkpt><trkpt lat="44.4041196" lon="11.5873557"><ele>64.0</ele><time>2026-03-28T14:53:56.225Z</time></trkpt><trkpt lat="44.4043033" lon="11.5874196"><ele>63.0</ele><time>2026-03-28T14:53:57.227Z</time></trkpt><trkpt lat="44.4044865" lon="11.5874885"><ele>62.66666666666667</ele><time>2026-03-28T14:53:58.227Z</time></trkpt><trkpt lat="44.404671" lon="11.5875608"><ele>62.333333333333336</ele><time>2026-03-28T14:53:59.21Z</time></trkpt><trkpt lat="44.4048664" lon="11.587636"><ele>62.0</ele><time>2026-03-28T14:54:00.223Z</time></trkpt><trkpt lat="44.4050602" lon="11.5877066"><ele>62.0</ele><time>2026-03-28T14:54:01.222Z</time></trkpt><trkpt lat="44.4052554" lon="11.5877791"><ele>62.0</ele><time>2026-03-28T14:54:02.229Z</time></trkpt><trkpt lat="44.4054491" lon="11.5878486"><ele>62.0</ele><time>2026-03-28T14:54:03.22Z</time></trkpt><trkpt lat="44.4056411" lon="11.5879185"><ele>61.333333333333336</ele><time>2026-03-28T14:54:04.234Z</time></trkpt><trkpt lat="44.4058239" lon="11.5879747"><ele>60.66666666666667</ele><time>2026-03-28T14:54:05.231Z</time></trkpt><trkpt lat="44.4060077" lon="11.588027"><ele>60.0</ele><time>2026-03-28T14:54:06.225Z</time></trkpt><trkpt lat="44.4061856" lon="11.5880749"><ele>59.75</ele><time>2026-03-28T14:54:07.236Z</time></trkpt><trkpt lat="44.4063392" lon="11.5881306"><ele>59.5</ele><time>2026-03-28T14:54:08.235Z</time></trkpt><trkpt lat="44.4064731" lon="11.5881701"><ele>59.25</ele><time>2026-03-28T14:54:09.213Z</time></trkpt><trkpt lat="44.4065708" lon="11.5882074"><ele>59.0</ele><time>2026-03-28T14:54:10.217Z</time></trkpt><trkpt lat="44.4066718" lon="11.5882461"><ele>59.0</ele><time>2026-03-28T14:54:12.228Z</time></trkpt><trkpt lat="44.4067344" lon="11.5882687"><ele>59.0</ele><time>2026-03-28T14:54:14.232Z</time></trkpt><trkpt lat="44.4075863" lon="11.5883733"><ele>59.0</ele><time>2026-03-28T14:54:17.211Z</time></trkpt><trkpt lat="44.4077179" lon="11.5884146"><ele>59.0</ele><time>2026-03-28T14:54:18.214Z</time></trkpt><trkpt lat="44.4078595" lon="11.5884638"><ele>59.0</ele><time>2026-03-28T14:54:19.216Z</time></trkpt><trkpt lat="44.4080057" lon="11.5885245"><ele>59.0</ele><time>2026-03-28T14:54:20.23Z</time></trkpt><trkpt lat="44.4081622" lon="11.5885899"><ele>59.333333333333336</ele><time>2026-03-28T14:54:21.239Z</time></trkpt><trkpt lat="44.4083077" lon="11.5886423"><ele>59.66666666666667</ele><time>2026-03-28T14:54:22.222Z</time></trkpt><trkpt lat="44.4084508" lon="11.5886846"><ele>60.0</ele><time>2026-03-28T14:54:23.237Z</time></trkpt><trkpt lat="44.4086088" lon="11.5887227"><ele>59.33333333333333</ele><time>2026-03-28T14:54:24.239Z</time></trkpt><trkpt lat="44.4087593" lon="11.5887683"><ele>58.666666666666664</ele><time>2026-03-28T14:54:25.215Z</time></trkpt><trkpt lat="44.4089117" lon="11.5888254"><ele>58.0</ele><time>2026-03-28T14:54:26.218Z</time></trkpt><trkpt lat="44.4090658" lon="11.5888918"><ele>57.75</ele><time>2026-03-28T14:54:27.221Z</time></trkpt><trkpt lat="44.4092076" lon="11.588961"><ele>57.5</ele><time>2026-03-28T14:54:28.214Z</time></trkpt><trkpt lat="44.4093447" lon="11.5890287"><ele>57.25</ele><time>2026-03-28T14:54:29.218Z</time></trkpt><trkpt lat="44.4094785" lon="11.5890895"><ele>57.0</ele><time>2026-03-28T14:54:30.218Z</time></trkpt><trkpt lat="44.4096076" lon="11.58916"><ele>57.33333333333333</ele><time>2026-03-28T14:54:31.217Z</time></trkpt><trkpt lat="44.4097416" lon="11.5892424"><ele>57.666666666666664</ele><time>2026-03-28T14:54:32.233Z</time></trkpt><trkpt lat="44.4098785" lon="11.5893326"><ele>58.0</ele><time>2026-03-28T14:54:33.22Z</time></trkpt><trkpt lat="44.4100186" lon="11.5894317"><ele>58.0</ele><time>2026-03-28T14:54:34.233Z</time></trkpt><trkpt lat="44.4101473" lon="11.589529"><ele>58.0</ele><time>2026-03-28T14:54:35.21Z</time></trkpt><trkpt lat="44.4102628" lon="11.5896328"><ele>58.0</ele><time>2026-03-28T14:54:36.228Z</time></trkpt><trkpt lat="44.4103703" lon="11.5897286"><ele>58.0</ele><time>2026-03-28T14:54:37.22Z</time></trkpt><trkpt lat="44.4104799" lon="11.5898202"><ele>58.0</ele><time>2026-03-28T14:54:38.219Z</time></trkpt><trkpt lat="44.410611" lon="11.5899148"><ele>58.0</ele><time>2026-03-28T14:54:39.238Z</time></trkpt><trkpt lat="44.4107391" lon="11.5900138"><ele>58.0</ele><time>2026-03-28T14:54:40.23Z</time></trkpt><trkpt lat="44.4108678" lon="11.5901114"><ele>58.0</ele><time>2026-03-28T14:54:41.219Z</time></trkpt><trkpt lat="44.4109965" lon="11.5902113"><ele>58.0</ele><time>2026-03-28T14:54:42.217Z</time></trkpt><trkpt lat="44.4111284" lon="11.5903145"><ele>58.0</ele><time>2026-03-28T14:54:43.221Z</time></trkpt><trkpt lat="44.4112628" lon="11.5904243"><ele>58.0</ele><time>2026-03-28T14:54:44.22Z</time></trkpt><trkpt lat="44.411401" lon="11.5905368"><ele>58.33333333333333</ele><time>2026-03-28T14:54:45.227Z</time></trkpt><trkpt lat="44.4115395" lon="11.5906559"><ele>58.66666666666667</ele><time>2026-03-28T14:54:46.222Z</time></trkpt><trkpt lat="44.4116766" lon="11.5907824"><ele>59.0</ele><time>2026-03-28T14:54:47.222Z</time></trkpt><trkpt lat="44.4118041" lon="11.5909164"><ele>59.0</ele><time>2026-03-28T14:54:48.209Z</time></trkpt><trkpt lat="44.4119357" lon="11.5910695"><ele>59.0</ele><time>2026-03-28T14:54:49.238Z</time></trkpt><trkpt lat="44.4120526" lon="11.5912285"><ele>59.0</ele><time>2026-03-28T14:54:50.227Z</time></trkpt><trkpt lat="44.4121717" lon="11.591396"><ele>58.66666666666667</ele><time>2026-03-28T14:54:51.227Z</time></trkpt><trkpt lat="44.4122846" lon="11.5915626"><ele>58.33333333333333</ele><time>2026-03-28T14:54:52.233Z</time></trkpt><trkpt lat="44.4123981" lon="11.5917241"><ele>58.0</ele><time>2026-03-28T14:54:53.226Z</time></trkpt><trkpt lat="44.4125163" lon="11.5918915"><ele>57.33333333333333</ele><time>2026-03-28T14:54:54.236Z</time></trkpt><trkpt lat="44.412637" lon="11.5920649"><ele>56.66666666666667</ele><time>2026-03-28T14:54:55.254Z</time></trkpt><trkpt lat="44.4127553" lon="11.592228"><ele>56.0</ele><time>2026-03-28T14:54:56.225Z</time></trkpt><trkpt lat="44.4128825" lon="11.5924036"><ele>56.0</ele><time>2026-03-28T14:54:57.224Z</time></trkpt><trkpt lat="44.4130062" lon="11.5925759"><ele>56.0</ele><time>2026-03-28T14:54:58.229Z</time></trkpt><trkpt lat="44.4131248" lon="11.5927443"><ele>56.0</ele><time>2026-03-28T14:54:59.213Z</time></trkpt><trkpt lat="44.413245" lon="11.5929183"><ele>56.0</ele><time>2026-03-28T14:55:00.238Z</time></trkpt><trkpt lat="44.4133457" lon="11.593082"><ele>56.0</ele><time>2026-03-28T14:55:01.216Z</time></trkpt><trkpt lat="44.4134548" lon="11.5932527"><ele>56.0</ele><time>2026-03-28T14:55:02.237Z</time></trkpt><trkpt lat="44.4135714" lon="11.5934213"><ele>56.0</ele><time>2026-03-28T14:55:03.235Z</time></trkpt><trkpt lat="44.4136914" lon="11.5935955"><ele>56.0</ele><time>2026-03-28T14:55:04.236Z</time></trkpt><trkpt lat="44.4138094" lon="11.5937724"><ele>56.0</ele><time>2026-03-28T14:55:05.231Z</time></trkpt><trkpt lat="44.4139249" lon="11.5939414"><ele>56.66666666666667</ele><time>2026-03-28T14:55:06.238Z</time></trkpt><trkpt lat="44.4140403" lon="11.5941046"><ele>57.33333333333333</ele><time>2026-03-28T14:55:07.235Z</time></trkpt><trkpt lat="44.4141542" lon="11.5942555"><ele>58.0</ele><time>2026-03-28T14:55:08.222Z</time></trkpt><trkpt lat="44.4142768" lon="11.5944152"><ele>58.0</ele><time>2026-03-28T14:55:09.232Z</time></trkpt><trkpt lat="44.4143989" lon="11.5945811"><ele>58.0</ele><time>2026-03-28T14:55:10.219Z</time></trkpt><trkpt lat="44.4145235" lon="11.5947521"><ele>58.0</ele><time>2026-03-28T14:55:11.215Z</time></trkpt><trkpt lat="44.414651" lon="11.5949285"><ele>57.0</ele><time>2026-03-28T14:55:12.235Z</time></trkpt><trkpt lat="44.4147778" lon="11.5951096"><ele>56.0</ele><time>2026-03-28T14:55:13.223Z</time></trkpt><trkpt lat="44.4149083" lon="11.5952892"><ele>55.0</ele><time>2026-03-28T14:55:14.218Z</time></trkpt><trkpt lat="44.415027" lon="11.5954674"><ele>55.0</ele><time>2026-03-28T14:55:15.228Z</time></trkpt><trkpt lat="44.4151344" lon="11.5956394"><ele>55.0</ele><time>2026-03-28T14:55:16.209Z</time></trkpt><trkpt lat="44.415237" lon="11.5958252"><ele>55.0</ele><time>2026-03-28T14:55:17.225Z</time></trkpt><trkpt lat="44.4153345" lon="11.596014"><ele>55.0</ele><time>2026-03-28T14:55:18.21Z</time></trkpt><trkpt lat="44.4154332" lon="11.5962074"><ele>55.0</ele><time>2026-03-28T14:55:19.238Z</time></trkpt><trkpt lat="44.415526" lon="11.596398"><ele>55.0</ele><time>2026-03-28T14:55:20.227Z</time></trkpt><trkpt lat="44.4156166" lon="11.5965932"><ele>55.33333333333333</ele><time>2026-03-28T14:55:21.223Z</time></trkpt><trkpt lat="44.4157027" lon="11.5967874"><ele>55.66666666666667</ele><time>2026-03-28T14:55:22.223Z</time></trkpt><trkpt lat="44.4157864" lon="11.5969729"><ele>56.0</ele><time>2026-03-28T14:55:23.22Z</time></trkpt><trkpt lat="44.4158747" lon="11.5971571"><ele>55.333333333333336</ele><time>2026-03-28T14:55:24.222Z</time></trkpt><trkpt lat="44.415963" lon="11.59734"><ele>54.66666666666667</ele><time>2026-03-28T14:55:25.218Z</time></trkpt><trkpt lat="44.416058" lon="11.597524"><ele>54.0</ele><time>2026-03-28T14:55:26.232Z</time></trkpt><trkpt lat="44.4161595" lon="11.5977057"><ele>54.0</ele><time>2026-03-28T14:55:27.215Z</time></trkpt><trkpt lat="44.416274" lon="11.59787"><ele>54.0</ele><time>2026-03-28T14:55:28.221Z</time></trkpt><trkpt lat="44.4163884" lon="11.5980237"><ele>54.0</ele><time>2026-03-28T14:55:29.23Z</time></trkpt><trkpt lat="44.4165154" lon="11.5981658"><ele>55.0</ele><time>2026-03-28T14:55:30.231Z</time></trkpt><trkpt lat="44.416648" lon="11.5983062"><ele>56.0</ele><time>2026-03-28T14:55:31.236Z</time></trkpt><trkpt lat="44.41678" lon="11.5984307"><ele>57.0</ele><time>2026-03-28T14:55:32.233Z</time></trkpt><trkpt lat="44.4169273" lon="11.5985485"><ele>57.0</ele><time>2026-03-28T14:55:33.216Z</time></trkpt><trkpt lat="44.4170882" lon="11.598654"><ele>57.0</ele><time>2026-03-28T14:55:34.226Z</time></trkpt><trkpt lat="44.417241" lon="11.5987287"><ele>57.0</ele><time>2026-03-28T14:55:35.232Z</time></trkpt><trkpt lat="44.4174144" lon="11.5988246"><ele>57.0</ele><time>2026-03-28T14:55:36.239Z</time></trkpt><trkpt lat="44.417579" lon="11.5988971"><ele>57.0</ele><time>2026-03-28T14:55:37.223Z</time></trkpt><trkpt lat="44.4177319" lon="11.5989535"><ele>57.0</ele><time>2026-03-28T14:55:38.228Z</time></trkpt><trkpt lat="44.4178567" lon="11.5989885"><ele>57.0</ele><time>2026-03-28T14:55:39.219Z</time></trkpt><trkpt lat="44.4179824" lon="11.5990226"><ele>57.0</ele><time>2026-03-28T14:55:40.221Z</time></trkpt><trkpt lat="44.4181117" lon="11.5990604"><ele>57.0</ele><time>2026-03-28T14:55:41.214Z</time></trkpt><trkpt lat="44.4182472" lon="11.5991017"><ele>57.0</ele><time>2026-03-28T14:55:42.236Z</time></trkpt><trkpt lat="44.4183791" lon="11.5991419"><ele>56.5</ele><time>2026-03-28T14:55:43.211Z</time></trkpt><trkpt lat="44.4185191" lon="11.5991848"><ele>56.0</ele><time>2026-03-28T14:55:44.223Z</time></trkpt><trkpt lat="44.4186499" lon="11.5992243"><ele>55.5</ele><time>2026-03-28T14:55:45.23Z</time></trkpt><trkpt lat="44.4187767" lon="11.5992714"><ele>55.0</ele><time>2026-03-28T14:55:46.226Z</time></trkpt><trkpt lat="44.4189091" lon="11.5993275"><ele>54.5</ele><time>2026-03-28T14:55:47.227Z</time></trkpt><trkpt lat="44.4190494" lon="11.5993933"><ele>54.0</ele><time>2026-03-28T14:55:48.24Z</time></trkpt><trkpt lat="44.4191853" lon="11.5994623"><ele>53.5</ele><time>2026-03-28T14:55:49.222Z</time></trkpt><trkpt lat="44.4193277" lon="11.59954"><ele>53.0</ele><time>2026-03-28T14:55:50.213Z</time></trkpt><trkpt lat="44.4194724" lon="11.599629"><ele>53.0</ele><time>2026-03-28T14:55:51.211Z</time></trkpt><trkpt lat="44.4196117" lon="11.5997259"><ele>53.0</ele><time>2026-03-28T14:55:52.236Z</time></trkpt><trkpt lat="44.419745" lon="11.599825"><ele>53.0</ele><time>2026-03-28T14:55:53.215Z</time></trkpt><trkpt lat="44.4198812" lon="11.5999333"><ele>53.0</ele><time>2026-03-28T14:55:54.22Z</time></trkpt><trkpt lat="44.4200149" lon="11.6000434"><ele>53.0</ele><time>2026-03-28T14:55:55.229Z</time></trkpt><trkpt lat="44.4201427" lon="11.6001474"><ele>53.0</ele><time>2026-03-28T14:55:56.22Z</time></trkpt><trkpt lat="44.4202676" lon="11.6002484"><ele>53.0</ele><time>2026-03-28T14:55:57.214Z</time></trkpt><trkpt lat="44.4203901" lon="11.6003491"><ele>53.5</ele><time>2026-03-28T14:55:58.228Z</time></trkpt><trkpt lat="44.4205047" lon="11.6004356"><ele>54.0</ele><time>2026-03-28T14:55:59.231Z</time></trkpt><trkpt lat="44.4206293" lon="11.6005236"><ele>54.5</ele><time>2026-03-28T14:56:00.25Z</time></trkpt><trkpt lat="44.4207529" lon="11.600597"><ele>55.0</ele><time>2026-03-28T14:56:01.216Z</time></trkpt><trkpt lat="44.4208847" lon="11.6006716"><ele>55.0</ele><time>2026-03-28T14:56:02.259Z</time></trkpt><trkpt lat="44.4210023" lon="11.600736"><ele>55.0</ele><time>2026-03-28T14:56:03.213Z</time></trkpt><trkpt lat="44.4211217" lon="11.6007976"><ele>55.0</ele><time>2026-03-28T14:56:04.225Z</time></trkpt><trkpt lat="44.4212212" lon="11.6008427"><ele>55.0</ele><time>2026-03-28T14:56:05.209Z</time></trkpt><trkpt lat="44.421325" lon="11.6008858"><ele>54.4</ele><time>2026-03-28T14:56:06.23Z</time></trkpt><trkpt lat="44.4214184" lon="11.6009225"><ele>53.8</ele><time>2026-03-28T14:56:07.217Z</time></trkpt><trkpt lat="44.421505" lon="11.6009596"><ele>53.2</ele><time>2026-03-28T14:56:08.22Z</time></trkpt><trkpt lat="44.4215958" lon="11.6009971"><ele>52.6</ele><time>2026-03-28T14:56:09.211Z</time></trkpt><trkpt lat="44.421687" lon="11.601036"><ele>52.0</ele><time>2026-03-28T14:56:10.25Z</time></trkpt><trkpt lat="44.4217751" lon="11.6010712"><ele>52.0</ele><time>2026-03-28T14:56:11.221Z</time></trkpt><trkpt lat="44.4218814" lon="11.6011139"><ele>52.0</ele><time>2026-03-28T14:56:12.232Z</time></trkpt><trkpt lat="44.4219854" lon="11.6011593"><ele>52.0</ele><time>2026-03-28T14:56:13.221Z</time></trkpt><trkpt lat="44.4220991" lon="11.6012089"><ele>52.0</ele><time>2026-03-28T14:56:14.227Z</time></trkpt><trkpt lat="44.4222169" lon="11.6012602"><ele>52.0</ele><time>2026-03-28T14:56:15.222Z</time></trkpt><trkpt lat="44.4223415" lon="11.6013168"><ele>52.0</ele><time>2026-03-28T14:56:16.232Z</time></trkpt><trkpt lat="44.4224643" lon="11.6013733"><ele>52.0</ele><time>2026-03-28T14:56:17.218Z</time></trkpt><trkpt lat="44.422598" lon="11.6014379"><ele>52.0</ele><time>2026-03-28T14:56:18.234Z</time></trkpt><trkpt lat="44.4227334" lon="11.6015048"><ele>52.0</ele><time>2026-03-28T14:56:19.226Z</time></trkpt><trkpt lat="44.4228769" lon="11.601577"><ele>52.0</ele><time>2026-03-28T14:56:20.212Z</time></trkpt><trkpt lat="44.4230172" lon="11.6016549"><ele>52.0</ele><time>2026-03-28T14:56:21.217Z</time></trkpt><trkpt lat="44.4231636" lon="11.6017364"><ele>51.666666666666664</ele><time>2026-03-28T14:56:22.234Z</time></trkpt><trkpt lat="44.4233121" lon="11.6018181"><ele>51.33333333333333</ele><time>2026-03-28T14:56:23.211Z</time></trkpt><trkpt lat="44.4234612" lon="11.6018943"><ele>51.0</ele><time>2026-03-28T14:56:24.229Z</time></trkpt><trkpt lat="44.4236037" lon="11.6019747"><ele>51.0</ele><time>2026-03-28T14:56:25.22Z</time></trkpt><trkpt lat="44.4237498" lon="11.6020542"><ele>51.0</ele><time>2026-03-28T14:56:26.235Z</time></trkpt><trkpt lat="44.423885" lon="11.6021312"><ele>51.0</ele><time>2026-03-28T14:56:27.209Z</time></trkpt><trkpt lat="44.4240276" lon="11.6022151"><ele>52.0</ele><time>2026-03-28T14:56:28.224Z</time></trkpt><trkpt lat="44.424165" lon="11.6022961"><ele>53.0</ele><time>2026-03-28T14:56:29.222Z</time></trkpt><trkpt lat="44.4243042" lon="11.6023777"><ele>54.0</ele><time>2026-03-28T14:56:30.232Z</time></trkpt><trkpt lat="44.4244492" lon="11.6024662"><ele>54.0</ele><time>2026-03-28T14:56:31.215Z</time></trkpt><trkpt lat="44.4245889" lon="11.6025498"><ele>54.0</ele><time>2026-03-28T14:56:32.226Z</time></trkpt><trkpt lat="44.4247227" lon="11.6026356"><ele>54.0</ele><time>2026-03-28T14:56:33.229Z</time></trkpt><trkpt lat="44.424858" lon="11.6027201"><ele>54.0</ele><time>2026-03-28T14:56:34.222Z</time></trkpt><trkpt lat="44.424998" lon="11.6028104"><ele>52.66666666666667</ele><time>2026-03-28T14:56:35.214Z</time></trkpt><trkpt lat="44.4251418" lon="11.6028911"><ele>51.333333333333336</ele><time>2026-03-28T14:56:36.243Z</time></trkpt><trkpt lat="44.4252939" lon="11.6029755"><ele>50.0</ele><time>2026-03-28T14:56:37.22Z</time></trkpt><trkpt lat="44.4254546" lon="11.6030625"><ele>50.333333333333336</ele><time>2026-03-28T14:56:38.225Z</time></trkpt><trkpt lat="44.4256121" lon="11.6031447"><ele>50.66666666666667</ele><time>2026-03-28T14:56:39.213Z</time></trkpt><trkpt lat="44.4257622" lon="11.6032252"><ele>51.0</ele><time>2026-03-28T14:56:40.22Z</time></trkpt><trkpt lat="44.4259083" lon="11.6033051"><ele>51.0</ele><time>2026-03-28T14:56:41.217Z</time></trkpt><trkpt lat="44.4260423" lon="11.6033768"><ele>51.0</ele><time>2026-03-28T14:56:42.228Z</time></trkpt><trkpt lat="44.4261846" lon="11.6034533"><ele>51.0</ele><time>2026-03-28T14:56:43.21Z</time></trkpt><trkpt lat="44.4263326" lon="11.6035333"><ele>51.25</ele><time>2026-03-28T14:56:44.227Z</time></trkpt><trkpt lat="44.4264746" lon="11.6036104"><ele>51.5</ele><time>2026-03-28T14:56:45.223Z</time></trkpt><trkpt lat="44.426612" lon="11.6036858"><ele>51.75</ele><time>2026-03-28T14:56:46.226Z</time></trkpt><trkpt lat="44.4267504" lon="11.6037553"><ele>52.0</ele><time>2026-03-28T14:56:47.229Z</time></trkpt><trkpt lat="44.4268971" lon="11.6038262"><ele>52.0</ele><time>2026-03-28T14:56:48.217Z</time></trkpt><trkpt lat="44.4270544" lon="11.6039013"><ele>52.0</ele><time>2026-03-28T14:56:49.233Z</time></trkpt><trkpt lat="44.4272088" lon="11.6039676"><ele>52.0</ele><time>2026-03-28T14:56:50.219Z</time></trkpt><trkpt lat="44.4273589" lon="11.6040411"><ele>52.25</ele><time>2026-03-28T14:56:51.237Z</time></trkpt><trkpt lat="44.4274922" lon="11.604111"><ele>52.5</ele><time>2026-03-28T14:56:52.218Z</time></trkpt><trkpt lat="44.4276043" lon="11.6041797"><ele>52.75</ele><time>2026-03-28T14:56:53.228Z</time></trkpt><trkpt lat="44.4277167" lon="11.6042368"><ele>53.0</ele><time>2026-03-28T14:56:54.22Z</time></trkpt><trkpt lat="44.4278458" lon="11.6042923"><ele>52.0</ele><time>2026-03-28T14:56:55.223Z</time></trkpt><trkpt lat="44.4279844" lon="11.6043263"><ele>51.0</ele><time>2026-03-28T14:56:56.223Z</time></trkpt><trkpt lat="44.4281312" lon="11.6043544"><ele>50.0</ele><time>2026-03-28T14:56:57.231Z</time></trkpt><trkpt lat="44.428274" lon="11.6043819"><ele>49.0</ele><time>2026-03-28T14:56:58.229Z</time></trkpt><trkpt lat="44.4284306" lon="11.6044118"><ele>49.0</ele><time>2026-03-28T14:56:59.23Z</time></trkpt><trkpt lat="44.4286021" lon="11.6044452"><ele>49.0</ele><time>2026-03-28T14:57:00.236Z</time></trkpt><trkpt lat="44.4287747" lon="11.6044813"><ele>49.0</ele><time>2026-03-28T14:57:01.211Z</time></trkpt><trkpt lat="44.4289524" lon="11.6045178"><ele>48.33333333333333</ele><time>2026-03-28T14:57:02.226Z</time></trkpt><trkpt lat="44.4291293" lon="11.6045504"><ele>47.666666666666664</ele><time>2026-03-28T14:57:03.229Z</time></trkpt><trkpt lat="44.4293138" lon="11.6045845"><ele>47.0</ele><time>2026-03-28T14:57:04.228Z</time></trkpt><trkpt lat="44.4295063" lon="11.6046144"><ele>47.666666666666664</ele><time>2026-03-28T14:57:05.229Z</time></trkpt><trkpt lat="44.4297022" lon="11.6046492"><ele>48.33333333333333</ele><time>2026-03-28T14:57:06.224Z</time></trkpt><trkpt lat="44.4298988" lon="11.6046819"><ele>49.0</ele><time>2026-03-28T14:57:07.228Z</time></trkpt><trkpt lat="44.4300963" lon="11.604711"><ele>49.0</ele><time>2026-03-28T14:57:08.233Z</time></trkpt><trkpt lat="44.4302903" lon="11.6047391"><ele>49.0</ele><time>2026-03-28T14:57:09.227Z</time></trkpt><trkpt lat="44.4304843" lon="11.6047676"><ele>49.0</ele><time>2026-03-28T14:57:10.234Z</time></trkpt><trkpt lat="44.4306798" lon="11.6047991"><ele>48.0</ele><time>2026-03-28T14:57:11.244Z</time></trkpt><trkpt lat="44.4308683" lon="11.604833"><ele>47.0</ele><time>2026-03-28T14:57:12.238Z</time></trkpt><trkpt lat="44.4310613" lon="11.6048624"><ele>46.0</ele><time>2026-03-28T14:57:13.241Z</time></trkpt><trkpt lat="44.4312439" lon="11.6048952"><ele>45.333333333333336</ele><time>2026-03-28T14:57:14.213Z</time></trkpt><trkpt lat="44.4314376" lon="11.6049318"><ele>44.666666666666664</ele><time>2026-03-28T14:57:15.236Z</time></trkpt><trkpt lat="44.4316242" lon="11.6049556"><ele>44.0</ele><time>2026-03-28T14:57:16.219Z</time></trkpt><trkpt lat="44.4318208" lon="11.6049865"><ele>44.0</ele><time>2026-03-28T14:57:17.226Z</time></trkpt><trkpt lat="44.4320123" lon="11.6050136"><ele>44.0</ele><time>2026-03-28T14:57:18.222Z</time></trkpt><trkpt lat="44.4322054" lon="11.6050543"><ele>44.0</ele><time>2026-03-28T14:57:19.222Z</time></trkpt><trkpt lat="44.4324154" lon="11.6050892"><ele>44.33333333333333</ele><time>2026-03-28T14:57:20.244Z</time></trkpt><trkpt lat="44.4326238" lon="11.6051238"><ele>44.666666666666664</ele><time>2026-03-28T14:57:21.231Z</time></trkpt><trkpt lat="44.4328363" lon="11.605159"><ele>45.0</ele><time>2026-03-28T14:57:22.235Z</time></trkpt><trkpt lat="44.4330447" lon="11.605195"><ele>46.0</ele><time>2026-03-28T14:57:23.223Z</time></trkpt><trkpt lat="44.4332548" lon="11.605228"><ele>47.0</ele><time>2026-03-28T14:57:24.227Z</time></trkpt><trkpt lat="44.4334698" lon="11.6052645"><ele>48.0</ele><time>2026-03-28T14:57:25.235Z</time></trkpt><trkpt lat="44.4336833" lon="11.6053177"><ele>47.333333333333336</ele><time>2026-03-28T14:57:26.241Z</time></trkpt><trkpt lat="44.4338887" lon="11.6053832"><ele>46.66666666666667</ele><time>2026-03-28T14:57:27.215Z</time></trkpt><trkpt lat="44.4340738" lon="11.6054727"><ele>46.0</ele><time>2026-03-28T14:57:28.212Z</time></trkpt><trkpt lat="44.4342729" lon="11.6055758"><ele>46.0</ele><time>2026-03-28T14:57:29.221Z</time></trkpt><trkpt lat="44.4344698" lon="11.6056927"><ele>46.0</ele><time>2026-03-28T14:57:30.22Z</time></trkpt><trkpt lat="44.4346709" lon="11.6058143"><ele>46.0</ele><time>2026-03-28T14:57:31.237Z</time></trkpt><trkpt lat="44.4348635" lon="11.6059266"><ele>45.333333333333336</ele><time>2026-03-28T14:57:32.234Z</time></trkpt><trkpt lat="44.4350525" lon="11.6060461"><ele>44.666666666666664</ele><time>2026-03-28T14:57:33.224Z</time></trkpt><trkpt lat="44.4352392" lon="11.6061597"><ele>44.0</ele><time>2026-03-28T14:57:34.215Z</time></trkpt><trkpt lat="44.435433" lon="11.6062749"><ele>44.33333333333333</ele><time>2026-03-28T14:57:35.243Z</time></trkpt><trkpt lat="44.4356212" lon="11.6063773"><ele>44.666666666666664</ele><time>2026-03-28T14:57:36.219Z</time></trkpt><trkpt lat="44.4358142" lon="11.6064714"><ele>45.0</ele><time>2026-03-28T14:57:37.231Z</time></trkpt><trkpt lat="44.4359984" lon="11.6065422"><ele>45.0</ele><time>2026-03-28T14:57:38.224Z</time></trkpt><trkpt lat="44.4361835" lon="11.6065921"><ele>45.0</ele><time>2026-03-28T14:57:39.227Z</time></trkpt><trkpt lat="44.4363702" lon="11.6066193"><ele>45.0</ele><time>2026-03-28T14:57:40.219Z</time></trkpt><trkpt lat="44.4365538" lon="11.606631"><ele>45.0</ele><time>2026-03-28T14:57:41.242Z</time></trkpt><trkpt lat="44.4367328" lon="11.6066218"><ele>45.0</ele><time>2026-03-28T14:57:42.233Z</time></trkpt><trkpt lat="44.4369193" lon="11.6065949"><ele>45.0</ele><time>2026-03-28T14:57:43.24Z</time></trkpt><trkpt lat="44.4370995" lon="11.6065717"><ele>44.666666666666664</ele><time>2026-03-28T14:57:44.221Z</time></trkpt><trkpt lat="44.4372786" lon="11.6065457"><ele>44.33333333333333</ele><time>2026-03-28T14:57:45.212Z</time></trkpt><trkpt lat="44.4374686" lon="11.6065173"><ele>44.0</ele><time>2026-03-28T14:57:46.231Z</time></trkpt><trkpt lat="44.4376616" lon="11.6064917"><ele>44.0</ele><time>2026-03-28T14:57:47.236Z</time></trkpt><trkpt lat="44.4378444" lon="11.6064958"><ele>44.0</ele><time>2026-03-28T14:57:48.22Z</time></trkpt><trkpt lat="44.4380495" lon="11.606485"><ele>44.0</ele><time>2026-03-28T14:57:49.247Z</time></trkpt><trkpt lat="44.4382531" lon="11.6064724"><ele>44.0</ele><time>2026-03-28T14:57:50.244Z</time></trkpt><trkpt lat="44.4384625" lon="11.6064537"><ele>44.0</ele><time>2026-03-28T14:57:51.222Z</time></trkpt><trkpt lat="44.4386759" lon="11.6064383"><ele>44.0</ele><time>2026-03-28T14:57:52.217Z</time></trkpt><trkpt lat="44.4388883" lon="11.6064315"><ele>43.33333333333333</ele><time>2026-03-28T14:57:53.231Z</time></trkpt><trkpt lat="44.439089" lon="11.6064144"><ele>42.666666666666664</ele><time>2026-03-28T14:57:54.221Z</time></trkpt><trkpt lat="44.4392914" lon="11.6063889"><ele>42.0</ele><time>2026-03-28T14:57:55.228Z</time></trkpt><trkpt lat="44.4394835" lon="11.6063731"><ele>42.0</ele><time>2026-03-28T14:57:56.216Z</time></trkpt><trkpt lat="44.4396928" lon="11.6063566"><ele>42.0</ele><time>2026-03-28T14:57:57.228Z</time></trkpt><trkpt lat="44.439897" lon="11.6063521"><ele>42.0</ele><time>2026-03-28T14:57:58.237Z</time></trkpt><trkpt lat="44.4400976" lon="11.6063691"><ele>42.0</ele><time>2026-03-28T14:57:59.236Z</time></trkpt><trkpt lat="44.4402916" lon="11.6064076"><ele>42.0</ele><time>2026-03-28T14:58:00.232Z</time></trkpt><trkpt lat="44.4404735" lon="11.6064638"><ele>42.0</ele><time>2026-03-28T14:58:01.233Z</time></trkpt><trkpt lat="44.440652" lon="11.6065322"><ele>41.666666666666664</ele><time>2026-03-28T14:58:02.235Z</time></trkpt><trkpt lat="44.4408185" lon="11.6066135"><ele>41.33333333333333</ele><time>2026-03-28T14:58:03.217Z</time></trkpt><trkpt lat="44.4409806" lon="11.6067059"><ele>41.0</ele><time>2026-03-28T14:58:04.241Z</time></trkpt><trkpt lat="44.4411282" lon="11.6067977"><ele>41.0</ele><time>2026-03-28T14:58:05.232Z</time></trkpt><trkpt lat="44.4412628" lon="11.6068933"><ele>41.0</ele><time>2026-03-28T14:58:06.232Z</time></trkpt><trkpt lat="44.4413931" lon="11.6069893"><ele>41.0</ele><time>2026-03-28T14:58:07.228Z</time></trkpt><trkpt lat="44.4415155" lon="11.6070805"><ele>41.0</ele><time>2026-03-28T14:58:08.23Z</time></trkpt><trkpt lat="44.4416211" lon="11.6071708"><ele>41.0</ele><time>2026-03-28T14:58:09.235Z</time></trkpt><trkpt lat="44.4417138" lon="11.6072445"><ele>41.0</ele><time>2026-03-28T14:58:10.229Z</time></trkpt><trkpt lat="44.4418094" lon="11.6073232"><ele>41.0</ele><time>2026-03-28T14:58:11.234Z</time></trkpt><trkpt lat="44.4419204" lon="11.6074091"><ele>41.0</ele><time>2026-03-28T14:58:12.243Z</time></trkpt><trkpt lat="44.4420427" lon="11.6075119"><ele>41.0</ele><time>2026-03-28T14:58:13.216Z</time></trkpt><trkpt lat="44.442186" lon="11.6076491"><ele>41.0</ele><time>2026-03-28T14:58:14.223Z</time></trkpt><trkpt lat="44.4423278" lon="11.6078456"><ele>41.0</ele><time>2026-03-28T14:58:15.226Z</time></trkpt><trkpt lat="44.4421995" lon="11.6077879"><ele>40.599999999999994</ele><time>2026-03-28T14:58:16.232Z</time></trkpt><trkpt lat="44.4422199" lon="11.6079206"><ele>40.199999999999996</ele><time>2026-03-28T14:58:17.223Z</time></trkpt><trkpt lat="44.4422144" lon="11.6080575"><ele>39.8</ele><time>2026-03-28T14:58:18.22Z</time></trkpt><trkpt lat="44.4421774" lon="11.6081549"><ele>39.4</ele><time>2026-03-28T14:58:19.231Z</time></trkpt><trkpt lat="44.4421274" lon="11.6082263"><ele>39.0</ele><time>2026-03-28T14:58:20.222Z</time></trkpt><trkpt lat="44.4420271" lon="11.6083221"><ele>39.0</ele><time>2026-03-28T14:58:22.23Z</time></trkpt><trkpt lat="44.4419359" lon="11.6083538"><ele>39.0</ele><time>2026-03-28T14:58:25.233Z</time></trkpt><trkpt lat="44.4418066" lon="11.6083634"><ele>39.0</ele><time>2026-03-28T14:58:27.233Z</time></trkpt><trkpt lat="44.4417088" lon="11.6083398"><ele>39.0</ele><time>2026-03-28T14:58:29.241Z</time></trkpt><trkpt lat="44.4415718" lon="11.6082507"><ele>39.0</ele><time>2026-03-28T14:58:30.229Z</time></trkpt><trkpt lat="44.4414949" lon="11.6081621"><ele>39.0</ele><time>2026-03-28T14:58:31.223Z</time></trkpt><trkpt lat="44.441447" lon="11.60807"><ele>39.0</ele><time>2026-03-28T14:58:32.225Z</time></trkpt><trkpt lat="44.4413713" lon="11.6079084"><ele>39.0</ele><time>2026-03-28T14:58:33.232Z</time></trkpt><trkpt lat="44.4413162" lon="11.607753"><ele>39.0</ele><time>2026-03-28T14:58:34.219Z</time></trkpt><trkpt lat="44.4412623" lon="11.6076097"><ele>39.4</ele><time>2026-03-28T14:58:35.234Z</time></trkpt><trkpt lat="44.4412201" lon="11.6074704"><ele>39.8</ele><time>2026-03-28T14:58:36.216Z</time></trkpt><trkpt lat="44.4411755" lon="11.6073311"><ele>40.199999999999996</ele><time>2026-03-28T14:58:37.223Z</time></trkpt><trkpt lat="44.4411392" lon="11.6072092"><ele>40.599999999999994</ele><time>2026-03-28T14:58:38.227Z</time></trkpt><trkpt lat="44.4411152" lon="11.6071084"><ele>41.0</ele><time>2026-03-28T14:58:39.218Z</time></trkpt><trkpt lat="44.4410845" lon="11.6070028"><ele>41.0</ele><time>2026-03-28T14:58:40.226Z</time></trkpt><trkpt lat="44.4410647" lon="11.6068956"><ele>41.0</ele><time>2026-03-28T14:58:41.246Z</time></trkpt><trkpt lat="44.4410421" lon="11.6067462"><ele>41.0</ele><time>2026-03-28T14:58:42.228Z</time></trkpt><trkpt lat="44.4410108" lon="11.6065998"><ele>41.0</ele><time>2026-03-28T14:58:43.22Z</time></trkpt><trkpt lat="44.4409813" lon="11.6064629"><ele>41.0</ele><time>2026-03-28T14:58:44.221Z</time></trkpt><trkpt lat="44.4409553" lon="11.6063007"><ele>41.0</ele><time>2026-03-28T14:58:45.251Z</time></trkpt><trkpt lat="44.4409364" lon="11.6061636"><ele>41.0</ele><time>2026-03-28T14:58:46.223Z</time></trkpt><trkpt lat="44.4409179" lon="11.6060451"><ele>41.0</ele><time>2026-03-28T14:58:47.228Z</time></trkpt><trkpt lat="44.44092" lon="11.6059319"><ele>41.0</ele><time>2026-03-28T14:58:48.224Z</time></trkpt><trkpt lat="44.4409288" lon="11.6058171"><ele>41.0</ele><time>2026-03-28T14:58:49.238Z</time></trkpt><trkpt lat="44.4409534" lon="11.6056653"><ele>41.0</ele><time>2026-03-28T14:58:50.23Z</time></trkpt><trkpt lat="44.4409824" lon="11.6055649"><ele>41.0</ele><time>2026-03-28T14:58:51.219Z</time></trkpt><trkpt lat="44.4410202" lon="11.6054708"><ele>41.0</ele><time>2026-03-28T14:58:52.226Z</time></trkpt><trkpt lat="44.4410492" lon="11.6053279"><ele>41.0</ele><time>2026-03-28T14:58:53.247Z</time></trkpt><trkpt lat="44.4410573" lon="11.6051723"><ele>41.0</ele><time>2026-03-28T14:58:54.225Z</time></trkpt><trkpt lat="44.4410473" lon="11.6049684"><ele>40.75</ele><time>2026-03-28T14:58:55.226Z</time></trkpt><trkpt lat="44.4409834" lon="11.6048612"><ele>40.5</ele><time>2026-03-28T14:58:56.213Z</time></trkpt><trkpt lat="44.4408792" lon="11.6046708"><ele>40.25</ele><time>2026-03-28T14:58:57.245Z</time></trkpt><trkpt lat="44.4407723" lon="11.6045524"><ele>40.0</ele><time>2026-03-28T14:58:58.212Z</time></trkpt><trkpt lat="44.4406764" lon="11.6043618"><ele>40.66666666666667</ele><time>2026-03-28T14:58:59.22Z</time></trkpt><trkpt lat="44.4405832" lon="11.6041426"><ele>41.333333333333336</ele><time>2026-03-28T14:59:00.221Z</time></trkpt><trkpt lat="44.4405046" lon="11.60391"><ele>42.0</ele><time>2026-03-28T14:59:01.244Z</time></trkpt><trkpt lat="44.4404561" lon="11.6036592"><ele>42.5</ele><time>2026-03-28T14:59:02.219Z</time></trkpt><trkpt lat="44.4404169" lon="11.6033392"><ele>43.0</ele><time>2026-03-28T14:59:03.243Z</time></trkpt><trkpt lat="44.4404729" lon="11.6030382"><ele>42.66666666666667</ele><time>2026-03-28T14:59:04.219Z</time></trkpt><trkpt lat="44.4404736" lon="11.6027329"><ele>42.333333333333336</ele><time>2026-03-28T14:59:05.243Z</time></trkpt><trkpt lat="44.4404694" lon="11.6024359"><ele>42.0</ele><time>2026-03-28T14:59:06.219Z</time></trkpt><trkpt lat="44.4404918" lon="11.6021352"><ele>42.0</ele><time>2026-03-28T14:59:07.231Z</time></trkpt><trkpt lat="44.4404923" lon="11.601818"><ele>42.0</ele><time>2026-03-28T14:59:08.238Z</time></trkpt><trkpt lat="44.4404814" lon="11.6015065"><ele>42.0</ele><time>2026-03-28T14:59:09.264Z</time></trkpt><trkpt lat="44.4404649" lon="11.6012115"><ele>42.0</ele><time>2026-03-28T14:59:10.256Z</time></trkpt><trkpt lat="44.4404435" lon="11.6009174"><ele>42.0</ele><time>2026-03-28T14:59:11.231Z</time></trkpt><trkpt lat="44.4404181" lon="11.6006194"><ele>42.0</ele><time>2026-03-28T14:59:12.229Z</time></trkpt><trkpt lat="44.4403915" lon="11.6003219"><ele>42.0</ele><time>2026-03-28T14:59:13.237Z</time></trkpt><trkpt lat="44.4403647" lon="11.6000278"><ele>42.0</ele><time>2026-03-28T14:59:14.228Z</time></trkpt><trkpt lat="44.4403368" lon="11.5997335"><ele>42.0</ele><time>2026-03-28T14:59:15.22Z</time></trkpt><trkpt lat="44.4403129" lon="11.5994309"><ele>42.333333333333336</ele><time>2026-03-28T14:59:16.232Z</time></trkpt><trkpt lat="44.4402871" lon="11.5991252"><ele>42.66666666666667</ele><time>2026-03-28T14:59:17.235Z</time></trkpt><trkpt lat="44.4402606" lon="11.5988137"><ele>43.0</ele><time>2026-03-28T14:59:18.244Z</time></trkpt><trkpt lat="44.440235" lon="11.5985098"><ele>43.0</ele><time>2026-03-28T14:59:19.227Z</time></trkpt><trkpt lat="44.4402128" lon="11.5982006"><ele>43.0</ele><time>2026-03-28T14:59:20.237Z</time></trkpt><trkpt lat="44.4401931" lon="11.5979011"><ele>43.0</ele><time>2026-03-28T14:59:21.225Z</time></trkpt><trkpt lat="44.440167" lon="11.5975971"><ele>43.333333333333336</ele><time>2026-03-28T14:59:22.241Z</time></trkpt><trkpt lat="44.4401425" lon="11.5973151"><ele>43.666666666666664</ele><time>2026-03-28T14:59:23.226Z</time></trkpt><trkpt lat="44.4401309" lon="11.597037"><ele>44.0</ele><time>2026-03-28T14:59:24.239Z</time></trkpt><trkpt lat="44.4401263" lon="11.5967673"><ele>44.33333333333333</ele><time>2026-03-28T14:59:25.219Z</time></trkpt><trkpt lat="44.4401392" lon="11.5964922"><ele>44.666666666666664</ele><time>2026-03-28T14:59:26.227Z</time></trkpt><trkpt lat="44.4401767" lon="11.5962185"><ele>45.0</ele><time>2026-03-28T14:59:27.225Z</time></trkpt><trkpt lat="44.4402389" lon="11.5959427"><ele>45.333333333333336</ele><time>2026-03-28T14:59:28.225Z</time></trkpt><trkpt lat="44.4403191" lon="11.5956855"><ele>45.66666666666667</ele><time>2026-03-28T14:59:29.219Z</time></trkpt><trkpt lat="44.4404138" lon="11.5954369"><ele>46.0</ele><time>2026-03-28T14:59:30.219Z</time></trkpt><trkpt lat="44.440512" lon="11.5951924"><ele>45.333333333333336</ele><time>2026-03-28T14:59:31.22Z</time></trkpt><trkpt lat="44.4406042" lon="11.5949529"><ele>44.666666666666664</ele><time>2026-03-28T14:59:32.212Z</time></trkpt><trkpt lat="44.4406887" lon="11.5947172"><ele>44.0</ele><time>2026-03-28T14:59:33.239Z</time></trkpt><trkpt lat="44.4407574" lon="11.5945039"><ele>44.0</ele><time>2026-03-28T14:59:34.231Z</time></trkpt><trkpt lat="44.4408172" lon="11.5943042"><ele>44.0</ele><time>2026-03-28T14:59:35.236Z</time></trkpt><trkpt lat="44.4408685" lon="11.5941277"><ele>44.0</ele><time>2026-03-28T14:59:36.225Z</time></trkpt><trkpt lat="44.4409173" lon="11.5939611"><ele>44.0</ele><time>2026-03-28T14:59:37.231Z</time></trkpt><trkpt lat="44.4409619" lon="11.5938087"><ele>44.0</ele><time>2026-03-28T14:59:38.228Z</time></trkpt><trkpt lat="44.4410077" lon="11.5936776"><ele>44.0</ele><time>2026-03-28T14:59:39.215Z</time></trkpt><trkpt lat="44.4410728" lon="11.5935785"><ele>44.0</ele><time>2026-03-28T14:59:40.236Z</time></trkpt><trkpt lat="44.4411375" lon="11.5935457"><ele>44.0</ele><time>2026-03-28T14:59:41.229Z</time></trkpt><trkpt lat="44.4412076" lon="11.5935548"><ele>44.0</ele><time>2026-03-28T14:59:42.234Z</time></trkpt><trkpt lat="44.4412776" lon="11.5936089"><ele>44.0</ele><time>2026-03-28T14:59:43.226Z</time></trkpt><trkpt lat="44.4413686" lon="11.593713"><ele>43.666666666666664</ele><time>2026-03-28T14:59:44.227Z</time></trkpt><trkpt lat="44.4414749" lon="11.5938445"><ele>43.333333333333336</ele><time>2026-03-28T14:59:45.231Z</time></trkpt><trkpt lat="44.4415977" lon="11.5939942"><ele>43.0</ele><time>2026-03-28T14:59:46.231Z</time></trkpt><trkpt lat="44.4417331" lon="11.5941707"><ele>43.0</ele><time>2026-03-28T14:59:47.239Z</time></trkpt><trkpt lat="44.4418651" lon="11.5943509"><ele>43.0</ele><time>2026-03-28T14:59:48.223Z</time></trkpt><trkpt lat="44.4420121" lon="11.5945399"><ele>43.0</ele><time>2026-03-28T14:59:49.233Z</time></trkpt><trkpt lat="44.4421636" lon="11.5947375"><ele>42.0</ele><time>2026-03-28T14:59:50.221Z</time></trkpt><trkpt lat="44.4423207" lon="11.5949322"><ele>41.0</ele><time>2026-03-28T14:59:51.217Z</time></trkpt><trkpt lat="44.4424873" lon="11.5951351"><ele>40.0</ele><time>2026-03-28T14:59:52.233Z</time></trkpt><trkpt lat="44.4426525" lon="11.5953359"><ele>40.5</ele><time>2026-03-28T14:59:53.23Z</time></trkpt><trkpt lat="44.4428209" lon="11.5955491"><ele>41.0</ele><time>2026-03-28T14:59:54.228Z</time></trkpt><trkpt lat="44.4429943" lon="11.5957745"><ele>41.5</ele><time>2026-03-28T14:59:55.242Z</time></trkpt><trkpt lat="44.443169" lon="11.5959973"><ele>42.0</ele><time>2026-03-28T14:59:56.229Z</time></trkpt><trkpt lat="44.4433457" lon="11.5962205"><ele>42.0</ele><time>2026-03-28T14:59:57.226Z</time></trkpt><trkpt lat="44.4435324" lon="11.5964546"><ele>42.0</ele><time>2026-03-28T14:59:58.222Z</time></trkpt><trkpt lat="44.4437309" lon="11.5967001"><ele>41.5</ele><time>2026-03-28T14:59:59.22Z</time></trkpt><trkpt lat="44.4439384" lon="11.5969583"><ele>41.0</ele><time>2026-03-28T15:00:00.221Z</time></trkpt><trkpt lat="44.4441647" lon="11.5972237"><ele>41.0</ele><time>2026-03-28T15:00:01.233Z</time></trkpt><trkpt lat="44.4443834" lon="11.5974343"><ele>41.0</ele><time>2026-03-28T15:00:02.228Z</time></trkpt><trkpt lat="44.4446136" lon="11.5976619"><ele>41.0</ele><time>2026-03-28T15:00:03.243Z</time></trkpt><trkpt lat="44.4447947" lon="11.5978329"><ele>41.0</ele><time>2026-03-28T15:00:04.221Z</time></trkpt><trkpt lat="44.4449819" lon="11.598008"><ele>41.0</ele><time>2026-03-28T15:00:05.23Z</time></trkpt><trkpt lat="44.4451558" lon="11.5981645"><ele>41.0</ele><time>2026-03-28T15:00:06.222Z</time></trkpt><trkpt lat="44.4452703" lon="11.5982638"><ele>41.0</ele><time>2026-03-28T15:00:07.222Z</time></trkpt><trkpt lat="44.4453988" lon="11.5983738"><ele>41.0</ele><time>2026-03-28T15:00:08.234Z</time></trkpt><trkpt lat="44.4455508" lon="11.5985155"><ele>41.0</ele><time>2026-03-28T15:00:09.226Z</time></trkpt><trkpt lat="44.4456992" lon="11.5986523"><ele>41.0</ele><time>2026-03-28T15:00:10.217Z</time></trkpt><trkpt lat="44.4458439" lon="11.5987918"><ele>41.0</ele><time>2026-03-28T15:00:11.215Z</time></trkpt><trkpt lat="44.4460031" lon="11.5989487"><ele>41.0</ele><time>2026-03-28T15:00:12.216Z</time></trkpt><trkpt lat="44.4461718" lon="11.5991034"><ele>41.0</ele><time>2026-03-28T15:00:13.255Z</time></trkpt><trkpt lat="44.4463369" lon="11.59924"><ele>41.0</ele><time>2026-03-28T15:00:14.251Z</time></trkpt><trkpt lat="44.4465043" lon="11.5993302"><ele>40.666666666666664</ele><time>2026-03-28T15:00:15.223Z</time></trkpt><trkpt lat="44.4466888" lon="11.599384"><ele>40.333333333333336</ele><time>2026-03-28T15:00:16.226Z</time></trkpt><trkpt lat="44.4468778" lon="11.5994281"><ele>40.0</ele><time>2026-03-28T15:00:17.216Z</time></trkpt><trkpt lat="44.4470624" lon="11.5994622"><ele>40.0</ele><time>2026-03-28T15:00:18.212Z</time></trkpt><trkpt lat="44.4472464" lon="11.5994833"><ele>40.0</ele><time>2026-03-28T15:00:19.229Z</time></trkpt><trkpt lat="44.4474279" lon="11.5995141"><ele>40.0</ele><time>2026-03-28T15:00:20.225Z</time></trkpt><trkpt lat="44.4475713" lon="11.5995565"><ele>40.0</ele><time>2026-03-28T15:00:21.223Z</time></trkpt><trkpt lat="44.4477517" lon="11.5996111"><ele>40.0</ele><time>2026-03-28T15:00:22.217Z</time></trkpt><trkpt lat="44.4479473" lon="11.5996645"><ele>40.0</ele><time>2026-03-28T15:00:23.227Z</time></trkpt><trkpt lat="44.4481428" lon="11.5997106"><ele>40.0</ele><time>2026-03-28T15:00:24.222Z</time></trkpt><trkpt lat="44.4483639" lon="11.5997614"><ele>40.0</ele><time>2026-03-28T15:00:25.24Z</time></trkpt><trkpt lat="44.4485748" lon="11.5998171"><ele>40.0</ele><time>2026-03-28T15:00:26.237Z</time></trkpt><trkpt lat="44.4487792" lon="11.5998701"><ele>39.333333333333336</ele><time>2026-03-28T15:00:27.246Z</time></trkpt><trkpt lat="44.4489802" lon="11.599904"><ele>38.666666666666664</ele><time>2026-03-28T15:00:28.214Z</time></trkpt><trkpt lat="44.4491859" lon="11.5999383"><ele>38.0</ele><time>2026-03-28T15:00:29.235Z</time></trkpt><trkpt lat="44.4493813" lon="11.5999618"><ele>38.0</ele><time>2026-03-28T15:00:30.231Z</time></trkpt><trkpt lat="44.4495971" lon="11.5999518"><ele>38.0</ele><time>2026-03-28T15:00:31.219Z</time></trkpt><trkpt lat="44.4498041" lon="11.5999479"><ele>38.0</ele><time>2026-03-28T15:00:32.216Z</time></trkpt><trkpt lat="44.4500011" lon="11.5999396"><ele>38.0</ele><time>2026-03-28T15:00:33.216Z</time></trkpt><trkpt lat="44.45019" lon="11.5999442"><ele>38.0</ele><time>2026-03-28T15:00:34.226Z</time></trkpt><trkpt lat="44.4503727" lon="11.5999657"><ele>38.0</ele><time>2026-03-28T15:00:35.235Z</time></trkpt><trkpt lat="44.4505747" lon="11.6000145"><ele>38.0</ele><time>2026-03-28T15:00:36.241Z</time></trkpt><trkpt lat="44.4507412" lon="11.6001438"><ele>38.0</ele><time>2026-03-28T15:00:37.231Z</time></trkpt><trkpt lat="44.4509022" lon="11.6003078"><ele>38.0</ele><time>2026-03-28T15:00:38.225Z</time></trkpt><trkpt lat="44.4510641" lon="11.6004642"><ele>37.666666666666664</ele><time>2026-03-28T15:00:39.236Z</time></trkpt><trkpt lat="44.4512363" lon="11.6006078"><ele>37.333333333333336</ele><time>2026-03-28T15:00:40.216Z</time></trkpt><trkpt lat="44.4514137" lon="11.6007628"><ele>37.0</ele><time>2026-03-28T15:00:41.242Z</time></trkpt><trkpt lat="44.451583" lon="11.6009153"><ele>37.0</ele><time>2026-03-28T15:00:42.225Z</time></trkpt><trkpt lat="44.4517606" lon="11.6010703"><ele>37.0</ele><time>2026-03-28T15:00:43.236Z</time></trkpt><trkpt lat="44.4519342" lon="11.6012203"><ele>37.0</ele><time>2026-03-28T15:00:44.218Z</time></trkpt><trkpt lat="44.4521169" lon="11.6013733"><ele>37.0</ele><time>2026-03-28T15:00:45.225Z</time></trkpt><trkpt lat="44.4522949" lon="11.6015292"><ele>37.0</ele><time>2026-03-28T15:00:46.22Z</time></trkpt><trkpt lat="44.452479" lon="11.6016888"><ele>37.0</ele><time>2026-03-28T15:00:47.24Z</time></trkpt><trkpt lat="44.4526572" lon="11.6018348"><ele>37.0</ele><time>2026-03-28T15:00:48.231Z</time></trkpt><trkpt lat="44.4528273" lon="11.6019721"><ele>37.0</ele><time>2026-03-28T15:00:49.229Z</time></trkpt><trkpt lat="44.4529732" lon="11.602074"><ele>37.0</ele><time>2026-03-28T15:00:50.237Z</time></trkpt><trkpt lat="44.4531471" lon="11.6021296"><ele>36.333333333333336</ele><time>2026-03-28T15:00:51.232Z</time></trkpt><trkpt lat="44.4533345" lon="11.6021555"><ele>35.666666666666664</ele><time>2026-03-28T15:00:52.222Z</time></trkpt><trkpt lat="44.4535266" lon="11.6022115"><ele>35.0</ele><time>2026-03-28T15:00:53.234Z</time></trkpt><trkpt lat="44.4537086" lon="11.6022597"><ele>35.0</ele><time>2026-03-28T15:00:54.218Z</time></trkpt><trkpt lat="44.4538921" lon="11.6023145"><ele>35.0</ele><time>2026-03-28T15:00:55.22Z</time></trkpt><trkpt lat="44.454069" lon="11.6023729"><ele>35.0</ele><time>2026-03-28T15:00:56.213Z</time></trkpt><trkpt lat="44.4542509" lon="11.602432"><ele>35.0</ele><time>2026-03-28T15:00:57.241Z</time></trkpt><trkpt lat="44.4544207" lon="11.602489"><ele>35.0</ele><time>2026-03-28T15:00:58.223Z</time></trkpt><trkpt lat="44.454592" lon="11.6025432"><ele>35.0</ele><time>2026-03-28T15:00:59.239Z</time></trkpt><trkpt lat="44.4547586" lon="11.6025913"><ele>34.666666666666664</ele><time>2026-03-28T15:01:00.23Z</time></trkpt><trkpt lat="44.4549298" lon="11.6026386"><ele>34.333333333333336</ele><time>2026-03-28T15:01:01.246Z</time></trkpt><trkpt lat="44.4550915" lon="11.6026832"><ele>34.0</ele><time>2026-03-28T15:01:02.213Z</time></trkpt><trkpt lat="44.4552636" lon="11.6027269"><ele>34.0</ele><time>2026-03-28T15:01:03.231Z</time></trkpt><trkpt lat="44.4554275" lon="11.6027679"><ele>34.0</ele><time>2026-03-28T15:01:04.227Z</time></trkpt><trkpt lat="44.4555803" lon="11.6028073"><ele>34.0</ele><time>2026-03-28T15:01:05.233Z</time></trkpt><trkpt lat="44.4557293" lon="11.6028472"><ele>34.4</ele><time>2026-03-28T15:01:06.239Z</time></trkpt><trkpt lat="44.4558271" lon="11.6028997"><ele>34.8</ele><time>2026-03-28T15:01:07.229Z</time></trkpt><trkpt lat="44.4559321" lon="11.6029543"><ele>35.2</ele><time>2026-03-28T15:01:08.237Z</time></trkpt><trkpt lat="44.4559724" lon="11.603034"><ele>35.6</ele><time>2026-03-28T15:01:09.228Z</time></trkpt><trkpt lat="44.4560449" lon="11.6031362"><ele>36.0</ele><time>2026-03-28T15:01:10.225Z</time></trkpt><trkpt lat="44.4561787" lon="11.6033147"><ele>35.5</ele><time>2026-03-28T15:01:11.219Z</time></trkpt><trkpt lat="44.4563461" lon="11.6035123"><ele>35.0</ele><time>2026-03-28T15:01:12.234Z</time></trkpt><trkpt lat="44.4565538" lon="11.6036895"><ele>35.0</ele><time>2026-03-28T15:01:13.213Z</time></trkpt><trkpt lat="44.4567445" lon="11.6038767"><ele>35.0</ele><time>2026-03-28T15:01:14.23Z</time></trkpt><trkpt lat="44.4569438" lon="11.6040822"><ele>35.0</ele><time>2026-03-28T15:01:15.227Z</time></trkpt><trkpt lat="44.4571747" lon="11.6043099"><ele>35.0</ele><time>2026-03-28T15:01:16.235Z</time></trkpt><trkpt lat="44.4574132" lon="11.6045398"><ele>35.0</ele><time>2026-03-28T15:01:17.234Z</time></trkpt><trkpt lat="44.4575996" lon="11.6047331"><ele>35.0</ele><time>2026-03-28T15:01:18.239Z</time></trkpt><trkpt lat="44.457782" lon="11.60492"><ele>35.0</ele><time>2026-03-28T15:01:19.226Z</time></trkpt><trkpt lat="44.4575044" lon="11.6047882"><ele>35.0</ele><time>2026-03-28T15:01:20.228Z</time></trkpt><trkpt lat="44.4576384" lon="11.6049454"><ele>35.0</ele><time>2026-03-28T15:01:21.222Z</time></trkpt><trkpt lat="44.457777" lon="11.605101"><ele>35.0</ele><time>2026-03-28T15:01:22.231Z</time></trkpt><trkpt lat="44.4579214" lon="11.6052354"><ele>35.0</ele><time>2026-03-28T15:01:23.225Z</time></trkpt><trkpt lat="44.458077" lon="11.6053563"><ele>34.666666666666664</ele><time>2026-03-28T15:01:24.239Z</time></trkpt><trkpt lat="44.4582423" lon="11.6054644"><ele>34.333333333333336</ele><time>2026-03-28T15:01:25.238Z</time></trkpt><trkpt lat="44.4584015" lon="11.605567"><ele>34.0</ele><time>2026-03-28T15:01:26.229Z</time></trkpt><trkpt lat="44.4585631" lon="11.6056786"><ele>34.0</ele><time>2026-03-28T15:01:27.219Z</time></trkpt><trkpt lat="44.4587356" lon="11.6058022"><ele>34.0</ele><time>2026-03-28T15:01:28.24Z</time></trkpt><trkpt lat="44.4588976" lon="11.60592"><ele>34.0</ele><time>2026-03-28T15:01:29.231Z</time></trkpt><trkpt lat="44.4590666" lon="11.6060374"><ele>33.66666666666667</ele><time>2026-03-28T15:01:30.239Z</time></trkpt><trkpt lat="44.45923" lon="11.6061542"><ele>33.333333333333336</ele><time>2026-03-28T15:01:31.224Z</time></trkpt><trkpt lat="44.4594007" lon="11.6062729"><ele>33.0</ele><time>2026-03-28T15:01:32.229Z</time></trkpt><trkpt lat="44.4595625" lon="11.6064001"><ele>33.333333333333336</ele><time>2026-03-28T15:01:33.228Z</time></trkpt><trkpt lat="44.4597338" lon="11.6065295"><ele>33.66666666666667</ele><time>2026-03-28T15:01:34.234Z</time></trkpt><trkpt lat="44.4599068" lon="11.606647"><ele>34.0</ele><time>2026-03-28T15:01:35.247Z</time></trkpt><trkpt lat="44.460083" lon="11.6067759"><ele>34.0</ele><time>2026-03-28T15:01:36.232Z</time></trkpt><trkpt lat="44.4602639" lon="11.6068949"><ele>34.0</ele><time>2026-03-28T15:01:37.245Z</time></trkpt><trkpt lat="44.4604415" lon="11.6070202"><ele>34.0</ele><time>2026-03-28T15:01:38.226Z</time></trkpt><trkpt lat="44.4605356" lon="11.6070688"><ele>33.66666666666667</ele><time>2026-03-28T15:01:39.22Z</time></trkpt><trkpt lat="44.460716" lon="11.6071998"><ele>33.333333333333336</ele><time>2026-03-28T15:01:40.243Z</time></trkpt><trkpt lat="44.4608982" lon="11.6073268"><ele>33.0</ele><time>2026-03-28T15:01:41.223Z</time></trkpt><trkpt lat="44.4610893" lon="11.6074641"><ele>33.0</ele><time>2026-03-28T15:01:42.225Z</time></trkpt><trkpt lat="44.4612732" lon="11.6076049"><ele>33.0</ele><time>2026-03-28T15:01:43.222Z</time></trkpt><trkpt lat="44.4614406" lon="11.6077408"><ele>33.0</ele><time>2026-03-28T15:01:44.214Z</time></trkpt><trkpt lat="44.4615575" lon="11.6078454"><ele>32.333333333333336</ele><time>2026-03-28T15:01:45.229Z</time></trkpt><trkpt lat="44.461698" lon="11.607959"><ele>31.666666666666668</ele><time>2026-03-28T15:01:46.221Z</time></trkpt><trkpt lat="44.4618429" lon="11.6080805"><ele>31.0</ele><time>2026-03-28T15:01:47.23Z</time></trkpt><trkpt lat="44.4619931" lon="11.6082036"><ele>31.0</ele><time>2026-03-28T15:01:48.236Z</time></trkpt><trkpt lat="44.4621448" lon="11.6083296"><ele>31.0</ele><time>2026-03-28T15:01:49.25Z</time></trkpt><trkpt lat="44.4622914" lon="11.6084511"><ele>31.0</ele><time>2026-03-28T15:01:50.223Z</time></trkpt><trkpt lat="44.4624471" lon="11.6085796"><ele>31.333333333333336</ele><time>2026-03-28T15:01:51.217Z</time></trkpt><trkpt lat="44.4626046" lon="11.6087062"><ele>31.666666666666664</ele><time>2026-03-28T15:01:52.224Z</time></trkpt><trkpt lat="44.4627602" lon="11.6088397"><ele>32.0</ele><time>2026-03-28T15:01:53.235Z</time></trkpt><trkpt lat="44.4629158" lon="11.608974"><ele>32.33333333333333</ele><time>2026-03-28T15:01:54.229Z</time></trkpt><trkpt lat="44.4630758" lon="11.6091021"><ele>32.666666666666664</ele><time>2026-03-28T15:01:55.222Z</time></trkpt><trkpt lat="44.463239" lon="11.6092287"><ele>33.0</ele><time>2026-03-28T15:01:56.234Z</time></trkpt><trkpt lat="44.4634088" lon="11.6093688"><ele>33.0</ele><time>2026-03-28T15:01:57.236Z</time></trkpt><trkpt lat="44.4635912" lon="11.6095217"><ele>33.0</ele><time>2026-03-28T15:01:58.256Z</time></trkpt><trkpt lat="44.4637825" lon="11.6096753"><ele>33.0</ele><time>2026-03-28T15:01:59.224Z</time></trkpt><trkpt lat="44.4639935" lon="11.6098531"><ele>32.5</ele><time>2026-03-28T15:02:00.24Z</time></trkpt><trkpt lat="44.464194" lon="11.6100157"><ele>32.0</ele><time>2026-03-28T15:02:01.215Z</time></trkpt><trkpt lat="44.464385" lon="11.6101844"><ele>32.0</ele><time>2026-03-28T15:02:02.234Z</time></trkpt><trkpt lat="44.4645605" lon="11.6103042"><ele>32.0</ele><time>2026-03-28T15:02:03.226Z</time></trkpt><trkpt lat="44.4647477" lon="11.6104422"><ele>32.0</ele><time>2026-03-28T15:02:04.23Z</time></trkpt><trkpt lat="44.4649133" lon="11.6105531"><ele>32.0</ele><time>2026-03-28T15:02:05.225Z</time></trkpt><trkpt lat="44.4650614" lon="11.6106602"><ele>32.0</ele><time>2026-03-28T15:02:06.215Z</time></trkpt><trkpt lat="44.4651707" lon="11.6107377"><ele>32.0</ele><time>2026-03-28T15:02:07.218Z</time></trkpt><trkpt lat="44.4652999" lon="11.6108341"><ele>32.0</ele><time>2026-03-28T15:02:08.242Z</time></trkpt><trkpt lat="44.465406" lon="11.6109177"><ele>31.666666666666664</ele><time>2026-03-28T15:02:09.222Z</time></trkpt><trkpt lat="44.4655315" lon="11.6110166"><ele>31.333333333333336</ele><time>2026-03-28T15:02:10.233Z</time></trkpt><trkpt lat="44.4656667" lon="11.6111188"><ele>31.0</ele><time>2026-03-28T15:02:11.237Z</time></trkpt><trkpt lat="44.4658045" lon="11.6112224"><ele>31.0</ele><time>2026-03-28T15:02:12.227Z</time></trkpt><trkpt lat="44.4659394" lon="11.6113381"><ele>31.0</ele><time>2026-03-28T15:02:13.22Z</time></trkpt><trkpt lat="44.4660799" lon="11.6114677"><ele>31.0</ele><time>2026-03-28T15:02:14.264Z</time></trkpt><trkpt lat="44.466208" lon="11.6115998"><ele>30.666666666666668</ele><time>2026-03-28T15:02:15.243Z</time></trkpt><trkpt lat="44.4663427" lon="11.6117227"><ele>30.333333333333336</ele><time>2026-03-28T15:02:16.228Z</time></trkpt><trkpt lat="44.4664869" lon="11.6118372"><ele>30.0</ele><time>2026-03-28T15:02:17.246Z</time></trkpt><trkpt lat="44.4666306" lon="11.611947"><ele>30.0</ele><time>2026-03-28T15:02:18.232Z</time></trkpt><trkpt lat="44.4667828" lon="11.6120545"><ele>30.0</ele><time>2026-03-28T15:02:19.22Z</time></trkpt><trkpt lat="44.4669495" lon="11.6121653"><ele>30.0</ele><time>2026-03-28T15:02:20.238Z</time></trkpt><trkpt lat="44.4671189" lon="11.6122818"><ele>29.333333333333336</ele><time>2026-03-28T15:02:21.234Z</time></trkpt><trkpt lat="44.4673012" lon="11.6124084"><ele>28.666666666666668</ele><time>2026-03-28T15:02:22.252Z</time></trkpt><trkpt lat="44.4674717" lon="11.6125343"><ele>28.0</ele><time>2026-03-28T15:02:23.224Z</time></trkpt><trkpt lat="44.4676547" lon="11.6126714"><ele>28.0</ele><time>2026-03-28T15:02:24.225Z</time></trkpt><trkpt lat="44.4678368" lon="11.6128141"><ele>28.0</ele><time>2026-03-28T15:02:25.216Z</time></trkpt><trkpt lat="44.4680289" lon="11.6129693"><ele>28.0</ele><time>2026-03-28T15:02:26.239Z</time></trkpt><trkpt lat="44.4682129" lon="11.6131149"><ele>28.333333333333336</ele><time>2026-03-28T15:02:27.225Z</time></trkpt><trkpt lat="44.4683974" lon="11.6132568"><ele>28.666666666666664</ele><time>2026-03-28T15:02:28.22Z</time></trkpt><trkpt lat="44.4685788" lon="11.6133943"><ele>29.0</ele><time>2026-03-28T15:02:29.232Z</time></trkpt><trkpt lat="44.4687437" lon="11.6135264"><ele>29.0</ele><time>2026-03-28T15:02:30.228Z</time></trkpt><trkpt lat="44.4688927" lon="11.6136454"><ele>29.0</ele><time>2026-03-28T15:02:31.227Z</time></trkpt><trkpt lat="44.4690243" lon="11.6137458"><ele>29.0</ele><time>2026-03-28T15:02:32.231Z</time></trkpt><trkpt lat="44.469143" lon="11.613836"><ele>28.75</ele><time>2026-03-28T15:02:33.216Z</time></trkpt><trkpt lat="44.4692589" lon="11.6139245"><ele>28.5</ele><time>2026-03-28T15:02:34.221Z</time></trkpt><trkpt lat="44.4693696" lon="11.6140107"><ele>28.25</ele><time>2026-03-28T15:02:35.215Z</time></trkpt><trkpt lat="44.4694878" lon="11.6141"><ele>28.0</ele><time>2026-03-28T15:02:36.23Z</time></trkpt><trkpt lat="44.4696078" lon="11.6141929"><ele>27.75</ele><time>2026-03-28T15:02:37.245Z</time></trkpt><trkpt lat="44.4697307" lon="11.6142873"><ele>27.5</ele><time>2026-03-28T15:02:38.24Z</time></trkpt><trkpt lat="44.4698601" lon="11.6143813"><ele>27.25</ele><time>2026-03-28T15:02:39.228Z</time></trkpt><trkpt lat="44.4699881" lon="11.6144636"><ele>27.0</ele><time>2026-03-28T15:02:40.231Z</time></trkpt><trkpt lat="44.4700959" lon="11.6145548"><ele>26.75</ele><time>2026-03-28T15:02:41.221Z</time></trkpt><trkpt lat="44.4702152" lon="11.6146461"><ele>26.5</ele><time>2026-03-28T15:02:42.233Z</time></trkpt><trkpt lat="44.47033" lon="11.6147359"><ele>26.25</ele><time>2026-03-28T15:02:43.226Z</time></trkpt><trkpt lat="44.4704446" lon="11.6148279"><ele>26.0</ele><time>2026-03-28T15:02:44.237Z</time></trkpt><trkpt lat="44.4705532" lon="11.614916"><ele>26.0</ele><time>2026-03-28T15:02:45.228Z</time></trkpt><trkpt lat="44.4706624" lon="11.6150038"><ele>26.0</ele><time>2026-03-28T15:02:46.229Z</time></trkpt><trkpt lat="44.4707633" lon="11.6150828"><ele>26.0</ele><time>2026-03-28T15:02:47.231Z</time></trkpt><trkpt lat="44.4708506" lon="11.6151468"><ele>26.0</ele><time>2026-03-28T15:02:48.24Z</time></trkpt><trkpt lat="44.4709237" lon="11.6152003"><ele>26.0</ele><time>2026-03-28T15:02:49.231Z</time></trkpt><trkpt lat="44.4709958" lon="11.6152484"><ele>25.999999999999996</ele><time>2026-03-28T15:02:50.238Z</time></trkpt><trkpt lat="44.471068" lon="11.6152826"><ele>26.0</ele><time>2026-03-28T15:02:51.23Z</time></trkpt><trkpt lat="44.4711483" lon="11.6153034"><ele>26.0</ele><time>2026-03-28T15:02:52.233Z</time></trkpt><trkpt lat="44.4712372" lon="11.6153183"><ele>26.0</ele><time>2026-03-28T15:02:53.23Z</time></trkpt><trkpt lat="44.4713399" lon="11.615346"><ele>25.999999999999996</ele><time>2026-03-28T15:02:54.229Z</time></trkpt><trkpt lat="44.4714257" lon="11.6153607"><ele>26.0</ele><time>2026-03-28T15:02:55.227Z</time></trkpt><trkpt lat="44.4715207" lon="11.6152757"><ele>26.0</ele><time>2026-03-28T15:02:57.231Z</time></trkpt><trkpt lat="44.4716067" lon="11.6152328"><ele>26.0</ele><time>2026-03-28T15:02:59.217Z</time></trkpt><trkpt lat="44.4716881" lon="11.6152665"><ele>26.0</ele><time>2026-03-28T15:03:02.24Z</time></trkpt><trkpt lat="44.4717208" lon="11.6153984"><ele>26.0</ele><time>2026-03-28T15:03:04.233Z</time></trkpt><trkpt lat="44.4717647" lon="11.6154911"><ele>26.0</ele><time>2026-03-28T15:03:06.248Z</time></trkpt><trkpt lat="44.4717094" lon="11.6160082"><ele>26.0</ele><time>2026-03-28T15:03:07.227Z</time></trkpt><trkpt lat="44.4716629" lon="11.6161273"><ele>26.0</ele><time>2026-03-28T15:03:08.234Z</time></trkpt><trkpt lat="44.4716076" lon="11.6162464"><ele>26.0</ele><time>2026-03-28T15:03:09.228Z</time></trkpt><trkpt lat="44.4715507" lon="11.6163801"><ele>26.0</ele><time>2026-03-28T15:03:10.226Z</time></trkpt><trkpt lat="44.471495" lon="11.6165269"><ele>26.0</ele><time>2026-03-28T15:03:11.225Z</time></trkpt><trkpt lat="44.4714423" lon="11.6166794"><ele>26.0</ele><time>2026-03-28T15:03:12.244Z</time></trkpt><trkpt lat="44.4713903" lon="11.6168312"><ele>26.0</ele><time>2026-03-28T15:03:13.235Z</time></trkpt><trkpt lat="44.4713345" lon="11.6169926"><ele>26.0</ele><time>2026-03-28T15:03:14.238Z</time></trkpt><trkpt lat="44.4712846" lon="11.6171532"><ele>26.0</ele><time>2026-03-28T15:03:15.229Z</time></trkpt><trkpt lat="44.4712343" lon="11.617313"><ele>26.6</ele><time>2026-03-28T15:03:16.272Z</time></trkpt><trkpt lat="44.4711879" lon="11.617453"><ele>27.200000000000003</ele><time>2026-03-28T15:03:17.236Z</time></trkpt><trkpt lat="44.471145" lon="11.6175901"><ele>27.799999999999997</ele><time>2026-03-28T15:03:18.236Z</time></trkpt><trkpt lat="44.4711036" lon="11.6177191"><ele>28.4</ele><time>2026-03-28T15:03:19.23Z</time></trkpt><trkpt lat="44.4710647" lon="11.6178349"><ele>29.0</ele><time>2026-03-28T15:03:20.246Z</time></trkpt><trkpt lat="44.4710331" lon="11.6179311"><ele>29.0</ele><time>2026-03-28T15:03:21.238Z</time></trkpt><trkpt lat="44.4709879" lon="11.6180857"><ele>29.0</ele><time>2026-03-28T15:03:23.219Z</time></trkpt><trkpt lat="44.4709706" lon="11.6181746"><ele>29.0</ele><time>2026-03-28T15:03:24.228Z</time></trkpt><trkpt lat="44.4709591" lon="11.6183485"><ele>29.0</ele><time>2026-03-28T15:03:26.243Z</time></trkpt><trkpt lat="44.4709972" lon="11.6184358"><ele>29.0</ele><time>2026-03-28T15:03:27.24Z</time></trkpt><trkpt lat="44.4710878" lon="11.6184688"><ele>29.0</ele><time>2026-03-28T15:03:28.226Z</time></trkpt><trkpt lat="44.4711846" lon="11.6185273"><ele>29.0</ele><time>2026-03-28T15:03:29.227Z</time></trkpt><trkpt lat="44.4712973" lon="11.6186005"><ele>29.0</ele><time>2026-03-28T15:03:30.247Z</time></trkpt><trkpt lat="44.471409" lon="11.6186771"><ele>29.0</ele><time>2026-03-28T15:03:31.223Z</time></trkpt><trkpt lat="44.4715096" lon="11.6187688"><ele>28.75</ele><time>2026-03-28T15:03:32.244Z</time></trkpt><trkpt lat="44.4716121" lon="11.6188555"><ele>28.5</ele><time>2026-03-28T15:03:33.214Z</time></trkpt><trkpt lat="44.4717201" lon="11.6189588"><ele>28.25</ele><time>2026-03-28T15:03:34.239Z</time></trkpt><trkpt lat="44.4718348" lon="11.6190509"><ele>28.0</ele><time>2026-03-28T15:03:35.224Z</time></trkpt><trkpt lat="44.4719614" lon="11.6191543"><ele>28.0</ele><time>2026-03-28T15:03:36.229Z</time></trkpt><trkpt lat="44.4720835" lon="11.6192631"><ele>28.0</ele><time>2026-03-28T15:03:37.223Z</time></trkpt><trkpt lat="44.4722111" lon="11.619377"><ele>28.0</ele><time>2026-03-28T15:03:38.247Z</time></trkpt><trkpt lat="44.4723377" lon="11.6194936"><ele>28.0</ele><time>2026-03-28T15:03:39.237Z</time></trkpt><trkpt lat="44.4724708" lon="11.6196157"><ele>28.333333333333336</ele><time>2026-03-28T15:03:40.256Z</time></trkpt><trkpt lat="44.4726031" lon="11.6197395"><ele>28.666666666666664</ele><time>2026-03-28T15:03:41.229Z</time></trkpt><trkpt lat="44.4727475" lon="11.6198691"><ele>29.0</ele><time>2026-03-28T15:03:42.244Z</time></trkpt><trkpt lat="44.4728823" lon="11.6199788"><ele>29.0</ele><time>2026-03-28T15:03:43.232Z</time></trkpt><trkpt lat="44.473014" lon="11.6200893"><ele>29.0</ele><time>2026-03-28T15:03:44.232Z</time></trkpt><trkpt lat="44.473137" lon="11.6201887"><ele>29.0</ele><time>2026-03-28T15:03:45.225Z</time></trkpt><trkpt lat="44.4732441" lon="11.6202931"><ele>29.0</ele><time>2026-03-28T15:03:46.253Z</time></trkpt><trkpt lat="44.4733337" lon="11.6204209"><ele>28.5</ele><time>2026-03-28T15:03:47.262Z</time></trkpt><trkpt lat="44.4734036" lon="11.6205746"><ele>28.0</ele><time>2026-03-28T15:03:48.228Z</time></trkpt><trkpt lat="44.4734743" lon="11.6207548"><ele>27.5</ele><time>2026-03-28T15:03:49.237Z</time></trkpt><trkpt lat="44.4735442" lon="11.620968"><ele>27.0</ele><time>2026-03-28T15:03:50.226Z</time></trkpt><trkpt lat="44.4736206" lon="11.6211635"><ele>27.0</ele><time>2026-03-28T15:03:51.236Z</time></trkpt><trkpt lat="44.473706" lon="11.6213406"><ele>27.0</ele><time>2026-03-28T15:03:52.231Z</time></trkpt><trkpt lat="44.4738013" lon="11.6215065"><ele>27.0</ele><time>2026-03-28T15:03:53.225Z</time></trkpt><trkpt lat="44.4739095" lon="11.621664"><ele>27.0</ele><time>2026-03-28T15:03:54.231Z</time></trkpt><trkpt lat="44.4740151" lon="11.6218119"><ele>27.0</ele><time>2026-03-28T15:03:55.228Z</time></trkpt><trkpt lat="44.4741193" lon="11.6219656"><ele>27.0</ele><time>2026-03-28T15:03:56.225Z</time></trkpt><trkpt lat="44.4742334" lon="11.6221287"><ele>27.0</ele><time>2026-03-28T15:03:57.231Z</time></trkpt><trkpt lat="44.4743503" lon="11.6222873"><ele>27.0</ele><time>2026-03-28T15:03:58.225Z</time></trkpt><trkpt lat="44.4744672" lon="11.6224406"><ele>27.0</ele><time>2026-03-28T15:03:59.227Z</time></trkpt><trkpt lat="44.4745788" lon="11.622587"><ele>26.666666666666664</ele><time>2026-03-28T15:04:00.244Z</time></trkpt><trkpt lat="44.4746928" lon="11.6227259"><ele>26.333333333333332</ele><time>2026-03-28T15:04:01.247Z</time></trkpt><trkpt lat="44.474815" lon="11.6228644"><ele>26.0</ele><time>2026-03-28T15:04:02.247Z</time></trkpt><trkpt lat="44.4749351" lon="11.6229876"><ele>26.0</ele><time>2026-03-28T15:04:03.218Z</time></trkpt><trkpt lat="44.4750645" lon="11.623107"><ele>26.0</ele><time>2026-03-28T15:04:04.228Z</time></trkpt><trkpt lat="44.4751937" lon="11.6232215"><ele>26.0</ele><time>2026-03-28T15:04:05.224Z</time></trkpt><trkpt lat="44.4753201" lon="11.6233327"><ele>25.75</ele><time>2026-03-28T15:04:06.251Z</time></trkpt><trkpt lat="44.4754376" lon="11.6234243"><ele>25.5</ele><time>2026-03-28T15:04:07.231Z</time></trkpt><trkpt lat="44.4755476" lon="11.6235067"><ele>25.25</ele><time>2026-03-28T15:04:08.223Z</time></trkpt><trkpt lat="44.4756419" lon="11.6235855"><ele>25.0</ele><time>2026-03-28T15:04:09.215Z</time></trkpt><trkpt lat="44.4757222" lon="11.6236537"><ele>25.0</ele><time>2026-03-28T15:04:10.226Z</time></trkpt><trkpt lat="44.4757801" lon="11.623715"><ele>25.0</ele><time>2026-03-28T15:04:11.231Z</time></trkpt><trkpt lat="44.4758224" lon="11.6237806"><ele>25.0</ele><time>2026-03-28T15:04:12.232Z</time></trkpt><trkpt lat="44.4758083" lon="11.6239536"><ele>25.0</ele><time>2026-03-28T15:04:14.24Z</time></trkpt><trkpt lat="44.4757635" lon="11.6240703"><ele>25.0</ele><time>2026-03-28T15:04:15.239Z</time></trkpt><trkpt lat="44.4756987" lon="11.6242087"><ele>25.0</ele><time>2026-03-28T15:04:16.231Z</time></trkpt><trkpt lat="44.4756339" lon="11.6243717"><ele>25.0</ele><time>2026-03-28T15:04:17.232Z</time></trkpt><trkpt lat="44.4755721" lon="11.6245502"><ele>25.0</ele><time>2026-03-28T15:04:18.228Z</time></trkpt><trkpt lat="44.4755054" lon="11.6247485"><ele>25.0</ele><time>2026-03-28T15:04:19.235Z</time></trkpt><trkpt lat="44.4754295" lon="11.6249575"><ele>25.0</ele><time>2026-03-28T15:04:20.224Z</time></trkpt><trkpt lat="44.4753531" lon="11.625183"><ele>25.0</ele><time>2026-03-28T15:04:21.257Z</time></trkpt><trkpt lat="44.4752797" lon="11.6254096"><ele>25.0</ele><time>2026-03-28T15:04:22.249Z</time></trkpt><trkpt lat="44.4752072" lon="11.6256398"><ele>25.0</ele><time>2026-03-28T15:04:23.239Z</time></trkpt><trkpt lat="44.4751323" lon="11.6258726"><ele>25.0</ele><time>2026-03-28T15:04:24.235Z</time></trkpt><trkpt lat="44.4750564" lon="11.626103"><ele>25.0</ele><time>2026-03-28T15:04:25.229Z</time></trkpt><trkpt lat="44.4749858" lon="11.6263269"><ele>24.333333333333336</ele><time>2026-03-28T15:04:26.225Z</time></trkpt><trkpt lat="44.4749172" lon="11.6265459"><ele>23.666666666666668</ele><time>2026-03-28T15:04:27.227Z</time></trkpt><trkpt lat="44.4748473" lon="11.6267517"><ele>23.0</ele><time>2026-03-28T15:04:28.247Z</time></trkpt><trkpt lat="44.4747839" lon="11.6269384"><ele>23.0</ele><time>2026-03-28T15:04:29.215Z</time></trkpt><trkpt lat="44.4747185" lon="11.6271136"><ele>23.0</ele><time>2026-03-28T15:04:30.223Z</time></trkpt><trkpt lat="44.4746594" lon="11.6272765"><ele>23.0</ele><time>2026-03-28T15:04:31.225Z</time></trkpt><trkpt lat="44.4746025" lon="11.6274285"><ele>23.0</ele><time>2026-03-28T15:04:32.24Z</time></trkpt><trkpt lat="44.4745594" lon="11.6275441"><ele>23.0</ele><time>2026-03-28T15:04:33.233Z</time></trkpt><trkpt lat="44.4745266" lon="11.6276289"><ele>23.0</ele><time>2026-03-28T15:04:34.241Z</time></trkpt><trkpt lat="44.4744854" lon="11.6277358"><ele>23.0</ele><time>2026-03-28T15:04:36.225Z</time></trkpt><trkpt lat="44.4744497" lon="11.6278127"><ele>23.0</ele><time>2026-03-28T15:04:38.231Z</time></trkpt><trkpt lat="44.4744461" lon="11.6279908"><ele>23.0</ele><time>2026-03-28T15:04:40.229Z</time></trkpt><trkpt lat="44.474491" lon="11.628072"><ele>23.0</ele><time>2026-03-28T15:04:41.242Z</time></trkpt><trkpt lat="44.4745709" lon="11.6281433"><ele>24.0</ele><time>2026-03-28T15:04:42.217Z</time></trkpt><trkpt lat="44.474677" lon="11.6281943"><ele>25.0</ele><time>2026-03-28T15:04:43.225Z</time></trkpt><trkpt lat="44.4747977" lon="11.6282533"><ele>26.0</ele><time>2026-03-28T15:04:44.227Z</time></trkpt><trkpt lat="44.4749141" lon="11.6283216"><ele>27.0</ele><time>2026-03-28T15:04:45.25Z</time></trkpt><trkpt lat="44.4750314" lon="11.6283983"><ele>27.0</ele><time>2026-03-28T15:04:46.25Z</time></trkpt><trkpt lat="44.4751593" lon="11.6284897"><ele>27.0</ele><time>2026-03-28T15:04:47.359Z</time></trkpt><trkpt lat="44.4753659" lon="11.6286527"><ele>27.0</ele><time>2026-03-28T15:04:49.244Z</time></trkpt><trkpt lat="44.4754627" lon="11.6287289"><ele>26.8</ele><time>2026-03-28T15:04:50.227Z</time></trkpt><trkpt lat="44.4755512" lon="11.6287969"><ele>26.6</ele><time>2026-03-28T15:04:51.247Z</time></trkpt><trkpt lat="44.4756216" lon="11.6288482"><ele>26.400000000000002</ele><time>2026-03-28T15:04:52.226Z</time></trkpt><trkpt lat="44.4756748" lon="11.6288964"><ele>26.200000000000003</ele><time>2026-03-28T15:04:53.225Z</time></trkpt><trkpt lat="44.475711" lon="11.6290242"><ele>26.0</ele><time>2026-03-28T15:04:55.236Z</time></trkpt><trkpt lat="44.4756504" lon="11.6292092"><ele>26.0</ele><time>2026-03-28T15:04:57.228Z</time></trkpt><trkpt lat="44.4756003" lon="11.6293257"><ele>26.0</ele><time>2026-03-28T15:04:58.23Z</time></trkpt><trkpt lat="44.4755687" lon="11.6294584"><ele>26.0</ele><time>2026-03-28T15:04:59.228Z</time></trkpt><trkpt lat="44.4755331" lon="11.6295892"><ele>26.0</ele><time>2026-03-28T15:05:00.229Z</time></trkpt><trkpt lat="44.4754982" lon="11.6297198"><ele>26.0</ele><time>2026-03-28T15:05:01.226Z</time></trkpt><trkpt lat="44.4754768" lon="11.6298296"><ele>25.999999999999996</ele><time>2026-03-28T15:05:02.244Z</time></trkpt><trkpt lat="44.4754464" lon="11.6299387"><ele>26.0</ele><time>2026-03-28T15:05:03.243Z</time></trkpt><trkpt lat="44.4754246" lon="11.6300441"><ele>26.0</ele><time>2026-03-28T15:05:04.234Z</time></trkpt><trkpt lat="44.4754825" lon="11.6301406"><ele>26.0</ele><time>2026-03-28T15:05:06.23Z</time></trkpt><trkpt lat="44.4755497" lon="11.6302206"><ele>25.999999999999996</ele><time>2026-03-28T15:05:07.238Z</time></trkpt><trkpt lat="44.4756387" lon="11.6302902"><ele>26.0</ele><time>2026-03-28T15:05:08.231Z</time></trkpt><trkpt lat="44.4757227" lon="11.6303583"><ele>26.200000000000003</ele><time>2026-03-28T15:05:09.224Z</time></trkpt><trkpt lat="44.4758124" lon="11.6304295"><ele>26.400000000000002</ele><time>2026-03-28T15:05:10.23Z</time></trkpt><trkpt lat="44.4758979" lon="11.6305074"><ele>26.6</ele><time>2026-03-28T15:05:11.237Z</time></trkpt><trkpt lat="44.4759836" lon="11.6305861"><ele>26.8</ele><time>2026-03-28T15:05:12.237Z</time></trkpt><trkpt lat="44.476066" lon="11.6306654"><ele>27.0</ele><time>2026-03-28T15:05:13.235Z</time></trkpt><trkpt lat="44.4761492" lon="11.6307487"><ele>27.0</ele><time>2026-03-28T15:05:14.236Z</time></trkpt><trkpt lat="44.4762484" lon="11.6308335"><ele>27.0</ele><time>2026-03-28T15:05:15.581Z</time></trkpt><trkpt lat="44.4763839" lon="11.6309571"><ele>27.0</ele><time>2026-03-28T15:05:17.304Z</time></trkpt><trkpt lat="44.4764437" lon="11.631006"><ele>27.0</ele><time>2026-03-28T15:05:18.28Z</time></trkpt><trkpt lat="44.4765534" lon="11.630999"><ele>28.0</ele><time>2026-03-28T15:05:20.291Z</time></trkpt><trkpt lat="44.4766251" lon="11.6308603"><ele>28.0</ele><time>2026-03-28T15:05:22.281Z</time></trkpt><trkpt lat="44.4766611" lon="11.6307809"><ele>28.0</ele><time>2026-03-28T15:05:23.312Z</time></trkpt><trkpt lat="44.4767349" lon="11.6306386"><ele>28.0</ele><time>2026-03-28T15:05:25.238Z</time></trkpt><trkpt lat="44.4767921" lon="11.6305307"><ele>28.0</ele><time>2026-03-28T15:05:27.243Z</time></trkpt><trkpt lat="44.4767921" lon="11.6305307"><ele>28.0</ele><time>2026-03-28T15:05:27.243Z</time></trkpt></trkseg></trk></gpx>